<?xml version="1.0" encoding="UTF-8" standalone="no" ?>
<gpx xmlns="http://www.topografix.com/GPX/1/1" xmlns:xsi="http://www.w3.org/2001/XMLSchema-instance" xsi:schemaLocation="http://www.topografix.com/GPX/1/1 http://www.topografix.com/GPX/1/1/gpx.xsd" version="1.1" creator="VisuGPX - https://www.visugpx.com">
  <metadata>
    <name>Pic Saint-Loup - Combe de Mortiès</name>
    <desc><![CDATA[2019-01 - Pic Saint-Loup - Combe de Mortiès

[b]album[/b] : [url]https://photos.app.goo.gl/soZoW32w8EhNJBQW7[/url]
[img]https://blogger.googleusercontent.com/img/b/R29vZ2xl/AVvXsEgfeFg6bDAPjXOdPPISYxhbPiL865QhPX3TU1fgXLONLtpiVWw-nkKXJKdD1JqxPtm4IWYaMgH9vCufATHhPWBEniPa18rhmxLS5i3W0gQ04hmbFVAAuY3MAV42PDyu-vpG7lLy8lx2JMFvmd26ELkXstVPaMq0D8T2VBs5iF-3fEb1illiaZUuGBTuQ4Yo/s600/2019-01-28%20-%20Pic%20Saint-Loup.JPG[/img]
[b]Idées de randonnées dans la même région[/b]
Parcours : [url]https://www.visugpx.com/membres/24856/causses/garrigues-montpellier/[/url]
Photos : [url]https://jcvertygo.blogspot.com/p/nord-montpellier.html[/url]]]></desc>
  </metadata>
  <trk>
    <name><![CDATA[2019-01-28_13h56m45_pic St loup]]></name>
    <extensions>
      <line xmlns="http://www.topografix.com/GPX/gpx_style/0/2">
        <color>0000FF</color>
        <width>4</width>
      </line>
    </extensions>
    <trkseg>
      <trkpt lat="43.77044" lon="3.79221">
        <ele>304</ele>
        <time>2019-01-28T09:40:50Z</time>
      </trkpt>
      <trkpt lat="43.77045" lon="3.79221">
        <ele>304</ele>
        <time>2019-01-28T09:40:50Z</time>
      </trkpt>
      <trkpt lat="43.77049" lon="3.79217">
        <ele>304</ele>
        <time>2019-01-28T09:40:50Z</time>
      </trkpt>
      <trkpt lat="43.77052" lon="3.79213">
        <ele>304</ele>
        <time>2019-01-28T09:40:50Z</time>
      </trkpt>
      <trkpt lat="43.77055" lon="3.79209">
        <ele>304</ele>
        <time>2019-01-28T09:41:18Z</time>
      </trkpt>
      <trkpt lat="43.7706" lon="3.79202">
        <ele>305</ele>
        <time>2019-01-28T09:41:18Z</time>
      </trkpt>
      <trkpt lat="43.77062" lon="3.79197">
        <ele>305</ele>
        <time>2019-01-28T09:41:18Z</time>
      </trkpt>
      <trkpt lat="43.77066" lon="3.79193">
        <ele>305</ele>
        <time>2019-01-28T09:41:18Z</time>
      </trkpt>
      <trkpt lat="43.77067" lon="3.79187">
        <ele>305</ele>
        <time>2019-01-28T09:41:34Z</time>
      </trkpt>
      <trkpt lat="43.77067" lon="3.79184">
        <ele>305</ele>
        <time>2019-01-28T09:41:34Z</time>
      </trkpt>
      <trkpt lat="43.77069" lon="3.79181">
        <ele>305</ele>
        <time>2019-01-28T09:41:34Z</time>
      </trkpt>
      <trkpt lat="43.77073" lon="3.79178">
        <ele>305</ele>
        <time>2019-01-28T09:41:34Z</time>
      </trkpt>
      <trkpt lat="43.77075" lon="3.79174">
        <ele>305</ele>
        <time>2019-01-28T09:41:54Z</time>
      </trkpt>
      <trkpt lat="43.77078" lon="3.7917">
        <ele>305</ele>
        <time>2019-01-28T09:41:54Z</time>
      </trkpt>
      <trkpt lat="43.7708" lon="3.7917">
        <ele>305</ele>
        <time>2019-01-28T09:41:54Z</time>
      </trkpt>
      <trkpt lat="43.77082" lon="3.7917">
        <ele>305</ele>
        <time>2019-01-28T09:41:54Z</time>
      </trkpt>
      <trkpt lat="43.77084" lon="3.79168">
        <ele>305</ele>
        <time>2019-01-28T09:41:54Z</time>
      </trkpt>
      <trkpt lat="43.77089" lon="3.79165">
        <ele>305</ele>
        <time>2019-01-28T09:42:10Z</time>
      </trkpt>
      <trkpt lat="43.77092" lon="3.79164">
        <ele>305</ele>
        <time>2019-01-28T09:42:10Z</time>
      </trkpt>
      <trkpt lat="43.77094" lon="3.79161">
        <ele>305</ele>
        <time>2019-01-28T09:42:10Z</time>
      </trkpt>
      <trkpt lat="43.77097" lon="3.79156">
        <ele>305</ele>
        <time>2019-01-28T09:42:10Z</time>
      </trkpt>
      <trkpt lat="43.77098" lon="3.79152">
        <ele>305</ele>
        <time>2019-01-28T09:42:26Z</time>
      </trkpt>
      <trkpt lat="43.771" lon="3.79147">
        <ele>305</ele>
        <time>2019-01-28T09:42:26Z</time>
      </trkpt>
      <trkpt lat="43.77102" lon="3.79142">
        <ele>305</ele>
        <time>2019-01-28T09:42:26Z</time>
      </trkpt>
      <trkpt lat="43.77102" lon="3.79138">
        <ele>305</ele>
        <time>2019-01-28T09:42:26Z</time>
      </trkpt>
      <trkpt lat="43.77106" lon="3.7913">
        <ele>305</ele>
        <time>2019-01-28T09:42:50Z</time>
      </trkpt>
      <trkpt lat="43.77108" lon="3.79129">
        <ele>305</ele>
        <time>2019-01-28T09:42:50Z</time>
      </trkpt>
      <trkpt lat="43.7711" lon="3.79129">
        <ele>305</ele>
        <time>2019-01-28T09:42:50Z</time>
      </trkpt>
      <trkpt lat="43.77112" lon="3.79128">
        <ele>305</ele>
        <time>2019-01-28T09:42:50Z</time>
      </trkpt>
      <trkpt lat="43.77114" lon="3.79128">
        <ele>305</ele>
        <time>2019-01-28T09:42:50Z</time>
      </trkpt>
      <trkpt lat="43.77118" lon="3.79128">
        <ele>305</ele>
        <time>2019-01-28T09:43:06Z</time>
      </trkpt>
      <trkpt lat="43.77121" lon="3.79131">
        <ele>305</ele>
        <time>2019-01-28T09:43:06Z</time>
      </trkpt>
      <trkpt lat="43.77124" lon="3.79133">
        <ele>305</ele>
        <time>2019-01-28T09:43:06Z</time>
      </trkpt>
      <trkpt lat="43.77127" lon="3.79136">
        <ele>321</ele>
        <time>2019-01-28T09:43:06Z</time>
      </trkpt>
      <trkpt lat="43.77131" lon="3.79138">
        <ele>321</ele>
        <time>2019-01-28T09:43:26Z</time>
      </trkpt>
      <trkpt lat="43.77134" lon="3.79138">
        <ele>321</ele>
        <time>2019-01-28T09:43:26Z</time>
      </trkpt>
      <trkpt lat="43.77136" lon="3.79141">
        <ele>321</ele>
        <time>2019-01-28T09:43:26Z</time>
      </trkpt>
      <trkpt lat="43.77139" lon="3.79143">
        <ele>321</ele>
        <time>2019-01-28T09:43:26Z</time>
      </trkpt>
      <trkpt lat="43.77142" lon="3.79145">
        <ele>321</ele>
        <time>2019-01-28T09:43:26Z</time>
      </trkpt>
      <trkpt lat="43.77152" lon="3.79149">
        <ele>321</ele>
        <time>2019-01-28T09:43:58Z</time>
      </trkpt>
      <trkpt lat="43.77153" lon="3.79149">
        <ele>321</ele>
        <time>2019-01-28T09:43:58Z</time>
      </trkpt>
      <trkpt lat="43.77154" lon="3.7915">
        <ele>321</ele>
        <time>2019-01-28T09:43:58Z</time>
      </trkpt>
      <trkpt lat="43.77155" lon="3.7915">
        <ele>321</ele>
        <time>2019-01-28T09:43:58Z</time>
      </trkpt>
      <trkpt lat="43.7716" lon="3.79152">
        <ele>321</ele>
        <time>2019-01-28T09:43:58Z</time>
      </trkpt>
      <trkpt lat="43.77162" lon="3.79154">
        <ele>321</ele>
        <time>2019-01-28T09:44:58Z</time>
      </trkpt>
      <trkpt lat="43.77163" lon="3.79154">
        <ele>321</ele>
        <time>2019-01-28T09:44:58Z</time>
      </trkpt>
      <trkpt lat="43.77165" lon="3.79156">
        <ele>321</ele>
        <time>2019-01-28T09:44:58Z</time>
      </trkpt>
      <trkpt lat="43.77165" lon="3.79157">
        <ele>321</ele>
        <time>2019-01-28T09:44:58Z</time>
      </trkpt>
      <trkpt lat="43.77169" lon="3.7916">
        <ele>321</ele>
        <time>2019-01-28T09:44:58Z</time>
      </trkpt>
      <trkpt lat="43.77173" lon="3.79163">
        <ele>321</ele>
        <time>2019-01-28T09:45:22Z</time>
      </trkpt>
      <trkpt lat="43.77174" lon="3.79165">
        <ele>321</ele>
        <time>2019-01-28T09:45:22Z</time>
      </trkpt>
      <trkpt lat="43.77175" lon="3.79169">
        <ele>321</ele>
        <time>2019-01-28T09:45:22Z</time>
      </trkpt>
      <trkpt lat="43.77175" lon="3.79173">
        <ele>321</ele>
        <time>2019-01-28T09:45:22Z</time>
      </trkpt>
      <trkpt lat="43.77178" lon="3.79176">
        <ele>321</ele>
        <time>2019-01-28T09:45:22Z</time>
      </trkpt>
      <trkpt lat="43.77181" lon="3.7918">
        <ele>321</ele>
        <time>2019-01-28T09:45:38Z</time>
      </trkpt>
      <trkpt lat="43.77184" lon="3.79185">
        <ele>321</ele>
        <time>2019-01-28T09:45:38Z</time>
      </trkpt>
      <trkpt lat="43.77185" lon="3.7919">
        <ele>321</ele>
        <time>2019-01-28T09:45:38Z</time>
      </trkpt>
      <trkpt lat="43.77186" lon="3.79193">
        <ele>321</ele>
        <time>2019-01-28T09:45:38Z</time>
      </trkpt>
      <trkpt lat="43.77189" lon="3.79198">
        <ele>321</ele>
        <time>2019-01-28T09:45:58Z</time>
      </trkpt>
      <trkpt lat="43.77189" lon="3.79202">
        <ele>321</ele>
        <time>2019-01-28T09:45:58Z</time>
      </trkpt>
      <trkpt lat="43.77189" lon="3.79205">
        <ele>321</ele>
        <time>2019-01-28T09:45:58Z</time>
      </trkpt>
      <trkpt lat="43.77187" lon="3.79209">
        <ele>324</ele>
        <time>2019-01-28T09:45:58Z</time>
      </trkpt>
      <trkpt lat="43.77188" lon="3.79212">
        <ele>324</ele>
        <time>2019-01-28T09:45:58Z</time>
      </trkpt>
      <trkpt lat="43.77189" lon="3.79217">
        <ele>324</ele>
        <time>2019-01-28T09:46:22Z</time>
      </trkpt>
      <trkpt lat="43.7719" lon="3.79219">
        <ele>324</ele>
        <time>2019-01-28T09:46:22Z</time>
      </trkpt>
      <trkpt lat="43.77194" lon="3.79226">
        <ele>324</ele>
        <time>2019-01-28T09:46:22Z</time>
      </trkpt>
      <trkpt lat="43.77197" lon="3.79229">
        <ele>324</ele>
        <time>2019-01-28T09:46:22Z</time>
      </trkpt>
      <trkpt lat="43.77201" lon="3.79235">
        <ele>324</ele>
        <time>2019-01-28T09:46:58Z</time>
      </trkpt>
      <trkpt lat="43.77202" lon="3.79235">
        <ele>324</ele>
        <time>2019-01-28T09:46:58Z</time>
      </trkpt>
      <trkpt lat="43.77205" lon="3.79235">
        <ele>324</ele>
        <time>2019-01-28T09:46:58Z</time>
      </trkpt>
      <trkpt lat="43.77206" lon="3.79235">
        <ele>324</ele>
        <time>2019-01-28T09:46:58Z</time>
      </trkpt>
      <trkpt lat="43.77211" lon="3.79232">
        <ele>345</ele>
        <time>2019-01-28T09:46:58Z</time>
      </trkpt>
      <trkpt lat="43.77223" lon="3.79225">
        <ele>345</ele>
        <time>2019-01-28T09:47:22Z</time>
      </trkpt>
      <trkpt lat="43.77224" lon="3.79225">
        <ele>345</ele>
        <time>2019-01-28T09:47:22Z</time>
      </trkpt>
      <trkpt lat="43.77228" lon="3.79224">
        <ele>345</ele>
        <time>2019-01-28T09:47:22Z</time>
      </trkpt>
      <trkpt lat="43.77228" lon="3.79223">
        <ele>345</ele>
        <time>2019-01-28T09:47:22Z</time>
      </trkpt>
      <trkpt lat="43.77229" lon="3.79225">
        <ele>345</ele>
        <time>2019-01-28T09:47:22Z</time>
      </trkpt>
      <trkpt lat="43.7723" lon="3.79225">
        <ele>345</ele>
        <time>2019-01-28T09:47:46Z</time>
      </trkpt>
      <trkpt lat="43.77235" lon="3.79227">
        <ele>345</ele>
        <time>2019-01-28T09:47:46Z</time>
      </trkpt>
      <trkpt lat="43.77238" lon="3.79228">
        <ele>345</ele>
        <time>2019-01-28T09:47:46Z</time>
      </trkpt>
      <trkpt lat="43.77243" lon="3.79232">
        <ele>345</ele>
        <time>2019-01-28T09:47:46Z</time>
      </trkpt>
      <trkpt lat="43.77248" lon="3.79238">
        <ele>345</ele>
        <time>2019-01-28T09:48:14Z</time>
      </trkpt>
      <trkpt lat="43.77248" lon="3.79239">
        <ele>345</ele>
        <time>2019-01-28T09:48:14Z</time>
      </trkpt>
      <trkpt lat="43.7725" lon="3.79242">
        <ele>345</ele>
        <time>2019-01-28T09:48:14Z</time>
      </trkpt>
      <trkpt lat="43.77251" lon="3.79245">
        <ele>345</ele>
        <time>2019-01-28T09:48:14Z</time>
      </trkpt>
      <trkpt lat="43.77253" lon="3.7925">
        <ele>345</ele>
        <time>2019-01-28T09:48:14Z</time>
      </trkpt>
      <trkpt lat="43.77255" lon="3.79254">
        <ele>345</ele>
        <time>2019-01-28T09:48:38Z</time>
      </trkpt>
      <trkpt lat="43.77257" lon="3.79256">
        <ele>345</ele>
        <time>2019-01-28T09:48:38Z</time>
      </trkpt>
      <trkpt lat="43.77258" lon="3.79256">
        <ele>345</ele>
        <time>2019-01-28T09:48:38Z</time>
      </trkpt>
      <trkpt lat="43.7726" lon="3.79258">
        <ele>345</ele>
        <time>2019-01-28T09:48:38Z</time>
      </trkpt>
      <trkpt lat="43.77263" lon="3.7926">
        <ele>345</ele>
        <time>2019-01-28T09:48:38Z</time>
      </trkpt>
      <trkpt lat="43.77266" lon="3.79263">
        <ele>345</ele>
        <time>2019-01-28T09:49:02Z</time>
      </trkpt>
      <trkpt lat="43.77272" lon="3.7927">
        <ele>345</ele>
        <time>2019-01-28T09:49:02Z</time>
      </trkpt>
      <trkpt lat="43.77274" lon="3.79272">
        <ele>345</ele>
        <time>2019-01-28T09:49:02Z</time>
      </trkpt>
      <trkpt lat="43.77275" lon="3.79273">
        <ele>345</ele>
        <time>2019-01-28T09:49:02Z</time>
      </trkpt>
      <trkpt lat="43.77276" lon="3.79276">
        <ele>345</ele>
        <time>2019-01-28T09:49:18Z</time>
      </trkpt>
      <trkpt lat="43.77278" lon="3.7928">
        <ele>345</ele>
        <time>2019-01-28T09:49:18Z</time>
      </trkpt>
      <trkpt lat="43.77281" lon="3.79283">
        <ele>345</ele>
        <time>2019-01-28T09:49:18Z</time>
      </trkpt>
      <trkpt lat="43.77284" lon="3.79285">
        <ele>345</ele>
        <time>2019-01-28T09:49:18Z</time>
      </trkpt>
      <trkpt lat="43.77287" lon="3.79294">
        <ele>353</ele>
        <time>2019-01-28T09:49:54Z</time>
      </trkpt>
      <trkpt lat="43.77288" lon="3.79297">
        <ele>353</ele>
        <time>2019-01-28T09:49:54Z</time>
      </trkpt>
      <trkpt lat="43.77289" lon="3.79299">
        <ele>353</ele>
        <time>2019-01-28T09:49:54Z</time>
      </trkpt>
      <trkpt lat="43.77289" lon="3.79302">
        <ele>353</ele>
        <time>2019-01-28T09:49:54Z</time>
      </trkpt>
      <trkpt lat="43.77292" lon="3.79307">
        <ele>371</ele>
        <time>2019-01-28T09:49:54Z</time>
      </trkpt>
      <trkpt lat="43.77292" lon="3.79315">
        <ele>371</ele>
        <time>2019-01-28T09:50:34Z</time>
      </trkpt>
      <trkpt lat="43.77291" lon="3.79319">
        <ele>353</ele>
        <time>2019-01-28T09:50:34Z</time>
      </trkpt>
      <trkpt lat="43.77292" lon="3.79325">
        <ele>371</ele>
        <time>2019-01-28T09:50:34Z</time>
      </trkpt>
      <trkpt lat="43.77293" lon="3.79327">
        <ele>371</ele>
        <time>2019-01-28T09:50:34Z</time>
      </trkpt>
      <trkpt lat="43.77295" lon="3.79335">
        <ele>371</ele>
        <time>2019-01-28T09:50:34Z</time>
      </trkpt>
      <trkpt lat="43.77295" lon="3.7934">
        <ele>371</ele>
        <time>2019-01-28T09:51:10Z</time>
      </trkpt>
      <trkpt lat="43.77295" lon="3.7934">
        <ele>371</ele>
        <time>2019-01-28T09:51:10Z</time>
      </trkpt>
      <trkpt lat="43.77297" lon="3.79348">
        <ele>371</ele>
        <time>2019-01-28T09:51:10Z</time>
      </trkpt>
      <trkpt lat="43.77298" lon="3.79355">
        <ele>371</ele>
        <time>2019-01-28T09:51:10Z</time>
      </trkpt>
      <trkpt lat="43.77297" lon="3.79365">
        <ele>371</ele>
        <time>2019-01-28T09:51:30Z</time>
      </trkpt>
      <trkpt lat="43.77297" lon="3.7937">
        <ele>371</ele>
        <time>2019-01-28T09:51:30Z</time>
      </trkpt>
      <trkpt lat="43.77297" lon="3.79371">
        <ele>371</ele>
        <time>2019-01-28T09:51:30Z</time>
      </trkpt>
      <trkpt lat="43.77299" lon="3.79373">
        <ele>371</ele>
        <time>2019-01-28T09:51:30Z</time>
      </trkpt>
      <trkpt lat="43.77299" lon="3.79378">
        <ele>382</ele>
        <time>2019-01-28T09:51:30Z</time>
      </trkpt>
      <trkpt lat="43.773" lon="3.79384">
        <ele>382</ele>
        <time>2019-01-28T09:51:50Z</time>
      </trkpt>
      <trkpt lat="43.77302" lon="3.7939">
        <ele>382</ele>
        <time>2019-01-28T09:51:50Z</time>
      </trkpt>
      <trkpt lat="43.773" lon="3.79392">
        <ele>382</ele>
        <time>2019-01-28T09:51:50Z</time>
      </trkpt>
      <trkpt lat="43.77302" lon="3.79395">
        <ele>382</ele>
        <time>2019-01-28T09:51:50Z</time>
      </trkpt>
      <trkpt lat="43.77303" lon="3.79398">
        <ele>382</ele>
        <time>2019-01-28T09:51:50Z</time>
      </trkpt>
      <trkpt lat="43.77304" lon="3.79402">
        <ele>382</ele>
        <time>2019-01-28T09:52:14Z</time>
      </trkpt>
      <trkpt lat="43.77304" lon="3.79405">
        <ele>382</ele>
        <time>2019-01-28T09:52:14Z</time>
      </trkpt>
      <trkpt lat="43.77305" lon="3.79406">
        <ele>382</ele>
        <time>2019-01-28T09:52:14Z</time>
      </trkpt>
      <trkpt lat="43.77307" lon="3.79413">
        <ele>382</ele>
        <time>2019-01-28T09:52:14Z</time>
      </trkpt>
      <trkpt lat="43.7731" lon="3.79417">
        <ele>382</ele>
        <time>2019-01-28T09:52:14Z</time>
      </trkpt>
      <trkpt lat="43.77313" lon="3.7942">
        <ele>382</ele>
        <time>2019-01-28T09:52:30Z</time>
      </trkpt>
      <trkpt lat="43.77317" lon="3.79422">
        <ele>382</ele>
        <time>2019-01-28T09:52:30Z</time>
      </trkpt>
      <trkpt lat="43.7732" lon="3.79421">
        <ele>382</ele>
        <time>2019-01-28T09:52:30Z</time>
      </trkpt>
      <trkpt lat="43.77323" lon="3.79421">
        <ele>382</ele>
        <time>2019-01-28T09:52:30Z</time>
      </trkpt>
      <trkpt lat="43.77323" lon="3.79421">
        <ele>382</ele>
        <time>2019-01-28T09:52:50Z</time>
      </trkpt>
      <trkpt lat="43.77326" lon="3.79422">
        <ele>382</ele>
        <time>2019-01-28T09:52:50Z</time>
      </trkpt>
      <trkpt lat="43.77326" lon="3.79423">
        <ele>382</ele>
        <time>2019-01-28T09:52:50Z</time>
      </trkpt>
      <trkpt lat="43.77328" lon="3.79426">
        <ele>382</ele>
        <time>2019-01-28T09:52:50Z</time>
      </trkpt>
      <trkpt lat="43.7733" lon="3.7943">
        <ele>382</ele>
        <time>2019-01-28T09:52:50Z</time>
      </trkpt>
      <trkpt lat="43.77331" lon="3.79432">
        <ele>382</ele>
        <time>2019-01-28T09:53:06Z</time>
      </trkpt>
      <trkpt lat="43.77333" lon="3.79434">
        <ele>382</ele>
        <time>2019-01-28T09:53:06Z</time>
      </trkpt>
      <trkpt lat="43.77336" lon="3.79437">
        <ele>382</ele>
        <time>2019-01-28T09:53:06Z</time>
      </trkpt>
      <trkpt lat="43.77338" lon="3.79442">
        <ele>382</ele>
        <time>2019-01-28T09:53:06Z</time>
      </trkpt>
      <trkpt lat="43.77339" lon="3.79444">
        <ele>382</ele>
        <time>2019-01-28T09:53:22Z</time>
      </trkpt>
      <trkpt lat="43.77341" lon="3.79447">
        <ele>382</ele>
        <time>2019-01-28T09:53:22Z</time>
      </trkpt>
      <trkpt lat="43.77343" lon="3.79452">
        <ele>382</ele>
        <time>2019-01-28T09:53:22Z</time>
      </trkpt>
      <trkpt lat="43.77344" lon="3.79456">
        <ele>382</ele>
        <time>2019-01-28T09:53:22Z</time>
      </trkpt>
      <trkpt lat="43.77345" lon="3.79459">
        <ele>386</ele>
        <time>2019-01-28T09:53:42Z</time>
      </trkpt>
      <trkpt lat="43.77347" lon="3.79463">
        <ele>386</ele>
        <time>2019-01-28T09:53:42Z</time>
      </trkpt>
      <trkpt lat="43.77348" lon="3.79467">
        <ele>386</ele>
        <time>2019-01-28T09:53:42Z</time>
      </trkpt>
      <trkpt lat="43.77349" lon="3.79468">
        <ele>386</ele>
        <time>2019-01-28T09:53:42Z</time>
      </trkpt>
      <trkpt lat="43.7735" lon="3.79473">
        <ele>386</ele>
        <time>2019-01-28T09:53:42Z</time>
      </trkpt>
      <trkpt lat="43.77351" lon="3.79477">
        <ele>386</ele>
        <time>2019-01-28T09:54:02Z</time>
      </trkpt>
      <trkpt lat="43.77351" lon="3.79478">
        <ele>386</ele>
        <time>2019-01-28T09:54:02Z</time>
      </trkpt>
      <trkpt lat="43.77351" lon="3.7948">
        <ele>386</ele>
        <time>2019-01-28T09:54:02Z</time>
      </trkpt>
      <trkpt lat="43.77352" lon="3.79486">
        <ele>386</ele>
        <time>2019-01-28T09:54:02Z</time>
      </trkpt>
      <trkpt lat="43.77355" lon="3.79491">
        <ele>386</ele>
        <time>2019-01-28T09:54:02Z</time>
      </trkpt>
      <trkpt lat="43.77358" lon="3.79495">
        <ele>386</ele>
        <time>2019-01-28T09:54:18Z</time>
      </trkpt>
      <trkpt lat="43.7736" lon="3.79501">
        <ele>386</ele>
        <time>2019-01-28T09:54:18Z</time>
      </trkpt>
      <trkpt lat="43.77363" lon="3.79506">
        <ele>386</ele>
        <time>2019-01-28T09:54:18Z</time>
      </trkpt>
      <trkpt lat="43.77365" lon="3.79511">
        <ele>386</ele>
        <time>2019-01-28T09:54:18Z</time>
      </trkpt>
      <trkpt lat="43.77367" lon="3.79515">
        <ele>386</ele>
        <time>2019-01-28T09:54:34Z</time>
      </trkpt>
      <trkpt lat="43.77369" lon="3.79519">
        <ele>386</ele>
        <time>2019-01-28T09:54:34Z</time>
      </trkpt>
      <trkpt lat="43.77371" lon="3.79524">
        <ele>386</ele>
        <time>2019-01-28T09:54:34Z</time>
      </trkpt>
      <trkpt lat="43.77374" lon="3.79526">
        <ele>386</ele>
        <time>2019-01-28T09:54:34Z</time>
      </trkpt>
      <trkpt lat="43.77374" lon="3.79531">
        <ele>386</ele>
        <time>2019-01-28T09:54:50Z</time>
      </trkpt>
      <trkpt lat="43.77376" lon="3.79535">
        <ele>394</ele>
        <time>2019-01-28T09:54:50Z</time>
      </trkpt>
      <trkpt lat="43.77377" lon="3.79542">
        <ele>402</ele>
        <time>2019-01-28T09:54:50Z</time>
      </trkpt>
      <trkpt lat="43.77378" lon="3.79546">
        <ele>402</ele>
        <time>2019-01-28T09:54:50Z</time>
      </trkpt>
      <trkpt lat="43.77381" lon="3.79549">
        <ele>402</ele>
        <time>2019-01-28T09:55:06Z</time>
      </trkpt>
      <trkpt lat="43.77385" lon="3.79552">
        <ele>402</ele>
        <time>2019-01-28T09:55:06Z</time>
      </trkpt>
      <trkpt lat="43.77388" lon="3.79556">
        <ele>402</ele>
        <time>2019-01-28T09:55:06Z</time>
      </trkpt>
      <trkpt lat="43.77389" lon="3.7956">
        <ele>402</ele>
        <time>2019-01-28T09:55:06Z</time>
      </trkpt>
      <trkpt lat="43.77389" lon="3.79566">
        <ele>402</ele>
        <time>2019-01-28T09:55:22Z</time>
      </trkpt>
      <trkpt lat="43.77391" lon="3.79572">
        <ele>402</ele>
        <time>2019-01-28T09:55:22Z</time>
      </trkpt>
      <trkpt lat="43.77393" lon="3.79576">
        <ele>402</ele>
        <time>2019-01-28T09:55:22Z</time>
      </trkpt>
      <trkpt lat="43.77394" lon="3.79579">
        <ele>402</ele>
        <time>2019-01-28T09:55:22Z</time>
      </trkpt>
      <trkpt lat="43.77396" lon="3.79585">
        <ele>402</ele>
        <time>2019-01-28T09:55:38Z</time>
      </trkpt>
      <trkpt lat="43.77398" lon="3.7959">
        <ele>402</ele>
        <time>2019-01-28T09:55:38Z</time>
      </trkpt>
      <trkpt lat="43.774" lon="3.79595">
        <ele>402</ele>
        <time>2019-01-28T09:55:38Z</time>
      </trkpt>
      <trkpt lat="43.77402" lon="3.79599">
        <ele>402</ele>
        <time>2019-01-28T09:55:38Z</time>
      </trkpt>
      <trkpt lat="43.77406" lon="3.79601">
        <ele>402</ele>
        <time>2019-01-28T09:55:54Z</time>
      </trkpt>
      <trkpt lat="43.77408" lon="3.79603">
        <ele>402</ele>
        <time>2019-01-28T09:55:54Z</time>
      </trkpt>
      <trkpt lat="43.7741" lon="3.79605">
        <ele>402</ele>
        <time>2019-01-28T09:55:54Z</time>
      </trkpt>
      <trkpt lat="43.77412" lon="3.7961">
        <ele>402</ele>
        <time>2019-01-28T09:55:54Z</time>
      </trkpt>
      <trkpt lat="43.77417" lon="3.79615">
        <ele>402</ele>
        <time>2019-01-28T09:56:18Z</time>
      </trkpt>
      <trkpt lat="43.77419" lon="3.79617">
        <ele>402</ele>
        <time>2019-01-28T09:56:18Z</time>
      </trkpt>
      <trkpt lat="43.77421" lon="3.7962">
        <ele>402</ele>
        <time>2019-01-28T09:56:18Z</time>
      </trkpt>
      <trkpt lat="43.77422" lon="3.7962">
        <ele>402</ele>
        <time>2019-01-28T09:56:18Z</time>
      </trkpt>
      <trkpt lat="43.77424" lon="3.79622">
        <ele>402</ele>
        <time>2019-01-28T09:56:18Z</time>
      </trkpt>
      <trkpt lat="43.77426" lon="3.79628">
        <ele>405</ele>
        <time>2019-01-28T09:56:42Z</time>
      </trkpt>
      <trkpt lat="43.77426" lon="3.79632">
        <ele>405</ele>
        <time>2019-01-28T09:56:42Z</time>
      </trkpt>
      <trkpt lat="43.77428" lon="3.79633">
        <ele>405</ele>
        <time>2019-01-28T09:56:42Z</time>
      </trkpt>
      <trkpt lat="43.77431" lon="3.79635">
        <ele>405</ele>
        <time>2019-01-28T09:56:42Z</time>
      </trkpt>
      <trkpt lat="43.77434" lon="3.79641">
        <ele>405</ele>
        <time>2019-01-28T09:56:42Z</time>
      </trkpt>
      <trkpt lat="43.77435" lon="3.79647">
        <ele>405</ele>
        <time>2019-01-28T09:57:02Z</time>
      </trkpt>
      <trkpt lat="43.77435" lon="3.79648">
        <ele>405</ele>
        <time>2019-01-28T09:57:02Z</time>
      </trkpt>
      <trkpt lat="43.77436" lon="3.79654">
        <ele>405</ele>
        <time>2019-01-28T09:57:02Z</time>
      </trkpt>
      <trkpt lat="43.77437" lon="3.79658">
        <ele>405</ele>
        <time>2019-01-28T09:57:02Z</time>
      </trkpt>
      <trkpt lat="43.77438" lon="3.79662">
        <ele>405</ele>
        <time>2019-01-28T09:57:02Z</time>
      </trkpt>
      <trkpt lat="43.77438" lon="3.79666">
        <ele>405</ele>
        <time>2019-01-28T09:57:22Z</time>
      </trkpt>
      <trkpt lat="43.77439" lon="3.7967">
        <ele>405</ele>
        <time>2019-01-28T09:57:22Z</time>
      </trkpt>
      <trkpt lat="43.7744" lon="3.79673">
        <ele>405</ele>
        <time>2019-01-28T09:57:22Z</time>
      </trkpt>
      <trkpt lat="43.77441" lon="3.79676">
        <ele>405</ele>
        <time>2019-01-28T09:57:22Z</time>
      </trkpt>
      <trkpt lat="43.77441" lon="3.79682">
        <ele>405</ele>
        <time>2019-01-28T09:57:22Z</time>
      </trkpt>
      <trkpt lat="43.77442" lon="3.79689">
        <ele>405</ele>
        <time>2019-01-28T09:57:38Z</time>
      </trkpt>
      <trkpt lat="43.77444" lon="3.79696">
        <ele>405</ele>
        <time>2019-01-28T09:57:38Z</time>
      </trkpt>
      <trkpt lat="43.77445" lon="3.79702">
        <ele>405</ele>
        <time>2019-01-28T09:57:38Z</time>
      </trkpt>
      <trkpt lat="43.77446" lon="3.79707">
        <ele>405</ele>
        <time>2019-01-28T09:57:38Z</time>
      </trkpt>
      <trkpt lat="43.77447" lon="3.79711">
        <ele>404</ele>
        <time>2019-01-28T09:57:54Z</time>
      </trkpt>
      <trkpt lat="43.77447" lon="3.79717">
        <ele>404</ele>
        <time>2019-01-28T09:57:54Z</time>
      </trkpt>
      <trkpt lat="43.77448" lon="3.79724">
        <ele>404</ele>
        <time>2019-01-28T09:57:54Z</time>
      </trkpt>
      <trkpt lat="43.77449" lon="3.79731">
        <ele>404</ele>
        <time>2019-01-28T09:57:54Z</time>
      </trkpt>
      <trkpt lat="43.77451" lon="3.79738">
        <ele>404</ele>
        <time>2019-01-28T09:58:10Z</time>
      </trkpt>
      <trkpt lat="43.7745" lon="3.79745">
        <ele>404</ele>
        <time>2019-01-28T09:58:10Z</time>
      </trkpt>
      <trkpt lat="43.77451" lon="3.79749">
        <ele>404</ele>
        <time>2019-01-28T09:58:10Z</time>
      </trkpt>
      <trkpt lat="43.77453" lon="3.79754">
        <ele>404</ele>
        <time>2019-01-28T09:58:10Z</time>
      </trkpt>
      <trkpt lat="43.77453" lon="3.7976">
        <ele>404</ele>
        <time>2019-01-28T09:58:26Z</time>
      </trkpt>
      <trkpt lat="43.77457" lon="3.79767">
        <ele>404</ele>
        <time>2019-01-28T09:58:26Z</time>
      </trkpt>
      <trkpt lat="43.77458" lon="3.79774">
        <ele>404</ele>
        <time>2019-01-28T09:58:26Z</time>
      </trkpt>
      <trkpt lat="43.7746" lon="3.79781">
        <ele>435</ele>
        <time>2019-01-28T09:58:26Z</time>
      </trkpt>
      <trkpt lat="43.77461" lon="3.79788">
        <ele>435</ele>
        <time>2019-01-28T09:58:42Z</time>
      </trkpt>
      <trkpt lat="43.77463" lon="3.79794">
        <ele>428</ele>
        <time>2019-01-28T09:58:42Z</time>
      </trkpt>
      <trkpt lat="43.77464" lon="3.798">
        <ele>428</ele>
        <time>2019-01-28T09:58:42Z</time>
      </trkpt>
      <trkpt lat="43.77465" lon="3.79805">
        <ele>428</ele>
        <time>2019-01-28T09:58:42Z</time>
      </trkpt>
      <trkpt lat="43.77466" lon="3.7981">
        <ele>428</ele>
        <time>2019-01-28T09:58:58Z</time>
      </trkpt>
      <trkpt lat="43.77469" lon="3.79815">
        <ele>428</ele>
        <time>2019-01-28T09:58:58Z</time>
      </trkpt>
      <trkpt lat="43.7747" lon="3.79821">
        <ele>428</ele>
        <time>2019-01-28T09:58:58Z</time>
      </trkpt>
      <trkpt lat="43.77473" lon="3.79827">
        <ele>428</ele>
        <time>2019-01-28T09:58:58Z</time>
      </trkpt>
      <trkpt lat="43.77475" lon="3.79833">
        <ele>428</ele>
        <time>2019-01-28T09:59:14Z</time>
      </trkpt>
      <trkpt lat="43.77478" lon="3.79839">
        <ele>428</ele>
        <time>2019-01-28T09:59:14Z</time>
      </trkpt>
      <trkpt lat="43.77479" lon="3.79846">
        <ele>428</ele>
        <time>2019-01-28T09:59:14Z</time>
      </trkpt>
      <trkpt lat="43.77482" lon="3.79852">
        <ele>428</ele>
        <time>2019-01-28T09:59:14Z</time>
      </trkpt>
      <trkpt lat="43.77485" lon="3.79858">
        <ele>428</ele>
        <time>2019-01-28T09:59:30Z</time>
      </trkpt>
      <trkpt lat="43.77488" lon="3.79863">
        <ele>428</ele>
        <time>2019-01-28T09:59:30Z</time>
      </trkpt>
      <trkpt lat="43.77491" lon="3.79868">
        <ele>428</ele>
        <time>2019-01-28T09:59:30Z</time>
      </trkpt>
      <trkpt lat="43.77494" lon="3.79872">
        <ele>428</ele>
        <time>2019-01-28T09:59:30Z</time>
      </trkpt>
      <trkpt lat="43.77496" lon="3.79878">
        <ele>417</ele>
        <time>2019-01-28T09:59:46Z</time>
      </trkpt>
      <trkpt lat="43.775" lon="3.79881">
        <ele>417</ele>
        <time>2019-01-28T09:59:46Z</time>
      </trkpt>
      <trkpt lat="43.775" lon="3.79885">
        <ele>417</ele>
        <time>2019-01-28T09:59:46Z</time>
      </trkpt>
      <trkpt lat="43.775" lon="3.79892">
        <ele>417</ele>
        <time>2019-01-28T09:59:46Z</time>
      </trkpt>
      <trkpt lat="43.775" lon="3.79898">
        <ele>417</ele>
        <time>2019-01-28T10:00:02Z</time>
      </trkpt>
      <trkpt lat="43.77501" lon="3.79905">
        <ele>417</ele>
        <time>2019-01-28T10:00:02Z</time>
      </trkpt>
      <trkpt lat="43.77504" lon="3.79909">
        <ele>417</ele>
        <time>2019-01-28T10:00:02Z</time>
      </trkpt>
      <trkpt lat="43.77506" lon="3.79915">
        <ele>417</ele>
        <time>2019-01-28T10:00:02Z</time>
      </trkpt>
      <trkpt lat="43.77507" lon="3.79922">
        <ele>417</ele>
        <time>2019-01-28T10:00:22Z</time>
      </trkpt>
      <trkpt lat="43.77506" lon="3.79926">
        <ele>417</ele>
        <time>2019-01-28T10:00:22Z</time>
      </trkpt>
      <trkpt lat="43.77506" lon="3.79931">
        <ele>417</ele>
        <time>2019-01-28T10:00:22Z</time>
      </trkpt>
      <trkpt lat="43.77505" lon="3.79934">
        <ele>417</ele>
        <time>2019-01-28T10:00:22Z</time>
      </trkpt>
      <trkpt lat="43.77505" lon="3.79939">
        <ele>417</ele>
        <time>2019-01-28T10:00:22Z</time>
      </trkpt>
      <trkpt lat="43.77505" lon="3.79946">
        <ele>417</ele>
        <time>2019-01-28T10:00:38Z</time>
      </trkpt>
      <trkpt lat="43.77505" lon="3.79948">
        <ele>417</ele>
        <time>2019-01-28T10:00:38Z</time>
      </trkpt>
      <trkpt lat="43.77506" lon="3.79954">
        <ele>417</ele>
        <time>2019-01-28T10:00:38Z</time>
      </trkpt>
      <trkpt lat="43.77507" lon="3.7996">
        <ele>416</ele>
        <time>2019-01-28T10:00:38Z</time>
      </trkpt>
      <trkpt lat="43.77509" lon="3.79967">
        <ele>416</ele>
        <time>2019-01-28T10:00:54Z</time>
      </trkpt>
      <trkpt lat="43.77512" lon="3.79973">
        <ele>416</ele>
        <time>2019-01-28T10:00:54Z</time>
      </trkpt>
      <trkpt lat="43.77511" lon="3.79981">
        <ele>416</ele>
        <time>2019-01-28T10:00:54Z</time>
      </trkpt>
      <trkpt lat="43.77512" lon="3.79987">
        <ele>416</ele>
        <time>2019-01-28T10:00:54Z</time>
      </trkpt>
      <trkpt lat="43.77512" lon="3.79994">
        <ele>416</ele>
        <time>2019-01-28T10:01:14Z</time>
      </trkpt>
      <trkpt lat="43.77512" lon="3.8">
        <ele>416</ele>
        <time>2019-01-28T10:01:14Z</time>
      </trkpt>
      <trkpt lat="43.77514" lon="3.80002">
        <ele>416</ele>
        <time>2019-01-28T10:01:14Z</time>
      </trkpt>
      <trkpt lat="43.77516" lon="3.80007">
        <ele>416</ele>
        <time>2019-01-28T10:01:14Z</time>
      </trkpt>
      <trkpt lat="43.77518" lon="3.80011">
        <ele>416</ele>
        <time>2019-01-28T10:01:34Z</time>
      </trkpt>
      <trkpt lat="43.77519" lon="3.80018">
        <ele>416</ele>
        <time>2019-01-28T10:01:34Z</time>
      </trkpt>
      <trkpt lat="43.77519" lon="3.8002">
        <ele>416</ele>
        <time>2019-01-28T10:01:34Z</time>
      </trkpt>
      <trkpt lat="43.77521" lon="3.80023">
        <ele>416</ele>
        <time>2019-01-28T10:01:34Z</time>
      </trkpt>
      <trkpt lat="43.77521" lon="3.80029">
        <ele>416</ele>
        <time>2019-01-28T10:01:34Z</time>
      </trkpt>
      <trkpt lat="43.77522" lon="3.80035">
        <ele>416</ele>
        <time>2019-01-28T10:01:50Z</time>
      </trkpt>
      <trkpt lat="43.77524" lon="3.80039">
        <ele>416</ele>
        <time>2019-01-28T10:01:50Z</time>
      </trkpt>
      <trkpt lat="43.77525" lon="3.80044">
        <ele>416</ele>
        <time>2019-01-28T10:01:50Z</time>
      </trkpt>
      <trkpt lat="43.77527" lon="3.80047">
        <ele>416</ele>
        <time>2019-01-28T10:01:50Z</time>
      </trkpt>
      <trkpt lat="43.77529" lon="3.80051">
        <ele>416</ele>
        <time>2019-01-28T10:02:10Z</time>
      </trkpt>
      <trkpt lat="43.77532" lon="3.80057">
        <ele>416</ele>
        <time>2019-01-28T10:02:10Z</time>
      </trkpt>
      <trkpt lat="43.77534" lon="3.80059">
        <ele>416</ele>
        <time>2019-01-28T10:02:10Z</time>
      </trkpt>
      <trkpt lat="43.77534" lon="3.80059">
        <ele>416</ele>
        <time>2019-01-28T10:02:10Z</time>
      </trkpt>
      <trkpt lat="43.77537" lon="3.80065">
        <ele>416</ele>
        <time>2019-01-28T10:02:10Z</time>
      </trkpt>
      <trkpt lat="43.77537" lon="3.80071">
        <ele>416</ele>
        <time>2019-01-28T10:02:26Z</time>
      </trkpt>
      <trkpt lat="43.77537" lon="3.80079">
        <ele>416</ele>
        <time>2019-01-28T10:02:26Z</time>
      </trkpt>
      <trkpt lat="43.77537" lon="3.80087">
        <ele>416</ele>
        <time>2019-01-28T10:02:26Z</time>
      </trkpt>
      <trkpt lat="43.77536" lon="3.80093">
        <ele>416</ele>
        <time>2019-01-28T10:02:26Z</time>
      </trkpt>
      <trkpt lat="43.77535" lon="3.80098">
        <ele>416</ele>
        <time>2019-01-28T10:02:46Z</time>
      </trkpt>
      <trkpt lat="43.77538" lon="3.801">
        <ele>416</ele>
        <time>2019-01-28T10:02:46Z</time>
      </trkpt>
      <trkpt lat="43.77538" lon="3.80103">
        <ele>416</ele>
        <time>2019-01-28T10:02:46Z</time>
      </trkpt>
      <trkpt lat="43.77539" lon="3.80111">
        <ele>416</ele>
        <time>2019-01-28T10:02:46Z</time>
      </trkpt>
      <trkpt lat="43.7754" lon="3.80115">
        <ele>416</ele>
        <time>2019-01-28T10:03:10Z</time>
      </trkpt>
      <trkpt lat="43.7754" lon="3.80119">
        <ele>416</ele>
        <time>2019-01-28T10:03:10Z</time>
      </trkpt>
      <trkpt lat="43.77541" lon="3.80121">
        <ele>416</ele>
        <time>2019-01-28T10:03:10Z</time>
      </trkpt>
      <trkpt lat="43.77541" lon="3.80125">
        <ele>417</ele>
        <time>2019-01-28T10:03:10Z</time>
      </trkpt>
      <trkpt lat="43.77542" lon="3.80133">
        <ele>458</ele>
        <time>2019-01-28T10:03:10Z</time>
      </trkpt>
      <trkpt lat="43.77544" lon="3.80138">
        <ele>458</ele>
        <time>2019-01-28T10:03:30Z</time>
      </trkpt>
      <trkpt lat="43.77544" lon="3.80143">
        <ele>458</ele>
        <time>2019-01-28T10:03:30Z</time>
      </trkpt>
      <trkpt lat="43.77546" lon="3.80148">
        <ele>458</ele>
        <time>2019-01-28T10:03:30Z</time>
      </trkpt>
      <trkpt lat="43.77547" lon="3.80149">
        <ele>458</ele>
        <time>2019-01-28T10:03:30Z</time>
      </trkpt>
      <trkpt lat="43.77548" lon="3.80151">
        <ele>458</ele>
        <time>2019-01-28T10:03:30Z</time>
      </trkpt>
      <trkpt lat="43.77548" lon="3.80152">
        <ele>458</ele>
        <time>2019-01-28T10:03:46Z</time>
      </trkpt>
      <trkpt lat="43.77548" lon="3.80159">
        <ele>458</ele>
        <time>2019-01-28T10:03:46Z</time>
      </trkpt>
      <trkpt lat="43.77548" lon="3.80166">
        <ele>458</ele>
        <time>2019-01-28T10:03:46Z</time>
      </trkpt>
      <trkpt lat="43.77548" lon="3.80172">
        <ele>458</ele>
        <time>2019-01-28T10:03:46Z</time>
      </trkpt>
      <trkpt lat="43.77549" lon="3.80177">
        <ele>458</ele>
        <time>2019-01-28T10:04:02Z</time>
      </trkpt>
      <trkpt lat="43.77549" lon="3.80181">
        <ele>458</ele>
        <time>2019-01-28T10:04:02Z</time>
      </trkpt>
      <trkpt lat="43.77549" lon="3.80186">
        <ele>458</ele>
        <time>2019-01-28T10:04:02Z</time>
      </trkpt>
      <trkpt lat="43.77551" lon="3.80191">
        <ele>458</ele>
        <time>2019-01-28T10:04:02Z</time>
      </trkpt>
      <trkpt lat="43.77553" lon="3.80197">
        <ele>458</ele>
        <time>2019-01-28T10:04:22Z</time>
      </trkpt>
      <trkpt lat="43.77553" lon="3.802">
        <ele>458</ele>
        <time>2019-01-28T10:04:22Z</time>
      </trkpt>
      <trkpt lat="43.77553" lon="3.80204">
        <ele>458</ele>
        <time>2019-01-28T10:04:22Z</time>
      </trkpt>
      <trkpt lat="43.77555" lon="3.80208">
        <ele>458</ele>
        <time>2019-01-28T10:04:22Z</time>
      </trkpt>
      <trkpt lat="43.77556" lon="3.80212">
        <ele>458</ele>
        <time>2019-01-28T10:04:22Z</time>
      </trkpt>
      <trkpt lat="43.77556" lon="3.80213">
        <ele>458</ele>
        <time>2019-01-28T10:04:42Z</time>
      </trkpt>
      <trkpt lat="43.77557" lon="3.80217">
        <ele>458</ele>
        <time>2019-01-28T10:04:42Z</time>
      </trkpt>
      <trkpt lat="43.77556" lon="3.80223">
        <ele>458</ele>
        <time>2019-01-28T10:04:42Z</time>
      </trkpt>
      <trkpt lat="43.77557" lon="3.80225">
        <ele>458</ele>
        <time>2019-01-28T10:04:42Z</time>
      </trkpt>
      <trkpt lat="43.77558" lon="3.8023">
        <ele>458</ele>
        <time>2019-01-28T10:04:42Z</time>
      </trkpt>
      <trkpt lat="43.77558" lon="3.80235">
        <ele>458</ele>
        <time>2019-01-28T10:04:58Z</time>
      </trkpt>
      <trkpt lat="43.77559" lon="3.80241">
        <ele>458</ele>
        <time>2019-01-28T10:04:58Z</time>
      </trkpt>
      <trkpt lat="43.77558" lon="3.80248">
        <ele>458</ele>
        <time>2019-01-28T10:04:58Z</time>
      </trkpt>
      <trkpt lat="43.77556" lon="3.8025">
        <ele>458</ele>
        <time>2019-01-28T10:04:58Z</time>
      </trkpt>
      <trkpt lat="43.77556" lon="3.80253">
        <ele>458</ele>
        <time>2019-01-28T10:05:22Z</time>
      </trkpt>
      <trkpt lat="43.77558" lon="3.80259">
        <ele>458</ele>
        <time>2019-01-28T10:05:22Z</time>
      </trkpt>
      <trkpt lat="43.77562" lon="3.80262">
        <ele>458</ele>
        <time>2019-01-28T10:05:22Z</time>
      </trkpt>
      <trkpt lat="43.77563" lon="3.80266">
        <ele>458</ele>
        <time>2019-01-28T10:05:22Z</time>
      </trkpt>
      <trkpt lat="43.77562" lon="3.80272">
        <ele>458</ele>
        <time>2019-01-28T10:05:42Z</time>
      </trkpt>
      <trkpt lat="43.77563" lon="3.80275">
        <ele>458</ele>
        <time>2019-01-28T10:05:42Z</time>
      </trkpt>
      <trkpt lat="43.77564" lon="3.80277">
        <ele>458</ele>
        <time>2019-01-28T10:05:42Z</time>
      </trkpt>
      <trkpt lat="43.77566" lon="3.80282">
        <ele>458</ele>
        <time>2019-01-28T10:05:42Z</time>
      </trkpt>
      <trkpt lat="43.77566" lon="3.80287">
        <ele>458</ele>
        <time>2019-01-28T10:05:42Z</time>
      </trkpt>
      <trkpt lat="43.77567" lon="3.80289">
        <ele>458</ele>
        <time>2019-01-28T10:05:58Z</time>
      </trkpt>
      <trkpt lat="43.77568" lon="3.80293">
        <ele>451</ele>
        <time>2019-01-28T10:05:58Z</time>
      </trkpt>
      <trkpt lat="43.77569" lon="3.80294">
        <ele>451</ele>
        <time>2019-01-28T10:05:58Z</time>
      </trkpt>
      <trkpt lat="43.77568" lon="3.80302">
        <ele>451</ele>
        <time>2019-01-28T10:05:58Z</time>
      </trkpt>
      <trkpt lat="43.7757" lon="3.80308">
        <ele>451</ele>
        <time>2019-01-28T10:06:14Z</time>
      </trkpt>
      <trkpt lat="43.7757" lon="3.8031">
        <ele>451</ele>
        <time>2019-01-28T10:06:14Z</time>
      </trkpt>
      <trkpt lat="43.7757" lon="3.80317">
        <ele>451</ele>
        <time>2019-01-28T10:06:14Z</time>
      </trkpt>
      <trkpt lat="43.7757" lon="3.80325">
        <ele>451</ele>
        <time>2019-01-28T10:06:14Z</time>
      </trkpt>
      <trkpt lat="43.77569" lon="3.8033">
        <ele>451</ele>
        <time>2019-01-28T10:06:30Z</time>
      </trkpt>
      <trkpt lat="43.7757" lon="3.80336">
        <ele>451</ele>
        <time>2019-01-28T10:06:30Z</time>
      </trkpt>
      <trkpt lat="43.77571" lon="3.80342">
        <ele>451</ele>
        <time>2019-01-28T10:06:30Z</time>
      </trkpt>
      <trkpt lat="43.7757" lon="3.80344">
        <ele>451</ele>
        <time>2019-01-28T10:06:30Z</time>
      </trkpt>
      <trkpt lat="43.7757" lon="3.80349">
        <ele>451</ele>
        <time>2019-01-28T10:06:46Z</time>
      </trkpt>
      <trkpt lat="43.77568" lon="3.80354">
        <ele>451</ele>
        <time>2019-01-28T10:06:46Z</time>
      </trkpt>
      <trkpt lat="43.77567" lon="3.8036">
        <ele>451</ele>
        <time>2019-01-28T10:06:46Z</time>
      </trkpt>
      <trkpt lat="43.77567" lon="3.80363">
        <ele>451</ele>
        <time>2019-01-28T10:06:46Z</time>
      </trkpt>
      <trkpt lat="43.77566" lon="3.80368">
        <ele>451</ele>
        <time>2019-01-28T10:07:10Z</time>
      </trkpt>
      <trkpt lat="43.77566" lon="3.80372">
        <ele>451</ele>
        <time>2019-01-28T10:07:10Z</time>
      </trkpt>
      <trkpt lat="43.77566" lon="3.80376">
        <ele>454</ele>
        <time>2019-01-28T10:07:10Z</time>
      </trkpt>
      <trkpt lat="43.77567" lon="3.80378">
        <ele>454</ele>
        <time>2019-01-28T10:07:10Z</time>
      </trkpt>
      <trkpt lat="43.77568" lon="3.8038">
        <ele>454</ele>
        <time>2019-01-28T10:07:10Z</time>
      </trkpt>
      <trkpt lat="43.77568" lon="3.80385">
        <ele>454</ele>
        <time>2019-01-28T10:07:30Z</time>
      </trkpt>
      <trkpt lat="43.77568" lon="3.80391">
        <ele>454</ele>
        <time>2019-01-28T10:07:30Z</time>
      </trkpt>
      <trkpt lat="43.77569" lon="3.80393">
        <ele>454</ele>
        <time>2019-01-28T10:07:30Z</time>
      </trkpt>
      <trkpt lat="43.77572" lon="3.80398">
        <ele>454</ele>
        <time>2019-01-28T10:07:30Z</time>
      </trkpt>
      <trkpt lat="43.77573" lon="3.80403">
        <ele>454</ele>
        <time>2019-01-28T10:07:46Z</time>
      </trkpt>
      <trkpt lat="43.77573" lon="3.80409">
        <ele>454</ele>
        <time>2019-01-28T10:07:46Z</time>
      </trkpt>
      <trkpt lat="43.77573" lon="3.80413">
        <ele>454</ele>
        <time>2019-01-28T10:07:46Z</time>
      </trkpt>
      <trkpt lat="43.77573" lon="3.80418">
        <ele>454</ele>
        <time>2019-01-28T10:07:46Z</time>
      </trkpt>
      <trkpt lat="43.77575" lon="3.80423">
        <ele>454</ele>
        <time>2019-01-28T10:08:02Z</time>
      </trkpt>
      <trkpt lat="43.77575" lon="3.8043">
        <ele>454</ele>
        <time>2019-01-28T10:08:02Z</time>
      </trkpt>
      <trkpt lat="43.77575" lon="3.80434">
        <ele>454</ele>
        <time>2019-01-28T10:08:02Z</time>
      </trkpt>
      <trkpt lat="43.77573" lon="3.80438">
        <ele>454</ele>
        <time>2019-01-28T10:08:02Z</time>
      </trkpt>
      <trkpt lat="43.77572" lon="3.80443">
        <ele>454</ele>
        <time>2019-01-28T10:08:22Z</time>
      </trkpt>
      <trkpt lat="43.77572" lon="3.80449">
        <ele>454</ele>
        <time>2019-01-28T10:08:22Z</time>
      </trkpt>
      <trkpt lat="43.77572" lon="3.8045">
        <ele>454</ele>
        <time>2019-01-28T10:08:22Z</time>
      </trkpt>
      <trkpt lat="43.77572" lon="3.80455">
        <ele>454</ele>
        <time>2019-01-28T10:08:22Z</time>
      </trkpt>
      <trkpt lat="43.7757" lon="3.80462">
        <ele>460</ele>
        <time>2019-01-28T10:08:22Z</time>
      </trkpt>
      <trkpt lat="43.77569" lon="3.80468">
        <ele>460</ele>
        <time>2019-01-28T10:08:38Z</time>
      </trkpt>
      <trkpt lat="43.7757" lon="3.80475">
        <ele>460</ele>
        <time>2019-01-28T10:08:38Z</time>
      </trkpt>
      <trkpt lat="43.77572" lon="3.8048">
        <ele>460</ele>
        <time>2019-01-28T10:08:38Z</time>
      </trkpt>
      <trkpt lat="43.77573" lon="3.80484">
        <ele>460</ele>
        <time>2019-01-28T10:08:38Z</time>
      </trkpt>
      <trkpt lat="43.77572" lon="3.80487">
        <ele>460</ele>
        <time>2019-01-28T10:08:54Z</time>
      </trkpt>
      <trkpt lat="43.77573" lon="3.80493">
        <ele>460</ele>
        <time>2019-01-28T10:08:54Z</time>
      </trkpt>
      <trkpt lat="43.77573" lon="3.805">
        <ele>460</ele>
        <time>2019-01-28T10:08:54Z</time>
      </trkpt>
      <trkpt lat="43.77573" lon="3.80504">
        <ele>460</ele>
        <time>2019-01-28T10:08:54Z</time>
      </trkpt>
      <trkpt lat="43.77574" lon="3.80509">
        <ele>460</ele>
        <time>2019-01-28T10:09:10Z</time>
      </trkpt>
      <trkpt lat="43.77572" lon="3.80516">
        <ele>460</ele>
        <time>2019-01-28T10:09:10Z</time>
      </trkpt>
      <trkpt lat="43.77573" lon="3.80521">
        <ele>460</ele>
        <time>2019-01-28T10:09:10Z</time>
      </trkpt>
      <trkpt lat="43.77574" lon="3.80527">
        <ele>460</ele>
        <time>2019-01-28T10:09:10Z</time>
      </trkpt>
      <trkpt lat="43.77576" lon="3.80534">
        <ele>460</ele>
        <time>2019-01-28T10:09:26Z</time>
      </trkpt>
      <trkpt lat="43.77575" lon="3.8054">
        <ele>460</ele>
        <time>2019-01-28T10:09:26Z</time>
      </trkpt>
      <trkpt lat="43.77576" lon="3.80544">
        <ele>458</ele>
        <time>2019-01-28T10:09:26Z</time>
      </trkpt>
      <trkpt lat="43.77579" lon="3.80547">
        <ele>458</ele>
        <time>2019-01-28T10:09:26Z</time>
      </trkpt>
      <trkpt lat="43.77578" lon="3.80552">
        <ele>458</ele>
        <time>2019-01-28T10:09:42Z</time>
      </trkpt>
      <trkpt lat="43.77581" lon="3.80554">
        <ele>458</ele>
        <time>2019-01-28T10:09:42Z</time>
      </trkpt>
      <trkpt lat="43.77585" lon="3.80556">
        <ele>458</ele>
        <time>2019-01-28T10:09:42Z</time>
      </trkpt>
      <trkpt lat="43.77585" lon="3.8056">
        <ele>458</ele>
        <time>2019-01-28T10:09:42Z</time>
      </trkpt>
      <trkpt lat="43.77584" lon="3.80564">
        <ele>458</ele>
        <time>2019-01-28T10:09:58Z</time>
      </trkpt>
      <trkpt lat="43.77585" lon="3.8057">
        <ele>458</ele>
        <time>2019-01-28T10:09:58Z</time>
      </trkpt>
      <trkpt lat="43.77584" lon="3.80577">
        <ele>458</ele>
        <time>2019-01-28T10:09:58Z</time>
      </trkpt>
      <trkpt lat="43.77582" lon="3.80584">
        <ele>458</ele>
        <time>2019-01-28T10:09:58Z</time>
      </trkpt>
      <trkpt lat="43.77582" lon="3.80592">
        <ele>458</ele>
        <time>2019-01-28T10:10:14Z</time>
      </trkpt>
      <trkpt lat="43.77582" lon="3.80598">
        <ele>458</ele>
        <time>2019-01-28T10:10:14Z</time>
      </trkpt>
      <trkpt lat="43.77583" lon="3.80603">
        <ele>458</ele>
        <time>2019-01-28T10:10:14Z</time>
      </trkpt>
      <trkpt lat="43.77584" lon="3.80609">
        <ele>458</ele>
        <time>2019-01-28T10:10:14Z</time>
      </trkpt>
      <trkpt lat="43.77585" lon="3.80615">
        <ele>458</ele>
        <time>2019-01-28T10:10:30Z</time>
      </trkpt>
      <trkpt lat="43.77585" lon="3.80621">
        <ele>458</ele>
        <time>2019-01-28T10:10:30Z</time>
      </trkpt>
      <trkpt lat="43.77585" lon="3.80627">
        <ele>457</ele>
        <time>2019-01-28T10:10:30Z</time>
      </trkpt>
      <trkpt lat="43.77587" lon="3.80634">
        <ele>457</ele>
        <time>2019-01-28T10:10:30Z</time>
      </trkpt>
      <trkpt lat="43.77588" lon="3.8064">
        <ele>457</ele>
        <time>2019-01-28T10:10:46Z</time>
      </trkpt>
      <trkpt lat="43.77589" lon="3.80647">
        <ele>457</ele>
        <time>2019-01-28T10:10:46Z</time>
      </trkpt>
      <trkpt lat="43.77589" lon="3.80653">
        <ele>457</ele>
        <time>2019-01-28T10:10:46Z</time>
      </trkpt>
      <trkpt lat="43.77591" lon="3.80659">
        <ele>457</ele>
        <time>2019-01-28T10:10:46Z</time>
      </trkpt>
      <trkpt lat="43.77592" lon="3.80664">
        <ele>457</ele>
        <time>2019-01-28T10:11:02Z</time>
      </trkpt>
      <trkpt lat="43.77592" lon="3.8067">
        <ele>457</ele>
        <time>2019-01-28T10:11:02Z</time>
      </trkpt>
      <trkpt lat="43.77591" lon="3.80675">
        <ele>457</ele>
        <time>2019-01-28T10:11:02Z</time>
      </trkpt>
      <trkpt lat="43.77591" lon="3.8068">
        <ele>457</ele>
        <time>2019-01-28T10:11:02Z</time>
      </trkpt>
      <trkpt lat="43.77592" lon="3.80687">
        <ele>457</ele>
        <time>2019-01-28T10:11:18Z</time>
      </trkpt>
      <trkpt lat="43.77595" lon="3.80692">
        <ele>457</ele>
        <time>2019-01-28T10:11:18Z</time>
      </trkpt>
      <trkpt lat="43.77598" lon="3.80698">
        <ele>457</ele>
        <time>2019-01-28T10:11:18Z</time>
      </trkpt>
      <trkpt lat="43.776" lon="3.80703">
        <ele>457</ele>
        <time>2019-01-28T10:11:18Z</time>
      </trkpt>
      <trkpt lat="43.776" lon="3.80707">
        <ele>457</ele>
        <time>2019-01-28T10:11:34Z</time>
      </trkpt>
      <trkpt lat="43.77601" lon="3.80713">
        <ele>447</ele>
        <time>2019-01-28T10:11:34Z</time>
      </trkpt>
      <trkpt lat="43.77604" lon="3.80717">
        <ele>447</ele>
        <time>2019-01-28T10:11:34Z</time>
      </trkpt>
      <trkpt lat="43.77605" lon="3.80722">
        <ele>447</ele>
        <time>2019-01-28T10:11:34Z</time>
      </trkpt>
      <trkpt lat="43.77608" lon="3.80726">
        <ele>447</ele>
        <time>2019-01-28T10:11:50Z</time>
      </trkpt>
      <trkpt lat="43.77611" lon="3.80729">
        <ele>447</ele>
        <time>2019-01-28T10:11:50Z</time>
      </trkpt>
      <trkpt lat="43.77613" lon="3.80733">
        <ele>447</ele>
        <time>2019-01-28T10:11:50Z</time>
      </trkpt>
      <trkpt lat="43.77615" lon="3.80736">
        <ele>447</ele>
        <time>2019-01-28T10:11:50Z</time>
      </trkpt>
      <trkpt lat="43.77617" lon="3.8074">
        <ele>447</ele>
        <time>2019-01-28T10:12:06Z</time>
      </trkpt>
      <trkpt lat="43.77619" lon="3.80745">
        <ele>447</ele>
        <time>2019-01-28T10:12:06Z</time>
      </trkpt>
      <trkpt lat="43.77621" lon="3.80749">
        <ele>447</ele>
        <time>2019-01-28T10:12:06Z</time>
      </trkpt>
      <trkpt lat="43.77623" lon="3.80753">
        <ele>447</ele>
        <time>2019-01-28T10:12:06Z</time>
      </trkpt>
      <trkpt lat="43.77625" lon="3.80758">
        <ele>447</ele>
        <time>2019-01-28T10:12:22Z</time>
      </trkpt>
      <trkpt lat="43.77625" lon="3.80766">
        <ele>500</ele>
        <time>2019-01-28T10:12:22Z</time>
      </trkpt>
      <trkpt lat="43.77627" lon="3.80772">
        <ele>500</ele>
        <time>2019-01-28T10:12:22Z</time>
      </trkpt>
      <trkpt lat="43.77628" lon="3.80776">
        <ele>500</ele>
        <time>2019-01-28T10:12:22Z</time>
      </trkpt>
      <trkpt lat="43.77629" lon="3.80781">
        <ele>500</ele>
        <time>2019-01-28T10:12:38Z</time>
      </trkpt>
      <trkpt lat="43.7763" lon="3.80785">
        <ele>500</ele>
        <time>2019-01-28T10:12:38Z</time>
      </trkpt>
      <trkpt lat="43.77634" lon="3.80788">
        <ele>500</ele>
        <time>2019-01-28T10:12:38Z</time>
      </trkpt>
      <trkpt lat="43.77635" lon="3.80794">
        <ele>492</ele>
        <time>2019-01-28T10:12:38Z</time>
      </trkpt>
      <trkpt lat="43.77638" lon="3.80797">
        <ele>492</ele>
        <time>2019-01-28T10:12:54Z</time>
      </trkpt>
      <trkpt lat="43.77638" lon="3.80803">
        <ele>492</ele>
        <time>2019-01-28T10:12:54Z</time>
      </trkpt>
      <trkpt lat="43.77639" lon="3.80808">
        <ele>492</ele>
        <time>2019-01-28T10:12:54Z</time>
      </trkpt>
      <trkpt lat="43.77641" lon="3.80812">
        <ele>492</ele>
        <time>2019-01-28T10:12:54Z</time>
      </trkpt>
      <trkpt lat="43.77643" lon="3.80817">
        <ele>492</ele>
        <time>2019-01-28T10:13:10Z</time>
      </trkpt>
      <trkpt lat="43.77644" lon="3.80821">
        <ele>492</ele>
        <time>2019-01-28T10:13:10Z</time>
      </trkpt>
      <trkpt lat="43.77644" lon="3.80826">
        <ele>492</ele>
        <time>2019-01-28T10:13:10Z</time>
      </trkpt>
      <trkpt lat="43.77644" lon="3.80831">
        <ele>492</ele>
        <time>2019-01-28T10:13:10Z</time>
      </trkpt>
      <trkpt lat="43.77645" lon="3.80837">
        <ele>492</ele>
        <time>2019-01-28T10:13:26Z</time>
      </trkpt>
      <trkpt lat="43.77645" lon="3.8084">
        <ele>492</ele>
        <time>2019-01-28T10:13:26Z</time>
      </trkpt>
      <trkpt lat="43.77645" lon="3.80845">
        <ele>492</ele>
        <time>2019-01-28T10:13:26Z</time>
      </trkpt>
      <trkpt lat="43.77647" lon="3.80852">
        <ele>492</ele>
        <time>2019-01-28T10:13:26Z</time>
      </trkpt>
      <trkpt lat="43.77649" lon="3.80857">
        <ele>492</ele>
        <time>2019-01-28T10:13:42Z</time>
      </trkpt>
      <trkpt lat="43.77649" lon="3.80862">
        <ele>492</ele>
        <time>2019-01-28T10:13:42Z</time>
      </trkpt>
      <trkpt lat="43.7765" lon="3.80868">
        <ele>492</ele>
        <time>2019-01-28T10:13:42Z</time>
      </trkpt>
      <trkpt lat="43.77652" lon="3.80873">
        <ele>492</ele>
        <time>2019-01-28T10:13:42Z</time>
      </trkpt>
      <trkpt lat="43.77653" lon="3.80879">
        <ele>488</ele>
        <time>2019-01-28T10:13:58Z</time>
      </trkpt>
      <trkpt lat="43.77654" lon="3.80884">
        <ele>488</ele>
        <time>2019-01-28T10:13:58Z</time>
      </trkpt>
      <trkpt lat="43.77655" lon="3.80889">
        <ele>488</ele>
        <time>2019-01-28T10:13:58Z</time>
      </trkpt>
      <trkpt lat="43.77657" lon="3.80893">
        <ele>488</ele>
        <time>2019-01-28T10:13:58Z</time>
      </trkpt>
      <trkpt lat="43.77659" lon="3.80897">
        <ele>488</ele>
        <time>2019-01-28T10:14:14Z</time>
      </trkpt>
      <trkpt lat="43.7766" lon="3.80902">
        <ele>488</ele>
        <time>2019-01-28T10:14:14Z</time>
      </trkpt>
      <trkpt lat="43.7766" lon="3.80908">
        <ele>488</ele>
        <time>2019-01-28T10:14:14Z</time>
      </trkpt>
      <trkpt lat="43.7766" lon="3.80912">
        <ele>488</ele>
        <time>2019-01-28T10:14:14Z</time>
      </trkpt>
      <trkpt lat="43.7766" lon="3.80918">
        <ele>488</ele>
        <time>2019-01-28T10:14:30Z</time>
      </trkpt>
      <trkpt lat="43.77661" lon="3.80921">
        <ele>488</ele>
        <time>2019-01-28T10:14:30Z</time>
      </trkpt>
      <trkpt lat="43.77662" lon="3.80926">
        <ele>488</ele>
        <time>2019-01-28T10:14:30Z</time>
      </trkpt>
      <trkpt lat="43.77663" lon="3.80931">
        <ele>488</ele>
        <time>2019-01-28T10:14:30Z</time>
      </trkpt>
      <trkpt lat="43.77665" lon="3.80936">
        <ele>488</ele>
        <time>2019-01-28T10:14:46Z</time>
      </trkpt>
      <trkpt lat="43.77667" lon="3.8094">
        <ele>488</ele>
        <time>2019-01-28T10:14:46Z</time>
      </trkpt>
      <trkpt lat="43.77668" lon="3.80944">
        <ele>488</ele>
        <time>2019-01-28T10:14:46Z</time>
      </trkpt>
      <trkpt lat="43.77668" lon="3.80949">
        <ele>488</ele>
        <time>2019-01-28T10:14:46Z</time>
      </trkpt>
      <trkpt lat="43.7767" lon="3.80952">
        <ele>488</ele>
        <time>2019-01-28T10:15:06Z</time>
      </trkpt>
      <trkpt lat="43.7767" lon="3.80955">
        <ele>488</ele>
        <time>2019-01-28T10:15:06Z</time>
      </trkpt>
      <trkpt lat="43.7767" lon="3.8096">
        <ele>488</ele>
        <time>2019-01-28T10:15:06Z</time>
      </trkpt>
      <trkpt lat="43.7767" lon="3.80964">
        <ele>488</ele>
        <time>2019-01-28T10:15:06Z</time>
      </trkpt>
      <trkpt lat="43.77669" lon="3.80965">
        <ele>488</ele>
        <time>2019-01-28T10:15:06Z</time>
      </trkpt>
      <trkpt lat="43.77671" lon="3.80968">
        <ele>488</ele>
        <time>2019-01-28T10:15:22Z</time>
      </trkpt>
      <trkpt lat="43.77672" lon="3.80973">
        <ele>488</ele>
        <time>2019-01-28T10:15:22Z</time>
      </trkpt>
      <trkpt lat="43.77672" lon="3.80977">
        <ele>488</ele>
        <time>2019-01-28T10:15:22Z</time>
      </trkpt>
      <trkpt lat="43.77672" lon="3.80983">
        <ele>488</ele>
        <time>2019-01-28T10:15:22Z</time>
      </trkpt>
      <trkpt lat="43.77673" lon="3.80987">
        <ele>488</ele>
        <time>2019-01-28T10:15:42Z</time>
      </trkpt>
      <trkpt lat="43.77671" lon="3.80991">
        <ele>488</ele>
        <time>2019-01-28T10:15:42Z</time>
      </trkpt>
      <trkpt lat="43.77671" lon="3.80994">
        <ele>488</ele>
        <time>2019-01-28T10:15:42Z</time>
      </trkpt>
      <trkpt lat="43.77672" lon="3.80998">
        <ele>488</ele>
        <time>2019-01-28T10:15:42Z</time>
      </trkpt>
      <trkpt lat="43.77673" lon="3.81001">
        <ele>488</ele>
        <time>2019-01-28T10:15:42Z</time>
      </trkpt>
      <trkpt lat="43.77674" lon="3.81006">
        <ele>488</ele>
        <time>2019-01-28T10:16:02Z</time>
      </trkpt>
      <trkpt lat="43.77674" lon="3.81011">
        <ele>488</ele>
        <time>2019-01-28T10:16:02Z</time>
      </trkpt>
      <trkpt lat="43.77674" lon="3.81014">
        <ele>488</ele>
        <time>2019-01-28T10:16:02Z</time>
      </trkpt>
      <trkpt lat="43.77674" lon="3.81016">
        <ele>488</ele>
        <time>2019-01-28T10:16:02Z</time>
      </trkpt>
      <trkpt lat="43.77673" lon="3.8102">
        <ele>488</ele>
        <time>2019-01-28T10:16:02Z</time>
      </trkpt>
      <trkpt lat="43.77672" lon="3.81024">
        <ele>488</ele>
        <time>2019-01-28T10:16:18Z</time>
      </trkpt>
      <trkpt lat="43.7767" lon="3.81027">
        <ele>488</ele>
        <time>2019-01-28T10:16:18Z</time>
      </trkpt>
      <trkpt lat="43.77669" lon="3.8103">
        <ele>488</ele>
        <time>2019-01-28T10:16:18Z</time>
      </trkpt>
      <trkpt lat="43.77668" lon="3.81035">
        <ele>488</ele>
        <time>2019-01-28T10:16:18Z</time>
      </trkpt>
      <trkpt lat="43.77666" lon="3.81039">
        <ele>488</ele>
        <time>2019-01-28T10:16:38Z</time>
      </trkpt>
      <trkpt lat="43.77665" lon="3.81043">
        <ele>499</ele>
        <time>2019-01-28T10:16:38Z</time>
      </trkpt>
      <trkpt lat="43.77666" lon="3.81047">
        <ele>499</ele>
        <time>2019-01-28T10:16:38Z</time>
      </trkpt>
      <trkpt lat="43.77665" lon="3.81051">
        <ele>499</ele>
        <time>2019-01-28T10:16:38Z</time>
      </trkpt>
      <trkpt lat="43.77666" lon="3.81055">
        <ele>499</ele>
        <time>2019-01-28T10:16:38Z</time>
      </trkpt>
      <trkpt lat="43.77664" lon="3.81062">
        <ele>499</ele>
        <time>2019-01-28T10:17:02Z</time>
      </trkpt>
      <trkpt lat="43.77664" lon="3.81066">
        <ele>499</ele>
        <time>2019-01-28T10:17:02Z</time>
      </trkpt>
      <trkpt lat="43.77663" lon="3.8107">
        <ele>499</ele>
        <time>2019-01-28T10:17:02Z</time>
      </trkpt>
      <trkpt lat="43.77663" lon="3.81071">
        <ele>499</ele>
        <time>2019-01-28T10:17:02Z</time>
      </trkpt>
      <trkpt lat="43.77664" lon="3.81076">
        <ele>499</ele>
        <time>2019-01-28T10:17:02Z</time>
      </trkpt>
      <trkpt lat="43.77662" lon="3.8108">
        <ele>499</ele>
        <time>2019-01-28T10:17:18Z</time>
      </trkpt>
      <trkpt lat="43.7766" lon="3.81085">
        <ele>499</ele>
        <time>2019-01-28T10:17:18Z</time>
      </trkpt>
      <trkpt lat="43.77659" lon="3.8109">
        <ele>499</ele>
        <time>2019-01-28T10:17:18Z</time>
      </trkpt>
      <trkpt lat="43.77658" lon="3.81098">
        <ele>499</ele>
        <time>2019-01-28T10:17:18Z</time>
      </trkpt>
      <trkpt lat="43.77656" lon="3.81104">
        <ele>499</ele>
        <time>2019-01-28T10:17:34Z</time>
      </trkpt>
      <trkpt lat="43.77654" lon="3.81109">
        <ele>499</ele>
        <time>2019-01-28T10:17:34Z</time>
      </trkpt>
      <trkpt lat="43.77654" lon="3.81116">
        <ele>499</ele>
        <time>2019-01-28T10:17:34Z</time>
      </trkpt>
      <trkpt lat="43.77655" lon="3.81121">
        <ele>499</ele>
        <time>2019-01-28T10:17:34Z</time>
      </trkpt>
      <trkpt lat="43.77655" lon="3.81125">
        <ele>507</ele>
        <time>2019-01-28T10:18:02Z</time>
      </trkpt>
      <trkpt lat="43.77656" lon="3.81129">
        <ele>507</ele>
        <time>2019-01-28T10:18:02Z</time>
      </trkpt>
      <trkpt lat="43.77661" lon="3.81132">
        <ele>507</ele>
        <time>2019-01-28T10:18:02Z</time>
      </trkpt>
      <trkpt lat="43.77663" lon="3.81142">
        <ele>507</ele>
        <time>2019-01-28T10:18:02Z</time>
      </trkpt>
      <trkpt lat="43.77663" lon="3.81147">
        <ele>507</ele>
        <time>2019-01-28T10:18:18Z</time>
      </trkpt>
      <trkpt lat="43.77664" lon="3.81149">
        <ele>507</ele>
        <time>2019-01-28T10:18:18Z</time>
      </trkpt>
      <trkpt lat="43.77663" lon="3.81155">
        <ele>507</ele>
        <time>2019-01-28T10:18:18Z</time>
      </trkpt>
      <trkpt lat="43.77664" lon="3.81159">
        <ele>507</ele>
        <time>2019-01-28T10:18:18Z</time>
      </trkpt>
      <trkpt lat="43.77664" lon="3.81164">
        <ele>507</ele>
        <time>2019-01-28T10:18:34Z</time>
      </trkpt>
      <trkpt lat="43.77664" lon="3.81168">
        <ele>507</ele>
        <time>2019-01-28T10:18:34Z</time>
      </trkpt>
      <trkpt lat="43.77665" lon="3.81172">
        <ele>507</ele>
        <time>2019-01-28T10:18:34Z</time>
      </trkpt>
      <trkpt lat="43.77665" lon="3.81177">
        <ele>507</ele>
        <time>2019-01-28T10:18:34Z</time>
      </trkpt>
      <trkpt lat="43.77665" lon="3.81182">
        <ele>507</ele>
        <time>2019-01-28T10:18:50Z</time>
      </trkpt>
      <trkpt lat="43.77665" lon="3.81187">
        <ele>507</ele>
        <time>2019-01-28T10:18:50Z</time>
      </trkpt>
      <trkpt lat="43.77667" lon="3.81192">
        <ele>507</ele>
        <time>2019-01-28T10:18:50Z</time>
      </trkpt>
      <trkpt lat="43.77667" lon="3.81196">
        <ele>507</ele>
        <time>2019-01-28T10:18:50Z</time>
      </trkpt>
      <trkpt lat="43.77668" lon="3.81201">
        <ele>507</ele>
        <time>2019-01-28T10:19:06Z</time>
      </trkpt>
      <trkpt lat="43.77668" lon="3.81206">
        <ele>507</ele>
        <time>2019-01-28T10:19:06Z</time>
      </trkpt>
      <trkpt lat="43.77668" lon="3.81212">
        <ele>520</ele>
        <time>2019-01-28T10:19:06Z</time>
      </trkpt>
      <trkpt lat="43.77669" lon="3.81215">
        <ele>520</ele>
        <time>2019-01-28T10:19:06Z</time>
      </trkpt>
      <trkpt lat="43.7767" lon="3.81219">
        <ele>520</ele>
        <time>2019-01-28T10:19:26Z</time>
      </trkpt>
      <trkpt lat="43.77672" lon="3.81224">
        <ele>520</ele>
        <time>2019-01-28T10:19:26Z</time>
      </trkpt>
      <trkpt lat="43.77672" lon="3.81227">
        <ele>520</ele>
        <time>2019-01-28T10:19:26Z</time>
      </trkpt>
      <trkpt lat="43.77672" lon="3.81229">
        <ele>520</ele>
        <time>2019-01-28T10:19:26Z</time>
      </trkpt>
      <trkpt lat="43.77672" lon="3.81233">
        <ele>520</ele>
        <time>2019-01-28T10:19:26Z</time>
      </trkpt>
      <trkpt lat="43.77674" lon="3.81237">
        <ele>520</ele>
        <time>2019-01-28T10:19:46Z</time>
      </trkpt>
      <trkpt lat="43.77675" lon="3.81241">
        <ele>520</ele>
        <time>2019-01-28T10:19:46Z</time>
      </trkpt>
      <trkpt lat="43.77675" lon="3.81246">
        <ele>520</ele>
        <time>2019-01-28T10:19:46Z</time>
      </trkpt>
      <trkpt lat="43.77674" lon="3.81249">
        <ele>520</ele>
        <time>2019-01-28T10:19:46Z</time>
      </trkpt>
      <trkpt lat="43.77673" lon="3.81253">
        <ele>520</ele>
        <time>2019-01-28T10:19:46Z</time>
      </trkpt>
      <trkpt lat="43.77672" lon="3.81255">
        <ele>520</ele>
        <time>2019-01-28T10:20:02Z</time>
      </trkpt>
      <trkpt lat="43.77672" lon="3.8126">
        <ele>520</ele>
        <time>2019-01-28T10:20:02Z</time>
      </trkpt>
      <trkpt lat="43.77672" lon="3.81264">
        <ele>520</ele>
        <time>2019-01-28T10:20:02Z</time>
      </trkpt>
      <trkpt lat="43.7767" lon="3.81269">
        <ele>520</ele>
        <time>2019-01-28T10:20:02Z</time>
      </trkpt>
      <trkpt lat="43.77668" lon="3.81273">
        <ele>520</ele>
        <time>2019-01-28T10:20:58Z</time>
      </trkpt>
      <trkpt lat="43.77668" lon="3.81273">
        <ele>520</ele>
        <time>2019-01-28T10:20:58Z</time>
      </trkpt>
      <trkpt lat="43.77668" lon="3.81275">
        <ele>520</ele>
        <time>2019-01-28T10:20:58Z</time>
      </trkpt>
      <trkpt lat="43.77667" lon="3.81279">
        <ele>520</ele>
        <time>2019-01-28T10:20:58Z</time>
      </trkpt>
      <trkpt lat="43.77667" lon="3.81287">
        <ele>520</ele>
        <time>2019-01-28T10:20:58Z</time>
      </trkpt>
      <trkpt lat="43.77666" lon="3.81294">
        <ele>532</ele>
        <time>2019-01-28T10:21:14Z</time>
      </trkpt>
      <trkpt lat="43.77665" lon="3.813">
        <ele>532</ele>
        <time>2019-01-28T10:21:14Z</time>
      </trkpt>
      <trkpt lat="43.77664" lon="3.81303">
        <ele>532</ele>
        <time>2019-01-28T10:21:14Z</time>
      </trkpt>
      <trkpt lat="43.77663" lon="3.81308">
        <ele>532</ele>
        <time>2019-01-28T10:21:14Z</time>
      </trkpt>
      <trkpt lat="43.77662" lon="3.81313">
        <ele>532</ele>
        <time>2019-01-28T10:21:38Z</time>
      </trkpt>
      <trkpt lat="43.77662" lon="3.81315">
        <ele>532</ele>
        <time>2019-01-28T10:21:38Z</time>
      </trkpt>
      <trkpt lat="43.77662" lon="3.81317">
        <ele>532</ele>
        <time>2019-01-28T10:21:38Z</time>
      </trkpt>
      <trkpt lat="43.77662" lon="3.8132">
        <ele>532</ele>
        <time>2019-01-28T10:21:38Z</time>
      </trkpt>
      <trkpt lat="43.77662" lon="3.81328">
        <ele>532</ele>
        <time>2019-01-28T10:21:38Z</time>
      </trkpt>
      <trkpt lat="43.77663" lon="3.81336">
        <ele>532</ele>
        <time>2019-01-28T10:21:54Z</time>
      </trkpt>
      <trkpt lat="43.77662" lon="3.81343">
        <ele>532</ele>
        <time>2019-01-28T10:21:54Z</time>
      </trkpt>
      <trkpt lat="43.77662" lon="3.81351">
        <ele>532</ele>
        <time>2019-01-28T10:21:54Z</time>
      </trkpt>
      <trkpt lat="43.77663" lon="3.81356">
        <ele>532</ele>
        <time>2019-01-28T10:21:54Z</time>
      </trkpt>
      <trkpt lat="43.77664" lon="3.81361">
        <ele>532</ele>
        <time>2019-01-28T10:22:14Z</time>
      </trkpt>
      <trkpt lat="43.77664" lon="3.81361">
        <ele>532</ele>
        <time>2019-01-28T10:22:14Z</time>
      </trkpt>
      <trkpt lat="43.77666" lon="3.81366">
        <ele>532</ele>
        <time>2019-01-28T10:22:14Z</time>
      </trkpt>
      <trkpt lat="43.77669" lon="3.8137">
        <ele>532</ele>
        <time>2019-01-28T10:22:14Z</time>
      </trkpt>
      <trkpt lat="43.77671" lon="3.81372">
        <ele>532</ele>
        <time>2019-01-28T10:22:14Z</time>
      </trkpt>
      <trkpt lat="43.77674" lon="3.81374">
        <ele>532</ele>
        <time>2019-01-28T10:22:42Z</time>
      </trkpt>
      <trkpt lat="43.77678" lon="3.81376">
        <ele>531</ele>
        <time>2019-01-28T10:22:42Z</time>
      </trkpt>
      <trkpt lat="43.77679" lon="3.81376">
        <ele>531</ele>
        <time>2019-01-28T10:22:42Z</time>
      </trkpt>
      <trkpt lat="43.77681" lon="3.81377">
        <ele>531</ele>
        <time>2019-01-28T10:22:42Z</time>
      </trkpt>
      <trkpt lat="43.77691" lon="3.81384">
        <ele>531</ele>
        <time>2019-01-28T10:22:42Z</time>
      </trkpt>
      <trkpt lat="43.77698" lon="3.81385">
        <ele>531</ele>
        <time>2019-01-28T10:23:02Z</time>
      </trkpt>
      <trkpt lat="43.77701" lon="3.81385">
        <ele>531</ele>
        <time>2019-01-28T10:23:02Z</time>
      </trkpt>
      <trkpt lat="43.77707" lon="3.81381">
        <ele>531</ele>
        <time>2019-01-28T10:23:02Z</time>
      </trkpt>
      <trkpt lat="43.7771" lon="3.81375">
        <ele>557</ele>
        <time>2019-01-28T10:23:02Z</time>
      </trkpt>
      <trkpt lat="43.77715" lon="3.81375">
        <ele>563</ele>
        <time>2019-01-28T10:24:06Z</time>
      </trkpt>
      <trkpt lat="43.77719" lon="3.81374">
        <ele>563</ele>
        <time>2019-01-28T10:24:06Z</time>
      </trkpt>
      <trkpt lat="43.77719" lon="3.81374">
        <ele>563</ele>
        <time>2019-01-28T10:24:06Z</time>
      </trkpt>
      <trkpt lat="43.7772" lon="3.81374">
        <ele>563</ele>
        <time>2019-01-28T10:24:06Z</time>
      </trkpt>
      <trkpt lat="43.77722" lon="3.81374">
        <ele>563</ele>
        <time>2019-01-28T10:24:06Z</time>
      </trkpt>
      <trkpt lat="43.77727" lon="3.8137">
        <ele>563</ele>
        <time>2019-01-28T10:24:34Z</time>
      </trkpt>
      <trkpt lat="43.77727" lon="3.81371">
        <ele>563</ele>
        <time>2019-01-28T10:24:34Z</time>
      </trkpt>
      <trkpt lat="43.77729" lon="3.81374">
        <ele>563</ele>
        <time>2019-01-28T10:24:34Z</time>
      </trkpt>
      <trkpt lat="43.7773" lon="3.81377">
        <ele>557</ele>
        <time>2019-01-28T10:24:34Z</time>
      </trkpt>
      <trkpt lat="43.77732" lon="3.81379">
        <ele>557</ele>
        <time>2019-01-28T10:24:34Z</time>
      </trkpt>
      <trkpt lat="43.77733" lon="3.81381">
        <ele>557</ele>
        <time>2019-01-28T10:24:50Z</time>
      </trkpt>
      <trkpt lat="43.77734" lon="3.8138">
        <ele>557</ele>
        <time>2019-01-28T10:24:50Z</time>
      </trkpt>
      <trkpt lat="43.77738" lon="3.81377">
        <ele>557</ele>
        <time>2019-01-28T10:24:50Z</time>
      </trkpt>
      <trkpt lat="43.77741" lon="3.81376">
        <ele>557</ele>
        <time>2019-01-28T10:24:50Z</time>
      </trkpt>
      <trkpt lat="43.77742" lon="3.81375">
        <ele>563</ele>
        <time>2019-01-28T10:25:10Z</time>
      </trkpt>
      <trkpt lat="43.77747" lon="3.81367">
        <ele>563</ele>
        <time>2019-01-28T10:25:10Z</time>
      </trkpt>
      <trkpt lat="43.7775" lon="3.81361">
        <ele>563</ele>
        <time>2019-01-28T10:25:10Z</time>
      </trkpt>
      <trkpt lat="43.7775" lon="3.81361">
        <ele>563</ele>
        <time>2019-01-28T10:25:10Z</time>
      </trkpt>
      <trkpt lat="43.77751" lon="3.81358">
        <ele>563</ele>
        <time>2019-01-28T10:25:26Z</time>
      </trkpt>
      <trkpt lat="43.77753" lon="3.81352">
        <ele>563</ele>
        <time>2019-01-28T10:25:26Z</time>
      </trkpt>
      <trkpt lat="43.77752" lon="3.81347">
        <ele>563</ele>
        <time>2019-01-28T10:25:26Z</time>
      </trkpt>
      <trkpt lat="43.77752" lon="3.81343">
        <ele>563</ele>
        <time>2019-01-28T10:25:26Z</time>
      </trkpt>
      <trkpt lat="43.77755" lon="3.8134">
        <ele>563</ele>
        <time>2019-01-28T10:25:50Z</time>
      </trkpt>
      <trkpt lat="43.77756" lon="3.81338">
        <ele>563</ele>
        <time>2019-01-28T10:25:50Z</time>
      </trkpt>
      <trkpt lat="43.77757" lon="3.81336">
        <ele>563</ele>
        <time>2019-01-28T10:25:50Z</time>
      </trkpt>
      <trkpt lat="43.77757" lon="3.8133">
        <ele>563</ele>
        <time>2019-01-28T10:25:50Z</time>
      </trkpt>
      <trkpt lat="43.77757" lon="3.81325">
        <ele>563</ele>
        <time>2019-01-28T10:25:50Z</time>
      </trkpt>
      <trkpt lat="43.77758" lon="3.81323">
        <ele>563</ele>
        <time>2019-01-28T10:26:10Z</time>
      </trkpt>
      <trkpt lat="43.77759" lon="3.81318">
        <ele>563</ele>
        <time>2019-01-28T10:26:10Z</time>
      </trkpt>
      <trkpt lat="43.77759" lon="3.81316">
        <ele>563</ele>
        <time>2019-01-28T10:26:10Z</time>
      </trkpt>
      <trkpt lat="43.77761" lon="3.81311">
        <ele>563</ele>
        <time>2019-01-28T10:26:10Z</time>
      </trkpt>
      <trkpt lat="43.77761" lon="3.81305">
        <ele>563</ele>
        <time>2019-01-28T10:26:10Z</time>
      </trkpt>
      <trkpt lat="43.77765" lon="3.81302">
        <ele>563</ele>
        <time>2019-01-28T10:27:06Z</time>
      </trkpt>
      <trkpt lat="43.77767" lon="3.81301">
        <ele>563</ele>
        <time>2019-01-28T10:27:06Z</time>
      </trkpt>
      <trkpt lat="43.77767" lon="3.813">
        <ele>563</ele>
        <time>2019-01-28T10:27:06Z</time>
      </trkpt>
      <trkpt lat="43.77768" lon="3.81297">
        <ele>563</ele>
        <time>2019-01-28T10:27:06Z</time>
      </trkpt>
      <trkpt lat="43.7777" lon="3.81295">
        <ele>563</ele>
        <time>2019-01-28T10:27:06Z</time>
      </trkpt>
      <trkpt lat="43.77773" lon="3.81292">
        <ele>563</ele>
        <time>2019-01-28T10:27:22Z</time>
      </trkpt>
      <trkpt lat="43.77773" lon="3.81287">
        <ele>566</ele>
        <time>2019-01-28T10:27:22Z</time>
      </trkpt>
      <trkpt lat="43.77778" lon="3.81282">
        <ele>566</ele>
        <time>2019-01-28T10:27:22Z</time>
      </trkpt>
      <trkpt lat="43.77778" lon="3.81281">
        <ele>566</ele>
        <time>2019-01-28T10:27:22Z</time>
      </trkpt>
      <trkpt lat="43.7778" lon="3.81275">
        <ele>566</ele>
        <time>2019-01-28T10:27:42Z</time>
      </trkpt>
      <trkpt lat="43.77782" lon="3.81271">
        <ele>566</ele>
        <time>2019-01-28T10:27:42Z</time>
      </trkpt>
      <trkpt lat="43.77783" lon="3.81267">
        <ele>566</ele>
        <time>2019-01-28T10:27:42Z</time>
      </trkpt>
      <trkpt lat="43.77784" lon="3.81263">
        <ele>566</ele>
        <time>2019-01-28T10:27:42Z</time>
      </trkpt>
      <trkpt lat="43.77786" lon="3.81257">
        <ele>566</ele>
        <time>2019-01-28T10:28:34Z</time>
      </trkpt>
      <trkpt lat="43.77785" lon="3.8126">
        <ele>566</ele>
        <time>2019-01-28T10:28:34Z</time>
      </trkpt>
      <trkpt lat="43.77785" lon="3.81263">
        <ele>566</ele>
        <time>2019-01-28T10:28:34Z</time>
      </trkpt>
      <trkpt lat="43.77785" lon="3.81265">
        <ele>566</ele>
        <time>2019-01-28T10:28:34Z</time>
      </trkpt>
      <trkpt lat="43.77786" lon="3.81271">
        <ele>566</ele>
        <time>2019-01-28T10:28:34Z</time>
      </trkpt>
      <trkpt lat="43.7779" lon="3.81278">
        <ele>566</ele>
        <time>2019-01-28T10:29:06Z</time>
      </trkpt>
      <trkpt lat="43.77791" lon="3.81278">
        <ele>566</ele>
        <time>2019-01-28T10:29:06Z</time>
      </trkpt>
      <trkpt lat="43.77793" lon="3.81277">
        <ele>613</ele>
        <time>2019-01-28T10:29:06Z</time>
      </trkpt>
      <trkpt lat="43.77794" lon="3.81274">
        <ele>613</ele>
        <time>2019-01-28T10:29:06Z</time>
      </trkpt>
      <trkpt lat="43.77796" lon="3.81269">
        <ele>613</ele>
        <time>2019-01-28T10:29:06Z</time>
      </trkpt>
      <trkpt lat="43.77797" lon="3.81263">
        <ele>613</ele>
        <time>2019-01-28T10:29:22Z</time>
      </trkpt>
      <trkpt lat="43.77799" lon="3.81258">
        <ele>613</ele>
        <time>2019-01-28T10:29:22Z</time>
      </trkpt>
      <trkpt lat="43.778" lon="3.81253">
        <ele>613</ele>
        <time>2019-01-28T10:29:22Z</time>
      </trkpt>
      <trkpt lat="43.77799" lon="3.81249">
        <ele>613</ele>
        <time>2019-01-28T10:29:22Z</time>
      </trkpt>
      <trkpt lat="43.77801" lon="3.81246">
        <ele>613</ele>
        <time>2019-01-28T10:29:38Z</time>
      </trkpt>
      <trkpt lat="43.77801" lon="3.81238">
        <ele>613</ele>
        <time>2019-01-28T10:29:38Z</time>
      </trkpt>
      <trkpt lat="43.778" lon="3.81233">
        <ele>613</ele>
        <time>2019-01-28T10:29:38Z</time>
      </trkpt>
      <trkpt lat="43.77799" lon="3.81229">
        <ele>613</ele>
        <time>2019-01-28T10:29:38Z</time>
      </trkpt>
      <trkpt lat="43.77796" lon="3.81233">
        <ele>613</ele>
        <time>2019-01-28T10:30:22Z</time>
      </trkpt>
      <trkpt lat="43.77797" lon="3.81234">
        <ele>613</ele>
        <time>2019-01-28T10:30:22Z</time>
      </trkpt>
      <trkpt lat="43.77798" lon="3.81237">
        <ele>613</ele>
        <time>2019-01-28T10:30:22Z</time>
      </trkpt>
      <trkpt lat="43.77799" lon="3.81238">
        <ele>613</ele>
        <time>2019-01-28T10:30:22Z</time>
      </trkpt>
      <trkpt lat="43.77799" lon="3.81243">
        <ele>613</ele>
        <time>2019-01-28T10:30:22Z</time>
      </trkpt>
      <trkpt lat="43.778" lon="3.81246">
        <ele>613</ele>
        <time>2019-01-28T10:30:42Z</time>
      </trkpt>
      <trkpt lat="43.77804" lon="3.81248">
        <ele>613</ele>
        <time>2019-01-28T10:30:42Z</time>
      </trkpt>
      <trkpt lat="43.77807" lon="3.81251">
        <ele>613</ele>
        <time>2019-01-28T10:30:42Z</time>
      </trkpt>
      <trkpt lat="43.77806" lon="3.81255">
        <ele>613</ele>
        <time>2019-01-28T10:30:42Z</time>
      </trkpt>
      <trkpt lat="43.77808" lon="3.81255">
        <ele>613</ele>
        <time>2019-01-28T10:30:42Z</time>
      </trkpt>
      <trkpt lat="43.77812" lon="3.81253">
        <ele>613</ele>
        <time>2019-01-28T10:31:46Z</time>
      </trkpt>
      <trkpt lat="43.77812" lon="3.81253">
        <ele>613</ele>
        <time>2019-01-28T10:31:46Z</time>
      </trkpt>
      <trkpt lat="43.77812" lon="3.81252">
        <ele>613</ele>
        <time>2019-01-28T10:31:46Z</time>
      </trkpt>
      <trkpt lat="43.77815" lon="3.81248">
        <ele>613</ele>
        <time>2019-01-28T10:31:46Z</time>
      </trkpt>
      <trkpt lat="43.77818" lon="3.81245">
        <ele>613</ele>
        <time>2019-01-28T10:31:46Z</time>
      </trkpt>
      <trkpt lat="43.77819" lon="3.81244">
        <ele>613</ele>
        <time>2019-01-28T10:32:22Z</time>
      </trkpt>
      <trkpt lat="43.77821" lon="3.81243">
        <ele>613</ele>
        <time>2019-01-28T10:32:22Z</time>
      </trkpt>
      <trkpt lat="43.77825" lon="3.8124">
        <ele>613</ele>
        <time>2019-01-28T10:32:22Z</time>
      </trkpt>
      <trkpt lat="43.77829" lon="3.81236">
        <ele>613</ele>
        <time>2019-01-28T10:32:22Z</time>
      </trkpt>
      <trkpt lat="43.77837" lon="3.81239">
        <ele>613</ele>
        <time>2019-01-28T10:33:18Z</time>
      </trkpt>
      <trkpt lat="43.7784" lon="3.81235">
        <ele>613</ele>
        <time>2019-01-28T10:33:18Z</time>
      </trkpt>
      <trkpt lat="43.77844" lon="3.81231">
        <ele>613</ele>
        <time>2019-01-28T10:33:18Z</time>
      </trkpt>
      <trkpt lat="43.77847" lon="3.81232">
        <ele>613</ele>
        <time>2019-01-28T10:33:18Z</time>
      </trkpt>
      <trkpt lat="43.77847" lon="3.81233">
        <ele>613</ele>
        <time>2019-01-28T10:33:18Z</time>
      </trkpt>
      <trkpt lat="43.77847" lon="3.81231">
        <ele>613</ele>
        <time>2019-01-28T10:33:38Z</time>
      </trkpt>
      <trkpt lat="43.77848" lon="3.81229">
        <ele>613</ele>
        <time>2019-01-28T10:33:38Z</time>
      </trkpt>
      <trkpt lat="43.77849" lon="3.81225">
        <ele>613</ele>
        <time>2019-01-28T10:33:38Z</time>
      </trkpt>
      <trkpt lat="43.7785" lon="3.81221">
        <ele>613</ele>
        <time>2019-01-28T10:33:38Z</time>
      </trkpt>
      <trkpt lat="43.77851" lon="3.8122">
        <ele>613</ele>
        <time>2019-01-28T10:33:38Z</time>
      </trkpt>
      <trkpt lat="43.77854" lon="3.8122">
        <ele>613</ele>
        <time>2019-01-28T10:34:18Z</time>
      </trkpt>
      <trkpt lat="43.77856" lon="3.81219">
        <ele>613</ele>
        <time>2019-01-28T10:34:18Z</time>
      </trkpt>
      <trkpt lat="43.77856" lon="3.81216">
        <ele>613</ele>
        <time>2019-01-28T10:34:18Z</time>
      </trkpt>
      <trkpt lat="43.77858" lon="3.81213">
        <ele>613</ele>
        <time>2019-01-28T10:34:18Z</time>
      </trkpt>
      <trkpt lat="43.77858" lon="3.8121">
        <ele>613</ele>
        <time>2019-01-28T10:34:18Z</time>
      </trkpt>
      <trkpt lat="43.77858" lon="3.81207">
        <ele>619</ele>
        <time>2019-01-28T10:34:38Z</time>
      </trkpt>
      <trkpt lat="43.77859" lon="3.81203">
        <ele>619</ele>
        <time>2019-01-28T10:34:38Z</time>
      </trkpt>
      <trkpt lat="43.77859" lon="3.81199">
        <ele>619</ele>
        <time>2019-01-28T10:34:38Z</time>
      </trkpt>
      <trkpt lat="43.77858" lon="3.81196">
        <ele>619</ele>
        <time>2019-01-28T10:34:38Z</time>
      </trkpt>
      <trkpt lat="43.77858" lon="3.81192">
        <ele>619</ele>
        <time>2019-01-28T10:34:38Z</time>
      </trkpt>
      <trkpt lat="43.77858" lon="3.81187">
        <ele>619</ele>
        <time>2019-01-28T10:34:58Z</time>
      </trkpt>
      <trkpt lat="43.77858" lon="3.81183">
        <ele>619</ele>
        <time>2019-01-28T10:34:58Z</time>
      </trkpt>
      <trkpt lat="43.77857" lon="3.81182">
        <ele>619</ele>
        <time>2019-01-28T10:34:58Z</time>
      </trkpt>
      <trkpt lat="43.77858" lon="3.81178">
        <ele>619</ele>
        <time>2019-01-28T10:34:58Z</time>
      </trkpt>
      <trkpt lat="43.77858" lon="3.81172">
        <ele>619</ele>
        <time>2019-01-28T10:34:58Z</time>
      </trkpt>
      <trkpt lat="43.77858" lon="3.81162">
        <ele>619</ele>
        <time>2019-01-28T10:36:14Z</time>
      </trkpt>
      <trkpt lat="43.77859" lon="3.81161">
        <ele>619</ele>
        <time>2019-01-28T10:36:14Z</time>
      </trkpt>
      <trkpt lat="43.7786" lon="3.8116">
        <ele>619</ele>
        <time>2019-01-28T10:36:14Z</time>
      </trkpt>
      <trkpt lat="43.77862" lon="3.81157">
        <ele>619</ele>
        <time>2019-01-28T10:36:14Z</time>
      </trkpt>
      <trkpt lat="43.77865" lon="3.81156">
        <ele>619</ele>
        <time>2019-01-28T10:36:14Z</time>
      </trkpt>
      <trkpt lat="43.77867" lon="3.81156">
        <ele>619</ele>
        <time>2019-01-28T10:36:30Z</time>
      </trkpt>
      <trkpt lat="43.7787" lon="3.81156">
        <ele>619</ele>
        <time>2019-01-28T10:36:30Z</time>
      </trkpt>
      <trkpt lat="43.77872" lon="3.81154">
        <ele>619</ele>
        <time>2019-01-28T10:36:30Z</time>
      </trkpt>
      <trkpt lat="43.77877" lon="3.81152">
        <ele>614</ele>
        <time>2019-01-28T10:36:30Z</time>
      </trkpt>
      <trkpt lat="43.77884" lon="3.81153">
        <ele>614</ele>
        <time>2019-01-28T10:37:18Z</time>
      </trkpt>
      <trkpt lat="43.77886" lon="3.81151">
        <ele>614</ele>
        <time>2019-01-28T10:37:18Z</time>
      </trkpt>
      <trkpt lat="43.77888" lon="3.81149">
        <ele>614</ele>
        <time>2019-01-28T10:37:18Z</time>
      </trkpt>
      <trkpt lat="43.77889" lon="3.81149">
        <ele>614</ele>
        <time>2019-01-28T10:37:18Z</time>
      </trkpt>
      <trkpt lat="43.7789" lon="3.81146">
        <ele>614</ele>
        <time>2019-01-28T10:37:18Z</time>
      </trkpt>
      <trkpt lat="43.77891" lon="3.81141">
        <ele>614</ele>
        <time>2019-01-28T10:39:54Z</time>
      </trkpt>
      <trkpt lat="43.77891" lon="3.81141">
        <ele>614</ele>
        <time>2019-01-28T10:39:54Z</time>
      </trkpt>
      <trkpt lat="43.77891" lon="3.81137">
        <ele>614</ele>
        <time>2019-01-28T10:39:54Z</time>
      </trkpt>
      <trkpt lat="43.77891" lon="3.81135">
        <ele>614</ele>
        <time>2019-01-28T10:39:54Z</time>
      </trkpt>
      <trkpt lat="43.77892" lon="3.81132">
        <ele>614</ele>
        <time>2019-01-28T10:39:54Z</time>
      </trkpt>
      <trkpt lat="43.77892" lon="3.8112">
        <ele>583</ele>
        <time>2019-01-28T10:41:30Z</time>
      </trkpt>
      <trkpt lat="43.77892" lon="3.81119">
        <ele>583</ele>
        <time>2019-01-28T10:41:30Z</time>
      </trkpt>
      <trkpt lat="43.77892" lon="3.81117">
        <ele>583</ele>
        <time>2019-01-28T10:41:30Z</time>
      </trkpt>
      <trkpt lat="43.77891" lon="3.81116">
        <ele>583</ele>
        <time>2019-01-28T10:41:30Z</time>
      </trkpt>
      <trkpt lat="43.77893" lon="3.81113">
        <ele>583</ele>
        <time>2019-01-28T10:41:30Z</time>
      </trkpt>
      <trkpt lat="43.77893" lon="3.81111">
        <ele>583</ele>
        <time>2019-01-28T10:42:18Z</time>
      </trkpt>
      <trkpt lat="43.77891" lon="3.8111">
        <ele>583</ele>
        <time>2019-01-28T10:42:18Z</time>
      </trkpt>
      <trkpt lat="43.7789" lon="3.81108">
        <ele>583</ele>
        <time>2019-01-28T10:42:18Z</time>
      </trkpt>
      <trkpt lat="43.77888" lon="3.81107">
        <ele>583</ele>
        <time>2019-01-28T10:42:18Z</time>
      </trkpt>
      <trkpt lat="43.77885" lon="3.81104">
        <ele>583</ele>
        <time>2019-01-28T10:42:18Z</time>
      </trkpt>
      <trkpt lat="43.77882" lon="3.811">
        <ele>583</ele>
        <time>2019-01-28T10:44:14Z</time>
      </trkpt>
      <trkpt lat="43.7788" lon="3.81102">
        <ele>583</ele>
        <time>2019-01-28T10:44:14Z</time>
      </trkpt>
      <trkpt lat="43.77877" lon="3.81105">
        <ele>583</ele>
        <time>2019-01-28T10:44:14Z</time>
      </trkpt>
      <trkpt lat="43.77876" lon="3.81105">
        <ele>583</ele>
        <time>2019-01-28T10:44:14Z</time>
      </trkpt>
      <trkpt lat="43.77875" lon="3.81106">
        <ele>583</ele>
        <time>2019-01-28T10:44:14Z</time>
      </trkpt>
      <trkpt lat="43.77876" lon="3.81101">
        <ele>583</ele>
        <time>2019-01-28T10:46:42Z</time>
      </trkpt>
      <trkpt lat="43.77877" lon="3.811">
        <ele>583</ele>
        <time>2019-01-28T10:46:42Z</time>
      </trkpt>
      <trkpt lat="43.77882" lon="3.811">
        <ele>583</ele>
        <time>2019-01-28T10:46:42Z</time>
      </trkpt>
      <trkpt lat="43.77884" lon="3.81101">
        <ele>583</ele>
        <time>2019-01-28T10:46:42Z</time>
      </trkpt>
      <trkpt lat="43.77887" lon="3.81103">
        <ele>583</ele>
        <time>2019-01-28T10:46:42Z</time>
      </trkpt>
      <trkpt lat="43.77887" lon="3.81107">
        <ele>583</ele>
        <time>2019-01-28T10:47:30Z</time>
      </trkpt>
      <trkpt lat="43.77888" lon="3.81108">
        <ele>583</ele>
        <time>2019-01-28T10:47:30Z</time>
      </trkpt>
      <trkpt lat="43.77889" lon="3.8111">
        <ele>583</ele>
        <time>2019-01-28T10:47:30Z</time>
      </trkpt>
      <trkpt lat="43.77889" lon="3.81111">
        <ele>583</ele>
        <time>2019-01-28T10:47:30Z</time>
      </trkpt>
      <trkpt lat="43.7789" lon="3.81118">
        <ele>583</ele>
        <time>2019-01-28T10:47:30Z</time>
      </trkpt>
      <trkpt lat="43.77885" lon="3.81126">
        <ele>614</ele>
        <time>2019-01-28T10:48:02Z</time>
      </trkpt>
      <trkpt lat="43.77885" lon="3.81129">
        <ele>614</ele>
        <time>2019-01-28T10:48:02Z</time>
      </trkpt>
      <trkpt lat="43.77888" lon="3.81131">
        <ele>614</ele>
        <time>2019-01-28T10:48:02Z</time>
      </trkpt>
      <trkpt lat="43.77892" lon="3.81132">
        <ele>614</ele>
        <time>2019-01-28T10:48:02Z</time>
      </trkpt>
      <trkpt lat="43.77894" lon="3.81131">
        <ele>614</ele>
        <time>2019-01-28T10:48:02Z</time>
      </trkpt>
      <trkpt lat="43.77898" lon="3.81137">
        <ele>614</ele>
        <time>2019-01-28T10:48:54Z</time>
      </trkpt>
      <trkpt lat="43.77899" lon="3.81138">
        <ele>614</ele>
        <time>2019-01-28T10:48:54Z</time>
      </trkpt>
      <trkpt lat="43.77899" lon="3.8114">
        <ele>614</ele>
        <time>2019-01-28T10:48:54Z</time>
      </trkpt>
      <trkpt lat="43.779" lon="3.81143">
        <ele>614</ele>
        <time>2019-01-28T10:48:54Z</time>
      </trkpt>
      <trkpt lat="43.77902" lon="3.81149">
        <ele>614</ele>
        <time>2019-01-28T10:48:54Z</time>
      </trkpt>
      <trkpt lat="43.77902" lon="3.81153">
        <ele>614</ele>
        <time>2019-01-28T10:49:34Z</time>
      </trkpt>
      <trkpt lat="43.77904" lon="3.81159">
        <ele>614</ele>
        <time>2019-01-28T10:49:34Z</time>
      </trkpt>
      <trkpt lat="43.77904" lon="3.81164">
        <ele>614</ele>
        <time>2019-01-28T10:49:34Z</time>
      </trkpt>
      <trkpt lat="43.77904" lon="3.81169">
        <ele>614</ele>
        <time>2019-01-28T10:49:34Z</time>
      </trkpt>
      <trkpt lat="43.77906" lon="3.81177">
        <ele>614</ele>
        <time>2019-01-28T10:51:38Z</time>
      </trkpt>
      <trkpt lat="43.77906" lon="3.81178">
        <ele>614</ele>
        <time>2019-01-28T10:51:38Z</time>
      </trkpt>
      <trkpt lat="43.77907" lon="3.8118">
        <ele>614</ele>
        <time>2019-01-28T10:51:38Z</time>
      </trkpt>
      <trkpt lat="43.77907" lon="3.81182">
        <ele>614</ele>
        <time>2019-01-28T10:51:38Z</time>
      </trkpt>
      <trkpt lat="43.77906" lon="3.81183">
        <ele>614</ele>
        <time>2019-01-28T10:51:38Z</time>
      </trkpt>
      <trkpt lat="43.77906" lon="3.81182">
        <ele>614</ele>
        <time>2019-01-28T10:52:02Z</time>
      </trkpt>
      <trkpt lat="43.77906" lon="3.81181">
        <ele>614</ele>
        <time>2019-01-28T10:52:02Z</time>
      </trkpt>
      <trkpt lat="43.77905" lon="3.81177">
        <ele>614</ele>
        <time>2019-01-28T10:52:02Z</time>
      </trkpt>
      <trkpt lat="43.77903" lon="3.81173">
        <ele>614</ele>
        <time>2019-01-28T10:52:02Z</time>
      </trkpt>
      <trkpt lat="43.779" lon="3.81169">
        <ele>614</ele>
        <time>2019-01-28T10:52:02Z</time>
      </trkpt>
      <trkpt lat="43.77898" lon="3.81163">
        <ele>614</ele>
        <time>2019-01-28T10:52:50Z</time>
      </trkpt>
      <trkpt lat="43.77897" lon="3.81168">
        <ele>614</ele>
        <time>2019-01-28T10:52:50Z</time>
      </trkpt>
      <trkpt lat="43.77892" lon="3.81171">
        <ele>614</ele>
        <time>2019-01-28T10:52:50Z</time>
      </trkpt>
      <trkpt lat="43.77887" lon="3.81171">
        <ele>614</ele>
        <time>2019-01-28T10:52:50Z</time>
      </trkpt>
      <trkpt lat="43.77884" lon="3.8117">
        <ele>614</ele>
        <time>2019-01-28T10:52:50Z</time>
      </trkpt>
      <trkpt lat="43.77885" lon="3.81169">
        <ele>614</ele>
        <time>2019-01-28T10:53:26Z</time>
      </trkpt>
      <trkpt lat="43.77884" lon="3.81167">
        <ele>614</ele>
        <time>2019-01-28T10:53:26Z</time>
      </trkpt>
      <trkpt lat="43.77882" lon="3.81162">
        <ele>614</ele>
        <time>2019-01-28T10:53:26Z</time>
      </trkpt>
      <trkpt lat="43.77881" lon="3.81158">
        <ele>614</ele>
        <time>2019-01-28T10:53:26Z</time>
      </trkpt>
      <trkpt lat="43.77881" lon="3.81156">
        <ele>614</ele>
        <time>2019-01-28T10:53:26Z</time>
      </trkpt>
      <trkpt lat="43.77877" lon="3.81154">
        <ele>614</ele>
        <time>2019-01-28T10:53:50Z</time>
      </trkpt>
      <trkpt lat="43.77876" lon="3.81156">
        <ele>614</ele>
        <time>2019-01-28T10:53:50Z</time>
      </trkpt>
      <trkpt lat="43.77873" lon="3.81157">
        <ele>619</ele>
        <time>2019-01-28T10:53:50Z</time>
      </trkpt>
      <trkpt lat="43.77871" lon="3.81156">
        <ele>619</ele>
        <time>2019-01-28T10:53:50Z</time>
      </trkpt>
      <trkpt lat="43.77871" lon="3.81152">
        <ele>619</ele>
        <time>2019-01-28T10:53:50Z</time>
      </trkpt>
      <trkpt lat="43.7787" lon="3.81151">
        <ele>619</ele>
        <time>2019-01-28T10:54:30Z</time>
      </trkpt>
      <trkpt lat="43.77868" lon="3.81154">
        <ele>619</ele>
        <time>2019-01-28T10:54:30Z</time>
      </trkpt>
      <trkpt lat="43.77865" lon="3.81155">
        <ele>619</ele>
        <time>2019-01-28T10:54:30Z</time>
      </trkpt>
      <trkpt lat="43.77863" lon="3.81155">
        <ele>619</ele>
        <time>2019-01-28T10:54:30Z</time>
      </trkpt>
      <trkpt lat="43.77859" lon="3.81153">
        <ele>619</ele>
        <time>2019-01-28T10:54:30Z</time>
      </trkpt>
      <trkpt lat="43.77855" lon="3.81154">
        <ele>619</ele>
        <time>2019-01-28T10:54:54Z</time>
      </trkpt>
      <trkpt lat="43.77855" lon="3.81154">
        <ele>619</ele>
        <time>2019-01-28T10:54:54Z</time>
      </trkpt>
      <trkpt lat="43.77853" lon="3.81155">
        <ele>619</ele>
        <time>2019-01-28T10:54:54Z</time>
      </trkpt>
      <trkpt lat="43.77852" lon="3.81158">
        <ele>619</ele>
        <time>2019-01-28T10:54:54Z</time>
      </trkpt>
      <trkpt lat="43.7785" lon="3.81161">
        <ele>619</ele>
        <time>2019-01-28T10:54:54Z</time>
      </trkpt>
      <trkpt lat="43.7785" lon="3.81165">
        <ele>619</ele>
        <time>2019-01-28T10:55:14Z</time>
      </trkpt>
      <trkpt lat="43.77852" lon="3.81168">
        <ele>619</ele>
        <time>2019-01-28T10:55:14Z</time>
      </trkpt>
      <trkpt lat="43.77854" lon="3.81171">
        <ele>619</ele>
        <time>2019-01-28T10:55:14Z</time>
      </trkpt>
      <trkpt lat="43.77854" lon="3.81175">
        <ele>619</ele>
        <time>2019-01-28T10:55:14Z</time>
      </trkpt>
      <trkpt lat="43.77853" lon="3.81179">
        <ele>619</ele>
        <time>2019-01-28T10:55:14Z</time>
      </trkpt>
      <trkpt lat="43.77852" lon="3.81184">
        <ele>619</ele>
        <time>2019-01-28T10:55:30Z</time>
      </trkpt>
      <trkpt lat="43.77851" lon="3.81187">
        <ele>619</ele>
        <time>2019-01-28T10:55:30Z</time>
      </trkpt>
      <trkpt lat="43.77852" lon="3.81191">
        <ele>619</ele>
        <time>2019-01-28T10:55:30Z</time>
      </trkpt>
      <trkpt lat="43.77853" lon="3.81197">
        <ele>619</ele>
        <time>2019-01-28T10:55:30Z</time>
      </trkpt>
      <trkpt lat="43.77854" lon="3.81201">
        <ele>619</ele>
        <time>2019-01-28T10:55:50Z</time>
      </trkpt>
      <trkpt lat="43.77854" lon="3.81205">
        <ele>619</ele>
        <time>2019-01-28T10:55:50Z</time>
      </trkpt>
      <trkpt lat="43.77854" lon="3.81206">
        <ele>619</ele>
        <time>2019-01-28T10:55:50Z</time>
      </trkpt>
      <trkpt lat="43.77855" lon="3.81211">
        <ele>613</ele>
        <time>2019-01-28T10:55:50Z</time>
      </trkpt>
      <trkpt lat="43.77855" lon="3.81213">
        <ele>613</ele>
        <time>2019-01-28T10:55:50Z</time>
      </trkpt>
      <trkpt lat="43.77851" lon="3.81217">
        <ele>613</ele>
        <time>2019-01-28T10:56:14Z</time>
      </trkpt>
      <trkpt lat="43.7785" lon="3.8122">
        <ele>613</ele>
        <time>2019-01-28T10:56:14Z</time>
      </trkpt>
      <trkpt lat="43.77849" lon="3.8122">
        <ele>613</ele>
        <time>2019-01-28T10:56:14Z</time>
      </trkpt>
      <trkpt lat="43.77847" lon="3.81219">
        <ele>613</ele>
        <time>2019-01-28T10:56:14Z</time>
      </trkpt>
      <trkpt lat="43.77845" lon="3.81219">
        <ele>613</ele>
        <time>2019-01-28T10:56:14Z</time>
      </trkpt>
      <trkpt lat="43.77844" lon="3.81221">
        <ele>613</ele>
        <time>2019-01-28T10:56:34Z</time>
      </trkpt>
      <trkpt lat="43.77844" lon="3.81223">
        <ele>613</ele>
        <time>2019-01-28T10:56:34Z</time>
      </trkpt>
      <trkpt lat="43.77844" lon="3.81227">
        <ele>613</ele>
        <time>2019-01-28T10:56:34Z</time>
      </trkpt>
      <trkpt lat="43.77846" lon="3.81232">
        <ele>613</ele>
        <time>2019-01-28T10:56:34Z</time>
      </trkpt>
      <trkpt lat="43.77844" lon="3.81235">
        <ele>613</ele>
        <time>2019-01-28T10:56:34Z</time>
      </trkpt>
      <trkpt lat="43.77843" lon="3.81239">
        <ele>613</ele>
        <time>2019-01-28T10:57:14Z</time>
      </trkpt>
      <trkpt lat="43.77842" lon="3.8124">
        <ele>613</ele>
        <time>2019-01-28T10:57:14Z</time>
      </trkpt>
      <trkpt lat="43.7784" lon="3.81238">
        <ele>613</ele>
        <time>2019-01-28T10:57:14Z</time>
      </trkpt>
      <trkpt lat="43.77838" lon="3.81236">
        <ele>613</ele>
        <time>2019-01-28T10:57:14Z</time>
      </trkpt>
      <trkpt lat="43.77835" lon="3.81233">
        <ele>613</ele>
        <time>2019-01-28T10:57:14Z</time>
      </trkpt>
      <trkpt lat="43.7783" lon="3.81232">
        <ele>613</ele>
        <time>2019-01-28T10:58:26Z</time>
      </trkpt>
      <trkpt lat="43.77828" lon="3.81235">
        <ele>613</ele>
        <time>2019-01-28T10:58:26Z</time>
      </trkpt>
      <trkpt lat="43.77827" lon="3.81236">
        <ele>613</ele>
        <time>2019-01-28T10:58:26Z</time>
      </trkpt>
      <trkpt lat="43.77827" lon="3.81237">
        <ele>613</ele>
        <time>2019-01-28T10:58:26Z</time>
      </trkpt>
      <trkpt lat="43.77824" lon="3.8124">
        <ele>613</ele>
        <time>2019-01-28T10:58:26Z</time>
      </trkpt>
      <trkpt lat="43.77817" lon="3.81242">
        <ele>613</ele>
        <time>2019-01-28T10:58:58Z</time>
      </trkpt>
      <trkpt lat="43.77816" lon="3.81245">
        <ele>613</ele>
        <time>2019-01-28T10:58:58Z</time>
      </trkpt>
      <trkpt lat="43.77815" lon="3.81248">
        <ele>613</ele>
        <time>2019-01-28T10:58:58Z</time>
      </trkpt>
      <trkpt lat="43.77814" lon="3.81252">
        <ele>613</ele>
        <time>2019-01-28T10:58:58Z</time>
      </trkpt>
      <trkpt lat="43.77814" lon="3.81253">
        <ele>613</ele>
        <time>2019-01-28T10:58:58Z</time>
      </trkpt>
      <trkpt lat="43.77814" lon="3.81252">
        <ele>613</ele>
        <time>2019-01-28T10:59:18Z</time>
      </trkpt>
      <trkpt lat="43.77809" lon="3.81248">
        <ele>613</ele>
        <time>2019-01-28T10:59:18Z</time>
      </trkpt>
      <trkpt lat="43.77808" lon="3.81243">
        <ele>613</ele>
        <time>2019-01-28T10:59:18Z</time>
      </trkpt>
      <trkpt lat="43.77807" lon="3.81239">
        <ele>613</ele>
        <time>2019-01-28T10:59:18Z</time>
      </trkpt>
      <trkpt lat="43.77805" lon="3.81236">
        <ele>613</ele>
        <time>2019-01-28T10:59:38Z</time>
      </trkpt>
      <trkpt lat="43.77803" lon="3.81233">
        <ele>613</ele>
        <time>2019-01-28T10:59:38Z</time>
      </trkpt>
      <trkpt lat="43.77801" lon="3.81232">
        <ele>613</ele>
        <time>2019-01-28T10:59:38Z</time>
      </trkpt>
      <trkpt lat="43.778" lon="3.81228">
        <ele>613</ele>
        <time>2019-01-28T10:59:38Z</time>
      </trkpt>
      <trkpt lat="43.77799" lon="3.81225">
        <ele>613</ele>
        <time>2019-01-28T10:59:38Z</time>
      </trkpt>
      <trkpt lat="43.77796" lon="3.81226">
        <ele>613</ele>
        <time>2019-01-28T11:00:10Z</time>
      </trkpt>
      <trkpt lat="43.77797" lon="3.81229">
        <ele>613</ele>
        <time>2019-01-28T11:00:10Z</time>
      </trkpt>
      <trkpt lat="43.77797" lon="3.8123">
        <ele>613</ele>
        <time>2019-01-28T11:00:10Z</time>
      </trkpt>
      <trkpt lat="43.77797" lon="3.81236">
        <ele>613</ele>
        <time>2019-01-28T11:00:10Z</time>
      </trkpt>
      <trkpt lat="43.77797" lon="3.81241">
        <ele>613</ele>
        <time>2019-01-28T11:00:10Z</time>
      </trkpt>
      <trkpt lat="43.77795" lon="3.81245">
        <ele>613</ele>
        <time>2019-01-28T11:00:26Z</time>
      </trkpt>
      <trkpt lat="43.77793" lon="3.8125">
        <ele>613</ele>
        <time>2019-01-28T11:00:26Z</time>
      </trkpt>
      <trkpt lat="43.77792" lon="3.81255">
        <ele>613</ele>
        <time>2019-01-28T11:00:26Z</time>
      </trkpt>
      <trkpt lat="43.77792" lon="3.81261">
        <ele>613</ele>
        <time>2019-01-28T11:00:26Z</time>
      </trkpt>
      <trkpt lat="43.77794" lon="3.81267">
        <ele>613</ele>
        <time>2019-01-28T11:00:42Z</time>
      </trkpt>
      <trkpt lat="43.77793" lon="3.81271">
        <ele>613</ele>
        <time>2019-01-28T11:00:42Z</time>
      </trkpt>
      <trkpt lat="43.77791" lon="3.81277">
        <ele>566</ele>
        <time>2019-01-28T11:00:42Z</time>
      </trkpt>
      <trkpt lat="43.7779" lon="3.81281">
        <ele>566</ele>
        <time>2019-01-28T11:00:42Z</time>
      </trkpt>
      <trkpt lat="43.77786" lon="3.81286">
        <ele>566</ele>
        <time>2019-01-28T11:01:18Z</time>
      </trkpt>
      <trkpt lat="43.77786" lon="3.81281">
        <ele>566</ele>
        <time>2019-01-28T11:01:18Z</time>
      </trkpt>
      <trkpt lat="43.77784" lon="3.81277">
        <ele>566</ele>
        <time>2019-01-28T11:01:18Z</time>
      </trkpt>
      <trkpt lat="43.77783" lon="3.81272">
        <ele>566</ele>
        <time>2019-01-28T11:01:18Z</time>
      </trkpt>
      <trkpt lat="43.77784" lon="3.81268">
        <ele>566</ele>
        <time>2019-01-28T11:01:18Z</time>
      </trkpt>
      <trkpt lat="43.77781" lon="3.81266">
        <ele>566</ele>
        <time>2019-01-28T11:02:02Z</time>
      </trkpt>
      <trkpt lat="43.77778" lon="3.81269">
        <ele>566</ele>
        <time>2019-01-28T11:02:02Z</time>
      </trkpt>
      <trkpt lat="43.77778" lon="3.8127">
        <ele>566</ele>
        <time>2019-01-28T11:02:02Z</time>
      </trkpt>
      <trkpt lat="43.77777" lon="3.81272">
        <ele>566</ele>
        <time>2019-01-28T11:02:02Z</time>
      </trkpt>
      <trkpt lat="43.77774" lon="3.81276">
        <ele>566</ele>
        <time>2019-01-28T11:02:02Z</time>
      </trkpt>
      <trkpt lat="43.77772" lon="3.81281">
        <ele>566</ele>
        <time>2019-01-28T11:02:22Z</time>
      </trkpt>
      <trkpt lat="43.77771" lon="3.81283">
        <ele>566</ele>
        <time>2019-01-28T11:02:22Z</time>
      </trkpt>
      <trkpt lat="43.77771" lon="3.81284">
        <ele>566</ele>
        <time>2019-01-28T11:02:22Z</time>
      </trkpt>
      <trkpt lat="43.7777" lon="3.81287">
        <ele>566</ele>
        <time>2019-01-28T11:02:22Z</time>
      </trkpt>
      <trkpt lat="43.7777" lon="3.81293">
        <ele>563</ele>
        <time>2019-01-28T11:02:22Z</time>
      </trkpt>
      <trkpt lat="43.77763" lon="3.81301">
        <ele>563</ele>
        <time>2019-01-28T11:02:58Z</time>
      </trkpt>
      <trkpt lat="43.77763" lon="3.81298">
        <ele>563</ele>
        <time>2019-01-28T11:02:58Z</time>
      </trkpt>
      <trkpt lat="43.77761" lon="3.81296">
        <ele>563</ele>
        <time>2019-01-28T11:02:58Z</time>
      </trkpt>
      <trkpt lat="43.77759" lon="3.81299">
        <ele>563</ele>
        <time>2019-01-28T11:02:58Z</time>
      </trkpt>
      <trkpt lat="43.77758" lon="3.81302">
        <ele>563</ele>
        <time>2019-01-28T11:02:58Z</time>
      </trkpt>
      <trkpt lat="43.77756" lon="3.81303">
        <ele>563</ele>
        <time>2019-01-28T11:03:18Z</time>
      </trkpt>
      <trkpt lat="43.77756" lon="3.81307">
        <ele>563</ele>
        <time>2019-01-28T11:03:18Z</time>
      </trkpt>
      <trkpt lat="43.77755" lon="3.81311">
        <ele>563</ele>
        <time>2019-01-28T11:03:18Z</time>
      </trkpt>
      <trkpt lat="43.77753" lon="3.81313">
        <ele>563</ele>
        <time>2019-01-28T11:03:18Z</time>
      </trkpt>
      <trkpt lat="43.77752" lon="3.81317">
        <ele>563</ele>
        <time>2019-01-28T11:03:18Z</time>
      </trkpt>
      <trkpt lat="43.7775" lon="3.81321">
        <ele>563</ele>
        <time>2019-01-28T11:03:34Z</time>
      </trkpt>
      <trkpt lat="43.77749" lon="3.81325">
        <ele>563</ele>
        <time>2019-01-28T11:03:34Z</time>
      </trkpt>
      <trkpt lat="43.77748" lon="3.8133">
        <ele>563</ele>
        <time>2019-01-28T11:03:34Z</time>
      </trkpt>
      <trkpt lat="43.77748" lon="3.81335">
        <ele>563</ele>
        <time>2019-01-28T11:03:34Z</time>
      </trkpt>
      <trkpt lat="43.77747" lon="3.81339">
        <ele>563</ele>
        <time>2019-01-28T11:03:54Z</time>
      </trkpt>
      <trkpt lat="43.77746" lon="3.81342">
        <ele>563</ele>
        <time>2019-01-28T11:03:54Z</time>
      </trkpt>
      <trkpt lat="43.77747" lon="3.81345">
        <ele>563</ele>
        <time>2019-01-28T11:03:54Z</time>
      </trkpt>
      <trkpt lat="43.77746" lon="3.81348">
        <ele>563</ele>
        <time>2019-01-28T11:03:54Z</time>
      </trkpt>
      <trkpt lat="43.77746" lon="3.81353">
        <ele>563</ele>
        <time>2019-01-28T11:03:54Z</time>
      </trkpt>
      <trkpt lat="43.77747" lon="3.81358">
        <ele>563</ele>
        <time>2019-01-28T11:04:18Z</time>
      </trkpt>
      <trkpt lat="43.77746" lon="3.81363">
        <ele>563</ele>
        <time>2019-01-28T11:04:18Z</time>
      </trkpt>
      <trkpt lat="43.77747" lon="3.81365">
        <ele>563</ele>
        <time>2019-01-28T11:04:18Z</time>
      </trkpt>
      <trkpt lat="43.77744" lon="3.81369">
        <ele>563</ele>
        <time>2019-01-28T11:04:18Z</time>
      </trkpt>
      <trkpt lat="43.77742" lon="3.81374">
        <ele>563</ele>
        <time>2019-01-28T11:04:18Z</time>
      </trkpt>
      <trkpt lat="43.77739" lon="3.81376">
        <ele>557</ele>
        <time>2019-01-28T11:04:54Z</time>
      </trkpt>
      <trkpt lat="43.77738" lon="3.81373">
        <ele>563</ele>
        <time>2019-01-28T11:04:54Z</time>
      </trkpt>
      <trkpt lat="43.77736" lon="3.81371">
        <ele>563</ele>
        <time>2019-01-28T11:04:54Z</time>
      </trkpt>
      <trkpt lat="43.77736" lon="3.81371">
        <ele>563</ele>
        <time>2019-01-28T11:04:54Z</time>
      </trkpt>
      <trkpt lat="43.77734" lon="3.8137">
        <ele>563</ele>
        <time>2019-01-28T11:04:54Z</time>
      </trkpt>
      <trkpt lat="43.77731" lon="3.8137">
        <ele>563</ele>
        <time>2019-01-28T11:05:26Z</time>
      </trkpt>
      <trkpt lat="43.7773" lon="3.81368">
        <ele>563</ele>
        <time>2019-01-28T11:05:26Z</time>
      </trkpt>
      <trkpt lat="43.77727" lon="3.81369">
        <ele>563</ele>
        <time>2019-01-28T11:05:26Z</time>
      </trkpt>
      <trkpt lat="43.77725" lon="3.8137">
        <ele>563</ele>
        <time>2019-01-28T11:05:26Z</time>
      </trkpt>
      <trkpt lat="43.77723" lon="3.81372">
        <ele>563</ele>
        <time>2019-01-28T11:05:26Z</time>
      </trkpt>
      <trkpt lat="43.77718" lon="3.81375">
        <ele>557</ele>
        <time>2019-01-28T11:05:58Z</time>
      </trkpt>
      <trkpt lat="43.77714" lon="3.81377">
        <ele>557</ele>
        <time>2019-01-28T11:05:58Z</time>
      </trkpt>
      <trkpt lat="43.77713" lon="3.81378">
        <ele>557</ele>
        <time>2019-01-28T11:05:58Z</time>
      </trkpt>
      <trkpt lat="43.77712" lon="3.81374">
        <ele>563</ele>
        <time>2019-01-28T11:05:58Z</time>
      </trkpt>
      <trkpt lat="43.77709" lon="3.81374">
        <ele>563</ele>
        <time>2019-01-28T11:05:58Z</time>
      </trkpt>
      <trkpt lat="43.77706" lon="3.8138">
        <ele>531</ele>
        <time>2019-01-28T11:06:22Z</time>
      </trkpt>
      <trkpt lat="43.77704" lon="3.81381">
        <ele>531</ele>
        <time>2019-01-28T11:06:22Z</time>
      </trkpt>
      <trkpt lat="43.77702" lon="3.81381">
        <ele>531</ele>
        <time>2019-01-28T11:06:22Z</time>
      </trkpt>
      <trkpt lat="43.777" lon="3.8138">
        <ele>531</ele>
        <time>2019-01-28T11:06:22Z</time>
      </trkpt>
      <trkpt lat="43.77697" lon="3.81377">
        <ele>531</ele>
        <time>2019-01-28T11:06:22Z</time>
      </trkpt>
      <trkpt lat="43.77693" lon="3.81377">
        <ele>531</ele>
        <time>2019-01-28T11:07:34Z</time>
      </trkpt>
      <trkpt lat="43.77692" lon="3.81379">
        <ele>531</ele>
        <time>2019-01-28T11:07:34Z</time>
      </trkpt>
      <trkpt lat="43.77691" lon="3.81378">
        <ele>531</ele>
        <time>2019-01-28T11:07:34Z</time>
      </trkpt>
      <trkpt lat="43.77686" lon="3.81378">
        <ele>531</ele>
        <time>2019-01-28T11:07:34Z</time>
      </trkpt>
      <trkpt lat="43.77684" lon="3.81379">
        <ele>531</ele>
        <time>2019-01-28T11:07:34Z</time>
      </trkpt>
      <trkpt lat="43.77684" lon="3.81378">
        <ele>531</ele>
        <time>2019-01-28T11:07:50Z</time>
      </trkpt>
      <trkpt lat="43.77682" lon="3.81379">
        <ele>531</ele>
        <time>2019-01-28T11:07:50Z</time>
      </trkpt>
      <trkpt lat="43.77676" lon="3.81377">
        <ele>531</ele>
        <time>2019-01-28T11:07:50Z</time>
      </trkpt>
      <trkpt lat="43.77674" lon="3.81372">
        <ele>532</ele>
        <time>2019-01-28T11:07:50Z</time>
      </trkpt>
      <trkpt lat="43.77672" lon="3.81367">
        <ele>532</ele>
        <time>2019-01-28T11:08:10Z</time>
      </trkpt>
      <trkpt lat="43.77673" lon="3.81364">
        <ele>532</ele>
        <time>2019-01-28T11:08:10Z</time>
      </trkpt>
      <trkpt lat="43.7767" lon="3.81361">
        <ele>532</ele>
        <time>2019-01-28T11:08:10Z</time>
      </trkpt>
      <trkpt lat="43.77669" lon="3.81357">
        <ele>532</ele>
        <time>2019-01-28T11:08:10Z</time>
      </trkpt>
      <trkpt lat="43.77668" lon="3.81354">
        <ele>532</ele>
        <time>2019-01-28T11:08:10Z</time>
      </trkpt>
      <trkpt lat="43.77668" lon="3.81349">
        <ele>532</ele>
        <time>2019-01-28T11:08:30Z</time>
      </trkpt>
      <trkpt lat="43.77668" lon="3.81345">
        <ele>532</ele>
        <time>2019-01-28T11:08:30Z</time>
      </trkpt>
      <trkpt lat="43.77668" lon="3.81342">
        <ele>532</ele>
        <time>2019-01-28T11:08:30Z</time>
      </trkpt>
      <trkpt lat="43.77668" lon="3.8134">
        <ele>532</ele>
        <time>2019-01-28T11:08:30Z</time>
      </trkpt>
      <trkpt lat="43.77667" lon="3.81336">
        <ele>532</ele>
        <time>2019-01-28T11:08:30Z</time>
      </trkpt>
      <trkpt lat="43.77668" lon="3.81334">
        <ele>532</ele>
        <time>2019-01-28T11:08:46Z</time>
      </trkpt>
      <trkpt lat="43.77668" lon="3.81329">
        <ele>532</ele>
        <time>2019-01-28T11:08:46Z</time>
      </trkpt>
      <trkpt lat="43.77667" lon="3.81326">
        <ele>532</ele>
        <time>2019-01-28T11:08:46Z</time>
      </trkpt>
      <trkpt lat="43.77666" lon="3.8132">
        <ele>532</ele>
        <time>2019-01-28T11:08:46Z</time>
      </trkpt>
      <trkpt lat="43.77665" lon="3.81315">
        <ele>532</ele>
        <time>2019-01-28T11:09:02Z</time>
      </trkpt>
      <trkpt lat="43.77664" lon="3.81309">
        <ele>532</ele>
        <time>2019-01-28T11:09:02Z</time>
      </trkpt>
      <trkpt lat="43.77665" lon="3.81304">
        <ele>532</ele>
        <time>2019-01-28T11:09:02Z</time>
      </trkpt>
      <trkpt lat="43.77665" lon="3.81298">
        <ele>532</ele>
        <time>2019-01-28T11:09:02Z</time>
      </trkpt>
      <trkpt lat="43.77665" lon="3.81294">
        <ele>532</ele>
        <time>2019-01-28T11:09:18Z</time>
      </trkpt>
      <trkpt lat="43.77666" lon="3.81292">
        <ele>532</ele>
        <time>2019-01-28T11:09:18Z</time>
      </trkpt>
      <trkpt lat="43.77667" lon="3.81287">
        <ele>520</ele>
        <time>2019-01-28T11:09:18Z</time>
      </trkpt>
      <trkpt lat="43.7767" lon="3.81282">
        <ele>520</ele>
        <time>2019-01-28T11:09:18Z</time>
      </trkpt>
      <trkpt lat="43.77672" lon="3.81279">
        <ele>520</ele>
        <time>2019-01-28T11:09:34Z</time>
      </trkpt>
      <trkpt lat="43.77674" lon="3.81273">
        <ele>520</ele>
        <time>2019-01-28T11:09:34Z</time>
      </trkpt>
      <trkpt lat="43.77676" lon="3.81266">
        <ele>520</ele>
        <time>2019-01-28T11:09:34Z</time>
      </trkpt>
      <trkpt lat="43.77677" lon="3.81262">
        <ele>520</ele>
        <time>2019-01-28T11:09:34Z</time>
      </trkpt>
      <trkpt lat="43.77678" lon="3.81254">
        <ele>520</ele>
        <time>2019-01-28T11:09:50Z</time>
      </trkpt>
      <trkpt lat="43.77677" lon="3.81248">
        <ele>520</ele>
        <time>2019-01-28T11:09:50Z</time>
      </trkpt>
      <trkpt lat="43.77675" lon="3.81244">
        <ele>520</ele>
        <time>2019-01-28T11:09:50Z</time>
      </trkpt>
      <trkpt lat="43.77675" lon="3.81239">
        <ele>520</ele>
        <time>2019-01-28T11:09:50Z</time>
      </trkpt>
      <trkpt lat="43.77675" lon="3.81233">
        <ele>520</ele>
        <time>2019-01-28T11:10:06Z</time>
      </trkpt>
      <trkpt lat="43.77675" lon="3.81229">
        <ele>520</ele>
        <time>2019-01-28T11:10:06Z</time>
      </trkpt>
      <trkpt lat="43.77673" lon="3.81224">
        <ele>520</ele>
        <time>2019-01-28T11:10:06Z</time>
      </trkpt>
      <trkpt lat="43.77672" lon="3.81219">
        <ele>520</ele>
        <time>2019-01-28T11:10:06Z</time>
      </trkpt>
      <trkpt lat="43.77671" lon="3.81213">
        <ele>520</ele>
        <time>2019-01-28T11:10:22Z</time>
      </trkpt>
      <trkpt lat="43.7767" lon="3.81207">
        <ele>507</ele>
        <time>2019-01-28T11:10:22Z</time>
      </trkpt>
      <trkpt lat="43.77669" lon="3.81202">
        <ele>507</ele>
        <time>2019-01-28T11:10:22Z</time>
      </trkpt>
      <trkpt lat="43.77669" lon="3.81197">
        <ele>507</ele>
        <time>2019-01-28T11:10:22Z</time>
      </trkpt>
      <trkpt lat="43.77668" lon="3.81191">
        <ele>507</ele>
        <time>2019-01-28T11:10:38Z</time>
      </trkpt>
      <trkpt lat="43.77667" lon="3.81186">
        <ele>507</ele>
        <time>2019-01-28T11:10:38Z</time>
      </trkpt>
      <trkpt lat="43.77666" lon="3.81181">
        <ele>507</ele>
        <time>2019-01-28T11:10:38Z</time>
      </trkpt>
      <trkpt lat="43.77667" lon="3.81175">
        <ele>507</ele>
        <time>2019-01-28T11:10:38Z</time>
      </trkpt>
      <trkpt lat="43.77665" lon="3.81172">
        <ele>507</ele>
        <time>2019-01-28T11:10:54Z</time>
      </trkpt>
      <trkpt lat="43.77665" lon="3.81167">
        <ele>507</ele>
        <time>2019-01-28T11:10:54Z</time>
      </trkpt>
      <trkpt lat="43.77664" lon="3.81163">
        <ele>507</ele>
        <time>2019-01-28T11:10:54Z</time>
      </trkpt>
      <trkpt lat="43.77664" lon="3.81158">
        <ele>507</ele>
        <time>2019-01-28T11:10:54Z</time>
      </trkpt>
      <trkpt lat="43.77663" lon="3.81154">
        <ele>507</ele>
        <time>2019-01-28T11:11:10Z</time>
      </trkpt>
      <trkpt lat="43.77662" lon="3.81149">
        <ele>507</ele>
        <time>2019-01-28T11:11:10Z</time>
      </trkpt>
      <trkpt lat="43.77662" lon="3.81143">
        <ele>507</ele>
        <time>2019-01-28T11:11:10Z</time>
      </trkpt>
      <trkpt lat="43.77662" lon="3.81138">
        <ele>507</ele>
        <time>2019-01-28T11:11:10Z</time>
      </trkpt>
      <trkpt lat="43.77661" lon="3.81132">
        <ele>507</ele>
        <time>2019-01-28T11:11:26Z</time>
      </trkpt>
      <trkpt lat="43.77661" lon="3.81128">
        <ele>507</ele>
        <time>2019-01-28T11:11:26Z</time>
      </trkpt>
      <trkpt lat="43.7766" lon="3.81122">
        <ele>499</ele>
        <time>2019-01-28T11:11:26Z</time>
      </trkpt>
      <trkpt lat="43.7766" lon="3.81117">
        <ele>499</ele>
        <time>2019-01-28T11:11:26Z</time>
      </trkpt>
      <trkpt lat="43.77659" lon="3.81112">
        <ele>499</ele>
        <time>2019-01-28T11:11:42Z</time>
      </trkpt>
      <trkpt lat="43.77661" lon="3.81107">
        <ele>499</ele>
        <time>2019-01-28T11:11:42Z</time>
      </trkpt>
      <trkpt lat="43.77663" lon="3.81102">
        <ele>499</ele>
        <time>2019-01-28T11:11:42Z</time>
      </trkpt>
      <trkpt lat="43.77664" lon="3.81097">
        <ele>499</ele>
        <time>2019-01-28T11:11:42Z</time>
      </trkpt>
      <trkpt lat="43.77664" lon="3.81093">
        <ele>499</ele>
        <time>2019-01-28T11:11:58Z</time>
      </trkpt>
      <trkpt lat="43.77665" lon="3.81089">
        <ele>499</ele>
        <time>2019-01-28T11:11:58Z</time>
      </trkpt>
      <trkpt lat="43.77665" lon="3.81084">
        <ele>499</ele>
        <time>2019-01-28T11:11:58Z</time>
      </trkpt>
      <trkpt lat="43.77665" lon="3.8108">
        <ele>499</ele>
        <time>2019-01-28T11:11:58Z</time>
      </trkpt>
      <trkpt lat="43.77666" lon="3.81074">
        <ele>499</ele>
        <time>2019-01-28T11:12:18Z</time>
      </trkpt>
      <trkpt lat="43.77668" lon="3.8107">
        <ele>499</ele>
        <time>2019-01-28T11:12:18Z</time>
      </trkpt>
      <trkpt lat="43.77669" lon="3.81068">
        <ele>499</ele>
        <time>2019-01-28T11:12:18Z</time>
      </trkpt>
      <trkpt lat="43.77668" lon="3.81063">
        <ele>499</ele>
        <time>2019-01-28T11:12:18Z</time>
      </trkpt>
      <trkpt lat="43.7767" lon="3.81058">
        <ele>499</ele>
        <time>2019-01-28T11:12:18Z</time>
      </trkpt>
      <trkpt lat="43.77672" lon="3.81052">
        <ele>499</ele>
        <time>2019-01-28T11:12:34Z</time>
      </trkpt>
      <trkpt lat="43.77675" lon="3.81048">
        <ele>499</ele>
        <time>2019-01-28T11:12:34Z</time>
      </trkpt>
      <trkpt lat="43.77677" lon="3.81043">
        <ele>499</ele>
        <time>2019-01-28T11:12:34Z</time>
      </trkpt>
      <trkpt lat="43.77678" lon="3.81039">
        <ele>488</ele>
        <time>2019-01-28T11:12:34Z</time>
      </trkpt>
      <trkpt lat="43.77678" lon="3.81034">
        <ele>488</ele>
        <time>2019-01-28T11:12:50Z</time>
      </trkpt>
      <trkpt lat="43.77678" lon="3.81028">
        <ele>488</ele>
        <time>2019-01-28T11:12:50Z</time>
      </trkpt>
      <trkpt lat="43.77678" lon="3.81024">
        <ele>488</ele>
        <time>2019-01-28T11:12:50Z</time>
      </trkpt>
      <trkpt lat="43.77679" lon="3.8102">
        <ele>488</ele>
        <time>2019-01-28T11:12:50Z</time>
      </trkpt>
      <trkpt lat="43.77678" lon="3.81017">
        <ele>488</ele>
        <time>2019-01-28T11:13:06Z</time>
      </trkpt>
      <trkpt lat="43.77678" lon="3.81011">
        <ele>488</ele>
        <time>2019-01-28T11:13:06Z</time>
      </trkpt>
      <trkpt lat="43.77677" lon="3.81005">
        <ele>488</ele>
        <time>2019-01-28T11:13:06Z</time>
      </trkpt>
      <trkpt lat="43.77677" lon="3.81">
        <ele>488</ele>
        <time>2019-01-28T11:13:06Z</time>
      </trkpt>
      <trkpt lat="43.77676" lon="3.80997">
        <ele>488</ele>
        <time>2019-01-28T11:13:22Z</time>
      </trkpt>
      <trkpt lat="43.77677" lon="3.80992">
        <ele>488</ele>
        <time>2019-01-28T11:13:22Z</time>
      </trkpt>
      <trkpt lat="43.77677" lon="3.80987">
        <ele>488</ele>
        <time>2019-01-28T11:13:22Z</time>
      </trkpt>
      <trkpt lat="43.77676" lon="3.80983">
        <ele>488</ele>
        <time>2019-01-28T11:13:22Z</time>
      </trkpt>
      <trkpt lat="43.77677" lon="3.80977">
        <ele>488</ele>
        <time>2019-01-28T11:13:38Z</time>
      </trkpt>
      <trkpt lat="43.77676" lon="3.80971">
        <ele>488</ele>
        <time>2019-01-28T11:13:38Z</time>
      </trkpt>
      <trkpt lat="43.77675" lon="3.80967">
        <ele>488</ele>
        <time>2019-01-28T11:13:38Z</time>
      </trkpt>
      <trkpt lat="43.77675" lon="3.80962">
        <ele>488</ele>
        <time>2019-01-28T11:13:38Z</time>
      </trkpt>
      <trkpt lat="43.77674" lon="3.80958">
        <ele>488</ele>
        <time>2019-01-28T11:13:54Z</time>
      </trkpt>
      <trkpt lat="43.77673" lon="3.80953">
        <ele>488</ele>
        <time>2019-01-28T11:13:54Z</time>
      </trkpt>
      <trkpt lat="43.77672" lon="3.80948">
        <ele>488</ele>
        <time>2019-01-28T11:13:54Z</time>
      </trkpt>
      <trkpt lat="43.77671" lon="3.80943">
        <ele>488</ele>
        <time>2019-01-28T11:13:54Z</time>
      </trkpt>
      <trkpt lat="43.7767" lon="3.80939">
        <ele>488</ele>
        <time>2019-01-28T11:14:10Z</time>
      </trkpt>
      <trkpt lat="43.7767" lon="3.80936">
        <ele>488</ele>
        <time>2019-01-28T11:14:10Z</time>
      </trkpt>
      <trkpt lat="43.77669" lon="3.80931">
        <ele>488</ele>
        <time>2019-01-28T11:14:10Z</time>
      </trkpt>
      <trkpt lat="43.77669" lon="3.80925">
        <ele>488</ele>
        <time>2019-01-28T11:14:10Z</time>
      </trkpt>
      <trkpt lat="43.77668" lon="3.80919">
        <ele>488</ele>
        <time>2019-01-28T11:14:26Z</time>
      </trkpt>
      <trkpt lat="43.77666" lon="3.80915">
        <ele>488</ele>
        <time>2019-01-28T11:14:26Z</time>
      </trkpt>
      <trkpt lat="43.77665" lon="3.80908">
        <ele>488</ele>
        <time>2019-01-28T11:14:26Z</time>
      </trkpt>
      <trkpt lat="43.77663" lon="3.80904">
        <ele>488</ele>
        <time>2019-01-28T11:14:26Z</time>
      </trkpt>
      <trkpt lat="43.77662" lon="3.809">
        <ele>488</ele>
        <time>2019-01-28T11:14:42Z</time>
      </trkpt>
      <trkpt lat="43.7766" lon="3.80894">
        <ele>488</ele>
        <time>2019-01-28T11:14:42Z</time>
      </trkpt>
      <trkpt lat="43.77659" lon="3.80889">
        <ele>488</ele>
        <time>2019-01-28T11:14:42Z</time>
      </trkpt>
      <trkpt lat="43.77658" lon="3.80884">
        <ele>488</ele>
        <time>2019-01-28T11:14:42Z</time>
      </trkpt>
      <trkpt lat="43.77656" lon="3.80879">
        <ele>488</ele>
        <time>2019-01-28T11:14:58Z</time>
      </trkpt>
      <trkpt lat="43.77655" lon="3.80873">
        <ele>492</ele>
        <time>2019-01-28T11:14:58Z</time>
      </trkpt>
      <trkpt lat="43.77654" lon="3.80867">
        <ele>492</ele>
        <time>2019-01-28T11:14:58Z</time>
      </trkpt>
      <trkpt lat="43.77652" lon="3.80862">
        <ele>492</ele>
        <time>2019-01-28T11:14:58Z</time>
      </trkpt>
      <trkpt lat="43.77651" lon="3.80858">
        <ele>492</ele>
        <time>2019-01-28T11:15:14Z</time>
      </trkpt>
      <trkpt lat="43.7765" lon="3.80851">
        <ele>492</ele>
        <time>2019-01-28T11:15:14Z</time>
      </trkpt>
      <trkpt lat="43.7765" lon="3.80845">
        <ele>492</ele>
        <time>2019-01-28T11:15:14Z</time>
      </trkpt>
      <trkpt lat="43.77649" lon="3.80839">
        <ele>492</ele>
        <time>2019-01-28T11:15:14Z</time>
      </trkpt>
      <trkpt lat="43.7765" lon="3.80835">
        <ele>492</ele>
        <time>2019-01-28T11:15:30Z</time>
      </trkpt>
      <trkpt lat="43.77648" lon="3.80831">
        <ele>492</ele>
        <time>2019-01-28T11:15:30Z</time>
      </trkpt>
      <trkpt lat="43.77646" lon="3.80826">
        <ele>492</ele>
        <time>2019-01-28T11:15:30Z</time>
      </trkpt>
      <trkpt lat="43.77645" lon="3.80823">
        <ele>492</ele>
        <time>2019-01-28T11:15:30Z</time>
      </trkpt>
      <trkpt lat="43.77644" lon="3.80818">
        <ele>492</ele>
        <time>2019-01-28T11:15:46Z</time>
      </trkpt>
      <trkpt lat="43.77643" lon="3.80814">
        <ele>492</ele>
        <time>2019-01-28T11:15:46Z</time>
      </trkpt>
      <trkpt lat="43.77642" lon="3.80807">
        <ele>492</ele>
        <time>2019-01-28T11:15:46Z</time>
      </trkpt>
      <trkpt lat="43.77641" lon="3.80802">
        <ele>492</ele>
        <time>2019-01-28T11:15:46Z</time>
      </trkpt>
      <trkpt lat="43.77641" lon="3.80795">
        <ele>492</ele>
        <time>2019-01-28T11:16:02Z</time>
      </trkpt>
      <trkpt lat="43.77639" lon="3.80789">
        <ele>500</ele>
        <time>2019-01-28T11:16:02Z</time>
      </trkpt>
      <trkpt lat="43.77638" lon="3.80783">
        <ele>500</ele>
        <time>2019-01-28T11:16:02Z</time>
      </trkpt>
      <trkpt lat="43.77637" lon="3.80779">
        <ele>500</ele>
        <time>2019-01-28T11:16:02Z</time>
      </trkpt>
      <trkpt lat="43.77634" lon="3.80773">
        <ele>500</ele>
        <time>2019-01-28T11:16:30Z</time>
      </trkpt>
      <trkpt lat="43.77632" lon="3.80768">
        <ele>500</ele>
        <time>2019-01-28T11:16:30Z</time>
      </trkpt>
      <trkpt lat="43.77631" lon="3.80764">
        <ele>500</ele>
        <time>2019-01-28T11:16:30Z</time>
      </trkpt>
      <trkpt lat="43.77631" lon="3.80762">
        <ele>500</ele>
        <time>2019-01-28T11:16:30Z</time>
      </trkpt>
      <trkpt lat="43.77631" lon="3.80761">
        <ele>500</ele>
        <time>2019-01-28T11:16:30Z</time>
      </trkpt>
      <trkpt lat="43.7763" lon="3.80759">
        <ele>500</ele>
        <time>2019-01-28T11:16:46Z</time>
      </trkpt>
      <trkpt lat="43.77627" lon="3.80753">
        <ele>500</ele>
        <time>2019-01-28T11:16:46Z</time>
      </trkpt>
      <trkpt lat="43.77625" lon="3.80748">
        <ele>500</ele>
        <time>2019-01-28T11:16:46Z</time>
      </trkpt>
      <trkpt lat="43.77624" lon="3.80742">
        <ele>447</ele>
        <time>2019-01-28T11:16:46Z</time>
      </trkpt>
      <trkpt lat="43.77622" lon="3.80737">
        <ele>447</ele>
        <time>2019-01-28T11:17:02Z</time>
      </trkpt>
      <trkpt lat="43.77618" lon="3.80732">
        <ele>447</ele>
        <time>2019-01-28T11:17:02Z</time>
      </trkpt>
      <trkpt lat="43.77615" lon="3.80727">
        <ele>447</ele>
        <time>2019-01-28T11:17:02Z</time>
      </trkpt>
      <trkpt lat="43.77613" lon="3.80722">
        <ele>447</ele>
        <time>2019-01-28T11:17:02Z</time>
      </trkpt>
      <trkpt lat="43.77608" lon="3.80717">
        <ele>447</ele>
        <time>2019-01-28T11:17:18Z</time>
      </trkpt>
      <trkpt lat="43.77606" lon="3.80712">
        <ele>447</ele>
        <time>2019-01-28T11:17:18Z</time>
      </trkpt>
      <trkpt lat="43.77603" lon="3.80705">
        <ele>457</ele>
        <time>2019-01-28T11:17:18Z</time>
      </trkpt>
      <trkpt lat="43.77599" lon="3.80701">
        <ele>457</ele>
        <time>2019-01-28T11:17:18Z</time>
      </trkpt>
      <trkpt lat="43.77596" lon="3.80696">
        <ele>457</ele>
        <time>2019-01-28T11:17:34Z</time>
      </trkpt>
      <trkpt lat="43.77594" lon="3.8069">
        <ele>457</ele>
        <time>2019-01-28T11:17:34Z</time>
      </trkpt>
      <trkpt lat="43.77593" lon="3.80684">
        <ele>457</ele>
        <time>2019-01-28T11:17:34Z</time>
      </trkpt>
      <trkpt lat="43.77593" lon="3.80679">
        <ele>457</ele>
        <time>2019-01-28T11:17:34Z</time>
      </trkpt>
      <trkpt lat="43.77594" lon="3.80676">
        <ele>457</ele>
        <time>2019-01-28T11:17:50Z</time>
      </trkpt>
      <trkpt lat="43.77593" lon="3.80675">
        <ele>457</ele>
        <time>2019-01-28T11:17:50Z</time>
      </trkpt>
      <trkpt lat="43.77592" lon="3.80669">
        <ele>457</ele>
        <time>2019-01-28T11:17:50Z</time>
      </trkpt>
      <trkpt lat="43.7759" lon="3.80663">
        <ele>457</ele>
        <time>2019-01-28T11:17:50Z</time>
      </trkpt>
      <trkpt lat="43.77589" lon="3.80657">
        <ele>457</ele>
        <time>2019-01-28T11:18:06Z</time>
      </trkpt>
      <trkpt lat="43.77589" lon="3.80652">
        <ele>457</ele>
        <time>2019-01-28T11:18:06Z</time>
      </trkpt>
      <trkpt lat="43.77587" lon="3.80646">
        <ele>457</ele>
        <time>2019-01-28T11:18:06Z</time>
      </trkpt>
      <trkpt lat="43.77586" lon="3.8064">
        <ele>457</ele>
        <time>2019-01-28T11:18:06Z</time>
      </trkpt>
      <trkpt lat="43.77585" lon="3.80635">
        <ele>457</ele>
        <time>2019-01-28T11:18:22Z</time>
      </trkpt>
      <trkpt lat="43.77584" lon="3.80629">
        <ele>457</ele>
        <time>2019-01-28T11:18:22Z</time>
      </trkpt>
      <trkpt lat="43.77584" lon="3.80621">
        <ele>458</ele>
        <time>2019-01-28T11:18:22Z</time>
      </trkpt>
      <trkpt lat="43.77585" lon="3.80616">
        <ele>458</ele>
        <time>2019-01-28T11:18:22Z</time>
      </trkpt>
      <trkpt lat="43.77585" lon="3.80609">
        <ele>458</ele>
        <time>2019-01-28T11:18:38Z</time>
      </trkpt>
      <trkpt lat="43.77584" lon="3.80603">
        <ele>458</ele>
        <time>2019-01-28T11:18:38Z</time>
      </trkpt>
      <trkpt lat="43.77583" lon="3.80597">
        <ele>458</ele>
        <time>2019-01-28T11:18:38Z</time>
      </trkpt>
      <trkpt lat="43.77583" lon="3.8059">
        <ele>458</ele>
        <time>2019-01-28T11:18:38Z</time>
      </trkpt>
      <trkpt lat="43.77585" lon="3.80583">
        <ele>458</ele>
        <time>2019-01-28T11:18:54Z</time>
      </trkpt>
      <trkpt lat="43.77584" lon="3.80577">
        <ele>458</ele>
        <time>2019-01-28T11:18:54Z</time>
      </trkpt>
      <trkpt lat="43.77585" lon="3.80571">
        <ele>458</ele>
        <time>2019-01-28T11:18:54Z</time>
      </trkpt>
      <trkpt lat="43.77585" lon="3.80565">
        <ele>458</ele>
        <time>2019-01-28T11:18:54Z</time>
      </trkpt>
      <trkpt lat="43.77585" lon="3.8056">
        <ele>458</ele>
        <time>2019-01-28T11:19:10Z</time>
      </trkpt>
      <trkpt lat="43.77582" lon="3.80558">
        <ele>458</ele>
        <time>2019-01-28T11:19:10Z</time>
      </trkpt>
      <trkpt lat="43.7758" lon="3.80553">
        <ele>458</ele>
        <time>2019-01-28T11:19:10Z</time>
      </trkpt>
      <trkpt lat="43.77578" lon="3.80547">
        <ele>458</ele>
        <time>2019-01-28T11:19:10Z</time>
      </trkpt>
      <trkpt lat="43.77577" lon="3.80541">
        <ele>460</ele>
        <time>2019-01-28T11:19:26Z</time>
      </trkpt>
      <trkpt lat="43.77576" lon="3.80536">
        <ele>460</ele>
        <time>2019-01-28T11:19:26Z</time>
      </trkpt>
      <trkpt lat="43.77575" lon="3.80531">
        <ele>460</ele>
        <time>2019-01-28T11:19:26Z</time>
      </trkpt>
      <trkpt lat="43.77574" lon="3.80525">
        <ele>460</ele>
        <time>2019-01-28T11:19:26Z</time>
      </trkpt>
      <trkpt lat="43.77573" lon="3.8052">
        <ele>460</ele>
        <time>2019-01-28T11:19:42Z</time>
      </trkpt>
      <trkpt lat="43.77573" lon="3.80516">
        <ele>460</ele>
        <time>2019-01-28T11:19:42Z</time>
      </trkpt>
      <trkpt lat="43.77574" lon="3.80511">
        <ele>460</ele>
        <time>2019-01-28T11:19:42Z</time>
      </trkpt>
      <trkpt lat="43.77572" lon="3.80505">
        <ele>460</ele>
        <time>2019-01-28T11:19:42Z</time>
      </trkpt>
      <trkpt lat="43.7757" lon="3.80499">
        <ele>460</ele>
        <time>2019-01-28T11:19:58Z</time>
      </trkpt>
      <trkpt lat="43.77571" lon="3.80492">
        <ele>460</ele>
        <time>2019-01-28T11:19:58Z</time>
      </trkpt>
      <trkpt lat="43.77569" lon="3.80486">
        <ele>460</ele>
        <time>2019-01-28T11:19:58Z</time>
      </trkpt>
      <trkpt lat="43.77568" lon="3.8048">
        <ele>460</ele>
        <time>2019-01-28T11:19:58Z</time>
      </trkpt>
      <trkpt lat="43.77567" lon="3.80475">
        <ele>460</ele>
        <time>2019-01-28T11:20:14Z</time>
      </trkpt>
      <trkpt lat="43.77568" lon="3.8047">
        <ele>460</ele>
        <time>2019-01-28T11:20:14Z</time>
      </trkpt>
      <trkpt lat="43.77568" lon="3.80467">
        <ele>460</ele>
        <time>2019-01-28T11:20:14Z</time>
      </trkpt>
      <trkpt lat="43.77568" lon="3.8046">
        <ele>460</ele>
        <time>2019-01-28T11:20:14Z</time>
      </trkpt>
      <trkpt lat="43.77568" lon="3.80454">
        <ele>454</ele>
        <time>2019-01-28T11:20:30Z</time>
      </trkpt>
      <trkpt lat="43.77569" lon="3.80448">
        <ele>454</ele>
        <time>2019-01-28T11:20:30Z</time>
      </trkpt>
      <trkpt lat="43.7757" lon="3.80445">
        <ele>454</ele>
        <time>2019-01-28T11:20:30Z</time>
      </trkpt>
      <trkpt lat="43.77572" lon="3.80439">
        <ele>454</ele>
        <time>2019-01-28T11:20:30Z</time>
      </trkpt>
      <trkpt lat="43.77572" lon="3.80433">
        <ele>454</ele>
        <time>2019-01-28T11:20:46Z</time>
      </trkpt>
      <trkpt lat="43.77571" lon="3.80428">
        <ele>454</ele>
        <time>2019-01-28T11:20:46Z</time>
      </trkpt>
      <trkpt lat="43.77571" lon="3.80424">
        <ele>454</ele>
        <time>2019-01-28T11:20:46Z</time>
      </trkpt>
      <trkpt lat="43.77571" lon="3.80419">
        <ele>454</ele>
        <time>2019-01-28T11:20:46Z</time>
      </trkpt>
      <trkpt lat="43.77573" lon="3.80413">
        <ele>454</ele>
        <time>2019-01-28T11:21:06Z</time>
      </trkpt>
      <trkpt lat="43.77573" lon="3.80408">
        <ele>454</ele>
        <time>2019-01-28T11:21:06Z</time>
      </trkpt>
      <trkpt lat="43.77572" lon="3.80405">
        <ele>454</ele>
        <time>2019-01-28T11:21:06Z</time>
      </trkpt>
      <trkpt lat="43.7757" lon="3.80402">
        <ele>454</ele>
        <time>2019-01-28T11:21:06Z</time>
      </trkpt>
      <trkpt lat="43.77568" lon="3.80398">
        <ele>454</ele>
        <time>2019-01-28T11:21:06Z</time>
      </trkpt>
      <trkpt lat="43.77568" lon="3.80393">
        <ele>454</ele>
        <time>2019-01-28T11:21:22Z</time>
      </trkpt>
      <trkpt lat="43.77567" lon="3.80388">
        <ele>454</ele>
        <time>2019-01-28T11:21:22Z</time>
      </trkpt>
      <trkpt lat="43.77568" lon="3.80383">
        <ele>454</ele>
        <time>2019-01-28T11:21:22Z</time>
      </trkpt>
      <trkpt lat="43.77567" lon="3.80381">
        <ele>454</ele>
        <time>2019-01-28T11:21:22Z</time>
      </trkpt>
      <trkpt lat="43.77566" lon="3.80377">
        <ele>454</ele>
        <time>2019-01-28T11:21:42Z</time>
      </trkpt>
      <trkpt lat="43.77566" lon="3.80374">
        <ele>451</ele>
        <time>2019-01-28T11:21:42Z</time>
      </trkpt>
      <trkpt lat="43.77566" lon="3.80369">
        <ele>451</ele>
        <time>2019-01-28T11:21:42Z</time>
      </trkpt>
      <trkpt lat="43.77567" lon="3.80366">
        <ele>451</ele>
        <time>2019-01-28T11:21:42Z</time>
      </trkpt>
      <trkpt lat="43.77567" lon="3.80361">
        <ele>451</ele>
        <time>2019-01-28T11:21:42Z</time>
      </trkpt>
      <trkpt lat="43.77567" lon="3.80355">
        <ele>451</ele>
        <time>2019-01-28T11:21:58Z</time>
      </trkpt>
      <trkpt lat="43.77566" lon="3.8035">
        <ele>451</ele>
        <time>2019-01-28T11:21:58Z</time>
      </trkpt>
      <trkpt lat="43.77566" lon="3.80343">
        <ele>451</ele>
        <time>2019-01-28T11:21:58Z</time>
      </trkpt>
      <trkpt lat="43.77567" lon="3.80339">
        <ele>451</ele>
        <time>2019-01-28T11:21:58Z</time>
      </trkpt>
      <trkpt lat="43.77565" lon="3.80334">
        <ele>451</ele>
        <time>2019-01-28T11:22:14Z</time>
      </trkpt>
      <trkpt lat="43.77565" lon="3.80328">
        <ele>451</ele>
        <time>2019-01-28T11:22:14Z</time>
      </trkpt>
      <trkpt lat="43.77564" lon="3.80323">
        <ele>451</ele>
        <time>2019-01-28T11:22:14Z</time>
      </trkpt>
      <trkpt lat="43.77565" lon="3.8032">
        <ele>451</ele>
        <time>2019-01-28T11:22:14Z</time>
      </trkpt>
      <trkpt lat="43.77564" lon="3.80316">
        <ele>451</ele>
        <time>2019-01-28T11:22:30Z</time>
      </trkpt>
      <trkpt lat="43.77565" lon="3.8031">
        <ele>451</ele>
        <time>2019-01-28T11:22:30Z</time>
      </trkpt>
      <trkpt lat="43.77565" lon="3.80307">
        <ele>451</ele>
        <time>2019-01-28T11:22:30Z</time>
      </trkpt>
      <trkpt lat="43.77566" lon="3.80302">
        <ele>451</ele>
        <time>2019-01-28T11:22:30Z</time>
      </trkpt>
      <trkpt lat="43.77565" lon="3.80297">
        <ele>451</ele>
        <time>2019-01-28T11:22:46Z</time>
      </trkpt>
      <trkpt lat="43.77564" lon="3.80293">
        <ele>451</ele>
        <time>2019-01-28T11:22:46Z</time>
      </trkpt>
      <trkpt lat="43.77564" lon="3.80288">
        <ele>458</ele>
        <time>2019-01-28T11:22:46Z</time>
      </trkpt>
      <trkpt lat="43.77564" lon="3.80283">
        <ele>458</ele>
        <time>2019-01-28T11:22:46Z</time>
      </trkpt>
      <trkpt lat="43.77562" lon="3.80275">
        <ele>458</ele>
        <time>2019-01-28T11:23:10Z</time>
      </trkpt>
      <trkpt lat="43.77562" lon="3.80271">
        <ele>458</ele>
        <time>2019-01-28T11:23:10Z</time>
      </trkpt>
      <trkpt lat="43.77562" lon="3.80268">
        <ele>458</ele>
        <time>2019-01-28T11:23:10Z</time>
      </trkpt>
      <trkpt lat="43.77561" lon="3.80268">
        <ele>458</ele>
        <time>2019-01-28T11:23:10Z</time>
      </trkpt>
      <trkpt lat="43.77561" lon="3.80267">
        <ele>458</ele>
        <time>2019-01-28T11:23:10Z</time>
      </trkpt>
      <trkpt lat="43.77561" lon="3.80263">
        <ele>458</ele>
        <time>2019-01-28T11:23:26Z</time>
      </trkpt>
      <trkpt lat="43.77561" lon="3.8026">
        <ele>458</ele>
        <time>2019-01-28T11:23:26Z</time>
      </trkpt>
      <trkpt lat="43.77561" lon="3.80253">
        <ele>458</ele>
        <time>2019-01-28T11:23:26Z</time>
      </trkpt>
      <trkpt lat="43.7756" lon="3.80246">
        <ele>458</ele>
        <time>2019-01-28T11:23:26Z</time>
      </trkpt>
      <trkpt lat="43.77559" lon="3.80242">
        <ele>458</ele>
        <time>2019-01-28T11:23:42Z</time>
      </trkpt>
      <trkpt lat="43.77559" lon="3.80238">
        <ele>458</ele>
        <time>2019-01-28T11:23:42Z</time>
      </trkpt>
      <trkpt lat="43.77559" lon="3.80233">
        <ele>458</ele>
        <time>2019-01-28T11:23:42Z</time>
      </trkpt>
      <trkpt lat="43.77558" lon="3.80229">
        <ele>458</ele>
        <time>2019-01-28T11:23:42Z</time>
      </trkpt>
      <trkpt lat="43.77558" lon="3.80228">
        <ele>458</ele>
        <time>2019-01-28T11:23:58Z</time>
      </trkpt>
      <trkpt lat="43.77558" lon="3.80225">
        <ele>458</ele>
        <time>2019-01-28T11:23:58Z</time>
      </trkpt>
      <trkpt lat="43.77556" lon="3.80219">
        <ele>458</ele>
        <time>2019-01-28T11:23:58Z</time>
      </trkpt>
      <trkpt lat="43.77555" lon="3.80213">
        <ele>458</ele>
        <time>2019-01-28T11:23:58Z</time>
      </trkpt>
      <trkpt lat="43.77554" lon="3.80207">
        <ele>458</ele>
        <time>2019-01-28T11:24:14Z</time>
      </trkpt>
      <trkpt lat="43.77553" lon="3.80205">
        <ele>458</ele>
        <time>2019-01-28T11:24:14Z</time>
      </trkpt>
      <trkpt lat="43.77553" lon="3.80198">
        <ele>458</ele>
        <time>2019-01-28T11:24:14Z</time>
      </trkpt>
      <trkpt lat="43.77553" lon="3.80192">
        <ele>458</ele>
        <time>2019-01-28T11:24:14Z</time>
      </trkpt>
      <trkpt lat="43.77554" lon="3.80187">
        <ele>458</ele>
        <time>2019-01-28T11:24:30Z</time>
      </trkpt>
      <trkpt lat="43.77554" lon="3.80184">
        <ele>458</ele>
        <time>2019-01-28T11:24:30Z</time>
      </trkpt>
      <trkpt lat="43.77552" lon="3.80179">
        <ele>458</ele>
        <time>2019-01-28T11:24:30Z</time>
      </trkpt>
      <trkpt lat="43.77552" lon="3.80173">
        <ele>458</ele>
        <time>2019-01-28T11:24:30Z</time>
      </trkpt>
      <trkpt lat="43.7755" lon="3.80167">
        <ele>458</ele>
        <time>2019-01-28T11:24:50Z</time>
      </trkpt>
      <trkpt lat="43.77548" lon="3.80164">
        <ele>458</ele>
        <time>2019-01-28T11:24:50Z</time>
      </trkpt>
      <trkpt lat="43.77546" lon="3.80162">
        <ele>458</ele>
        <time>2019-01-28T11:24:50Z</time>
      </trkpt>
      <trkpt lat="43.77546" lon="3.80157">
        <ele>458</ele>
        <time>2019-01-28T11:24:50Z</time>
      </trkpt>
      <trkpt lat="43.77546" lon="3.80153">
        <ele>458</ele>
        <time>2019-01-28T11:24:50Z</time>
      </trkpt>
      <trkpt lat="43.77545" lon="3.80147">
        <ele>458</ele>
        <time>2019-01-28T11:25:06Z</time>
      </trkpt>
      <trkpt lat="43.77544" lon="3.80143">
        <ele>458</ele>
        <time>2019-01-28T11:25:06Z</time>
      </trkpt>
      <trkpt lat="43.77544" lon="3.80138">
        <ele>458</ele>
        <time>2019-01-28T11:25:06Z</time>
      </trkpt>
      <trkpt lat="43.77544" lon="3.80133">
        <ele>458</ele>
        <time>2019-01-28T11:25:06Z</time>
      </trkpt>
      <trkpt lat="43.77543" lon="3.8013">
        <ele>458</ele>
        <time>2019-01-28T11:25:26Z</time>
      </trkpt>
      <trkpt lat="43.77542" lon="3.80126">
        <ele>458</ele>
        <time>2019-01-28T11:25:26Z</time>
      </trkpt>
      <trkpt lat="43.77543" lon="3.80125">
        <ele>458</ele>
        <time>2019-01-28T11:25:26Z</time>
      </trkpt>
      <trkpt lat="43.77543" lon="3.8012">
        <ele>458</ele>
        <time>2019-01-28T11:25:26Z</time>
      </trkpt>
      <trkpt lat="43.77542" lon="3.80116">
        <ele>458</ele>
        <time>2019-01-28T11:25:26Z</time>
      </trkpt>
      <trkpt lat="43.7754" lon="3.80112">
        <ele>416</ele>
        <time>2019-01-28T11:25:46Z</time>
      </trkpt>
      <trkpt lat="43.7754" lon="3.80109">
        <ele>416</ele>
        <time>2019-01-28T11:25:46Z</time>
      </trkpt>
      <trkpt lat="43.77539" lon="3.80106">
        <ele>416</ele>
        <time>2019-01-28T11:25:46Z</time>
      </trkpt>
      <trkpt lat="43.77538" lon="3.80103">
        <ele>416</ele>
        <time>2019-01-28T11:25:46Z</time>
      </trkpt>
      <trkpt lat="43.77537" lon="3.80097">
        <ele>416</ele>
        <time>2019-01-28T11:25:46Z</time>
      </trkpt>
      <trkpt lat="43.77537" lon="3.8009">
        <ele>416</ele>
        <time>2019-01-28T11:26:02Z</time>
      </trkpt>
      <trkpt lat="43.77536" lon="3.80083">
        <ele>416</ele>
        <time>2019-01-28T11:26:02Z</time>
      </trkpt>
      <trkpt lat="43.77536" lon="3.80077">
        <ele>416</ele>
        <time>2019-01-28T11:26:02Z</time>
      </trkpt>
      <trkpt lat="43.77533" lon="3.80071">
        <ele>416</ele>
        <time>2019-01-28T11:26:02Z</time>
      </trkpt>
      <trkpt lat="43.77532" lon="3.80067">
        <ele>416</ele>
        <time>2019-01-28T11:26:18Z</time>
      </trkpt>
      <trkpt lat="43.77531" lon="3.80061">
        <ele>416</ele>
        <time>2019-01-28T11:26:18Z</time>
      </trkpt>
      <trkpt lat="43.77528" lon="3.80056">
        <ele>416</ele>
        <time>2019-01-28T11:26:18Z</time>
      </trkpt>
      <trkpt lat="43.77528" lon="3.80054">
        <ele>416</ele>
        <time>2019-01-28T11:26:18Z</time>
      </trkpt>
      <trkpt lat="43.77527" lon="3.80051">
        <ele>416</ele>
        <time>2019-01-28T11:26:38Z</time>
      </trkpt>
      <trkpt lat="43.77526" lon="3.80045">
        <ele>416</ele>
        <time>2019-01-28T11:26:38Z</time>
      </trkpt>
      <trkpt lat="43.77524" lon="3.80038">
        <ele>416</ele>
        <time>2019-01-28T11:26:38Z</time>
      </trkpt>
      <trkpt lat="43.77523" lon="3.80034">
        <ele>416</ele>
        <time>2019-01-28T11:26:38Z</time>
      </trkpt>
      <trkpt lat="43.77522" lon="3.80029">
        <ele>416</ele>
        <time>2019-01-28T11:26:58Z</time>
      </trkpt>
      <trkpt lat="43.77522" lon="3.80025">
        <ele>416</ele>
        <time>2019-01-28T11:26:58Z</time>
      </trkpt>
      <trkpt lat="43.77521" lon="3.80023">
        <ele>416</ele>
        <time>2019-01-28T11:26:58Z</time>
      </trkpt>
      <trkpt lat="43.7752" lon="3.80017">
        <ele>416</ele>
        <time>2019-01-28T11:26:58Z</time>
      </trkpt>
      <trkpt lat="43.77518" lon="3.80012">
        <ele>416</ele>
        <time>2019-01-28T11:26:58Z</time>
      </trkpt>
      <trkpt lat="43.77517" lon="3.80007">
        <ele>416</ele>
        <time>2019-01-28T11:27:14Z</time>
      </trkpt>
      <trkpt lat="43.77516" lon="3.80001">
        <ele>416</ele>
        <time>2019-01-28T11:27:14Z</time>
      </trkpt>
      <trkpt lat="43.77514" lon="3.79995">
        <ele>416</ele>
        <time>2019-01-28T11:27:14Z</time>
      </trkpt>
      <trkpt lat="43.77515" lon="3.79989">
        <ele>416</ele>
        <time>2019-01-28T11:27:14Z</time>
      </trkpt>
      <trkpt lat="43.77513" lon="3.79984">
        <ele>416</ele>
        <time>2019-01-28T11:27:30Z</time>
      </trkpt>
      <trkpt lat="43.77513" lon="3.79979">
        <ele>416</ele>
        <time>2019-01-28T11:27:30Z</time>
      </trkpt>
      <trkpt lat="43.77512" lon="3.79973">
        <ele>416</ele>
        <time>2019-01-28T11:27:30Z</time>
      </trkpt>
      <trkpt lat="43.7751" lon="3.79969">
        <ele>416</ele>
        <time>2019-01-28T11:27:30Z</time>
      </trkpt>
      <trkpt lat="43.77509" lon="3.79963">
        <ele>416</ele>
        <time>2019-01-28T11:27:46Z</time>
      </trkpt>
      <trkpt lat="43.77508" lon="3.7996">
        <ele>416</ele>
        <time>2019-01-28T11:27:46Z</time>
      </trkpt>
      <trkpt lat="43.77508" lon="3.79955">
        <ele>417</ele>
        <time>2019-01-28T11:27:46Z</time>
      </trkpt>
      <trkpt lat="43.77507" lon="3.79949">
        <ele>417</ele>
        <time>2019-01-28T11:27:46Z</time>
      </trkpt>
      <trkpt lat="43.77509" lon="3.79944">
        <ele>417</ele>
        <time>2019-01-28T11:28:02Z</time>
      </trkpt>
      <trkpt lat="43.77511" lon="3.79939">
        <ele>417</ele>
        <time>2019-01-28T11:28:02Z</time>
      </trkpt>
      <trkpt lat="43.7751" lon="3.79935">
        <ele>417</ele>
        <time>2019-01-28T11:28:02Z</time>
      </trkpt>
      <trkpt lat="43.7751" lon="3.79931">
        <ele>417</ele>
        <time>2019-01-28T11:28:02Z</time>
      </trkpt>
      <trkpt lat="43.77509" lon="3.79926">
        <ele>417</ele>
        <time>2019-01-28T11:28:18Z</time>
      </trkpt>
      <trkpt lat="43.77507" lon="3.79921">
        <ele>417</ele>
        <time>2019-01-28T11:28:18Z</time>
      </trkpt>
      <trkpt lat="43.77506" lon="3.79916">
        <ele>417</ele>
        <time>2019-01-28T11:28:18Z</time>
      </trkpt>
      <trkpt lat="43.77504" lon="3.79911">
        <ele>417</ele>
        <time>2019-01-28T11:28:18Z</time>
      </trkpt>
      <trkpt lat="43.77503" lon="3.79907">
        <ele>417</ele>
        <time>2019-01-28T11:28:34Z</time>
      </trkpt>
      <trkpt lat="43.77502" lon="3.79901">
        <ele>417</ele>
        <time>2019-01-28T11:28:34Z</time>
      </trkpt>
      <trkpt lat="43.775" lon="3.79895">
        <ele>417</ele>
        <time>2019-01-28T11:28:34Z</time>
      </trkpt>
      <trkpt lat="43.77499" lon="3.79889">
        <ele>417</ele>
        <time>2019-01-28T11:28:34Z</time>
      </trkpt>
      <trkpt lat="43.77498" lon="3.79884">
        <ele>417</ele>
        <time>2019-01-28T11:28:50Z</time>
      </trkpt>
      <trkpt lat="43.77496" lon="3.79879">
        <ele>417</ele>
        <time>2019-01-28T11:28:50Z</time>
      </trkpt>
      <trkpt lat="43.77493" lon="3.79873">
        <ele>428</ele>
        <time>2019-01-28T11:28:50Z</time>
      </trkpt>
      <trkpt lat="43.7749" lon="3.79866">
        <ele>428</ele>
        <time>2019-01-28T11:28:50Z</time>
      </trkpt>
      <trkpt lat="43.7749" lon="3.79861">
        <ele>428</ele>
        <time>2019-01-28T11:29:06Z</time>
      </trkpt>
      <trkpt lat="43.77487" lon="3.79856">
        <ele>428</ele>
        <time>2019-01-28T11:29:06Z</time>
      </trkpt>
      <trkpt lat="43.77486" lon="3.79851">
        <ele>428</ele>
        <time>2019-01-28T11:29:06Z</time>
      </trkpt>
      <trkpt lat="43.77483" lon="3.79846">
        <ele>428</ele>
        <time>2019-01-28T11:29:06Z</time>
      </trkpt>
      <trkpt lat="43.77481" lon="3.79839">
        <ele>428</ele>
        <time>2019-01-28T11:29:22Z</time>
      </trkpt>
      <trkpt lat="43.77478" lon="3.79833">
        <ele>428</ele>
        <time>2019-01-28T11:29:22Z</time>
      </trkpt>
      <trkpt lat="43.77474" lon="3.79827">
        <ele>428</ele>
        <time>2019-01-28T11:29:22Z</time>
      </trkpt>
      <trkpt lat="43.77473" lon="3.79823">
        <ele>428</ele>
        <time>2019-01-28T11:29:22Z</time>
      </trkpt>
      <trkpt lat="43.77472" lon="3.79818">
        <ele>428</ele>
        <time>2019-01-28T11:29:38Z</time>
      </trkpt>
      <trkpt lat="43.7747" lon="3.79812">
        <ele>428</ele>
        <time>2019-01-28T11:29:38Z</time>
      </trkpt>
      <trkpt lat="43.77469" lon="3.79805">
        <ele>428</ele>
        <time>2019-01-28T11:29:38Z</time>
      </trkpt>
      <trkpt lat="43.77467" lon="3.798">
        <ele>428</ele>
        <time>2019-01-28T11:29:38Z</time>
      </trkpt>
      <trkpt lat="43.77465" lon="3.79794">
        <ele>428</ele>
        <time>2019-01-28T11:29:54Z</time>
      </trkpt>
      <trkpt lat="43.77463" lon="3.79788">
        <ele>435</ele>
        <time>2019-01-28T11:29:54Z</time>
      </trkpt>
      <trkpt lat="43.77462" lon="3.79784">
        <ele>435</ele>
        <time>2019-01-28T11:29:54Z</time>
      </trkpt>
      <trkpt lat="43.7746" lon="3.79778">
        <ele>435</ele>
        <time>2019-01-28T11:29:54Z</time>
      </trkpt>
      <trkpt lat="43.77459" lon="3.79772">
        <ele>435</ele>
        <time>2019-01-28T11:30:10Z</time>
      </trkpt>
      <trkpt lat="43.77458" lon="3.79767">
        <ele>404</ele>
        <time>2019-01-28T11:30:10Z</time>
      </trkpt>
      <trkpt lat="43.77456" lon="3.79761">
        <ele>404</ele>
        <time>2019-01-28T11:30:10Z</time>
      </trkpt>
      <trkpt lat="43.77456" lon="3.79754">
        <ele>404</ele>
        <time>2019-01-28T11:30:10Z</time>
      </trkpt>
      <trkpt lat="43.77456" lon="3.79748">
        <ele>404</ele>
        <time>2019-01-28T11:30:26Z</time>
      </trkpt>
      <trkpt lat="43.77454" lon="3.79741">
        <ele>404</ele>
        <time>2019-01-28T11:30:26Z</time>
      </trkpt>
      <trkpt lat="43.77453" lon="3.79736">
        <ele>404</ele>
        <time>2019-01-28T11:30:26Z</time>
      </trkpt>
      <trkpt lat="43.77453" lon="3.79729">
        <ele>404</ele>
        <time>2019-01-28T11:30:26Z</time>
      </trkpt>
      <trkpt lat="43.77451" lon="3.79722">
        <ele>404</ele>
        <time>2019-01-28T11:30:42Z</time>
      </trkpt>
      <trkpt lat="43.77452" lon="3.79715">
        <ele>404</ele>
        <time>2019-01-28T11:30:42Z</time>
      </trkpt>
      <trkpt lat="43.7745" lon="3.79708">
        <ele>405</ele>
        <time>2019-01-28T11:30:42Z</time>
      </trkpt>
      <trkpt lat="43.7745" lon="3.79702">
        <ele>405</ele>
        <time>2019-01-28T11:30:42Z</time>
      </trkpt>
      <trkpt lat="43.77448" lon="3.79696">
        <ele>405</ele>
        <time>2019-01-28T11:30:58Z</time>
      </trkpt>
      <trkpt lat="43.77446" lon="3.7969">
        <ele>405</ele>
        <time>2019-01-28T11:30:58Z</time>
      </trkpt>
      <trkpt lat="43.77445" lon="3.79684">
        <ele>405</ele>
        <time>2019-01-28T11:30:58Z</time>
      </trkpt>
      <trkpt lat="43.77443" lon="3.79678">
        <ele>405</ele>
        <time>2019-01-28T11:30:58Z</time>
      </trkpt>
      <trkpt lat="43.77442" lon="3.79674">
        <ele>405</ele>
        <time>2019-01-28T11:31:14Z</time>
      </trkpt>
      <trkpt lat="43.7744" lon="3.7967">
        <ele>405</ele>
        <time>2019-01-28T11:31:14Z</time>
      </trkpt>
      <trkpt lat="43.77439" lon="3.79665">
        <ele>405</ele>
        <time>2019-01-28T11:31:14Z</time>
      </trkpt>
      <trkpt lat="43.77438" lon="3.7966">
        <ele>405</ele>
        <time>2019-01-28T11:31:14Z</time>
      </trkpt>
      <trkpt lat="43.77437" lon="3.79655">
        <ele>405</ele>
        <time>2019-01-28T11:31:30Z</time>
      </trkpt>
      <trkpt lat="43.77435" lon="3.7965">
        <ele>405</ele>
        <time>2019-01-28T11:31:30Z</time>
      </trkpt>
      <trkpt lat="43.77435" lon="3.79645">
        <ele>405</ele>
        <time>2019-01-28T11:31:30Z</time>
      </trkpt>
      <trkpt lat="43.77434" lon="3.79641">
        <ele>405</ele>
        <time>2019-01-28T11:31:30Z</time>
      </trkpt>
      <trkpt lat="43.77431" lon="3.79636">
        <ele>405</ele>
        <time>2019-01-28T11:31:46Z</time>
      </trkpt>
      <trkpt lat="43.77429" lon="3.79634">
        <ele>405</ele>
        <time>2019-01-28T11:31:46Z</time>
      </trkpt>
      <trkpt lat="43.77428" lon="3.79628">
        <ele>405</ele>
        <time>2019-01-28T11:31:46Z</time>
      </trkpt>
      <trkpt lat="43.77426" lon="3.79625">
        <ele>402</ele>
        <time>2019-01-28T11:31:46Z</time>
      </trkpt>
      <trkpt lat="43.77425" lon="3.79619">
        <ele>402</ele>
        <time>2019-01-28T11:32:02Z</time>
      </trkpt>
      <trkpt lat="43.77424" lon="3.79615">
        <ele>402</ele>
        <time>2019-01-28T11:32:02Z</time>
      </trkpt>
      <trkpt lat="43.77421" lon="3.79612">
        <ele>402</ele>
        <time>2019-01-28T11:32:02Z</time>
      </trkpt>
      <trkpt lat="43.77419" lon="3.79609">
        <ele>402</ele>
        <time>2019-01-28T11:32:02Z</time>
      </trkpt>
      <trkpt lat="43.77416" lon="3.79606">
        <ele>402</ele>
        <time>2019-01-28T11:32:18Z</time>
      </trkpt>
      <trkpt lat="43.77414" lon="3.79603">
        <ele>402</ele>
        <time>2019-01-28T11:32:18Z</time>
      </trkpt>
      <trkpt lat="43.77411" lon="3.796">
        <ele>402</ele>
        <time>2019-01-28T11:32:18Z</time>
      </trkpt>
      <trkpt lat="43.77407" lon="3.79598">
        <ele>402</ele>
        <time>2019-01-28T11:32:18Z</time>
      </trkpt>
      <trkpt lat="43.77404" lon="3.79595">
        <ele>402</ele>
        <time>2019-01-28T11:32:34Z</time>
      </trkpt>
      <trkpt lat="43.77401" lon="3.79591">
        <ele>402</ele>
        <time>2019-01-28T11:32:34Z</time>
      </trkpt>
      <trkpt lat="43.77398" lon="3.79586">
        <ele>402</ele>
        <time>2019-01-28T11:32:34Z</time>
      </trkpt>
      <trkpt lat="43.77396" lon="3.79581">
        <ele>402</ele>
        <time>2019-01-28T11:32:34Z</time>
      </trkpt>
      <trkpt lat="43.77393" lon="3.79575">
        <ele>402</ele>
        <time>2019-01-28T11:32:50Z</time>
      </trkpt>
      <trkpt lat="43.7739" lon="3.79569">
        <ele>402</ele>
        <time>2019-01-28T11:32:50Z</time>
      </trkpt>
      <trkpt lat="43.77389" lon="3.79564">
        <ele>402</ele>
        <time>2019-01-28T11:32:50Z</time>
      </trkpt>
      <trkpt lat="43.77386" lon="3.79559">
        <ele>402</ele>
        <time>2019-01-28T11:32:50Z</time>
      </trkpt>
      <trkpt lat="43.77384" lon="3.79554">
        <ele>402</ele>
        <time>2019-01-28T11:33:06Z</time>
      </trkpt>
      <trkpt lat="43.77382" lon="3.7955">
        <ele>402</ele>
        <time>2019-01-28T11:33:06Z</time>
      </trkpt>
      <trkpt lat="43.77379" lon="3.79546">
        <ele>402</ele>
        <time>2019-01-28T11:33:06Z</time>
      </trkpt>
      <trkpt lat="43.77378" lon="3.79541">
        <ele>394</ele>
        <time>2019-01-28T11:33:06Z</time>
      </trkpt>
      <trkpt lat="43.77375" lon="3.79536">
        <ele>394</ele>
        <time>2019-01-28T11:33:22Z</time>
      </trkpt>
      <trkpt lat="43.77375" lon="3.79529">
        <ele>386</ele>
        <time>2019-01-28T11:33:22Z</time>
      </trkpt>
      <trkpt lat="43.77375" lon="3.79523">
        <ele>394</ele>
        <time>2019-01-28T11:33:22Z</time>
      </trkpt>
      <trkpt lat="43.77372" lon="3.79518">
        <ele>386</ele>
        <time>2019-01-28T11:33:22Z</time>
      </trkpt>
      <trkpt lat="43.77369" lon="3.79514">
        <ele>386</ele>
        <time>2019-01-28T11:33:38Z</time>
      </trkpt>
      <trkpt lat="43.77366" lon="3.79509">
        <ele>386</ele>
        <time>2019-01-28T11:33:38Z</time>
      </trkpt>
      <trkpt lat="43.77363" lon="3.79503">
        <ele>386</ele>
        <time>2019-01-28T11:33:38Z</time>
      </trkpt>
      <trkpt lat="43.7736" lon="3.795">
        <ele>386</ele>
        <time>2019-01-28T11:33:38Z</time>
      </trkpt>
      <trkpt lat="43.77359" lon="3.79497">
        <ele>386</ele>
        <time>2019-01-28T11:33:54Z</time>
      </trkpt>
      <trkpt lat="43.77357" lon="3.79491">
        <ele>386</ele>
        <time>2019-01-28T11:33:54Z</time>
      </trkpt>
      <trkpt lat="43.77356" lon="3.79487">
        <ele>386</ele>
        <time>2019-01-28T11:33:54Z</time>
      </trkpt>
      <trkpt lat="43.77355" lon="3.79482">
        <ele>386</ele>
        <time>2019-01-28T11:33:54Z</time>
      </trkpt>
      <trkpt lat="43.77354" lon="3.79478">
        <ele>386</ele>
        <time>2019-01-28T11:34:10Z</time>
      </trkpt>
      <trkpt lat="43.77353" lon="3.79474">
        <ele>386</ele>
        <time>2019-01-28T11:34:10Z</time>
      </trkpt>
      <trkpt lat="43.77352" lon="3.7947">
        <ele>386</ele>
        <time>2019-01-28T11:34:10Z</time>
      </trkpt>
      <trkpt lat="43.77349" lon="3.79465">
        <ele>386</ele>
        <time>2019-01-28T11:34:10Z</time>
      </trkpt>
      <trkpt lat="43.77348" lon="3.7946">
        <ele>386</ele>
        <time>2019-01-28T11:34:26Z</time>
      </trkpt>
      <trkpt lat="43.77346" lon="3.79456">
        <ele>382</ele>
        <time>2019-01-28T11:34:26Z</time>
      </trkpt>
      <trkpt lat="43.77344" lon="3.79451">
        <ele>382</ele>
        <time>2019-01-28T11:34:26Z</time>
      </trkpt>
      <trkpt lat="43.77343" lon="3.79447">
        <ele>382</ele>
        <time>2019-01-28T11:34:26Z</time>
      </trkpt>
      <trkpt lat="43.77341" lon="3.79442">
        <ele>382</ele>
        <time>2019-01-28T11:34:46Z</time>
      </trkpt>
      <trkpt lat="43.7734" lon="3.79439">
        <ele>382</ele>
        <time>2019-01-28T11:34:46Z</time>
      </trkpt>
      <trkpt lat="43.7734" lon="3.79436">
        <ele>382</ele>
        <time>2019-01-28T11:34:46Z</time>
      </trkpt>
      <trkpt lat="43.77338" lon="3.79432">
        <ele>382</ele>
        <time>2019-01-28T11:34:46Z</time>
      </trkpt>
      <trkpt lat="43.77336" lon="3.7943">
        <ele>382</ele>
        <time>2019-01-28T11:34:46Z</time>
      </trkpt>
      <trkpt lat="43.77335" lon="3.79426">
        <ele>382</ele>
        <time>2019-01-28T11:35:06Z</time>
      </trkpt>
      <trkpt lat="43.77334" lon="3.79421">
        <ele>382</ele>
        <time>2019-01-28T11:35:06Z</time>
      </trkpt>
      <trkpt lat="43.77332" lon="3.79419">
        <ele>382</ele>
        <time>2019-01-28T11:35:06Z</time>
      </trkpt>
      <trkpt lat="43.77329" lon="3.79417">
        <ele>382</ele>
        <time>2019-01-28T11:35:06Z</time>
      </trkpt>
      <trkpt lat="43.77325" lon="3.79418">
        <ele>382</ele>
        <time>2019-01-28T11:35:06Z</time>
      </trkpt>
      <trkpt lat="43.77321" lon="3.79417">
        <ele>382</ele>
        <time>2019-01-28T11:35:22Z</time>
      </trkpt>
      <trkpt lat="43.77316" lon="3.79415">
        <ele>382</ele>
        <time>2019-01-28T11:35:22Z</time>
      </trkpt>
      <trkpt lat="43.77312" lon="3.79414">
        <ele>382</ele>
        <time>2019-01-28T11:35:22Z</time>
      </trkpt>
      <trkpt lat="43.7731" lon="3.79414">
        <ele>382</ele>
        <time>2019-01-28T11:35:22Z</time>
      </trkpt>
      <trkpt lat="43.7731" lon="3.79412">
        <ele>382</ele>
        <time>2019-01-28T11:35:42Z</time>
      </trkpt>
      <trkpt lat="43.77308" lon="3.7941">
        <ele>382</ele>
        <time>2019-01-28T11:35:42Z</time>
      </trkpt>
      <trkpt lat="43.77308" lon="3.79407">
        <ele>382</ele>
        <time>2019-01-28T11:35:42Z</time>
      </trkpt>
      <trkpt lat="43.77306" lon="3.79402">
        <ele>382</ele>
        <time>2019-01-28T11:35:42Z</time>
      </trkpt>
      <trkpt lat="43.77305" lon="3.79398">
        <ele>382</ele>
        <time>2019-01-28T11:35:42Z</time>
      </trkpt>
      <trkpt lat="43.77305" lon="3.79393">
        <ele>382</ele>
        <time>2019-01-28T11:36:02Z</time>
      </trkpt>
      <trkpt lat="43.77305" lon="3.79388">
        <ele>382</ele>
        <time>2019-01-28T11:36:02Z</time>
      </trkpt>
      <trkpt lat="43.77304" lon="3.79385">
        <ele>382</ele>
        <time>2019-01-28T11:36:02Z</time>
      </trkpt>
      <trkpt lat="43.77304" lon="3.79382">
        <ele>382</ele>
        <time>2019-01-28T11:36:02Z</time>
      </trkpt>
      <trkpt lat="43.77303" lon="3.79379">
        <ele>382</ele>
        <time>2019-01-28T11:36:02Z</time>
      </trkpt>
      <trkpt lat="43.77302" lon="3.79377">
        <ele>382</ele>
        <time>2019-01-28T11:36:18Z</time>
      </trkpt>
      <trkpt lat="43.77303" lon="3.79372">
        <ele>371</ele>
        <time>2019-01-28T11:36:18Z</time>
      </trkpt>
      <trkpt lat="43.77302" lon="3.79366">
        <ele>371</ele>
        <time>2019-01-28T11:36:18Z</time>
      </trkpt>
      <trkpt lat="43.77302" lon="3.79364">
        <ele>371</ele>
        <time>2019-01-28T11:36:18Z</time>
      </trkpt>
      <trkpt lat="43.773" lon="3.79361">
        <ele>371</ele>
        <time>2019-01-28T11:36:46Z</time>
      </trkpt>
      <trkpt lat="43.773" lon="3.79358">
        <ele>371</ele>
        <time>2019-01-28T11:36:46Z</time>
      </trkpt>
      <trkpt lat="43.773" lon="3.79357">
        <ele>371</ele>
        <time>2019-01-28T11:36:46Z</time>
      </trkpt>
      <trkpt lat="43.77298" lon="3.79352">
        <ele>371</ele>
        <time>2019-01-28T11:36:46Z</time>
      </trkpt>
      <trkpt lat="43.77297" lon="3.79347">
        <ele>371</ele>
        <time>2019-01-28T11:36:46Z</time>
      </trkpt>
      <trkpt lat="43.77296" lon="3.79343">
        <ele>371</ele>
        <time>2019-01-28T11:37:06Z</time>
      </trkpt>
      <trkpt lat="43.77294" lon="3.79339">
        <ele>371</ele>
        <time>2019-01-28T11:37:06Z</time>
      </trkpt>
      <trkpt lat="43.77294" lon="3.79336">
        <ele>371</ele>
        <time>2019-01-28T11:37:06Z</time>
      </trkpt>
      <trkpt lat="43.77294" lon="3.79332">
        <ele>371</ele>
        <time>2019-01-28T11:37:06Z</time>
      </trkpt>
      <trkpt lat="43.77293" lon="3.79328">
        <ele>371</ele>
        <time>2019-01-28T11:37:06Z</time>
      </trkpt>
      <trkpt lat="43.77293" lon="3.79324">
        <ele>371</ele>
        <time>2019-01-28T11:37:22Z</time>
      </trkpt>
      <trkpt lat="43.77292" lon="3.79319">
        <ele>371</ele>
        <time>2019-01-28T11:37:22Z</time>
      </trkpt>
      <trkpt lat="43.77291" lon="3.79315">
        <ele>353</ele>
        <time>2019-01-28T11:37:22Z</time>
      </trkpt>
      <trkpt lat="43.7729" lon="3.79311">
        <ele>353</ele>
        <time>2019-01-28T11:37:22Z</time>
      </trkpt>
      <trkpt lat="43.77291" lon="3.79308">
        <ele>353</ele>
        <time>2019-01-28T11:37:38Z</time>
      </trkpt>
      <trkpt lat="43.77291" lon="3.79307">
        <ele>353</ele>
        <time>2019-01-28T11:37:38Z</time>
      </trkpt>
      <trkpt lat="43.77289" lon="3.793">
        <ele>353</ele>
        <time>2019-01-28T11:37:38Z</time>
      </trkpt>
      <trkpt lat="43.77288" lon="3.79295">
        <ele>353</ele>
        <time>2019-01-28T11:37:38Z</time>
      </trkpt>
      <trkpt lat="43.77287" lon="3.79289">
        <ele>345</ele>
        <time>2019-01-28T11:38:06Z</time>
      </trkpt>
      <trkpt lat="43.77285" lon="3.79286">
        <ele>345</ele>
        <time>2019-01-28T11:38:06Z</time>
      </trkpt>
      <trkpt lat="43.77284" lon="3.79283">
        <ele>345</ele>
        <time>2019-01-28T11:38:06Z</time>
      </trkpt>
      <trkpt lat="43.77283" lon="3.79282">
        <ele>345</ele>
        <time>2019-01-28T11:38:06Z</time>
      </trkpt>
      <trkpt lat="43.77279" lon="3.79278">
        <ele>345</ele>
        <time>2019-01-28T11:38:06Z</time>
      </trkpt>
      <trkpt lat="43.77277" lon="3.79275">
        <ele>345</ele>
        <time>2019-01-28T11:38:30Z</time>
      </trkpt>
      <trkpt lat="43.77274" lon="3.7927">
        <ele>345</ele>
        <time>2019-01-28T11:38:30Z</time>
      </trkpt>
      <trkpt lat="43.77274" lon="3.79268">
        <ele>345</ele>
        <time>2019-01-28T11:38:30Z</time>
      </trkpt>
      <trkpt lat="43.77272" lon="3.79264">
        <ele>345</ele>
        <time>2019-01-28T11:38:30Z</time>
      </trkpt>
      <trkpt lat="43.77269" lon="3.79261">
        <ele>345</ele>
        <time>2019-01-28T11:39:02Z</time>
      </trkpt>
      <trkpt lat="43.77267" lon="3.79258">
        <ele>345</ele>
        <time>2019-01-28T11:39:02Z</time>
      </trkpt>
      <trkpt lat="43.77266" lon="3.79255">
        <ele>345</ele>
        <time>2019-01-28T11:39:02Z</time>
      </trkpt>
      <trkpt lat="43.77264" lon="3.79251">
        <ele>345</ele>
        <time>2019-01-28T11:39:02Z</time>
      </trkpt>
      <trkpt lat="43.77257" lon="3.79245">
        <ele>345</ele>
        <time>2019-01-28T11:39:02Z</time>
      </trkpt>
      <trkpt lat="43.77251" lon="3.79238">
        <ele>345</ele>
        <time>2019-01-28T11:39:50Z</time>
      </trkpt>
      <trkpt lat="43.77248" lon="3.79235">
        <ele>345</ele>
        <time>2019-01-28T11:39:50Z</time>
      </trkpt>
      <trkpt lat="43.77247" lon="3.79234">
        <ele>345</ele>
        <time>2019-01-28T11:39:50Z</time>
      </trkpt>
      <trkpt lat="43.77245" lon="3.79233">
        <ele>345</ele>
        <time>2019-01-28T11:39:50Z</time>
      </trkpt>
      <trkpt lat="43.77239" lon="3.79231">
        <ele>345</ele>
        <time>2019-01-28T11:39:50Z</time>
      </trkpt>
      <trkpt lat="43.77232" lon="3.79228">
        <ele>345</ele>
        <time>2019-01-28T11:40:06Z</time>
      </trkpt>
      <trkpt lat="43.77226" lon="3.79228">
        <ele>345</ele>
        <time>2019-01-28T11:40:06Z</time>
      </trkpt>
      <trkpt lat="43.77225" lon="3.79227">
        <ele>345</ele>
        <time>2019-01-28T11:40:06Z</time>
      </trkpt>
      <trkpt lat="43.7722" lon="3.79229">
        <ele>345</ele>
        <time>2019-01-28T11:40:06Z</time>
      </trkpt>
      <trkpt lat="43.77214" lon="3.79227">
        <ele>345</ele>
        <time>2019-01-28T11:40:22Z</time>
      </trkpt>
      <trkpt lat="43.77209" lon="3.79225">
        <ele>345</ele>
        <time>2019-01-28T11:40:22Z</time>
      </trkpt>
      <trkpt lat="43.77208" lon="3.79225">
        <ele>324</ele>
        <time>2019-01-28T11:40:22Z</time>
      </trkpt>
      <trkpt lat="43.77204" lon="3.79222">
        <ele>324</ele>
        <time>2019-01-28T11:40:22Z</time>
      </trkpt>
      <trkpt lat="43.77201" lon="3.7922">
        <ele>324</ele>
        <time>2019-01-28T11:40:38Z</time>
      </trkpt>
      <trkpt lat="43.77198" lon="3.79217">
        <ele>324</ele>
        <time>2019-01-28T11:40:38Z</time>
      </trkpt>
      <trkpt lat="43.77195" lon="3.79212">
        <ele>324</ele>
        <time>2019-01-28T11:40:38Z</time>
      </trkpt>
      <trkpt lat="43.77192" lon="3.79209">
        <ele>324</ele>
        <time>2019-01-28T11:40:38Z</time>
      </trkpt>
      <trkpt lat="43.77191" lon="3.79203">
        <ele>321</ele>
        <time>2019-01-28T11:40:54Z</time>
      </trkpt>
      <trkpt lat="43.77188" lon="3.79199">
        <ele>321</ele>
        <time>2019-01-28T11:40:54Z</time>
      </trkpt>
      <trkpt lat="43.77187" lon="3.79194">
        <ele>321</ele>
        <time>2019-01-28T11:40:54Z</time>
      </trkpt>
      <trkpt lat="43.77185" lon="3.79192">
        <ele>321</ele>
        <time>2019-01-28T11:40:54Z</time>
      </trkpt>
      <trkpt lat="43.77183" lon="3.79187">
        <ele>321</ele>
        <time>2019-01-28T11:41:10Z</time>
      </trkpt>
      <trkpt lat="43.77182" lon="3.79183">
        <ele>321</ele>
        <time>2019-01-28T11:41:10Z</time>
      </trkpt>
      <trkpt lat="43.77182" lon="3.79179">
        <ele>321</ele>
        <time>2019-01-28T11:41:10Z</time>
      </trkpt>
      <trkpt lat="43.77181" lon="3.79175">
        <ele>321</ele>
        <time>2019-01-28T11:41:10Z</time>
      </trkpt>
      <trkpt lat="43.77179" lon="3.79171">
        <ele>321</ele>
        <time>2019-01-28T11:41:26Z</time>
      </trkpt>
      <trkpt lat="43.77177" lon="3.79168">
        <ele>321</ele>
        <time>2019-01-28T11:41:26Z</time>
      </trkpt>
      <trkpt lat="43.77175" lon="3.79165">
        <ele>321</ele>
        <time>2019-01-28T11:41:26Z</time>
      </trkpt>
      <trkpt lat="43.77172" lon="3.79162">
        <ele>321</ele>
        <time>2019-01-28T11:41:26Z</time>
      </trkpt>
      <trkpt lat="43.77169" lon="3.79159">
        <ele>321</ele>
        <time>2019-01-28T11:41:50Z</time>
      </trkpt>
      <trkpt lat="43.77168" lon="3.79156">
        <ele>321</ele>
        <time>2019-01-28T11:41:50Z</time>
      </trkpt>
      <trkpt lat="43.77167" lon="3.79156">
        <ele>321</ele>
        <time>2019-01-28T11:41:50Z</time>
      </trkpt>
      <trkpt lat="43.77164" lon="3.79152">
        <ele>321</ele>
        <time>2019-01-28T11:41:50Z</time>
      </trkpt>
      <trkpt lat="43.77163" lon="3.79149">
        <ele>321</ele>
        <time>2019-01-28T11:41:50Z</time>
      </trkpt>
      <trkpt lat="43.77161" lon="3.79147">
        <ele>321</ele>
        <time>2019-01-28T11:42:10Z</time>
      </trkpt>
      <trkpt lat="43.77158" lon="3.79145">
        <ele>321</ele>
        <time>2019-01-28T11:42:10Z</time>
      </trkpt>
      <trkpt lat="43.77157" lon="3.79142">
        <ele>321</ele>
        <time>2019-01-28T11:42:10Z</time>
      </trkpt>
      <trkpt lat="43.77155" lon="3.79142">
        <ele>321</ele>
        <time>2019-01-28T11:42:10Z</time>
      </trkpt>
      <trkpt lat="43.77151" lon="3.79141">
        <ele>321</ele>
        <time>2019-01-28T11:42:10Z</time>
      </trkpt>
      <trkpt lat="43.77148" lon="3.79139">
        <ele>321</ele>
        <time>2019-01-28T11:42:30Z</time>
      </trkpt>
      <trkpt lat="43.77147" lon="3.79138">
        <ele>321</ele>
        <time>2019-01-28T11:42:30Z</time>
      </trkpt>
      <trkpt lat="43.77145" lon="3.79138">
        <ele>321</ele>
        <time>2019-01-28T11:42:30Z</time>
      </trkpt>
      <trkpt lat="43.77141" lon="3.79137">
        <ele>321</ele>
        <time>2019-01-28T11:42:30Z</time>
      </trkpt>
      <trkpt lat="43.77137" lon="3.79134">
        <ele>321</ele>
        <time>2019-01-28T11:42:30Z</time>
      </trkpt>
      <trkpt lat="43.77133" lon="3.79132">
        <ele>321</ele>
        <time>2019-01-28T11:42:46Z</time>
      </trkpt>
      <trkpt lat="43.77129" lon="3.79129">
        <ele>321</ele>
        <time>2019-01-28T11:42:46Z</time>
      </trkpt>
      <trkpt lat="43.77125" lon="3.79125">
        <ele>321</ele>
        <time>2019-01-28T11:42:46Z</time>
      </trkpt>
      <trkpt lat="43.77121" lon="3.79123">
        <ele>306</ele>
        <time>2019-01-28T11:42:46Z</time>
      </trkpt>
      <trkpt lat="43.77116" lon="3.79121">
        <ele>306</ele>
        <time>2019-01-28T11:43:02Z</time>
      </trkpt>
      <trkpt lat="43.77111" lon="3.79119">
        <ele>306</ele>
        <time>2019-01-28T11:43:02Z</time>
      </trkpt>
      <trkpt lat="43.77108" lon="3.79121">
        <ele>306</ele>
        <time>2019-01-28T11:43:02Z</time>
      </trkpt>
      <trkpt lat="43.77104" lon="3.79125">
        <ele>306</ele>
        <time>2019-01-28T11:43:02Z</time>
      </trkpt>
      <trkpt lat="43.771" lon="3.79128">
        <ele>305</ele>
        <time>2019-01-28T11:43:18Z</time>
      </trkpt>
      <trkpt lat="43.77096" lon="3.79132">
        <ele>305</ele>
        <time>2019-01-28T11:43:18Z</time>
      </trkpt>
      <trkpt lat="43.77095" lon="3.79139">
        <ele>305</ele>
        <time>2019-01-28T11:43:18Z</time>
      </trkpt>
      <trkpt lat="43.77094" lon="3.79144">
        <ele>305</ele>
        <time>2019-01-28T11:43:18Z</time>
      </trkpt>
      <trkpt lat="43.77093" lon="3.79149">
        <ele>305</ele>
        <time>2019-01-28T11:43:38Z</time>
      </trkpt>
      <trkpt lat="43.7709" lon="3.79152">
        <ele>305</ele>
        <time>2019-01-28T11:43:38Z</time>
      </trkpt>
      <trkpt lat="43.77088" lon="3.79155">
        <ele>305</ele>
        <time>2019-01-28T11:43:38Z</time>
      </trkpt>
      <trkpt lat="43.77087" lon="3.79157">
        <ele>305</ele>
        <time>2019-01-28T11:43:38Z</time>
      </trkpt>
      <trkpt lat="43.77083" lon="3.7916">
        <ele>305</ele>
        <time>2019-01-28T11:43:38Z</time>
      </trkpt>
      <trkpt lat="43.7708" lon="3.79162">
        <ele>305</ele>
        <time>2019-01-28T11:44:02Z</time>
      </trkpt>
      <trkpt lat="43.77076" lon="3.79164">
        <ele>305</ele>
        <time>2019-01-28T11:44:02Z</time>
      </trkpt>
      <trkpt lat="43.77069" lon="3.79171">
        <ele>305</ele>
        <time>2019-01-28T11:44:02Z</time>
      </trkpt>
      <trkpt lat="43.77067" lon="3.79173">
        <ele>305</ele>
        <time>2019-01-28T11:44:02Z</time>
      </trkpt>
      <trkpt lat="43.77065" lon="3.79174">
        <ele>305</ele>
        <time>2019-01-28T11:44:42Z</time>
      </trkpt>
      <trkpt lat="43.77063" lon="3.79174">
        <ele>305</ele>
        <time>2019-01-28T11:44:42Z</time>
      </trkpt>
      <trkpt lat="43.77057" lon="3.79181">
        <ele>305</ele>
        <time>2019-01-28T11:44:42Z</time>
      </trkpt>
      <trkpt lat="43.77051" lon="3.79188">
        <ele>305</ele>
        <time>2019-01-28T11:44:42Z</time>
      </trkpt>
      <trkpt lat="43.7705" lon="3.79196">
        <ele>305</ele>
        <time>2019-01-28T11:44:58Z</time>
      </trkpt>
      <trkpt lat="43.77051" lon="3.79204">
        <ele>305</ele>
        <time>2019-01-28T11:44:58Z</time>
      </trkpt>
      <trkpt lat="43.77048" lon="3.79208">
        <ele>305</ele>
        <time>2019-01-28T11:44:58Z</time>
      </trkpt>
      <trkpt lat="43.77043" lon="3.79211">
        <ele>304</ele>
        <time>2019-01-28T11:44:58Z</time>
      </trkpt>
      <trkpt lat="43.77041" lon="3.79214">
        <ele>293</ele>
        <time>2019-01-28T11:47:38Z</time>
      </trkpt>
      <trkpt lat="43.77041" lon="3.79214">
        <ele>293</ele>
        <time>2019-01-28T11:47:38Z</time>
      </trkpt>
      <trkpt lat="43.77034" lon="3.7921">
        <ele>293</ele>
        <time>2019-01-28T11:47:38Z</time>
      </trkpt>
      <trkpt lat="43.77024" lon="3.79208">
        <ele>292</ele>
        <time>2019-01-28T11:47:38Z</time>
      </trkpt>
      <trkpt lat="43.77014" lon="3.79211">
        <ele>293</ele>
        <time>2019-01-28T11:47:38Z</time>
      </trkpt>
      <trkpt lat="43.77003" lon="3.79217">
        <ele>293</ele>
        <time>2019-01-28T11:47:54Z</time>
      </trkpt>
      <trkpt lat="43.76991" lon="3.79208">
        <ele>292</ele>
        <time>2019-01-28T11:47:54Z</time>
      </trkpt>
      <trkpt lat="43.7698" lon="3.79187">
        <ele>292</ele>
        <time>2019-01-28T11:47:54Z</time>
      </trkpt>
      <trkpt lat="43.76967" lon="3.79163">
        <ele>292</ele>
        <time>2019-01-28T11:47:54Z</time>
      </trkpt>
      <trkpt lat="43.76961" lon="3.79153">
        <ele>292</ele>
        <time>2019-01-28T11:48:10Z</time>
      </trkpt>
      <trkpt lat="43.7695" lon="3.79152">
        <ele>289</ele>
        <time>2019-01-28T11:48:10Z</time>
      </trkpt>
      <trkpt lat="43.76932" lon="3.79155">
        <ele>289</ele>
        <time>2019-01-28T11:48:10Z</time>
      </trkpt>
      <trkpt lat="43.76908" lon="3.79158">
        <ele>289</ele>
        <time>2019-01-28T11:48:10Z</time>
      </trkpt>
      <trkpt lat="43.76886" lon="3.79175">
        <ele>289</ele>
        <time>2019-01-28T11:48:26Z</time>
      </trkpt>
      <trkpt lat="43.76874" lon="3.79203">
        <ele>287</ele>
        <time>2019-01-28T11:48:26Z</time>
      </trkpt>
      <trkpt lat="43.76859" lon="3.79235">
        <ele>289</ele>
        <time>2019-01-28T11:48:26Z</time>
      </trkpt>
      <trkpt lat="43.76849" lon="3.79269">
        <ele>289</ele>
        <time>2019-01-28T11:48:26Z</time>
      </trkpt>
      <trkpt lat="43.7684" lon="3.79299">
        <ele>289</ele>
        <time>2019-01-28T11:48:42Z</time>
      </trkpt>
      <trkpt lat="43.76833" lon="3.79322">
        <ele>289</ele>
        <time>2019-01-28T11:48:42Z</time>
      </trkpt>
      <trkpt lat="43.76828" lon="3.79344">
        <ele>289</ele>
        <time>2019-01-28T11:48:42Z</time>
      </trkpt>
      <trkpt lat="43.76819" lon="3.79375">
        <ele>289</ele>
        <time>2019-01-28T11:48:42Z</time>
      </trkpt>
      <trkpt lat="43.76808" lon="3.79409">
        <ele>289</ele>
        <time>2019-01-28T11:48:58Z</time>
      </trkpt>
      <trkpt lat="43.76796" lon="3.79447">
        <ele>289</ele>
        <time>2019-01-28T11:48:58Z</time>
      </trkpt>
      <trkpt lat="43.76783" lon="3.79491">
        <ele>286</ele>
        <time>2019-01-28T11:48:58Z</time>
      </trkpt>
      <trkpt lat="43.76767" lon="3.79537">
        <ele>286</ele>
        <time>2019-01-28T11:48:58Z</time>
      </trkpt>
      <trkpt lat="43.7675" lon="3.79587">
        <ele>287</ele>
        <time>2019-01-28T11:49:14Z</time>
      </trkpt>
      <trkpt lat="43.76736" lon="3.79634">
        <ele>287</ele>
        <time>2019-01-28T11:49:14Z</time>
      </trkpt>
      <trkpt lat="43.76726" lon="3.79675">
        <ele>287</ele>
        <time>2019-01-28T11:49:14Z</time>
      </trkpt>
      <trkpt lat="43.76717" lon="3.79716">
        <ele>286</ele>
        <time>2019-01-28T11:49:14Z</time>
      </trkpt>
      <trkpt lat="43.76706" lon="3.79759">
        <ele>283</ele>
        <time>2019-01-28T11:49:30Z</time>
      </trkpt>
      <trkpt lat="43.76697" lon="3.79804">
        <ele>281</ele>
        <time>2019-01-28T11:49:30Z</time>
      </trkpt>
      <trkpt lat="43.76685" lon="3.79848">
        <ele>281</ele>
        <time>2019-01-28T11:49:30Z</time>
      </trkpt>
      <trkpt lat="43.76669" lon="3.79893">
        <ele>282</ele>
        <time>2019-01-28T11:49:30Z</time>
      </trkpt>
      <trkpt lat="43.76653" lon="3.79937">
        <ele>282</ele>
        <time>2019-01-28T11:49:46Z</time>
      </trkpt>
      <trkpt lat="43.76637" lon="3.7998">
        <ele>286</ele>
        <time>2019-01-28T11:49:46Z</time>
      </trkpt>
      <trkpt lat="43.76623" lon="3.80024">
        <ele>285</ele>
        <time>2019-01-28T11:49:46Z</time>
      </trkpt>
      <trkpt lat="43.76607" lon="3.80067">
        <ele>287</ele>
        <time>2019-01-28T11:49:46Z</time>
      </trkpt>
      <trkpt lat="43.76591" lon="3.80114">
        <ele>287</ele>
        <time>2019-01-28T11:50:02Z</time>
      </trkpt>
      <trkpt lat="43.7657" lon="3.80158">
        <ele>293</ele>
        <time>2019-01-28T11:50:02Z</time>
      </trkpt>
      <trkpt lat="43.76551" lon="3.80205">
        <ele>293</ele>
        <time>2019-01-28T11:50:02Z</time>
      </trkpt>
      <trkpt lat="43.76535" lon="3.80248">
        <ele>292</ele>
        <time>2019-01-28T11:50:02Z</time>
      </trkpt>
      <trkpt lat="43.76528" lon="3.80289">
        <ele>292</ele>
        <time>2019-01-28T11:50:18Z</time>
      </trkpt>
      <trkpt lat="43.76521" lon="3.80336">
        <ele>294</ele>
        <time>2019-01-28T11:50:18Z</time>
      </trkpt>
      <trkpt lat="43.76515" lon="3.8038">
        <ele>294</ele>
        <time>2019-01-28T11:50:18Z</time>
      </trkpt>
      <trkpt lat="43.76519" lon="3.80425">
        <ele>294</ele>
        <time>2019-01-28T11:50:18Z</time>
      </trkpt>
      <trkpt lat="43.76521" lon="3.80475">
        <ele>299</ele>
        <time>2019-01-28T11:50:34Z</time>
      </trkpt>
      <trkpt lat="43.7651" lon="3.80519">
        <ele>299</ele>
        <time>2019-01-28T11:50:34Z</time>
      </trkpt>
      <trkpt lat="43.76484" lon="3.80529">
        <ele>299</ele>
        <time>2019-01-28T11:50:34Z</time>
      </trkpt>
      <trkpt lat="43.76464" lon="3.80543">
        <ele>303</ele>
        <time>2019-01-28T11:50:34Z</time>
      </trkpt>
      <trkpt lat="43.76457" lon="3.80572">
        <ele>288</ele>
        <time>2019-01-28T11:50:50Z</time>
      </trkpt>
      <trkpt lat="43.76477" lon="3.80607">
        <ele>303</ele>
        <time>2019-01-28T11:50:50Z</time>
      </trkpt>
      <trkpt lat="43.76496" lon="3.80649">
        <ele>297</ele>
        <time>2019-01-28T11:50:50Z</time>
      </trkpt>
      <trkpt lat="43.76511" lon="3.80688">
        <ele>297</ele>
        <time>2019-01-28T11:50:50Z</time>
      </trkpt>
      <trkpt lat="43.76521" lon="3.80732">
        <ele>294</ele>
        <time>2019-01-28T11:51:50Z</time>
      </trkpt>
      <trkpt lat="43.76525" lon="3.80739">
        <ele>294</ele>
        <time>2019-01-28T11:51:50Z</time>
      </trkpt>
      <trkpt lat="43.76535" lon="3.80743">
        <ele>294</ele>
        <time>2019-01-28T11:51:50Z</time>
      </trkpt>
      <trkpt lat="43.76551" lon="3.80753">
        <ele>298</ele>
        <time>2019-01-28T11:51:50Z</time>
      </trkpt>
      <trkpt lat="43.76574" lon="3.80763">
        <ele>298</ele>
        <time>2019-01-28T11:51:50Z</time>
      </trkpt>
      <trkpt lat="43.76609" lon="3.80765">
        <ele>298</ele>
        <time>2019-01-28T11:52:06Z</time>
      </trkpt>
      <trkpt lat="43.76645" lon="3.80761">
        <ele>309</ele>
        <time>2019-01-28T11:52:06Z</time>
      </trkpt>
      <trkpt lat="43.7668" lon="3.80757">
        <ele>309</ele>
        <time>2019-01-28T11:52:06Z</time>
      </trkpt>
      <trkpt lat="43.76705" lon="3.80767">
        <ele>309</ele>
        <time>2019-01-28T11:52:06Z</time>
      </trkpt>
      <trkpt lat="43.76733" lon="3.80776">
        <ele>312</ele>
        <time>2019-01-28T11:52:22Z</time>
      </trkpt>
      <trkpt lat="43.76757" lon="3.80778">
        <ele>312</ele>
        <time>2019-01-28T11:52:22Z</time>
      </trkpt>
      <trkpt lat="43.76783" lon="3.80771">
        <ele>312</ele>
        <time>2019-01-28T11:52:22Z</time>
      </trkpt>
      <trkpt lat="43.76815" lon="3.8076">
        <ele>304</ele>
        <time>2019-01-28T11:52:22Z</time>
      </trkpt>
      <trkpt lat="43.76844" lon="3.80759">
        <ele>304</ele>
        <time>2019-01-28T11:52:38Z</time>
      </trkpt>
      <trkpt lat="43.76875" lon="3.80766">
        <ele>304</ele>
        <time>2019-01-28T11:52:38Z</time>
      </trkpt>
      <trkpt lat="43.76897" lon="3.80793">
        <ele>286</ele>
        <time>2019-01-28T11:52:38Z</time>
      </trkpt>
      <trkpt lat="43.76912" lon="3.80827">
        <ele>286</ele>
        <time>2019-01-28T11:52:38Z</time>
      </trkpt>
      <trkpt lat="43.76946" lon="3.80867">
        <ele>286</ele>
        <time>2019-01-28T11:52:54Z</time>
      </trkpt>
      <trkpt lat="43.76966" lon="3.80912">
        <ele>284</ele>
        <time>2019-01-28T11:52:54Z</time>
      </trkpt>
      <trkpt lat="43.76986" lon="3.80956">
        <ele>284</ele>
        <time>2019-01-28T11:52:54Z</time>
      </trkpt>
      <trkpt lat="43.77009" lon="3.80988">
        <ele>259</ele>
        <time>2019-01-28T11:52:54Z</time>
      </trkpt>
      <trkpt lat="43.77027" lon="3.81005">
        <ele>259</ele>
        <time>2019-01-28T11:53:10Z</time>
      </trkpt>
      <trkpt lat="43.77047" lon="3.80997">
        <ele>256</ele>
        <time>2019-01-28T11:53:10Z</time>
      </trkpt>
      <trkpt lat="43.77072" lon="3.80939">
        <ele>276</ele>
        <time>2019-01-28T11:53:10Z</time>
      </trkpt>
      <trkpt lat="43.77091" lon="3.80904">
        <ele>276</ele>
        <time>2019-01-28T11:53:10Z</time>
      </trkpt>
      <trkpt lat="43.77121" lon="3.80886">
        <ele>276</ele>
        <time>2019-01-28T11:53:50Z</time>
      </trkpt>
      <trkpt lat="43.7711" lon="3.80895">
        <ele>276</ele>
        <time>2019-01-28T11:53:50Z</time>
      </trkpt>
      <trkpt lat="43.77098" lon="3.80905">
        <ele>276</ele>
        <time>2019-01-28T11:53:50Z</time>
      </trkpt>
      <trkpt lat="43.77096" lon="3.80904">
        <ele>276</ele>
        <time>2019-01-28T11:53:50Z</time>
      </trkpt>
      <trkpt lat="43.77095" lon="3.80906">
        <ele>276</ele>
        <time>2019-01-28T11:53:50Z</time>
      </trkpt>
      <trkpt lat="43.77088" lon="3.80914">
        <ele>276</ele>
        <time>2019-01-28T11:54:06Z</time>
      </trkpt>
      <trkpt lat="43.77076" lon="3.80936">
        <ele>276</ele>
        <time>2019-01-28T11:54:06Z</time>
      </trkpt>
      <trkpt lat="43.7706" lon="3.80962">
        <ele>256</ele>
        <time>2019-01-28T11:54:06Z</time>
      </trkpt>
      <trkpt lat="43.77035" lon="3.80984">
        <ele>259</ele>
        <time>2019-01-28T11:54:06Z</time>
      </trkpt>
      <trkpt lat="43.77007" lon="3.80974">
        <ele>259</ele>
        <time>2019-01-28T11:54:22Z</time>
      </trkpt>
      <trkpt lat="43.76985" lon="3.80939">
        <ele>284</ele>
        <time>2019-01-28T11:54:22Z</time>
      </trkpt>
      <trkpt lat="43.76968" lon="3.80906">
        <ele>284</ele>
        <time>2019-01-28T11:54:22Z</time>
      </trkpt>
      <trkpt lat="43.76955" lon="3.80877">
        <ele>257</ele>
        <time>2019-01-28T11:54:22Z</time>
      </trkpt>
      <trkpt lat="43.76943" lon="3.80847">
        <ele>286</ele>
        <time>2019-01-28T11:54:38Z</time>
      </trkpt>
      <trkpt lat="43.76926" lon="3.80819">
        <ele>286</ele>
        <time>2019-01-28T11:54:38Z</time>
      </trkpt>
      <trkpt lat="43.76905" lon="3.80793">
        <ele>286</ele>
        <time>2019-01-28T11:54:38Z</time>
      </trkpt>
      <trkpt lat="43.76885" lon="3.80765">
        <ele>310</ele>
        <time>2019-01-28T11:54:38Z</time>
      </trkpt>
      <trkpt lat="43.76861" lon="3.80744">
        <ele>304</ele>
        <time>2019-01-28T11:54:54Z</time>
      </trkpt>
      <trkpt lat="43.76831" lon="3.80751">
        <ele>304</ele>
        <time>2019-01-28T11:54:54Z</time>
      </trkpt>
      <trkpt lat="43.76802" lon="3.80756">
        <ele>304</ele>
        <time>2019-01-28T11:54:54Z</time>
      </trkpt>
      <trkpt lat="43.76768" lon="3.80766">
        <ele>312</ele>
        <time>2019-01-28T11:54:54Z</time>
      </trkpt>
      <trkpt lat="43.76728" lon="3.80776">
        <ele>312</ele>
        <time>2019-01-28T11:55:10Z</time>
      </trkpt>
      <trkpt lat="43.76689" lon="3.80765">
        <ele>309</ele>
        <time>2019-01-28T11:55:10Z</time>
      </trkpt>
      <trkpt lat="43.76651" lon="3.80756">
        <ele>309</ele>
        <time>2019-01-28T11:55:10Z</time>
      </trkpt>
      <trkpt lat="43.76613" lon="3.80759">
        <ele>298</ele>
        <time>2019-01-28T11:55:10Z</time>
      </trkpt>
      <trkpt lat="43.76575" lon="3.80755">
        <ele>298</ele>
        <time>2019-01-28T11:55:26Z</time>
      </trkpt>
      <trkpt lat="43.76546" lon="3.80738">
        <ele>298</ele>
        <time>2019-01-28T11:55:26Z</time>
      </trkpt>
      <trkpt lat="43.7653" lon="3.80733">
        <ele>294</ele>
        <time>2019-01-28T11:55:26Z</time>
      </trkpt>
      <trkpt lat="43.76527" lon="3.80741">
        <ele>294</ele>
        <time>2019-01-28T11:55:26Z</time>
      </trkpt>
      <trkpt lat="43.76523" lon="3.80748">
        <ele>294</ele>
        <time>2019-01-28T11:59:22Z</time>
      </trkpt>
      <trkpt lat="43.76518" lon="3.80752">
        <ele>294</ele>
        <time>2019-01-28T11:59:22Z</time>
      </trkpt>
      <trkpt lat="43.76516" lon="3.80756">
        <ele>294</ele>
        <time>2019-01-28T11:59:22Z</time>
      </trkpt>
      <trkpt lat="43.76514" lon="3.80761">
        <ele>294</ele>
        <time>2019-01-28T11:59:22Z</time>
      </trkpt>
      <trkpt lat="43.76513" lon="3.80767">
        <ele>294</ele>
        <time>2019-01-28T11:59:22Z</time>
      </trkpt>
      <trkpt lat="43.76512" lon="3.80772">
        <ele>294</ele>
        <time>2019-01-28T11:59:38Z</time>
      </trkpt>
      <trkpt lat="43.76508" lon="3.80776">
        <ele>294</ele>
        <time>2019-01-28T11:59:38Z</time>
      </trkpt>
      <trkpt lat="43.76505" lon="3.8078">
        <ele>294</ele>
        <time>2019-01-28T11:59:38Z</time>
      </trkpt>
      <trkpt lat="43.76503" lon="3.80789">
        <ele>294</ele>
        <time>2019-01-28T11:59:38Z</time>
      </trkpt>
      <trkpt lat="43.76502" lon="3.80799">
        <ele>278</ele>
        <time>2019-01-28T12:00:06Z</time>
      </trkpt>
      <trkpt lat="43.76507" lon="3.80796">
        <ele>278</ele>
        <time>2019-01-28T12:00:06Z</time>
      </trkpt>
      <trkpt lat="43.76511" lon="3.80792">
        <ele>278</ele>
        <time>2019-01-28T12:00:06Z</time>
      </trkpt>
      <trkpt lat="43.76514" lon="3.80786">
        <ele>294</ele>
        <time>2019-01-28T12:00:06Z</time>
      </trkpt>
      <trkpt lat="43.76516" lon="3.8078">
        <ele>294</ele>
        <time>2019-01-28T12:00:06Z</time>
      </trkpt>
      <trkpt lat="43.76519" lon="3.80773">
        <ele>294</ele>
        <time>2019-01-28T12:00:22Z</time>
      </trkpt>
      <trkpt lat="43.7652" lon="3.80766">
        <ele>294</ele>
        <time>2019-01-28T12:00:22Z</time>
      </trkpt>
      <trkpt lat="43.76522" lon="3.8076">
        <ele>294</ele>
        <time>2019-01-28T12:00:22Z</time>
      </trkpt>
      <trkpt lat="43.76524" lon="3.80756">
        <ele>294</ele>
        <time>2019-01-28T12:00:22Z</time>
      </trkpt>
      <trkpt lat="43.76528" lon="3.80752">
        <ele>294</ele>
        <time>2019-01-28T12:00:54Z</time>
      </trkpt>
      <trkpt lat="43.76529" lon="3.80752">
        <ele>294</ele>
        <time>2019-01-28T12:00:54Z</time>
      </trkpt>
      <trkpt lat="43.76524" lon="3.80754">
        <ele>294</ele>
        <time>2019-01-28T12:00:54Z</time>
      </trkpt>
      <trkpt lat="43.76518" lon="3.80757">
        <ele>294</ele>
        <time>2019-01-28T12:00:54Z</time>
      </trkpt>
      <trkpt lat="43.76515" lon="3.80762">
        <ele>294</ele>
        <time>2019-01-28T12:01:10Z</time>
      </trkpt>
      <trkpt lat="43.76514" lon="3.80768">
        <ele>294</ele>
        <time>2019-01-28T12:01:10Z</time>
      </trkpt>
      <trkpt lat="43.76512" lon="3.80773">
        <ele>294</ele>
        <time>2019-01-28T12:01:10Z</time>
      </trkpt>
      <trkpt lat="43.76508" lon="3.80777">
        <ele>294</ele>
        <time>2019-01-28T12:01:10Z</time>
      </trkpt>
      <trkpt lat="43.76506" lon="3.80783">
        <ele>294</ele>
        <time>2019-01-28T12:01:26Z</time>
      </trkpt>
      <trkpt lat="43.76502" lon="3.80787">
        <ele>294</ele>
        <time>2019-01-28T12:01:26Z</time>
      </trkpt>
      <trkpt lat="43.76498" lon="3.80792">
        <ele>294</ele>
        <time>2019-01-28T12:01:26Z</time>
      </trkpt>
      <trkpt lat="43.76494" lon="3.80795">
        <ele>278</ele>
        <time>2019-01-28T12:01:26Z</time>
      </trkpt>
      <trkpt lat="43.76491" lon="3.80799">
        <ele>278</ele>
        <time>2019-01-28T12:01:42Z</time>
      </trkpt>
      <trkpt lat="43.76487" lon="3.80803">
        <ele>278</ele>
        <time>2019-01-28T12:01:42Z</time>
      </trkpt>
      <trkpt lat="43.76483" lon="3.80807">
        <ele>278</ele>
        <time>2019-01-28T12:01:42Z</time>
      </trkpt>
      <trkpt lat="43.7648" lon="3.80811">
        <ele>278</ele>
        <time>2019-01-28T12:01:42Z</time>
      </trkpt>
      <trkpt lat="43.76477" lon="3.80813">
        <ele>278</ele>
        <time>2019-01-28T12:01:58Z</time>
      </trkpt>
      <trkpt lat="43.76472" lon="3.80817">
        <ele>278</ele>
        <time>2019-01-28T12:01:58Z</time>
      </trkpt>
      <trkpt lat="43.76469" lon="3.8082">
        <ele>278</ele>
        <time>2019-01-28T12:01:58Z</time>
      </trkpt>
      <trkpt lat="43.76465" lon="3.80823">
        <ele>278</ele>
        <time>2019-01-28T12:01:58Z</time>
      </trkpt>
      <trkpt lat="43.76463" lon="3.80826">
        <ele>278</ele>
        <time>2019-01-28T12:02:14Z</time>
      </trkpt>
      <trkpt lat="43.7646" lon="3.8083">
        <ele>278</ele>
        <time>2019-01-28T12:02:14Z</time>
      </trkpt>
      <trkpt lat="43.76457" lon="3.80834">
        <ele>305</ele>
        <time>2019-01-28T12:02:14Z</time>
      </trkpt>
      <trkpt lat="43.76452" lon="3.8084">
        <ele>305</ele>
        <time>2019-01-28T12:02:14Z</time>
      </trkpt>
      <trkpt lat="43.76445" lon="3.80844">
        <ele>305</ele>
        <time>2019-01-28T12:02:30Z</time>
      </trkpt>
      <trkpt lat="43.76441" lon="3.80848">
        <ele>305</ele>
        <time>2019-01-28T12:02:30Z</time>
      </trkpt>
      <trkpt lat="43.76438" lon="3.80852">
        <ele>305</ele>
        <time>2019-01-28T12:02:30Z</time>
      </trkpt>
      <trkpt lat="43.76436" lon="3.80857">
        <ele>305</ele>
        <time>2019-01-28T12:02:30Z</time>
      </trkpt>
      <trkpt lat="43.76436" lon="3.80861">
        <ele>305</ele>
        <time>2019-01-28T12:03:10Z</time>
      </trkpt>
      <trkpt lat="43.76433" lon="3.80864">
        <ele>305</ele>
        <time>2019-01-28T12:03:10Z</time>
      </trkpt>
      <trkpt lat="43.76433" lon="3.80871">
        <ele>305</ele>
        <time>2019-01-28T12:03:10Z</time>
      </trkpt>
      <trkpt lat="43.76431" lon="3.80878">
        <ele>292</ele>
        <time>2019-01-28T12:03:10Z</time>
      </trkpt>
      <trkpt lat="43.76431" lon="3.80881">
        <ele>292</ele>
        <time>2019-01-28T12:03:26Z</time>
      </trkpt>
      <trkpt lat="43.76429" lon="3.80888">
        <ele>292</ele>
        <time>2019-01-28T12:03:26Z</time>
      </trkpt>
      <trkpt lat="43.76427" lon="3.80893">
        <ele>292</ele>
        <time>2019-01-28T12:03:26Z</time>
      </trkpt>
      <trkpt lat="43.76424" lon="3.80898">
        <ele>292</ele>
        <time>2019-01-28T12:03:26Z</time>
      </trkpt>
      <trkpt lat="43.76422" lon="3.80903">
        <ele>292</ele>
        <time>2019-01-28T12:03:42Z</time>
      </trkpt>
      <trkpt lat="43.7642" lon="3.80908">
        <ele>292</ele>
        <time>2019-01-28T12:03:42Z</time>
      </trkpt>
      <trkpt lat="43.76416" lon="3.80915">
        <ele>292</ele>
        <time>2019-01-28T12:03:42Z</time>
      </trkpt>
      <trkpt lat="43.76412" lon="3.8092">
        <ele>292</ele>
        <time>2019-01-28T12:03:42Z</time>
      </trkpt>
      <trkpt lat="43.76409" lon="3.80924">
        <ele>292</ele>
        <time>2019-01-28T12:03:58Z</time>
      </trkpt>
      <trkpt lat="43.76406" lon="3.80928">
        <ele>292</ele>
        <time>2019-01-28T12:03:58Z</time>
      </trkpt>
      <trkpt lat="43.76403" lon="3.80933">
        <ele>292</ele>
        <time>2019-01-28T12:03:58Z</time>
      </trkpt>
      <trkpt lat="43.76402" lon="3.80939">
        <ele>292</ele>
        <time>2019-01-28T12:03:58Z</time>
      </trkpt>
      <trkpt lat="43.764" lon="3.80943">
        <ele>292</ele>
        <time>2019-01-28T12:04:14Z</time>
      </trkpt>
      <trkpt lat="43.76397" lon="3.80947">
        <ele>292</ele>
        <time>2019-01-28T12:04:14Z</time>
      </trkpt>
      <trkpt lat="43.76394" lon="3.80951">
        <ele>292</ele>
        <time>2019-01-28T12:04:14Z</time>
      </trkpt>
      <trkpt lat="43.76392" lon="3.80956">
        <ele>292</ele>
        <time>2019-01-28T12:04:14Z</time>
      </trkpt>
      <trkpt lat="43.76388" lon="3.80961">
        <ele>264</ele>
        <time>2019-01-28T12:04:30Z</time>
      </trkpt>
      <trkpt lat="43.76382" lon="3.80965">
        <ele>264</ele>
        <time>2019-01-28T12:04:30Z</time>
      </trkpt>
      <trkpt lat="43.76382" lon="3.8097">
        <ele>264</ele>
        <time>2019-01-28T12:04:30Z</time>
      </trkpt>
      <trkpt lat="43.76382" lon="3.80972">
        <ele>264</ele>
        <time>2019-01-28T12:04:30Z</time>
      </trkpt>
      <trkpt lat="43.7638" lon="3.80976">
        <ele>264</ele>
        <time>2019-01-28T12:04:54Z</time>
      </trkpt>
      <trkpt lat="43.76381" lon="3.80977">
        <ele>264</ele>
        <time>2019-01-28T12:04:54Z</time>
      </trkpt>
      <trkpt lat="43.76378" lon="3.8098">
        <ele>264</ele>
        <time>2019-01-28T12:04:54Z</time>
      </trkpt>
      <trkpt lat="43.76374" lon="3.80985">
        <ele>289</ele>
        <time>2019-01-28T12:04:54Z</time>
      </trkpt>
      <trkpt lat="43.76371" lon="3.80992">
        <ele>289</ele>
        <time>2019-01-28T12:04:54Z</time>
      </trkpt>
      <trkpt lat="43.76366" lon="3.80997">
        <ele>289</ele>
        <time>2019-01-28T12:05:10Z</time>
      </trkpt>
      <trkpt lat="43.76361" lon="3.81">
        <ele>289</ele>
        <time>2019-01-28T12:05:10Z</time>
      </trkpt>
      <trkpt lat="43.76357" lon="3.81005">
        <ele>289</ele>
        <time>2019-01-28T12:05:10Z</time>
      </trkpt>
      <trkpt lat="43.76354" lon="3.81009">
        <ele>289</ele>
        <time>2019-01-28T12:05:10Z</time>
      </trkpt>
      <trkpt lat="43.76347" lon="3.81018">
        <ele>289</ele>
        <time>2019-01-28T12:06:02Z</time>
      </trkpt>
      <trkpt lat="43.76347" lon="3.81019">
        <ele>289</ele>
        <time>2019-01-28T12:06:02Z</time>
      </trkpt>
      <trkpt lat="43.76346" lon="3.81027">
        <ele>289</ele>
        <time>2019-01-28T12:06:02Z</time>
      </trkpt>
      <trkpt lat="43.76343" lon="3.81035">
        <ele>289</ele>
        <time>2019-01-28T12:06:02Z</time>
      </trkpt>
      <trkpt lat="43.76341" lon="3.8104">
        <ele>289</ele>
        <time>2019-01-28T12:06:02Z</time>
      </trkpt>
      <trkpt lat="43.76339" lon="3.81044">
        <ele>276</ele>
        <time>2019-01-28T12:06:18Z</time>
      </trkpt>
      <trkpt lat="43.76333" lon="3.81046">
        <ele>276</ele>
        <time>2019-01-28T12:06:18Z</time>
      </trkpt>
      <trkpt lat="43.76329" lon="3.8105">
        <ele>276</ele>
        <time>2019-01-28T12:06:18Z</time>
      </trkpt>
      <trkpt lat="43.76326" lon="3.81055">
        <ele>276</ele>
        <time>2019-01-28T12:06:18Z</time>
      </trkpt>
      <trkpt lat="43.76323" lon="3.81061">
        <ele>276</ele>
        <time>2019-01-28T12:06:34Z</time>
      </trkpt>
      <trkpt lat="43.7632" lon="3.81065">
        <ele>276</ele>
        <time>2019-01-28T12:06:34Z</time>
      </trkpt>
      <trkpt lat="43.76316" lon="3.8107">
        <ele>276</ele>
        <time>2019-01-28T12:06:34Z</time>
      </trkpt>
      <trkpt lat="43.76314" lon="3.81075">
        <ele>276</ele>
        <time>2019-01-28T12:06:34Z</time>
      </trkpt>
      <trkpt lat="43.76311" lon="3.8108">
        <ele>276</ele>
        <time>2019-01-28T12:06:50Z</time>
      </trkpt>
      <trkpt lat="43.76308" lon="3.81086">
        <ele>276</ele>
        <time>2019-01-28T12:06:50Z</time>
      </trkpt>
      <trkpt lat="43.76307" lon="3.81093">
        <ele>276</ele>
        <time>2019-01-28T12:06:50Z</time>
      </trkpt>
      <trkpt lat="43.76307" lon="3.81099">
        <ele>276</ele>
        <time>2019-01-28T12:06:50Z</time>
      </trkpt>
      <trkpt lat="43.76305" lon="3.81104">
        <ele>276</ele>
        <time>2019-01-28T12:07:06Z</time>
      </trkpt>
      <trkpt lat="43.76305" lon="3.8111">
        <ele>276</ele>
        <time>2019-01-28T12:07:06Z</time>
      </trkpt>
      <trkpt lat="43.76302" lon="3.81115">
        <ele>276</ele>
        <time>2019-01-28T12:07:06Z</time>
      </trkpt>
      <trkpt lat="43.76299" lon="3.81123">
        <ele>276</ele>
        <time>2019-01-28T12:07:06Z</time>
      </trkpt>
      <trkpt lat="43.76297" lon="3.81129">
        <ele>269</ele>
        <time>2019-01-28T12:07:22Z</time>
      </trkpt>
      <trkpt lat="43.76294" lon="3.81133">
        <ele>269</ele>
        <time>2019-01-28T12:07:22Z</time>
      </trkpt>
      <trkpt lat="43.76291" lon="3.81135">
        <ele>281</ele>
        <time>2019-01-28T12:07:22Z</time>
      </trkpt>
      <trkpt lat="43.76287" lon="3.81137">
        <ele>281</ele>
        <time>2019-01-28T12:07:22Z</time>
      </trkpt>
      <trkpt lat="43.76281" lon="3.81141">
        <ele>281</ele>
        <time>2019-01-28T12:07:38Z</time>
      </trkpt>
      <trkpt lat="43.76279" lon="3.81148">
        <ele>281</ele>
        <time>2019-01-28T12:07:38Z</time>
      </trkpt>
      <trkpt lat="43.76276" lon="3.81154">
        <ele>281</ele>
        <time>2019-01-28T12:07:38Z</time>
      </trkpt>
      <trkpt lat="43.76274" lon="3.81158">
        <ele>281</ele>
        <time>2019-01-28T12:07:38Z</time>
      </trkpt>
      <trkpt lat="43.76271" lon="3.81159">
        <ele>281</ele>
        <time>2019-01-28T12:07:54Z</time>
      </trkpt>
      <trkpt lat="43.76271" lon="3.81165">
        <ele>281</ele>
        <time>2019-01-28T12:07:54Z</time>
      </trkpt>
      <trkpt lat="43.76269" lon="3.81169">
        <ele>281</ele>
        <time>2019-01-28T12:07:54Z</time>
      </trkpt>
      <trkpt lat="43.76268" lon="3.81174">
        <ele>281</ele>
        <time>2019-01-28T12:07:54Z</time>
      </trkpt>
      <trkpt lat="43.76267" lon="3.81174">
        <ele>281</ele>
        <time>2019-01-28T12:08:38Z</time>
      </trkpt>
      <trkpt lat="43.76271" lon="3.81174">
        <ele>281</ele>
        <time>2019-01-28T12:08:38Z</time>
      </trkpt>
      <trkpt lat="43.76273" lon="3.81171">
        <ele>281</ele>
        <time>2019-01-28T12:08:38Z</time>
      </trkpt>
      <trkpt lat="43.76275" lon="3.8117">
        <ele>281</ele>
        <time>2019-01-28T12:08:38Z</time>
      </trkpt>
      <trkpt lat="43.7628" lon="3.81167">
        <ele>281</ele>
        <time>2019-01-28T12:08:38Z</time>
      </trkpt>
      <trkpt lat="43.76282" lon="3.81162">
        <ele>281</ele>
        <time>2019-01-28T12:08:54Z</time>
      </trkpt>
      <trkpt lat="43.76281" lon="3.81157">
        <ele>281</ele>
        <time>2019-01-28T12:08:54Z</time>
      </trkpt>
      <trkpt lat="43.76276" lon="3.81153">
        <ele>281</ele>
        <time>2019-01-28T12:08:54Z</time>
      </trkpt>
      <trkpt lat="43.7627" lon="3.8115">
        <ele>281</ele>
        <time>2019-01-28T12:08:54Z</time>
      </trkpt>
      <trkpt lat="43.76268" lon="3.81151">
        <ele>281</ele>
        <time>2019-01-28T12:09:10Z</time>
      </trkpt>
      <trkpt lat="43.76264" lon="3.81152">
        <ele>281</ele>
        <time>2019-01-28T12:09:10Z</time>
      </trkpt>
      <trkpt lat="43.7626" lon="3.81153">
        <ele>281</ele>
        <time>2019-01-28T12:09:10Z</time>
      </trkpt>
      <trkpt lat="43.76255" lon="3.81155">
        <ele>281</ele>
        <time>2019-01-28T12:09:10Z</time>
      </trkpt>
      <trkpt lat="43.76252" lon="3.8116">
        <ele>281</ele>
        <time>2019-01-28T12:09:26Z</time>
      </trkpt>
      <trkpt lat="43.76249" lon="3.81164">
        <ele>281</ele>
        <time>2019-01-28T12:09:26Z</time>
      </trkpt>
      <trkpt lat="43.76247" lon="3.81171">
        <ele>281</ele>
        <time>2019-01-28T12:09:26Z</time>
      </trkpt>
      <trkpt lat="43.76246" lon="3.81173">
        <ele>281</ele>
        <time>2019-01-28T12:09:26Z</time>
      </trkpt>
      <trkpt lat="43.76243" lon="3.81175">
        <ele>281</ele>
        <time>2019-01-28T12:09:54Z</time>
      </trkpt>
      <trkpt lat="43.76237" lon="3.81176">
        <ele>281</ele>
        <time>2019-01-28T12:09:54Z</time>
      </trkpt>
      <trkpt lat="43.76231" lon="3.81177">
        <ele>281</ele>
        <time>2019-01-28T12:09:54Z</time>
      </trkpt>
      <trkpt lat="43.76224" lon="3.81178">
        <ele>281</ele>
        <time>2019-01-28T12:09:54Z</time>
      </trkpt>
      <trkpt lat="43.76221" lon="3.81176">
        <ele>281</ele>
        <time>2019-01-28T12:10:42Z</time>
      </trkpt>
      <trkpt lat="43.76216" lon="3.81179">
        <ele>281</ele>
        <time>2019-01-28T12:10:42Z</time>
      </trkpt>
      <trkpt lat="43.76214" lon="3.81176">
        <ele>281</ele>
        <time>2019-01-28T12:10:42Z</time>
      </trkpt>
      <trkpt lat="43.76213" lon="3.81181">
        <ele>281</ele>
        <time>2019-01-28T12:10:42Z</time>
      </trkpt>
      <trkpt lat="43.7621" lon="3.81185">
        <ele>281</ele>
        <time>2019-01-28T12:10:42Z</time>
      </trkpt>
      <trkpt lat="43.76206" lon="3.8119">
        <ele>275</ele>
        <time>2019-01-28T12:10:58Z</time>
      </trkpt>
      <trkpt lat="43.76208" lon="3.81196">
        <ele>275</ele>
        <time>2019-01-28T12:10:58Z</time>
      </trkpt>
      <trkpt lat="43.76209" lon="3.81201">
        <ele>281</ele>
        <time>2019-01-28T12:10:58Z</time>
      </trkpt>
      <trkpt lat="43.76211" lon="3.81208">
        <ele>281</ele>
        <time>2019-01-28T12:10:58Z</time>
      </trkpt>
      <trkpt lat="43.76212" lon="3.81215">
        <ele>282</ele>
        <time>2019-01-28T12:11:14Z</time>
      </trkpt>
      <trkpt lat="43.76214" lon="3.81221">
        <ele>282</ele>
        <time>2019-01-28T12:11:14Z</time>
      </trkpt>
      <trkpt lat="43.76212" lon="3.81228">
        <ele>282</ele>
        <time>2019-01-28T12:11:14Z</time>
      </trkpt>
      <trkpt lat="43.76212" lon="3.81233">
        <ele>282</ele>
        <time>2019-01-28T12:11:14Z</time>
      </trkpt>
      <trkpt lat="43.7621" lon="3.8124">
        <ele>282</ele>
        <time>2019-01-28T12:11:30Z</time>
      </trkpt>
      <trkpt lat="43.76209" lon="3.81245">
        <ele>282</ele>
        <time>2019-01-28T12:11:30Z</time>
      </trkpt>
      <trkpt lat="43.76208" lon="3.81251">
        <ele>282</ele>
        <time>2019-01-28T12:11:30Z</time>
      </trkpt>
      <trkpt lat="43.76208" lon="3.81256">
        <ele>278</ele>
        <time>2019-01-28T12:11:30Z</time>
      </trkpt>
      <trkpt lat="43.76207" lon="3.81262">
        <ele>278</ele>
        <time>2019-01-28T12:11:46Z</time>
      </trkpt>
      <trkpt lat="43.76206" lon="3.81269">
        <ele>278</ele>
        <time>2019-01-28T12:11:46Z</time>
      </trkpt>
      <trkpt lat="43.76207" lon="3.81275">
        <ele>278</ele>
        <time>2019-01-28T12:11:46Z</time>
      </trkpt>
      <trkpt lat="43.76205" lon="3.8128">
        <ele>278</ele>
        <time>2019-01-28T12:11:46Z</time>
      </trkpt>
      <trkpt lat="43.76201" lon="3.81282">
        <ele>278</ele>
        <time>2019-01-28T12:12:02Z</time>
      </trkpt>
      <trkpt lat="43.76199" lon="3.81289">
        <ele>278</ele>
        <time>2019-01-28T12:12:02Z</time>
      </trkpt>
      <trkpt lat="43.76197" lon="3.81298">
        <ele>276</ele>
        <time>2019-01-28T12:12:02Z</time>
      </trkpt>
      <trkpt lat="43.76199" lon="3.81305">
        <ele>276</ele>
        <time>2019-01-28T12:12:02Z</time>
      </trkpt>
      <trkpt lat="43.76202" lon="3.81311">
        <ele>276</ele>
        <time>2019-01-28T12:12:18Z</time>
      </trkpt>
      <trkpt lat="43.76206" lon="3.81318">
        <ele>276</ele>
        <time>2019-01-28T12:12:18Z</time>
      </trkpt>
      <trkpt lat="43.76208" lon="3.81326">
        <ele>276</ele>
        <time>2019-01-28T12:12:18Z</time>
      </trkpt>
      <trkpt lat="43.76211" lon="3.81333">
        <ele>276</ele>
        <time>2019-01-28T12:12:18Z</time>
      </trkpt>
      <trkpt lat="43.76215" lon="3.81338">
        <ele>276</ele>
        <time>2019-01-28T12:12:34Z</time>
      </trkpt>
      <trkpt lat="43.76218" lon="3.81345">
        <ele>276</ele>
        <time>2019-01-28T12:12:34Z</time>
      </trkpt>
      <trkpt lat="43.7622" lon="3.81352">
        <ele>276</ele>
        <time>2019-01-28T12:12:34Z</time>
      </trkpt>
      <trkpt lat="43.76221" lon="3.81356">
        <ele>276</ele>
        <time>2019-01-28T12:12:34Z</time>
      </trkpt>
      <trkpt lat="43.76222" lon="3.81361">
        <ele>276</ele>
        <time>2019-01-28T12:12:50Z</time>
      </trkpt>
      <trkpt lat="43.76224" lon="3.81366">
        <ele>276</ele>
        <time>2019-01-28T12:12:50Z</time>
      </trkpt>
      <trkpt lat="43.76226" lon="3.81372">
        <ele>276</ele>
        <time>2019-01-28T12:12:50Z</time>
      </trkpt>
      <trkpt lat="43.76225" lon="3.81376">
        <ele>273</ele>
        <time>2019-01-28T12:12:50Z</time>
      </trkpt>
      <trkpt lat="43.76224" lon="3.81379">
        <ele>273</ele>
        <time>2019-01-28T12:13:06Z</time>
      </trkpt>
      <trkpt lat="43.76223" lon="3.81383">
        <ele>273</ele>
        <time>2019-01-28T12:13:06Z</time>
      </trkpt>
      <trkpt lat="43.76221" lon="3.81389">
        <ele>273</ele>
        <time>2019-01-28T12:13:06Z</time>
      </trkpt>
      <trkpt lat="43.76219" lon="3.81397">
        <ele>273</ele>
        <time>2019-01-28T12:13:06Z</time>
      </trkpt>
      <trkpt lat="43.76217" lon="3.81405">
        <ele>273</ele>
        <time>2019-01-28T12:13:22Z</time>
      </trkpt>
      <trkpt lat="43.76217" lon="3.81415">
        <ele>273</ele>
        <time>2019-01-28T12:13:22Z</time>
      </trkpt>
      <trkpt lat="43.76217" lon="3.81423">
        <ele>273</ele>
        <time>2019-01-28T12:13:22Z</time>
      </trkpt>
      <trkpt lat="43.76218" lon="3.81428">
        <ele>273</ele>
        <time>2019-01-28T12:13:22Z</time>
      </trkpt>
      <trkpt lat="43.76223" lon="3.81434">
        <ele>273</ele>
        <time>2019-01-28T12:13:38Z</time>
      </trkpt>
      <trkpt lat="43.76228" lon="3.81438">
        <ele>273</ele>
        <time>2019-01-28T12:13:38Z</time>
      </trkpt>
      <trkpt lat="43.7623" lon="3.81439">
        <ele>273</ele>
        <time>2019-01-28T12:13:38Z</time>
      </trkpt>
      <trkpt lat="43.76233" lon="3.81439">
        <ele>273</ele>
        <time>2019-01-28T12:13:38Z</time>
      </trkpt>
      <trkpt lat="43.76239" lon="3.81444">
        <ele>273</ele>
        <time>2019-01-28T12:13:54Z</time>
      </trkpt>
      <trkpt lat="43.76244" lon="3.81447">
        <ele>273</ele>
        <time>2019-01-28T12:13:54Z</time>
      </trkpt>
      <trkpt lat="43.76248" lon="3.81451">
        <ele>273</ele>
        <time>2019-01-28T12:13:54Z</time>
      </trkpt>
      <trkpt lat="43.76251" lon="3.81456">
        <ele>273</ele>
        <time>2019-01-28T12:13:54Z</time>
      </trkpt>
      <trkpt lat="43.76253" lon="3.81462">
        <ele>275</ele>
        <time>2019-01-28T12:14:10Z</time>
      </trkpt>
      <trkpt lat="43.76256" lon="3.81466">
        <ele>275</ele>
        <time>2019-01-28T12:14:10Z</time>
      </trkpt>
      <trkpt lat="43.76258" lon="3.8147">
        <ele>275</ele>
        <time>2019-01-28T12:14:10Z</time>
      </trkpt>
      <trkpt lat="43.7626" lon="3.81474">
        <ele>275</ele>
        <time>2019-01-28T12:14:10Z</time>
      </trkpt>
      <trkpt lat="43.76264" lon="3.8148">
        <ele>275</ele>
        <time>2019-01-28T12:14:26Z</time>
      </trkpt>
      <trkpt lat="43.76267" lon="3.81485">
        <ele>275</ele>
        <time>2019-01-28T12:14:26Z</time>
      </trkpt>
      <trkpt lat="43.76269" lon="3.81492">
        <ele>275</ele>
        <time>2019-01-28T12:14:26Z</time>
      </trkpt>
      <trkpt lat="43.76271" lon="3.81497">
        <ele>275</ele>
        <time>2019-01-28T12:14:26Z</time>
      </trkpt>
      <trkpt lat="43.76269" lon="3.81512">
        <ele>275</ele>
        <time>2019-01-28T12:15:18Z</time>
      </trkpt>
      <trkpt lat="43.76264" lon="3.81516">
        <ele>275</ele>
        <time>2019-01-28T12:15:18Z</time>
      </trkpt>
      <trkpt lat="43.76261" lon="3.81522">
        <ele>275</ele>
        <time>2019-01-28T12:15:18Z</time>
      </trkpt>
      <trkpt lat="43.76259" lon="3.81529">
        <ele>275</ele>
        <time>2019-01-28T12:15:18Z</time>
      </trkpt>
      <trkpt lat="43.76258" lon="3.81533">
        <ele>275</ele>
        <time>2019-01-28T12:15:18Z</time>
      </trkpt>
      <trkpt lat="43.76259" lon="3.81537">
        <ele>275</ele>
        <time>2019-01-28T12:15:34Z</time>
      </trkpt>
      <trkpt lat="43.76259" lon="3.81543">
        <ele>276</ele>
        <time>2019-01-28T12:15:34Z</time>
      </trkpt>
      <trkpt lat="43.76258" lon="3.8155">
        <ele>276</ele>
        <time>2019-01-28T12:15:34Z</time>
      </trkpt>
      <trkpt lat="43.76256" lon="3.81558">
        <ele>276</ele>
        <time>2019-01-28T12:15:34Z</time>
      </trkpt>
      <trkpt lat="43.76256" lon="3.81564">
        <ele>276</ele>
        <time>2019-01-28T12:16:10Z</time>
      </trkpt>
      <trkpt lat="43.76256" lon="3.81565">
        <ele>276</ele>
        <time>2019-01-28T12:16:10Z</time>
      </trkpt>
      <trkpt lat="43.76252" lon="3.81569">
        <ele>276</ele>
        <time>2019-01-28T12:16:10Z</time>
      </trkpt>
      <trkpt lat="43.76251" lon="3.81573">
        <ele>276</ele>
        <time>2019-01-28T12:16:10Z</time>
      </trkpt>
      <trkpt lat="43.76249" lon="3.8158">
        <ele>276</ele>
        <time>2019-01-28T12:16:10Z</time>
      </trkpt>
      <trkpt lat="43.76249" lon="3.81587">
        <ele>276</ele>
        <time>2019-01-28T12:16:26Z</time>
      </trkpt>
      <trkpt lat="43.7625" lon="3.81593">
        <ele>276</ele>
        <time>2019-01-28T12:16:26Z</time>
      </trkpt>
      <trkpt lat="43.7625" lon="3.81598">
        <ele>276</ele>
        <time>2019-01-28T12:16:26Z</time>
      </trkpt>
      <trkpt lat="43.7625" lon="3.81603">
        <ele>276</ele>
        <time>2019-01-28T12:16:26Z</time>
      </trkpt>
      <trkpt lat="43.7625" lon="3.81608">
        <ele>276</ele>
        <time>2019-01-28T12:16:42Z</time>
      </trkpt>
      <trkpt lat="43.76251" lon="3.81615">
        <ele>276</ele>
        <time>2019-01-28T12:16:42Z</time>
      </trkpt>
      <trkpt lat="43.76251" lon="3.81621">
        <ele>276</ele>
        <time>2019-01-28T12:16:42Z</time>
      </trkpt>
      <trkpt lat="43.76249" lon="3.81623">
        <ele>276</ele>
        <time>2019-01-28T12:16:42Z</time>
      </trkpt>
      <trkpt lat="43.76246" lon="3.81627">
        <ele>286</ele>
        <time>2019-01-28T12:16:58Z</time>
      </trkpt>
      <trkpt lat="43.76242" lon="3.8163">
        <ele>286</ele>
        <time>2019-01-28T12:16:58Z</time>
      </trkpt>
      <trkpt lat="43.76237" lon="3.81634">
        <ele>286</ele>
        <time>2019-01-28T12:16:58Z</time>
      </trkpt>
      <trkpt lat="43.76233" lon="3.81638">
        <ele>286</ele>
        <time>2019-01-28T12:16:58Z</time>
      </trkpt>
      <trkpt lat="43.76232" lon="3.81646">
        <ele>286</ele>
        <time>2019-01-28T12:17:14Z</time>
      </trkpt>
      <trkpt lat="43.7623" lon="3.81652">
        <ele>286</ele>
        <time>2019-01-28T12:17:14Z</time>
      </trkpt>
      <trkpt lat="43.76228" lon="3.81657">
        <ele>286</ele>
        <time>2019-01-28T12:17:14Z</time>
      </trkpt>
      <trkpt lat="43.76225" lon="3.81662">
        <ele>286</ele>
        <time>2019-01-28T12:17:14Z</time>
      </trkpt>
      <trkpt lat="43.76224" lon="3.81669">
        <ele>286</ele>
        <time>2019-01-28T12:17:30Z</time>
      </trkpt>
      <trkpt lat="43.76222" lon="3.81674">
        <ele>286</ele>
        <time>2019-01-28T12:17:30Z</time>
      </trkpt>
      <trkpt lat="43.76216" lon="3.81679">
        <ele>286</ele>
        <time>2019-01-28T12:17:30Z</time>
      </trkpt>
      <trkpt lat="43.76212" lon="3.81684">
        <ele>286</ele>
        <time>2019-01-28T12:17:30Z</time>
      </trkpt>
      <trkpt lat="43.76211" lon="3.81691">
        <ele>286</ele>
        <time>2019-01-28T12:17:46Z</time>
      </trkpt>
      <trkpt lat="43.76207" lon="3.81695">
        <ele>281</ele>
        <time>2019-01-28T12:17:46Z</time>
      </trkpt>
      <trkpt lat="43.76205" lon="3.817">
        <ele>281</ele>
        <time>2019-01-28T12:17:46Z</time>
      </trkpt>
      <trkpt lat="43.76203" lon="3.81705">
        <ele>281</ele>
        <time>2019-01-28T12:17:46Z</time>
      </trkpt>
      <trkpt lat="43.762" lon="3.81708">
        <ele>281</ele>
        <time>2019-01-28T12:18:02Z</time>
      </trkpt>
      <trkpt lat="43.76198" lon="3.81713">
        <ele>284</ele>
        <time>2019-01-28T12:18:02Z</time>
      </trkpt>
      <trkpt lat="43.76195" lon="3.81719">
        <ele>284</ele>
        <time>2019-01-28T12:18:02Z</time>
      </trkpt>
      <trkpt lat="43.76192" lon="3.81727">
        <ele>284</ele>
        <time>2019-01-28T12:18:02Z</time>
      </trkpt>
      <trkpt lat="43.76191" lon="3.81733">
        <ele>284</ele>
        <time>2019-01-28T12:18:18Z</time>
      </trkpt>
      <trkpt lat="43.7619" lon="3.81737">
        <ele>284</ele>
        <time>2019-01-28T12:18:18Z</time>
      </trkpt>
      <trkpt lat="43.76189" lon="3.81744">
        <ele>284</ele>
        <time>2019-01-28T12:18:18Z</time>
      </trkpt>
      <trkpt lat="43.76188" lon="3.81751">
        <ele>284</ele>
        <time>2019-01-28T12:18:18Z</time>
      </trkpt>
      <trkpt lat="43.76186" lon="3.81759">
        <ele>284</ele>
        <time>2019-01-28T12:18:34Z</time>
      </trkpt>
      <trkpt lat="43.76185" lon="3.81766">
        <ele>284</ele>
        <time>2019-01-28T12:18:34Z</time>
      </trkpt>
      <trkpt lat="43.76183" lon="3.81773">
        <ele>284</ele>
        <time>2019-01-28T12:18:34Z</time>
      </trkpt>
      <trkpt lat="43.7618" lon="3.81777">
        <ele>284</ele>
        <time>2019-01-28T12:18:34Z</time>
      </trkpt>
      <trkpt lat="43.76175" lon="3.81781">
        <ele>284</ele>
        <time>2019-01-28T12:18:50Z</time>
      </trkpt>
      <trkpt lat="43.76171" lon="3.8178">
        <ele>284</ele>
        <time>2019-01-28T12:18:50Z</time>
      </trkpt>
      <trkpt lat="43.76171" lon="3.81785">
        <ele>284</ele>
        <time>2019-01-28T12:18:50Z</time>
      </trkpt>
      <trkpt lat="43.76172" lon="3.81793">
        <ele>284</ele>
        <time>2019-01-28T12:18:50Z</time>
      </trkpt>
      <trkpt lat="43.76172" lon="3.81801">
        <ele>284</ele>
        <time>2019-01-28T12:19:06Z</time>
      </trkpt>
      <trkpt lat="43.76171" lon="3.81808">
        <ele>284</ele>
        <time>2019-01-28T12:19:06Z</time>
      </trkpt>
      <trkpt lat="43.7617" lon="3.81812">
        <ele>284</ele>
        <time>2019-01-28T12:19:06Z</time>
      </trkpt>
      <trkpt lat="43.76172" lon="3.81817">
        <ele>284</ele>
        <time>2019-01-28T12:19:06Z</time>
      </trkpt>
      <trkpt lat="43.76176" lon="3.81819">
        <ele>284</ele>
        <time>2019-01-28T12:19:30Z</time>
      </trkpt>
      <trkpt lat="43.76179" lon="3.81822">
        <ele>284</ele>
        <time>2019-01-28T12:19:30Z</time>
      </trkpt>
      <trkpt lat="43.7618" lon="3.81823">
        <ele>284</ele>
        <time>2019-01-28T12:19:30Z</time>
      </trkpt>
      <trkpt lat="43.76182" lon="3.81823">
        <ele>284</ele>
        <time>2019-01-28T12:19:30Z</time>
      </trkpt>
      <trkpt lat="43.76188" lon="3.81825">
        <ele>284</ele>
        <time>2019-01-28T12:19:30Z</time>
      </trkpt>
      <trkpt lat="43.76192" lon="3.81828">
        <ele>284</ele>
        <time>2019-01-28T12:19:46Z</time>
      </trkpt>
      <trkpt lat="43.76197" lon="3.81834">
        <ele>284</ele>
        <time>2019-01-28T12:19:46Z</time>
      </trkpt>
      <trkpt lat="43.76202" lon="3.8184">
        <ele>284</ele>
        <time>2019-01-28T12:19:46Z</time>
      </trkpt>
      <trkpt lat="43.76204" lon="3.81841">
        <ele>284</ele>
        <time>2019-01-28T12:19:46Z</time>
      </trkpt>
      <trkpt lat="43.76206" lon="3.81843">
        <ele>284</ele>
        <time>2019-01-28T12:20:02Z</time>
      </trkpt>
      <trkpt lat="43.76209" lon="3.81845">
        <ele>287</ele>
        <time>2019-01-28T12:20:02Z</time>
      </trkpt>
      <trkpt lat="43.76211" lon="3.81852">
        <ele>287</ele>
        <time>2019-01-28T12:20:02Z</time>
      </trkpt>
      <trkpt lat="43.76213" lon="3.81857">
        <ele>287</ele>
        <time>2019-01-28T12:20:02Z</time>
      </trkpt>
      <trkpt lat="43.76214" lon="3.81858">
        <ele>287</ele>
        <time>2019-01-28T12:20:18Z</time>
      </trkpt>
      <trkpt lat="43.76215" lon="3.81858">
        <ele>287</ele>
        <time>2019-01-28T12:20:18Z</time>
      </trkpt>
      <trkpt lat="43.76218" lon="3.81863">
        <ele>287</ele>
        <time>2019-01-28T12:20:18Z</time>
      </trkpt>
      <trkpt lat="43.76221" lon="3.81869">
        <ele>287</ele>
        <time>2019-01-28T12:20:18Z</time>
      </trkpt>
      <trkpt lat="43.76222" lon="3.81871">
        <ele>287</ele>
        <time>2019-01-28T12:20:34Z</time>
      </trkpt>
      <trkpt lat="43.7623" lon="3.81876">
        <ele>272</ele>
        <time>2019-01-28T12:20:34Z</time>
      </trkpt>
      <trkpt lat="43.76233" lon="3.81883">
        <ele>272</ele>
        <time>2019-01-28T12:20:34Z</time>
      </trkpt>
      <trkpt lat="43.76235" lon="3.81889">
        <ele>272</ele>
        <time>2019-01-28T12:20:34Z</time>
      </trkpt>
      <trkpt lat="43.76239" lon="3.81892">
        <ele>272</ele>
        <time>2019-01-28T12:20:50Z</time>
      </trkpt>
      <trkpt lat="43.7624" lon="3.81893">
        <ele>272</ele>
        <time>2019-01-28T12:20:50Z</time>
      </trkpt>
      <trkpt lat="43.76242" lon="3.81898">
        <ele>272</ele>
        <time>2019-01-28T12:20:50Z</time>
      </trkpt>
      <trkpt lat="43.76244" lon="3.81906">
        <ele>272</ele>
        <time>2019-01-28T12:20:50Z</time>
      </trkpt>
      <trkpt lat="43.76244" lon="3.81907">
        <ele>272</ele>
        <time>2019-01-28T12:21:06Z</time>
      </trkpt>
      <trkpt lat="43.76247" lon="3.81913">
        <ele>272</ele>
        <time>2019-01-28T12:21:06Z</time>
      </trkpt>
      <trkpt lat="43.7625" lon="3.81919">
        <ele>272</ele>
        <time>2019-01-28T12:21:06Z</time>
      </trkpt>
      <trkpt lat="43.76252" lon="3.81925">
        <ele>272</ele>
        <time>2019-01-28T12:21:06Z</time>
      </trkpt>
      <trkpt lat="43.76253" lon="3.81933">
        <ele>272</ele>
        <time>2019-01-28T12:21:26Z</time>
      </trkpt>
      <trkpt lat="43.76255" lon="3.81937">
        <ele>272</ele>
        <time>2019-01-28T12:21:26Z</time>
      </trkpt>
      <trkpt lat="43.76256" lon="3.81938">
        <ele>272</ele>
        <time>2019-01-28T12:21:26Z</time>
      </trkpt>
      <trkpt lat="43.7626" lon="3.81949">
        <ele>272</ele>
        <time>2019-01-28T12:21:26Z</time>
      </trkpt>
      <trkpt lat="43.76262" lon="3.81957">
        <ele>272</ele>
        <time>2019-01-28T12:21:42Z</time>
      </trkpt>
      <trkpt lat="43.76265" lon="3.81962">
        <ele>255</ele>
        <time>2019-01-28T12:21:42Z</time>
      </trkpt>
      <trkpt lat="43.76266" lon="3.81965">
        <ele>255</ele>
        <time>2019-01-28T12:21:42Z</time>
      </trkpt>
      <trkpt lat="43.76269" lon="3.81972">
        <ele>255</ele>
        <time>2019-01-28T12:21:42Z</time>
      </trkpt>
      <trkpt lat="43.76272" lon="3.81979">
        <ele>255</ele>
        <time>2019-01-28T12:22:02Z</time>
      </trkpt>
      <trkpt lat="43.76275" lon="3.81986">
        <ele>255</ele>
        <time>2019-01-28T12:22:02Z</time>
      </trkpt>
      <trkpt lat="43.76277" lon="3.81987">
        <ele>255</ele>
        <time>2019-01-28T12:22:02Z</time>
      </trkpt>
      <trkpt lat="43.76277" lon="3.81992">
        <ele>255</ele>
        <time>2019-01-28T12:22:02Z</time>
      </trkpt>
      <trkpt lat="43.76277" lon="3.81994">
        <ele>255</ele>
        <time>2019-01-28T12:22:18Z</time>
      </trkpt>
      <trkpt lat="43.76279" lon="3.82003">
        <ele>255</ele>
        <time>2019-01-28T12:22:18Z</time>
      </trkpt>
      <trkpt lat="43.7628" lon="3.82015">
        <ele>255</ele>
        <time>2019-01-28T12:22:18Z</time>
      </trkpt>
      <trkpt lat="43.7628" lon="3.82019">
        <ele>255</ele>
        <time>2019-01-28T12:22:18Z</time>
      </trkpt>
      <trkpt lat="43.76281" lon="3.82022">
        <ele>255</ele>
        <time>2019-01-28T12:22:34Z</time>
      </trkpt>
      <trkpt lat="43.76285" lon="3.82028">
        <ele>255</ele>
        <time>2019-01-28T12:22:34Z</time>
      </trkpt>
      <trkpt lat="43.76287" lon="3.82035">
        <ele>255</ele>
        <time>2019-01-28T12:22:34Z</time>
      </trkpt>
      <trkpt lat="43.76288" lon="3.82041">
        <ele>255</ele>
        <time>2019-01-28T12:22:34Z</time>
      </trkpt>
      <trkpt lat="43.76289" lon="3.82045">
        <ele>251</ele>
        <time>2019-01-28T12:22:50Z</time>
      </trkpt>
      <trkpt lat="43.76287" lon="3.82049">
        <ele>251</ele>
        <time>2019-01-28T12:22:50Z</time>
      </trkpt>
      <trkpt lat="43.76285" lon="3.82055">
        <ele>251</ele>
        <time>2019-01-28T12:22:50Z</time>
      </trkpt>
      <trkpt lat="43.76283" lon="3.8206">
        <ele>251</ele>
        <time>2019-01-28T12:22:50Z</time>
      </trkpt>
      <trkpt lat="43.76282" lon="3.82064">
        <ele>251</ele>
        <time>2019-01-28T12:23:06Z</time>
      </trkpt>
      <trkpt lat="43.7628" lon="3.8207">
        <ele>251</ele>
        <time>2019-01-28T12:23:06Z</time>
      </trkpt>
      <trkpt lat="43.76277" lon="3.82073">
        <ele>251</ele>
        <time>2019-01-28T12:23:06Z</time>
      </trkpt>
      <trkpt lat="43.76275" lon="3.82078">
        <ele>251</ele>
        <time>2019-01-28T12:23:06Z</time>
      </trkpt>
      <trkpt lat="43.76274" lon="3.82081">
        <ele>251</ele>
        <time>2019-01-28T12:23:22Z</time>
      </trkpt>
      <trkpt lat="43.76269" lon="3.82082">
        <ele>251</ele>
        <time>2019-01-28T12:23:22Z</time>
      </trkpt>
      <trkpt lat="43.76266" lon="3.82085">
        <ele>251</ele>
        <time>2019-01-28T12:23:22Z</time>
      </trkpt>
      <trkpt lat="43.76262" lon="3.82089">
        <ele>251</ele>
        <time>2019-01-28T12:23:22Z</time>
      </trkpt>
      <trkpt lat="43.76257" lon="3.82094">
        <ele>251</ele>
        <time>2019-01-28T12:23:38Z</time>
      </trkpt>
      <trkpt lat="43.76253" lon="3.82098">
        <ele>251</ele>
        <time>2019-01-28T12:23:38Z</time>
      </trkpt>
      <trkpt lat="43.7625" lon="3.82104">
        <ele>251</ele>
        <time>2019-01-28T12:23:38Z</time>
      </trkpt>
      <trkpt lat="43.76246" lon="3.82108">
        <ele>251</ele>
        <time>2019-01-28T12:23:38Z</time>
      </trkpt>
      <trkpt lat="43.76244" lon="3.82115">
        <ele>251</ele>
        <time>2019-01-28T12:23:54Z</time>
      </trkpt>
      <trkpt lat="43.76241" lon="3.82122">
        <ele>251</ele>
        <time>2019-01-28T12:23:54Z</time>
      </trkpt>
      <trkpt lat="43.76236" lon="3.82128">
        <ele>253</ele>
        <time>2019-01-28T12:23:54Z</time>
      </trkpt>
      <trkpt lat="43.76232" lon="3.8213">
        <ele>253</ele>
        <time>2019-01-28T12:23:54Z</time>
      </trkpt>
      <trkpt lat="43.76231" lon="3.82133">
        <ele>253</ele>
        <time>2019-01-28T12:24:14Z</time>
      </trkpt>
      <trkpt lat="43.76229" lon="3.82133">
        <ele>253</ele>
        <time>2019-01-28T12:24:14Z</time>
      </trkpt>
      <trkpt lat="43.76226" lon="3.82132">
        <ele>253</ele>
        <time>2019-01-28T12:24:14Z</time>
      </trkpt>
      <trkpt lat="43.76225" lon="3.82133">
        <ele>253</ele>
        <time>2019-01-28T12:24:14Z</time>
      </trkpt>
      <trkpt lat="43.76219" lon="3.82139">
        <ele>253</ele>
        <time>2019-01-28T12:24:14Z</time>
      </trkpt>
      <trkpt lat="43.76213" lon="3.8214">
        <ele>253</ele>
        <time>2019-01-28T12:24:30Z</time>
      </trkpt>
      <trkpt lat="43.76207" lon="3.82143">
        <ele>241</ele>
        <time>2019-01-28T12:24:30Z</time>
      </trkpt>
      <trkpt lat="43.76201" lon="3.82147">
        <ele>241</ele>
        <time>2019-01-28T12:24:30Z</time>
      </trkpt>
      <trkpt lat="43.76198" lon="3.82153">
        <ele>241</ele>
        <time>2019-01-28T12:24:30Z</time>
      </trkpt>
      <trkpt lat="43.76197" lon="3.82159">
        <ele>241</ele>
        <time>2019-01-28T12:25:22Z</time>
      </trkpt>
      <trkpt lat="43.76195" lon="3.82162">
        <ele>241</ele>
        <time>2019-01-28T12:25:22Z</time>
      </trkpt>
      <trkpt lat="43.76198" lon="3.82167">
        <ele>241</ele>
        <time>2019-01-28T12:25:22Z</time>
      </trkpt>
      <trkpt lat="43.76197" lon="3.82171">
        <ele>241</ele>
        <time>2019-01-28T12:25:22Z</time>
      </trkpt>
      <trkpt lat="43.76195" lon="3.82179">
        <ele>241</ele>
        <time>2019-01-28T12:25:22Z</time>
      </trkpt>
      <trkpt lat="43.76192" lon="3.82184">
        <ele>241</ele>
        <time>2019-01-28T12:25:38Z</time>
      </trkpt>
      <trkpt lat="43.76188" lon="3.82189">
        <ele>241</ele>
        <time>2019-01-28T12:25:38Z</time>
      </trkpt>
      <trkpt lat="43.76185" lon="3.82191">
        <ele>241</ele>
        <time>2019-01-28T12:25:38Z</time>
      </trkpt>
      <trkpt lat="43.76182" lon="3.82197">
        <ele>241</ele>
        <time>2019-01-28T12:25:38Z</time>
      </trkpt>
      <trkpt lat="43.76178" lon="3.82202">
        <ele>241</ele>
        <time>2019-01-28T12:25:54Z</time>
      </trkpt>
      <trkpt lat="43.76175" lon="3.82207">
        <ele>241</ele>
        <time>2019-01-28T12:25:54Z</time>
      </trkpt>
      <trkpt lat="43.7617" lon="3.82213">
        <ele>243</ele>
        <time>2019-01-28T12:25:54Z</time>
      </trkpt>
      <trkpt lat="43.76164" lon="3.82217">
        <ele>243</ele>
        <time>2019-01-28T12:25:54Z</time>
      </trkpt>
      <trkpt lat="43.76161" lon="3.8222">
        <ele>243</ele>
        <time>2019-01-28T12:26:10Z</time>
      </trkpt>
      <trkpt lat="43.7616" lon="3.82225">
        <ele>243</ele>
        <time>2019-01-28T12:26:10Z</time>
      </trkpt>
      <trkpt lat="43.76159" lon="3.8223">
        <ele>243</ele>
        <time>2019-01-28T12:26:10Z</time>
      </trkpt>
      <trkpt lat="43.76158" lon="3.82235">
        <ele>243</ele>
        <time>2019-01-28T12:26:10Z</time>
      </trkpt>
      <trkpt lat="43.76158" lon="3.82236">
        <ele>243</ele>
        <time>2019-01-28T12:26:42Z</time>
      </trkpt>
      <trkpt lat="43.76157" lon="3.82238">
        <ele>243</ele>
        <time>2019-01-28T12:26:42Z</time>
      </trkpt>
      <trkpt lat="43.76157" lon="3.82246">
        <ele>243</ele>
        <time>2019-01-28T12:26:42Z</time>
      </trkpt>
      <trkpt lat="43.76158" lon="3.82253">
        <ele>243</ele>
        <time>2019-01-28T12:26:42Z</time>
      </trkpt>
      <trkpt lat="43.76156" lon="3.82257">
        <ele>243</ele>
        <time>2019-01-28T12:26:58Z</time>
      </trkpt>
      <trkpt lat="43.76152" lon="3.82263">
        <ele>243</ele>
        <time>2019-01-28T12:26:58Z</time>
      </trkpt>
      <trkpt lat="43.76147" lon="3.82265">
        <ele>243</ele>
        <time>2019-01-28T12:26:58Z</time>
      </trkpt>
      <trkpt lat="43.76143" lon="3.82267">
        <ele>243</ele>
        <time>2019-01-28T12:26:58Z</time>
      </trkpt>
      <trkpt lat="43.76141" lon="3.82271">
        <ele>243</ele>
        <time>2019-01-28T12:27:14Z</time>
      </trkpt>
      <trkpt lat="43.7614" lon="3.82278">
        <ele>243</ele>
        <time>2019-01-28T12:27:14Z</time>
      </trkpt>
      <trkpt lat="43.76138" lon="3.82282">
        <ele>243</ele>
        <time>2019-01-28T12:27:14Z</time>
      </trkpt>
      <trkpt lat="43.76136" lon="3.82285">
        <ele>243</ele>
        <time>2019-01-28T12:27:14Z</time>
      </trkpt>
      <trkpt lat="43.76132" lon="3.82289">
        <ele>243</ele>
        <time>2019-01-28T12:27:30Z</time>
      </trkpt>
      <trkpt lat="43.76129" lon="3.82294">
        <ele>241</ele>
        <time>2019-01-28T12:27:30Z</time>
      </trkpt>
      <trkpt lat="43.76126" lon="3.82298">
        <ele>241</ele>
        <time>2019-01-28T12:27:30Z</time>
      </trkpt>
      <trkpt lat="43.76123" lon="3.82302">
        <ele>228</ele>
        <time>2019-01-28T12:27:30Z</time>
      </trkpt>
      <trkpt lat="43.76121" lon="3.82307">
        <ele>228</ele>
        <time>2019-01-28T12:27:46Z</time>
      </trkpt>
      <trkpt lat="43.7612" lon="3.82311">
        <ele>228</ele>
        <time>2019-01-28T12:27:46Z</time>
      </trkpt>
      <trkpt lat="43.76117" lon="3.82314">
        <ele>228</ele>
        <time>2019-01-28T12:27:46Z</time>
      </trkpt>
      <trkpt lat="43.76114" lon="3.82317">
        <ele>228</ele>
        <time>2019-01-28T12:27:46Z</time>
      </trkpt>
      <trkpt lat="43.76113" lon="3.8232">
        <ele>228</ele>
        <time>2019-01-28T12:28:34Z</time>
      </trkpt>
      <trkpt lat="43.76111" lon="3.82323">
        <ele>228</ele>
        <time>2019-01-28T12:28:34Z</time>
      </trkpt>
      <trkpt lat="43.76111" lon="3.82325">
        <ele>228</ele>
        <time>2019-01-28T12:28:34Z</time>
      </trkpt>
      <trkpt lat="43.76105" lon="3.82324">
        <ele>228</ele>
        <time>2019-01-28T12:28:34Z</time>
      </trkpt>
      <trkpt lat="43.761" lon="3.82325">
        <ele>228</ele>
        <time>2019-01-28T12:28:50Z</time>
      </trkpt>
      <trkpt lat="43.76097" lon="3.82326">
        <ele>228</ele>
        <time>2019-01-28T12:28:50Z</time>
      </trkpt>
      <trkpt lat="43.76094" lon="3.82327">
        <ele>228</ele>
        <time>2019-01-28T12:28:50Z</time>
      </trkpt>
      <trkpt lat="43.76091" lon="3.82329">
        <ele>228</ele>
        <time>2019-01-28T12:28:50Z</time>
      </trkpt>
      <trkpt lat="43.76087" lon="3.82332">
        <ele>228</ele>
        <time>2019-01-28T12:29:06Z</time>
      </trkpt>
      <trkpt lat="43.76083" lon="3.82335">
        <ele>228</ele>
        <time>2019-01-28T12:29:06Z</time>
      </trkpt>
      <trkpt lat="43.76078" lon="3.82336">
        <ele>228</ele>
        <time>2019-01-28T12:29:06Z</time>
      </trkpt>
      <trkpt lat="43.76074" lon="3.82339">
        <ele>228</ele>
        <time>2019-01-28T12:29:06Z</time>
      </trkpt>
      <trkpt lat="43.76069" lon="3.82342">
        <ele>228</ele>
        <time>2019-01-28T12:29:22Z</time>
      </trkpt>
      <trkpt lat="43.76064" lon="3.82346">
        <ele>228</ele>
        <time>2019-01-28T12:29:22Z</time>
      </trkpt>
      <trkpt lat="43.7606" lon="3.8235">
        <ele>228</ele>
        <time>2019-01-28T12:29:22Z</time>
      </trkpt>
      <trkpt lat="43.76058" lon="3.82354">
        <ele>228</ele>
        <time>2019-01-28T12:29:22Z</time>
      </trkpt>
      <trkpt lat="43.76057" lon="3.82359">
        <ele>228</ele>
        <time>2019-01-28T12:29:38Z</time>
      </trkpt>
      <trkpt lat="43.76056" lon="3.8236">
        <ele>228</ele>
        <time>2019-01-28T12:29:38Z</time>
      </trkpt>
      <trkpt lat="43.76055" lon="3.82366">
        <ele>228</ele>
        <time>2019-01-28T12:29:38Z</time>
      </trkpt>
      <trkpt lat="43.76052" lon="3.82373">
        <ele>228</ele>
        <time>2019-01-28T12:29:38Z</time>
      </trkpt>
      <trkpt lat="43.76049" lon="3.82377">
        <ele>221</ele>
        <time>2019-01-28T12:29:54Z</time>
      </trkpt>
      <trkpt lat="43.76046" lon="3.8238">
        <ele>221</ele>
        <time>2019-01-28T12:29:54Z</time>
      </trkpt>
      <trkpt lat="43.76042" lon="3.82381">
        <ele>219</ele>
        <time>2019-01-28T12:29:54Z</time>
      </trkpt>
      <trkpt lat="43.7604" lon="3.82383">
        <ele>219</ele>
        <time>2019-01-28T12:29:54Z</time>
      </trkpt>
      <trkpt lat="43.7604" lon="3.82399">
        <ele>219</ele>
        <time>2019-01-28T12:33:06Z</time>
      </trkpt>
      <trkpt lat="43.76036" lon="3.824">
        <ele>219</ele>
        <time>2019-01-28T12:33:06Z</time>
      </trkpt>
      <trkpt lat="43.76031" lon="3.824">
        <ele>219</ele>
        <time>2019-01-28T12:33:06Z</time>
      </trkpt>
      <trkpt lat="43.76027" lon="3.82403">
        <ele>219</ele>
        <time>2019-01-28T12:33:06Z</time>
      </trkpt>
      <trkpt lat="43.76023" lon="3.82407">
        <ele>219</ele>
        <time>2019-01-28T12:33:06Z</time>
      </trkpt>
      <trkpt lat="43.76017" lon="3.8241">
        <ele>219</ele>
        <time>2019-01-28T12:33:22Z</time>
      </trkpt>
      <trkpt lat="43.76013" lon="3.82414">
        <ele>219</ele>
        <time>2019-01-28T12:33:22Z</time>
      </trkpt>
      <trkpt lat="43.76009" lon="3.82417">
        <ele>219</ele>
        <time>2019-01-28T12:33:22Z</time>
      </trkpt>
      <trkpt lat="43.76006" lon="3.82421">
        <ele>219</ele>
        <time>2019-01-28T12:33:22Z</time>
      </trkpt>
      <trkpt lat="43.76006" lon="3.82427">
        <ele>219</ele>
        <time>2019-01-28T12:33:46Z</time>
      </trkpt>
      <trkpt lat="43.76008" lon="3.8243">
        <ele>219</ele>
        <time>2019-01-28T12:33:46Z</time>
      </trkpt>
      <trkpt lat="43.7601" lon="3.82431">
        <ele>219</ele>
        <time>2019-01-28T12:33:46Z</time>
      </trkpt>
      <trkpt lat="43.76012" lon="3.82432">
        <ele>219</ele>
        <time>2019-01-28T12:33:46Z</time>
      </trkpt>
      <trkpt lat="43.76014" lon="3.82432">
        <ele>219</ele>
        <time>2019-01-28T12:33:46Z</time>
      </trkpt>
      <trkpt lat="43.76016" lon="3.82432">
        <ele>219</ele>
        <time>2019-01-28T12:34:10Z</time>
      </trkpt>
      <trkpt lat="43.76019" lon="3.82433">
        <ele>219</ele>
        <time>2019-01-28T12:34:10Z</time>
      </trkpt>
      <trkpt lat="43.7602" lon="3.82433">
        <ele>219</ele>
        <time>2019-01-28T12:34:10Z</time>
      </trkpt>
      <trkpt lat="43.76025" lon="3.82432">
        <ele>219</ele>
        <time>2019-01-28T12:34:10Z</time>
      </trkpt>
      <trkpt lat="43.7603" lon="3.82433">
        <ele>219</ele>
        <time>2019-01-28T12:34:10Z</time>
      </trkpt>
      <trkpt lat="43.76036" lon="3.82432">
        <ele>219</ele>
        <time>2019-01-28T12:34:38Z</time>
      </trkpt>
      <trkpt lat="43.76041" lon="3.82432">
        <ele>219</ele>
        <time>2019-01-28T12:34:38Z</time>
      </trkpt>
      <trkpt lat="43.76046" lon="3.82433">
        <ele>221</ele>
        <time>2019-01-28T12:34:38Z</time>
      </trkpt>
      <trkpt lat="43.76057" lon="3.82435">
        <ele>221</ele>
        <time>2019-01-28T12:34:38Z</time>
      </trkpt>
      <trkpt lat="43.76062" lon="3.82436">
        <ele>221</ele>
        <time>2019-01-28T12:35:06Z</time>
      </trkpt>
      <trkpt lat="43.76064" lon="3.82438">
        <ele>221</ele>
        <time>2019-01-28T12:35:06Z</time>
      </trkpt>
      <trkpt lat="43.76064" lon="3.82438">
        <ele>221</ele>
        <time>2019-01-28T12:35:06Z</time>
      </trkpt>
      <trkpt lat="43.76064" lon="3.82441">
        <ele>221</ele>
        <time>2019-01-28T12:35:06Z</time>
      </trkpt>
      <trkpt lat="43.76066" lon="3.82446">
        <ele>221</ele>
        <time>2019-01-28T12:35:06Z</time>
      </trkpt>
      <trkpt lat="43.76066" lon="3.82452">
        <ele>221</ele>
        <time>2019-01-28T12:35:26Z</time>
      </trkpt>
      <trkpt lat="43.76066" lon="3.82456">
        <ele>221</ele>
        <time>2019-01-28T12:35:26Z</time>
      </trkpt>
      <trkpt lat="43.76066" lon="3.82459">
        <ele>210</ele>
        <time>2019-01-28T12:35:26Z</time>
      </trkpt>
      <trkpt lat="43.76064" lon="3.82462">
        <ele>210</ele>
        <time>2019-01-28T12:35:26Z</time>
      </trkpt>
      <trkpt lat="43.76061" lon="3.82467">
        <ele>210</ele>
        <time>2019-01-28T12:35:26Z</time>
      </trkpt>
      <trkpt lat="43.76059" lon="3.82474">
        <ele>210</ele>
        <time>2019-01-28T12:36:18Z</time>
      </trkpt>
      <trkpt lat="43.76059" lon="3.82478">
        <ele>210</ele>
        <time>2019-01-28T12:36:18Z</time>
      </trkpt>
      <trkpt lat="43.76058" lon="3.82485">
        <ele>210</ele>
        <time>2019-01-28T12:36:18Z</time>
      </trkpt>
      <trkpt lat="43.76058" lon="3.82487">
        <ele>210</ele>
        <time>2019-01-28T12:36:18Z</time>
      </trkpt>
      <trkpt lat="43.76057" lon="3.82493">
        <ele>210</ele>
        <time>2019-01-28T12:36:50Z</time>
      </trkpt>
      <trkpt lat="43.76057" lon="3.82509">
        <ele>210</ele>
        <time>2019-01-28T12:36:50Z</time>
      </trkpt>
      <trkpt lat="43.76056" lon="3.82519">
        <ele>210</ele>
        <time>2019-01-28T12:36:50Z</time>
      </trkpt>
      <trkpt lat="43.7606" lon="3.82527">
        <ele>210</ele>
        <time>2019-01-28T12:36:50Z</time>
      </trkpt>
      <trkpt lat="43.76061" lon="3.82528">
        <ele>210</ele>
        <time>2019-01-28T12:37:10Z</time>
      </trkpt>
      <trkpt lat="43.76061" lon="3.82531">
        <ele>210</ele>
        <time>2019-01-28T12:37:10Z</time>
      </trkpt>
      <trkpt lat="43.76062" lon="3.82531">
        <ele>210</ele>
        <time>2019-01-28T12:37:10Z</time>
      </trkpt>
      <trkpt lat="43.76065" lon="3.82533">
        <ele>210</ele>
        <time>2019-01-28T12:37:10Z</time>
      </trkpt>
      <trkpt lat="43.76069" lon="3.82535">
        <ele>210</ele>
        <time>2019-01-28T12:37:10Z</time>
      </trkpt>
      <trkpt lat="43.76074" lon="3.82535">
        <ele>210</ele>
        <time>2019-01-28T12:37:42Z</time>
      </trkpt>
      <trkpt lat="43.76075" lon="3.82537">
        <ele>210</ele>
        <time>2019-01-28T12:37:42Z</time>
      </trkpt>
      <trkpt lat="43.76075" lon="3.8254">
        <ele>210</ele>
        <time>2019-01-28T12:37:42Z</time>
      </trkpt>
      <trkpt lat="43.76076" lon="3.82543">
        <ele>196</ele>
        <time>2019-01-28T12:37:42Z</time>
      </trkpt>
      <trkpt lat="43.76077" lon="3.82544">
        <ele>196</ele>
        <time>2019-01-28T12:37:42Z</time>
      </trkpt>
      <trkpt lat="43.76078" lon="3.82546">
        <ele>196</ele>
        <time>2019-01-28T12:38:34Z</time>
      </trkpt>
      <trkpt lat="43.76081" lon="3.82553">
        <ele>196</ele>
        <time>2019-01-28T12:38:34Z</time>
      </trkpt>
      <trkpt lat="43.76085" lon="3.82558">
        <ele>196</ele>
        <time>2019-01-28T12:38:34Z</time>
      </trkpt>
      <trkpt lat="43.76086" lon="3.82563">
        <ele>196</ele>
        <time>2019-01-28T12:38:34Z</time>
      </trkpt>
      <trkpt lat="43.76087" lon="3.82565">
        <ele>196</ele>
        <time>2019-01-28T12:38:58Z</time>
      </trkpt>
      <trkpt lat="43.76089" lon="3.82568">
        <ele>196</ele>
        <time>2019-01-28T12:38:58Z</time>
      </trkpt>
      <trkpt lat="43.76095" lon="3.82576">
        <ele>196</ele>
        <time>2019-01-28T12:38:58Z</time>
      </trkpt>
      <trkpt lat="43.76098" lon="3.82582">
        <ele>196</ele>
        <time>2019-01-28T12:38:58Z</time>
      </trkpt>
      <trkpt lat="43.76104" lon="3.82587">
        <ele>196</ele>
        <time>2019-01-28T12:39:26Z</time>
      </trkpt>
      <trkpt lat="43.76105" lon="3.82588">
        <ele>196</ele>
        <time>2019-01-28T12:39:26Z</time>
      </trkpt>
      <trkpt lat="43.76106" lon="3.82589">
        <ele>196</ele>
        <time>2019-01-28T12:39:26Z</time>
      </trkpt>
      <trkpt lat="43.76108" lon="3.82591">
        <ele>196</ele>
        <time>2019-01-28T12:39:26Z</time>
      </trkpt>
      <trkpt lat="43.76109" lon="3.82594">
        <ele>196</ele>
        <time>2019-01-28T12:39:26Z</time>
      </trkpt>
      <trkpt lat="43.76105" lon="3.82599">
        <ele>196</ele>
        <time>2019-01-28T12:40:26Z</time>
      </trkpt>
      <trkpt lat="43.76104" lon="3.826">
        <ele>196</ele>
        <time>2019-01-28T12:40:26Z</time>
      </trkpt>
      <trkpt lat="43.76102" lon="3.826">
        <ele>196</ele>
        <time>2019-01-28T12:40:26Z</time>
      </trkpt>
      <trkpt lat="43.76101" lon="3.826">
        <ele>196</ele>
        <time>2019-01-28T12:40:26Z</time>
      </trkpt>
      <trkpt lat="43.76099" lon="3.82601">
        <ele>196</ele>
        <time>2019-01-28T12:40:26Z</time>
      </trkpt>
      <trkpt lat="43.76098" lon="3.82601">
        <ele>196</ele>
        <time>2019-01-28T12:40:46Z</time>
      </trkpt>
      <trkpt lat="43.76091" lon="3.82605">
        <ele>196</ele>
        <time>2019-01-28T12:40:46Z</time>
      </trkpt>
      <trkpt lat="43.76088" lon="3.82607">
        <ele>196</ele>
        <time>2019-01-28T12:40:46Z</time>
      </trkpt>
      <trkpt lat="43.76086" lon="3.82611">
        <ele>196</ele>
        <time>2019-01-28T12:40:46Z</time>
      </trkpt>
      <trkpt lat="43.76086" lon="3.82614">
        <ele>196</ele>
        <time>2019-01-28T12:41:02Z</time>
      </trkpt>
      <trkpt lat="43.76088" lon="3.82616">
        <ele>196</ele>
        <time>2019-01-28T12:41:02Z</time>
      </trkpt>
      <trkpt lat="43.76091" lon="3.8262">
        <ele>196</ele>
        <time>2019-01-28T12:41:02Z</time>
      </trkpt>
      <trkpt lat="43.76094" lon="3.82623">
        <ele>196</ele>
        <time>2019-01-28T12:41:02Z</time>
      </trkpt>
      <trkpt lat="43.76097" lon="3.82625">
        <ele>196</ele>
        <time>2019-01-28T12:41:18Z</time>
      </trkpt>
      <trkpt lat="43.761" lon="3.82626">
        <ele>179</ele>
        <time>2019-01-28T12:41:18Z</time>
      </trkpt>
      <trkpt lat="43.76102" lon="3.82626">
        <ele>179</ele>
        <time>2019-01-28T12:41:18Z</time>
      </trkpt>
      <trkpt lat="43.76107" lon="3.82626">
        <ele>179</ele>
        <time>2019-01-28T12:41:18Z</time>
      </trkpt>
      <trkpt lat="43.76107" lon="3.82626">
        <ele>179</ele>
        <time>2019-01-28T12:41:34Z</time>
      </trkpt>
      <trkpt lat="43.76112" lon="3.82629">
        <ele>179</ele>
        <time>2019-01-28T12:41:34Z</time>
      </trkpt>
      <trkpt lat="43.76116" lon="3.8263">
        <ele>179</ele>
        <time>2019-01-28T12:41:34Z</time>
      </trkpt>
      <trkpt lat="43.7612" lon="3.82631">
        <ele>179</ele>
        <time>2019-01-28T12:41:34Z</time>
      </trkpt>
      <trkpt lat="43.76125" lon="3.82633">
        <ele>179</ele>
        <time>2019-01-28T12:41:50Z</time>
      </trkpt>
      <trkpt lat="43.76127" lon="3.82633">
        <ele>180</ele>
        <time>2019-01-28T12:41:50Z</time>
      </trkpt>
      <trkpt lat="43.76132" lon="3.82633">
        <ele>180</ele>
        <time>2019-01-28T12:41:50Z</time>
      </trkpt>
      <trkpt lat="43.76137" lon="3.82633">
        <ele>180</ele>
        <time>2019-01-28T12:41:50Z</time>
      </trkpt>
      <trkpt lat="43.76141" lon="3.82635">
        <ele>180</ele>
        <time>2019-01-28T12:42:06Z</time>
      </trkpt>
      <trkpt lat="43.76145" lon="3.82635">
        <ele>180</ele>
        <time>2019-01-28T12:42:06Z</time>
      </trkpt>
      <trkpt lat="43.76148" lon="3.82634">
        <ele>180</ele>
        <time>2019-01-28T12:42:06Z</time>
      </trkpt>
      <trkpt lat="43.76152" lon="3.82635">
        <ele>180</ele>
        <time>2019-01-28T12:42:06Z</time>
      </trkpt>
      <trkpt lat="43.76156" lon="3.82635">
        <ele>180</ele>
        <time>2019-01-28T12:42:22Z</time>
      </trkpt>
      <trkpt lat="43.76159" lon="3.82636">
        <ele>180</ele>
        <time>2019-01-28T12:42:22Z</time>
      </trkpt>
      <trkpt lat="43.76162" lon="3.82638">
        <ele>180</ele>
        <time>2019-01-28T12:42:22Z</time>
      </trkpt>
      <trkpt lat="43.76166" lon="3.82638">
        <ele>180</ele>
        <time>2019-01-28T12:42:22Z</time>
      </trkpt>
      <trkpt lat="43.76169" lon="3.82634">
        <ele>180</ele>
        <time>2019-01-28T12:42:38Z</time>
      </trkpt>
      <trkpt lat="43.76171" lon="3.82632">
        <ele>180</ele>
        <time>2019-01-28T12:42:38Z</time>
      </trkpt>
      <trkpt lat="43.76174" lon="3.8263">
        <ele>180</ele>
        <time>2019-01-28T12:42:38Z</time>
      </trkpt>
      <trkpt lat="43.76177" lon="3.82628">
        <ele>180</ele>
        <time>2019-01-28T12:42:38Z</time>
      </trkpt>
      <trkpt lat="43.7618" lon="3.82627">
        <ele>180</ele>
        <time>2019-01-28T12:42:58Z</time>
      </trkpt>
      <trkpt lat="43.76184" lon="3.82627">
        <ele>180</ele>
        <time>2019-01-28T12:42:58Z</time>
      </trkpt>
      <trkpt lat="43.76186" lon="3.82627">
        <ele>180</ele>
        <time>2019-01-28T12:42:58Z</time>
      </trkpt>
      <trkpt lat="43.76188" lon="3.82628">
        <ele>180</ele>
        <time>2019-01-28T12:42:58Z</time>
      </trkpt>
      <trkpt lat="43.76191" lon="3.82629">
        <ele>180</ele>
        <time>2019-01-28T12:42:58Z</time>
      </trkpt>
      <trkpt lat="43.76195" lon="3.82629">
        <ele>180</ele>
        <time>2019-01-28T12:43:18Z</time>
      </trkpt>
      <trkpt lat="43.76197" lon="3.82628">
        <ele>180</ele>
        <time>2019-01-28T12:43:18Z</time>
      </trkpt>
      <trkpt lat="43.762" lon="3.82629">
        <ele>180</ele>
        <time>2019-01-28T12:43:18Z</time>
      </trkpt>
      <trkpt lat="43.76204" lon="3.82629">
        <ele>180</ele>
        <time>2019-01-28T12:43:18Z</time>
      </trkpt>
      <trkpt lat="43.76209" lon="3.82631">
        <ele>183</ele>
        <time>2019-01-28T12:43:34Z</time>
      </trkpt>
      <trkpt lat="43.76213" lon="3.82633">
        <ele>183</ele>
        <time>2019-01-28T12:43:34Z</time>
      </trkpt>
      <trkpt lat="43.76216" lon="3.82634">
        <ele>183</ele>
        <time>2019-01-28T12:43:34Z</time>
      </trkpt>
      <trkpt lat="43.76218" lon="3.82635">
        <ele>183</ele>
        <time>2019-01-28T12:43:34Z</time>
      </trkpt>
      <trkpt lat="43.76222" lon="3.8264">
        <ele>183</ele>
        <time>2019-01-28T12:44:50Z</time>
      </trkpt>
      <trkpt lat="43.76224" lon="3.82641">
        <ele>183</ele>
        <time>2019-01-28T12:44:50Z</time>
      </trkpt>
      <trkpt lat="43.76224" lon="3.82641">
        <ele>183</ele>
        <time>2019-01-28T12:44:50Z</time>
      </trkpt>
      <trkpt lat="43.76227" lon="3.82643">
        <ele>183</ele>
        <time>2019-01-28T12:44:50Z</time>
      </trkpt>
      <trkpt lat="43.7623" lon="3.82645">
        <ele>183</ele>
        <time>2019-01-28T12:44:50Z</time>
      </trkpt>
      <trkpt lat="43.76233" lon="3.82646">
        <ele>183</ele>
        <time>2019-01-28T12:45:06Z</time>
      </trkpt>
      <trkpt lat="43.76237" lon="3.82647">
        <ele>183</ele>
        <time>2019-01-28T12:45:06Z</time>
      </trkpt>
      <trkpt lat="43.76242" lon="3.82647">
        <ele>183</ele>
        <time>2019-01-28T12:45:06Z</time>
      </trkpt>
      <trkpt lat="43.76245" lon="3.82646">
        <ele>183</ele>
        <time>2019-01-28T12:45:06Z</time>
      </trkpt>
      <trkpt lat="43.76251" lon="3.82647">
        <ele>183</ele>
        <time>2019-01-28T12:45:54Z</time>
      </trkpt>
      <trkpt lat="43.76253" lon="3.82647">
        <ele>183</ele>
        <time>2019-01-28T12:45:54Z</time>
      </trkpt>
      <trkpt lat="43.76254" lon="3.82649">
        <ele>183</ele>
        <time>2019-01-28T12:45:54Z</time>
      </trkpt>
      <trkpt lat="43.76255" lon="3.82651">
        <ele>183</ele>
        <time>2019-01-28T12:45:54Z</time>
      </trkpt>
      <trkpt lat="43.76258" lon="3.82653">
        <ele>183</ele>
        <time>2019-01-28T12:45:54Z</time>
      </trkpt>
      <trkpt lat="43.76262" lon="3.82654">
        <ele>183</ele>
        <time>2019-01-28T12:46:10Z</time>
      </trkpt>
      <trkpt lat="43.76265" lon="3.82656">
        <ele>183</ele>
        <time>2019-01-28T12:46:10Z</time>
      </trkpt>
      <trkpt lat="43.76268" lon="3.8266">
        <ele>183</ele>
        <time>2019-01-28T12:46:10Z</time>
      </trkpt>
      <trkpt lat="43.76269" lon="3.82662">
        <ele>183</ele>
        <time>2019-01-28T12:46:10Z</time>
      </trkpt>
      <trkpt lat="43.7627" lon="3.82667">
        <ele>183</ele>
        <time>2019-01-28T12:46:26Z</time>
      </trkpt>
      <trkpt lat="43.76273" lon="3.82671">
        <ele>183</ele>
        <time>2019-01-28T12:46:26Z</time>
      </trkpt>
      <trkpt lat="43.76278" lon="3.82673">
        <ele>183</ele>
        <time>2019-01-28T12:46:26Z</time>
      </trkpt>
      <trkpt lat="43.7628" lon="3.82674">
        <ele>183</ele>
        <time>2019-01-28T12:46:26Z</time>
      </trkpt>
      <trkpt lat="43.76282" lon="3.82673">
        <ele>183</ele>
        <time>2019-01-28T12:46:50Z</time>
      </trkpt>
      <trkpt lat="43.76287" lon="3.82674">
        <ele>183</ele>
        <time>2019-01-28T12:46:50Z</time>
      </trkpt>
      <trkpt lat="43.76295" lon="3.82674">
        <ele>176</ele>
        <time>2019-01-28T12:46:50Z</time>
      </trkpt>
      <trkpt lat="43.76301" lon="3.82675">
        <ele>176</ele>
        <time>2019-01-28T12:46:50Z</time>
      </trkpt>
      <trkpt lat="43.76307" lon="3.82676">
        <ele>176</ele>
        <time>2019-01-28T12:47:06Z</time>
      </trkpt>
      <trkpt lat="43.76311" lon="3.82677">
        <ele>176</ele>
        <time>2019-01-28T12:47:06Z</time>
      </trkpt>
      <trkpt lat="43.76316" lon="3.82678">
        <ele>176</ele>
        <time>2019-01-28T12:47:06Z</time>
      </trkpt>
      <trkpt lat="43.7632" lon="3.82679">
        <ele>176</ele>
        <time>2019-01-28T12:47:06Z</time>
      </trkpt>
      <trkpt lat="43.76325" lon="3.82678">
        <ele>176</ele>
        <time>2019-01-28T12:47:22Z</time>
      </trkpt>
      <trkpt lat="43.76329" lon="3.82678">
        <ele>176</ele>
        <time>2019-01-28T12:47:22Z</time>
      </trkpt>
      <trkpt lat="43.76334" lon="3.82675">
        <ele>176</ele>
        <time>2019-01-28T12:47:22Z</time>
      </trkpt>
      <trkpt lat="43.76338" lon="3.82672">
        <ele>176</ele>
        <time>2019-01-28T12:47:22Z</time>
      </trkpt>
      <trkpt lat="43.76342" lon="3.82669">
        <ele>176</ele>
        <time>2019-01-28T12:47:38Z</time>
      </trkpt>
      <trkpt lat="43.76346" lon="3.82666">
        <ele>176</ele>
        <time>2019-01-28T12:47:38Z</time>
      </trkpt>
      <trkpt lat="43.76351" lon="3.82663">
        <ele>176</ele>
        <time>2019-01-28T12:47:38Z</time>
      </trkpt>
      <trkpt lat="43.76356" lon="3.82659">
        <ele>176</ele>
        <time>2019-01-28T12:47:38Z</time>
      </trkpt>
      <trkpt lat="43.76361" lon="3.82654">
        <ele>176</ele>
        <time>2019-01-28T12:47:54Z</time>
      </trkpt>
      <trkpt lat="43.76366" lon="3.82651">
        <ele>176</ele>
        <time>2019-01-28T12:47:54Z</time>
      </trkpt>
      <trkpt lat="43.76368" lon="3.82648">
        <ele>176</ele>
        <time>2019-01-28T12:47:54Z</time>
      </trkpt>
      <trkpt lat="43.7637" lon="3.82641">
        <ele>176</ele>
        <time>2019-01-28T12:47:54Z</time>
      </trkpt>
      <trkpt lat="43.76374" lon="3.8263">
        <ele>176</ele>
        <time>2019-01-28T12:48:34Z</time>
      </trkpt>
      <trkpt lat="43.76373" lon="3.82629">
        <ele>176</ele>
        <time>2019-01-28T12:48:34Z</time>
      </trkpt>
      <trkpt lat="43.76373" lon="3.82628">
        <ele>176</ele>
        <time>2019-01-28T12:48:34Z</time>
      </trkpt>
      <trkpt lat="43.76373" lon="3.82625">
        <ele>189</ele>
        <time>2019-01-28T12:48:34Z</time>
      </trkpt>
      <trkpt lat="43.76372" lon="3.82624">
        <ele>189</ele>
        <time>2019-01-28T12:48:34Z</time>
      </trkpt>
      <trkpt lat="43.76372" lon="3.82623">
        <ele>189</ele>
        <time>2019-01-28T12:49:30Z</time>
      </trkpt>
      <trkpt lat="43.76371" lon="3.82618">
        <ele>189</ele>
        <time>2019-01-28T12:49:30Z</time>
      </trkpt>
      <trkpt lat="43.76371" lon="3.82617">
        <ele>189</ele>
        <time>2019-01-28T12:49:30Z</time>
      </trkpt>
      <trkpt lat="43.7637" lon="3.82613">
        <ele>189</ele>
        <time>2019-01-28T12:49:30Z</time>
      </trkpt>
      <trkpt lat="43.76371" lon="3.82609">
        <ele>189</ele>
        <time>2019-01-28T12:49:30Z</time>
      </trkpt>
      <trkpt lat="43.76373" lon="3.82604">
        <ele>189</ele>
        <time>2019-01-28T12:50:30Z</time>
      </trkpt>
      <trkpt lat="43.76374" lon="3.82602">
        <ele>189</ele>
        <time>2019-01-28T12:50:30Z</time>
      </trkpt>
      <trkpt lat="43.76374" lon="3.82601">
        <ele>189</ele>
        <time>2019-01-28T12:50:30Z</time>
      </trkpt>
      <trkpt lat="43.76374" lon="3.82599">
        <ele>189</ele>
        <time>2019-01-28T12:50:30Z</time>
      </trkpt>
      <trkpt lat="43.76376" lon="3.82594">
        <ele>177</ele>
        <time>2019-01-28T12:50:30Z</time>
      </trkpt>
      <trkpt lat="43.76376" lon="3.82593">
        <ele>177</ele>
        <time>2019-01-28T12:50:50Z</time>
      </trkpt>
      <trkpt lat="43.76377" lon="3.82592">
        <ele>177</ele>
        <time>2019-01-28T12:50:50Z</time>
      </trkpt>
      <trkpt lat="43.7638" lon="3.82593">
        <ele>177</ele>
        <time>2019-01-28T12:50:50Z</time>
      </trkpt>
      <trkpt lat="43.76383" lon="3.82595">
        <ele>177</ele>
        <time>2019-01-28T12:50:50Z</time>
      </trkpt>
      <trkpt lat="43.76385" lon="3.82595">
        <ele>177</ele>
        <time>2019-01-28T12:50:50Z</time>
      </trkpt>
      <trkpt lat="43.76387" lon="3.82593">
        <ele>177</ele>
        <time>2019-01-28T12:51:10Z</time>
      </trkpt>
      <trkpt lat="43.76389" lon="3.8259">
        <ele>177</ele>
        <time>2019-01-28T12:51:10Z</time>
      </trkpt>
      <trkpt lat="43.76391" lon="3.82587">
        <ele>177</ele>
        <time>2019-01-28T12:51:10Z</time>
      </trkpt>
      <trkpt lat="43.76392" lon="3.82587">
        <ele>177</ele>
        <time>2019-01-28T12:51:10Z</time>
      </trkpt>
      <trkpt lat="43.76396" lon="3.82586">
        <ele>177</ele>
        <time>2019-01-28T12:51:10Z</time>
      </trkpt>
      <trkpt lat="43.76398" lon="3.82584">
        <ele>177</ele>
        <time>2019-01-28T12:51:30Z</time>
      </trkpt>
      <trkpt lat="43.76399" lon="3.82583">
        <ele>177</ele>
        <time>2019-01-28T12:51:30Z</time>
      </trkpt>
      <trkpt lat="43.76401" lon="3.8258">
        <ele>177</ele>
        <time>2019-01-28T12:51:30Z</time>
      </trkpt>
      <trkpt lat="43.76405" lon="3.82578">
        <ele>177</ele>
        <time>2019-01-28T12:51:30Z</time>
      </trkpt>
      <trkpt lat="43.76406" lon="3.82578">
        <ele>177</ele>
        <time>2019-01-28T12:51:30Z</time>
      </trkpt>
      <trkpt lat="43.76409" lon="3.82571">
        <ele>177</ele>
        <time>2019-01-28T12:51:54Z</time>
      </trkpt>
      <trkpt lat="43.76412" lon="3.82561">
        <ele>177</ele>
        <time>2019-01-28T12:51:54Z</time>
      </trkpt>
      <trkpt lat="43.76414" lon="3.82554">
        <ele>177</ele>
        <time>2019-01-28T12:51:54Z</time>
      </trkpt>
      <trkpt lat="43.76415" lon="3.82552">
        <ele>177</ele>
        <time>2019-01-28T12:51:54Z</time>
      </trkpt>
      <trkpt lat="43.76413" lon="3.82544">
        <ele>177</ele>
        <time>2019-01-28T12:52:22Z</time>
      </trkpt>
      <trkpt lat="43.76413" lon="3.82544">
        <ele>177</ele>
        <time>2019-01-28T12:52:22Z</time>
      </trkpt>
      <trkpt lat="43.76414" lon="3.82541">
        <ele>184</ele>
        <time>2019-01-28T12:52:22Z</time>
      </trkpt>
      <trkpt lat="43.76416" lon="3.82538">
        <ele>184</ele>
        <time>2019-01-28T12:52:22Z</time>
      </trkpt>
      <trkpt lat="43.76418" lon="3.82536">
        <ele>184</ele>
        <time>2019-01-28T12:52:22Z</time>
      </trkpt>
      <trkpt lat="43.7642" lon="3.82535">
        <ele>184</ele>
        <time>2019-01-28T12:52:54Z</time>
      </trkpt>
      <trkpt lat="43.76422" lon="3.82535">
        <ele>184</ele>
        <time>2019-01-28T12:52:54Z</time>
      </trkpt>
      <trkpt lat="43.76424" lon="3.82535">
        <ele>184</ele>
        <time>2019-01-28T12:52:54Z</time>
      </trkpt>
      <trkpt lat="43.76425" lon="3.82536">
        <ele>184</ele>
        <time>2019-01-28T12:52:54Z</time>
      </trkpt>
      <trkpt lat="43.76428" lon="3.82531">
        <ele>184</ele>
        <time>2019-01-28T12:52:54Z</time>
      </trkpt>
      <trkpt lat="43.76431" lon="3.82522">
        <ele>184</ele>
        <time>2019-01-28T12:53:10Z</time>
      </trkpt>
      <trkpt lat="43.76435" lon="3.82515">
        <ele>184</ele>
        <time>2019-01-28T12:53:10Z</time>
      </trkpt>
      <trkpt lat="43.76438" lon="3.82508">
        <ele>184</ele>
        <time>2019-01-28T12:53:10Z</time>
      </trkpt>
      <trkpt lat="43.76441" lon="3.82504">
        <ele>184</ele>
        <time>2019-01-28T12:53:10Z</time>
      </trkpt>
      <trkpt lat="43.76444" lon="3.82497">
        <ele>184</ele>
        <time>2019-01-28T12:53:26Z</time>
      </trkpt>
      <trkpt lat="43.76448" lon="3.8249">
        <ele>184</ele>
        <time>2019-01-28T12:53:26Z</time>
      </trkpt>
      <trkpt lat="43.76452" lon="3.82483">
        <ele>184</ele>
        <time>2019-01-28T12:53:26Z</time>
      </trkpt>
      <trkpt lat="43.76454" lon="3.82479">
        <ele>184</ele>
        <time>2019-01-28T12:53:26Z</time>
      </trkpt>
      <trkpt lat="43.76453" lon="3.82482">
        <ele>184</ele>
        <time>2019-01-28T12:54:10Z</time>
      </trkpt>
      <trkpt lat="43.76454" lon="3.8248">
        <ele>184</ele>
        <time>2019-01-28T12:54:10Z</time>
      </trkpt>
      <trkpt lat="43.76456" lon="3.82478">
        <ele>184</ele>
        <time>2019-01-28T12:54:10Z</time>
      </trkpt>
      <trkpt lat="43.76459" lon="3.82475">
        <ele>173</ele>
        <time>2019-01-28T12:54:10Z</time>
      </trkpt>
      <trkpt lat="43.76463" lon="3.82473">
        <ele>173</ele>
        <time>2019-01-28T12:54:10Z</time>
      </trkpt>
      <trkpt lat="43.76465" lon="3.82468">
        <ele>173</ele>
        <time>2019-01-28T12:54:26Z</time>
      </trkpt>
      <trkpt lat="43.76467" lon="3.82463">
        <ele>173</ele>
        <time>2019-01-28T12:54:26Z</time>
      </trkpt>
      <trkpt lat="43.76471" lon="3.82459">
        <ele>173</ele>
        <time>2019-01-28T12:54:26Z</time>
      </trkpt>
      <trkpt lat="43.76475" lon="3.82454">
        <ele>175</ele>
        <time>2019-01-28T12:54:26Z</time>
      </trkpt>
      <trkpt lat="43.7648" lon="3.8245">
        <ele>175</ele>
        <time>2019-01-28T12:54:42Z</time>
      </trkpt>
      <trkpt lat="43.76485" lon="3.82447">
        <ele>175</ele>
        <time>2019-01-28T12:54:42Z</time>
      </trkpt>
      <trkpt lat="43.76489" lon="3.82444">
        <ele>175</ele>
        <time>2019-01-28T12:54:42Z</time>
      </trkpt>
      <trkpt lat="43.76493" lon="3.82441">
        <ele>175</ele>
        <time>2019-01-28T12:54:42Z</time>
      </trkpt>
      <trkpt lat="43.76498" lon="3.82438">
        <ele>175</ele>
        <time>2019-01-28T12:54:58Z</time>
      </trkpt>
      <trkpt lat="43.76501" lon="3.82435">
        <ele>175</ele>
        <time>2019-01-28T12:54:58Z</time>
      </trkpt>
      <trkpt lat="43.76504" lon="3.82432">
        <ele>175</ele>
        <time>2019-01-28T12:54:58Z</time>
      </trkpt>
      <trkpt lat="43.76508" lon="3.82429">
        <ele>175</ele>
        <time>2019-01-28T12:54:58Z</time>
      </trkpt>
      <trkpt lat="43.76513" lon="3.82426">
        <ele>175</ele>
        <time>2019-01-28T12:55:14Z</time>
      </trkpt>
      <trkpt lat="43.76517" lon="3.82424">
        <ele>175</ele>
        <time>2019-01-28T12:55:14Z</time>
      </trkpt>
      <trkpt lat="43.7652" lon="3.82419">
        <ele>175</ele>
        <time>2019-01-28T12:55:14Z</time>
      </trkpt>
      <trkpt lat="43.76524" lon="3.82412">
        <ele>175</ele>
        <time>2019-01-28T12:55:14Z</time>
      </trkpt>
      <trkpt lat="43.76525" lon="3.82404">
        <ele>175</ele>
        <time>2019-01-28T12:55:30Z</time>
      </trkpt>
      <trkpt lat="43.76526" lon="3.82397">
        <ele>175</ele>
        <time>2019-01-28T12:55:30Z</time>
      </trkpt>
      <trkpt lat="43.76525" lon="3.82391">
        <ele>175</ele>
        <time>2019-01-28T12:55:30Z</time>
      </trkpt>
      <trkpt lat="43.76523" lon="3.82388">
        <ele>175</ele>
        <time>2019-01-28T12:55:30Z</time>
      </trkpt>
      <trkpt lat="43.76521" lon="3.82385">
        <ele>175</ele>
        <time>2019-01-28T12:55:46Z</time>
      </trkpt>
      <trkpt lat="43.76518" lon="3.82383">
        <ele>175</ele>
        <time>2019-01-28T12:55:46Z</time>
      </trkpt>
      <trkpt lat="43.76513" lon="3.82379">
        <ele>175</ele>
        <time>2019-01-28T12:55:46Z</time>
      </trkpt>
      <trkpt lat="43.76509" lon="3.82377">
        <ele>175</ele>
        <time>2019-01-28T12:55:46Z</time>
      </trkpt>
      <trkpt lat="43.76505" lon="3.82372">
        <ele>178</ele>
        <time>2019-01-28T12:56:02Z</time>
      </trkpt>
      <trkpt lat="43.76501" lon="3.82369">
        <ele>178</ele>
        <time>2019-01-28T12:56:02Z</time>
      </trkpt>
      <trkpt lat="43.76497" lon="3.82366">
        <ele>178</ele>
        <time>2019-01-28T12:56:02Z</time>
      </trkpt>
      <trkpt lat="43.76493" lon="3.82362">
        <ele>178</ele>
        <time>2019-01-28T12:56:02Z</time>
      </trkpt>
      <trkpt lat="43.76488" lon="3.82361">
        <ele>178</ele>
        <time>2019-01-28T12:56:18Z</time>
      </trkpt>
      <trkpt lat="43.76483" lon="3.82359">
        <ele>178</ele>
        <time>2019-01-28T12:56:18Z</time>
      </trkpt>
      <trkpt lat="43.76479" lon="3.82357">
        <ele>178</ele>
        <time>2019-01-28T12:56:18Z</time>
      </trkpt>
      <trkpt lat="43.76474" lon="3.82353">
        <ele>178</ele>
        <time>2019-01-28T12:56:18Z</time>
      </trkpt>
      <trkpt lat="43.7647" lon="3.82354">
        <ele>178</ele>
        <time>2019-01-28T12:56:38Z</time>
      </trkpt>
      <trkpt lat="43.76469" lon="3.82353">
        <ele>178</ele>
        <time>2019-01-28T12:56:38Z</time>
      </trkpt>
      <trkpt lat="43.76467" lon="3.8235">
        <ele>178</ele>
        <time>2019-01-28T12:56:38Z</time>
      </trkpt>
      <trkpt lat="43.76463" lon="3.82352">
        <ele>178</ele>
        <time>2019-01-28T12:56:38Z</time>
      </trkpt>
      <trkpt lat="43.76459" lon="3.82356">
        <ele>178</ele>
        <time>2019-01-28T12:56:38Z</time>
      </trkpt>
      <trkpt lat="43.7645" lon="3.82356">
        <ele>189</ele>
        <time>2019-01-28T12:57:22Z</time>
      </trkpt>
      <trkpt lat="43.7645" lon="3.82353">
        <ele>189</ele>
        <time>2019-01-28T12:57:22Z</time>
      </trkpt>
      <trkpt lat="43.76451" lon="3.82351">
        <ele>189</ele>
        <time>2019-01-28T12:57:22Z</time>
      </trkpt>
      <trkpt lat="43.76451" lon="3.82349">
        <ele>189</ele>
        <time>2019-01-28T12:57:22Z</time>
      </trkpt>
      <trkpt lat="43.7645" lon="3.82346">
        <ele>189</ele>
        <time>2019-01-28T12:57:22Z</time>
      </trkpt>
      <trkpt lat="43.76448" lon="3.82342">
        <ele>189</ele>
        <time>2019-01-28T12:57:50Z</time>
      </trkpt>
      <trkpt lat="43.76447" lon="3.82338">
        <ele>189</ele>
        <time>2019-01-28T12:57:50Z</time>
      </trkpt>
      <trkpt lat="43.76446" lon="3.82337">
        <ele>189</ele>
        <time>2019-01-28T12:57:50Z</time>
      </trkpt>
      <trkpt lat="43.76444" lon="3.82335">
        <ele>189</ele>
        <time>2019-01-28T12:57:50Z</time>
      </trkpt>
      <trkpt lat="43.76444" lon="3.82332">
        <ele>189</ele>
        <time>2019-01-28T12:57:50Z</time>
      </trkpt>
      <trkpt lat="43.76442" lon="3.82322">
        <ele>189</ele>
        <time>2019-01-28T12:58:30Z</time>
      </trkpt>
      <trkpt lat="43.76441" lon="3.82321">
        <ele>189</ele>
        <time>2019-01-28T12:58:30Z</time>
      </trkpt>
      <trkpt lat="43.76441" lon="3.8232">
        <ele>189</ele>
        <time>2019-01-28T12:58:30Z</time>
      </trkpt>
      <trkpt lat="43.7644" lon="3.8232">
        <ele>189</ele>
        <time>2019-01-28T12:58:30Z</time>
      </trkpt>
      <trkpt lat="43.76438" lon="3.82317">
        <ele>189</ele>
        <time>2019-01-28T12:58:30Z</time>
      </trkpt>
      <trkpt lat="43.76438" lon="3.82316">
        <ele>189</ele>
        <time>2019-01-28T12:59:02Z</time>
      </trkpt>
      <trkpt lat="43.7644" lon="3.82316">
        <ele>189</ele>
        <time>2019-01-28T12:59:02Z</time>
      </trkpt>
      <trkpt lat="43.76441" lon="3.82314">
        <ele>189</ele>
        <time>2019-01-28T12:59:02Z</time>
      </trkpt>
      <trkpt lat="43.76442" lon="3.82308">
        <ele>189</ele>
        <time>2019-01-28T12:59:02Z</time>
      </trkpt>
      <trkpt lat="43.76442" lon="3.82305">
        <ele>189</ele>
        <time>2019-01-28T12:59:02Z</time>
      </trkpt>
      <trkpt lat="43.76443" lon="3.82302">
        <ele>189</ele>
        <time>2019-01-28T12:59:22Z</time>
      </trkpt>
      <trkpt lat="43.76445" lon="3.823">
        <ele>189</ele>
        <time>2019-01-28T12:59:22Z</time>
      </trkpt>
      <trkpt lat="43.76447" lon="3.82296">
        <ele>189</ele>
        <time>2019-01-28T12:59:22Z</time>
      </trkpt>
      <trkpt lat="43.76447" lon="3.82289">
        <ele>193</ele>
        <time>2019-01-28T12:59:22Z</time>
      </trkpt>
      <trkpt lat="43.76446" lon="3.82277">
        <ele>193</ele>
        <time>2019-01-28T12:59:46Z</time>
      </trkpt>
      <trkpt lat="43.76446" lon="3.82274">
        <ele>193</ele>
        <time>2019-01-28T12:59:46Z</time>
      </trkpt>
      <trkpt lat="43.76446" lon="3.82274">
        <ele>193</ele>
        <time>2019-01-28T12:59:46Z</time>
      </trkpt>
      <trkpt lat="43.76444" lon="3.82272">
        <ele>193</ele>
        <time>2019-01-28T12:59:46Z</time>
      </trkpt>
      <trkpt lat="43.76444" lon="3.82269">
        <ele>193</ele>
        <time>2019-01-28T12:59:46Z</time>
      </trkpt>
      <trkpt lat="43.76442" lon="3.82267">
        <ele>193</ele>
        <time>2019-01-28T13:00:34Z</time>
      </trkpt>
      <trkpt lat="43.7644" lon="3.82264">
        <ele>193</ele>
        <time>2019-01-28T13:00:34Z</time>
      </trkpt>
      <trkpt lat="43.76437" lon="3.82262">
        <ele>193</ele>
        <time>2019-01-28T13:00:34Z</time>
      </trkpt>
      <trkpt lat="43.76438" lon="3.82256">
        <ele>193</ele>
        <time>2019-01-28T13:00:34Z</time>
      </trkpt>
      <trkpt lat="43.76438" lon="3.82253">
        <ele>193</ele>
        <time>2019-01-28T13:00:34Z</time>
      </trkpt>
      <trkpt lat="43.76436" lon="3.82251">
        <ele>193</ele>
        <time>2019-01-28T13:02:10Z</time>
      </trkpt>
      <trkpt lat="43.76434" lon="3.82246">
        <ele>193</ele>
        <time>2019-01-28T13:02:10Z</time>
      </trkpt>
      <trkpt lat="43.76436" lon="3.82243">
        <ele>193</ele>
        <time>2019-01-28T13:02:10Z</time>
      </trkpt>
      <trkpt lat="43.76436" lon="3.8224">
        <ele>193</ele>
        <time>2019-01-28T13:02:10Z</time>
      </trkpt>
      <trkpt lat="43.76436" lon="3.82237">
        <ele>193</ele>
        <time>2019-01-28T13:02:10Z</time>
      </trkpt>
      <trkpt lat="43.76433" lon="3.82232">
        <ele>193</ele>
        <time>2019-01-28T13:02:58Z</time>
      </trkpt>
      <trkpt lat="43.76434" lon="3.82228">
        <ele>193</ele>
        <time>2019-01-28T13:02:58Z</time>
      </trkpt>
      <trkpt lat="43.76434" lon="3.82227">
        <ele>193</ele>
        <time>2019-01-28T13:02:58Z</time>
      </trkpt>
      <trkpt lat="43.76434" lon="3.82226">
        <ele>193</ele>
        <time>2019-01-28T13:02:58Z</time>
      </trkpt>
      <trkpt lat="43.76434" lon="3.82223">
        <ele>193</ele>
        <time>2019-01-28T13:02:58Z</time>
      </trkpt>
      <trkpt lat="43.7643" lon="3.82229">
        <ele>193</ele>
        <time>2019-01-28T13:05:26Z</time>
      </trkpt>
      <trkpt lat="43.76429" lon="3.82232">
        <ele>193</ele>
        <time>2019-01-28T13:05:26Z</time>
      </trkpt>
      <trkpt lat="43.76429" lon="3.82235">
        <ele>193</ele>
        <time>2019-01-28T13:05:26Z</time>
      </trkpt>
      <trkpt lat="43.76429" lon="3.82236">
        <ele>193</ele>
        <time>2019-01-28T13:05:26Z</time>
      </trkpt>
      <trkpt lat="43.76427" lon="3.82239">
        <ele>193</ele>
        <time>2019-01-28T13:05:26Z</time>
      </trkpt>
      <trkpt lat="43.76425" lon="3.82244">
        <ele>193</ele>
        <time>2019-01-28T13:06:10Z</time>
      </trkpt>
      <trkpt lat="43.76425" lon="3.82247">
        <ele>193</ele>
        <time>2019-01-28T13:06:10Z</time>
      </trkpt>
      <trkpt lat="43.76425" lon="3.82248">
        <ele>193</ele>
        <time>2019-01-28T13:06:10Z</time>
      </trkpt>
      <trkpt lat="43.76427" lon="3.82254">
        <ele>193</ele>
        <time>2019-01-28T13:06:10Z</time>
      </trkpt>
      <trkpt lat="43.76431" lon="3.82261">
        <ele>193</ele>
        <time>2019-01-28T13:06:10Z</time>
      </trkpt>
      <trkpt lat="43.76435" lon="3.82264">
        <ele>193</ele>
        <time>2019-01-28T13:06:34Z</time>
      </trkpt>
      <trkpt lat="43.76436" lon="3.82266">
        <ele>193</ele>
        <time>2019-01-28T13:06:34Z</time>
      </trkpt>
      <trkpt lat="43.76439" lon="3.8227">
        <ele>193</ele>
        <time>2019-01-28T13:06:34Z</time>
      </trkpt>
      <trkpt lat="43.76441" lon="3.82273">
        <ele>193</ele>
        <time>2019-01-28T13:06:34Z</time>
      </trkpt>
      <trkpt lat="43.76438" lon="3.82279">
        <ele>193</ele>
        <time>2019-01-28T13:06:34Z</time>
      </trkpt>
      <trkpt lat="43.76438" lon="3.8228">
        <ele>193</ele>
        <time>2019-01-28T13:06:54Z</time>
      </trkpt>
      <trkpt lat="43.76437" lon="3.82281">
        <ele>193</ele>
        <time>2019-01-28T13:06:54Z</time>
      </trkpt>
      <trkpt lat="43.76439" lon="3.82285">
        <ele>193</ele>
        <time>2019-01-28T13:06:54Z</time>
      </trkpt>
      <trkpt lat="43.76441" lon="3.8229">
        <ele>193</ele>
        <time>2019-01-28T13:06:54Z</time>
      </trkpt>
      <trkpt lat="43.76444" lon="3.82293">
        <ele>189</ele>
        <time>2019-01-28T13:06:54Z</time>
      </trkpt>
      <trkpt lat="43.76445" lon="3.82294">
        <ele>189</ele>
        <time>2019-01-28T13:07:10Z</time>
      </trkpt>
      <trkpt lat="43.7645" lon="3.82293">
        <ele>189</ele>
        <time>2019-01-28T13:07:10Z</time>
      </trkpt>
      <trkpt lat="43.76453" lon="3.82295">
        <ele>189</ele>
        <time>2019-01-28T13:07:10Z</time>
      </trkpt>
      <trkpt lat="43.76456" lon="3.82298">
        <ele>189</ele>
        <time>2019-01-28T13:07:10Z</time>
      </trkpt>
      <trkpt lat="43.76459" lon="3.82298">
        <ele>178</ele>
        <time>2019-01-28T13:07:26Z</time>
      </trkpt>
      <trkpt lat="43.76464" lon="3.82298">
        <ele>178</ele>
        <time>2019-01-28T13:07:26Z</time>
      </trkpt>
      <trkpt lat="43.76467" lon="3.82296">
        <ele>178</ele>
        <time>2019-01-28T13:07:26Z</time>
      </trkpt>
      <trkpt lat="43.7647" lon="3.82291">
        <ele>182</ele>
        <time>2019-01-28T13:07:26Z</time>
      </trkpt>
      <trkpt lat="43.76471" lon="3.82288">
        <ele>182</ele>
        <time>2019-01-28T13:08:10Z</time>
      </trkpt>
      <trkpt lat="43.76472" lon="3.82288">
        <ele>182</ele>
        <time>2019-01-28T13:08:10Z</time>
      </trkpt>
      <trkpt lat="43.76475" lon="3.82285">
        <ele>182</ele>
        <time>2019-01-28T13:08:10Z</time>
      </trkpt>
      <trkpt lat="43.76476" lon="3.82283">
        <ele>182</ele>
        <time>2019-01-28T13:08:10Z</time>
      </trkpt>
      <trkpt lat="43.76479" lon="3.8228">
        <ele>182</ele>
        <time>2019-01-28T13:08:10Z</time>
      </trkpt>
      <trkpt lat="43.76482" lon="3.82279">
        <ele>182</ele>
        <time>2019-01-28T13:08:26Z</time>
      </trkpt>
      <trkpt lat="43.76486" lon="3.82275">
        <ele>182</ele>
        <time>2019-01-28T13:08:26Z</time>
      </trkpt>
      <trkpt lat="43.7649" lon="3.8227">
        <ele>182</ele>
        <time>2019-01-28T13:08:26Z</time>
      </trkpt>
      <trkpt lat="43.76491" lon="3.82268">
        <ele>182</ele>
        <time>2019-01-28T13:08:26Z</time>
      </trkpt>
      <trkpt lat="43.76493" lon="3.82266">
        <ele>182</ele>
        <time>2019-01-28T13:08:46Z</time>
      </trkpt>
      <trkpt lat="43.76494" lon="3.82263">
        <ele>182</ele>
        <time>2019-01-28T13:08:46Z</time>
      </trkpt>
      <trkpt lat="43.76496" lon="3.8226">
        <ele>182</ele>
        <time>2019-01-28T13:08:46Z</time>
      </trkpt>
      <trkpt lat="43.76498" lon="3.82255">
        <ele>182</ele>
        <time>2019-01-28T13:08:46Z</time>
      </trkpt>
      <trkpt lat="43.76499" lon="3.82251">
        <ele>182</ele>
        <time>2019-01-28T13:09:02Z</time>
      </trkpt>
      <trkpt lat="43.76501" lon="3.82246">
        <ele>182</ele>
        <time>2019-01-28T13:09:02Z</time>
      </trkpt>
      <trkpt lat="43.76503" lon="3.82243">
        <ele>182</ele>
        <time>2019-01-28T13:09:02Z</time>
      </trkpt>
      <trkpt lat="43.76506" lon="3.82239">
        <ele>182</ele>
        <time>2019-01-28T13:09:02Z</time>
      </trkpt>
      <trkpt lat="43.76508" lon="3.82233">
        <ele>182</ele>
        <time>2019-01-28T13:09:38Z</time>
      </trkpt>
      <trkpt lat="43.76509" lon="3.82229">
        <ele>182</ele>
        <time>2019-01-28T13:09:38Z</time>
      </trkpt>
      <trkpt lat="43.76509" lon="3.82229">
        <ele>182</ele>
        <time>2019-01-28T13:09:38Z</time>
      </trkpt>
      <trkpt lat="43.7651" lon="3.82228">
        <ele>182</ele>
        <time>2019-01-28T13:09:38Z</time>
      </trkpt>
      <trkpt lat="43.76512" lon="3.82222">
        <ele>182</ele>
        <time>2019-01-28T13:09:38Z</time>
      </trkpt>
      <trkpt lat="43.76519" lon="3.82204">
        <ele>189</ele>
        <time>2019-01-28T13:11:54Z</time>
      </trkpt>
      <trkpt lat="43.76521" lon="3.82205">
        <ele>189</ele>
        <time>2019-01-28T13:11:54Z</time>
      </trkpt>
      <trkpt lat="43.76523" lon="3.82202">
        <ele>189</ele>
        <time>2019-01-28T13:11:54Z</time>
      </trkpt>
      <trkpt lat="43.76524" lon="3.82199">
        <ele>189</ele>
        <time>2019-01-28T13:11:54Z</time>
      </trkpt>
      <trkpt lat="43.76525" lon="3.82201">
        <ele>189</ele>
        <time>2019-01-28T13:11:54Z</time>
      </trkpt>
      <trkpt lat="43.76529" lon="3.82201">
        <ele>189</ele>
        <time>2019-01-28T13:13:02Z</time>
      </trkpt>
      <trkpt lat="43.76529" lon="3.82202">
        <ele>189</ele>
        <time>2019-01-28T13:13:02Z</time>
      </trkpt>
      <trkpt lat="43.76532" lon="3.82203">
        <ele>189</ele>
        <time>2019-01-28T13:13:02Z</time>
      </trkpt>
      <trkpt lat="43.76533" lon="3.82205">
        <ele>189</ele>
        <time>2019-01-28T13:13:02Z</time>
      </trkpt>
      <trkpt lat="43.76535" lon="3.82208">
        <ele>189</ele>
        <time>2019-01-28T13:13:02Z</time>
      </trkpt>
      <trkpt lat="43.76546" lon="3.82215">
        <ele>179</ele>
        <time>2019-01-28T13:13:50Z</time>
      </trkpt>
      <trkpt lat="43.76546" lon="3.82215">
        <ele>179</ele>
        <time>2019-01-28T13:13:50Z</time>
      </trkpt>
      <trkpt lat="43.76546" lon="3.82216">
        <ele>179</ele>
        <time>2019-01-28T13:13:50Z</time>
      </trkpt>
      <trkpt lat="43.76546" lon="3.82216">
        <ele>179</ele>
        <time>2019-01-28T13:13:50Z</time>
      </trkpt>
      <trkpt lat="43.76547" lon="3.82219">
        <ele>179</ele>
        <time>2019-01-28T13:13:50Z</time>
      </trkpt>
      <trkpt lat="43.7655" lon="3.82224">
        <ele>179</ele>
        <time>2019-01-28T13:14:06Z</time>
      </trkpt>
      <trkpt lat="43.76552" lon="3.82228">
        <ele>179</ele>
        <time>2019-01-28T13:14:06Z</time>
      </trkpt>
      <trkpt lat="43.76553" lon="3.82233">
        <ele>179</ele>
        <time>2019-01-28T13:14:06Z</time>
      </trkpt>
      <trkpt lat="43.76552" lon="3.82237">
        <ele>179</ele>
        <time>2019-01-28T13:14:06Z</time>
      </trkpt>
      <trkpt lat="43.76553" lon="3.82242">
        <ele>179</ele>
        <time>2019-01-28T13:14:26Z</time>
      </trkpt>
      <trkpt lat="43.76552" lon="3.82244">
        <ele>179</ele>
        <time>2019-01-28T13:14:26Z</time>
      </trkpt>
      <trkpt lat="43.76552" lon="3.82247">
        <ele>179</ele>
        <time>2019-01-28T13:14:26Z</time>
      </trkpt>
      <trkpt lat="43.76552" lon="3.82253">
        <ele>179</ele>
        <time>2019-01-28T13:14:26Z</time>
      </trkpt>
      <trkpt lat="43.76552" lon="3.82257">
        <ele>179</ele>
        <time>2019-01-28T13:14:26Z</time>
      </trkpt>
      <trkpt lat="43.76553" lon="3.82262">
        <ele>179</ele>
        <time>2019-01-28T13:14:46Z</time>
      </trkpt>
      <trkpt lat="43.76553" lon="3.82265">
        <ele>179</ele>
        <time>2019-01-28T13:14:46Z</time>
      </trkpt>
      <trkpt lat="43.76553" lon="3.8227">
        <ele>179</ele>
        <time>2019-01-28T13:14:46Z</time>
      </trkpt>
      <trkpt lat="43.76553" lon="3.82274">
        <ele>179</ele>
        <time>2019-01-28T13:14:46Z</time>
      </trkpt>
      <trkpt lat="43.76552" lon="3.82281">
        <ele>179</ele>
        <time>2019-01-28T13:14:46Z</time>
      </trkpt>
      <trkpt lat="43.76551" lon="3.82286">
        <ele>179</ele>
        <time>2019-01-28T13:16:14Z</time>
      </trkpt>
      <trkpt lat="43.76552" lon="3.82291">
        <ele>179</ele>
        <time>2019-01-28T13:16:14Z</time>
      </trkpt>
      <trkpt lat="43.76554" lon="3.82291">
        <ele>179</ele>
        <time>2019-01-28T13:16:14Z</time>
      </trkpt>
      <trkpt lat="43.76555" lon="3.82296">
        <ele>178</ele>
        <time>2019-01-28T13:16:14Z</time>
      </trkpt>
      <trkpt lat="43.76555" lon="3.82302">
        <ele>178</ele>
        <time>2019-01-28T13:16:14Z</time>
      </trkpt>
      <trkpt lat="43.76555" lon="3.82309">
        <ele>178</ele>
        <time>2019-01-28T13:16:30Z</time>
      </trkpt>
      <trkpt lat="43.76555" lon="3.82316">
        <ele>178</ele>
        <time>2019-01-28T13:16:30Z</time>
      </trkpt>
      <trkpt lat="43.76554" lon="3.82321">
        <ele>178</ele>
        <time>2019-01-28T13:16:30Z</time>
      </trkpt>
      <trkpt lat="43.76553" lon="3.82328">
        <ele>178</ele>
        <time>2019-01-28T13:16:30Z</time>
      </trkpt>
      <trkpt lat="43.76552" lon="3.82334">
        <ele>178</ele>
        <time>2019-01-28T13:16:46Z</time>
      </trkpt>
      <trkpt lat="43.76554" lon="3.82336">
        <ele>178</ele>
        <time>2019-01-28T13:16:46Z</time>
      </trkpt>
      <trkpt lat="43.76555" lon="3.82342">
        <ele>178</ele>
        <time>2019-01-28T13:16:46Z</time>
      </trkpt>
      <trkpt lat="43.76556" lon="3.82347">
        <ele>178</ele>
        <time>2019-01-28T13:16:46Z</time>
      </trkpt>
      <trkpt lat="43.76558" lon="3.82354">
        <ele>178</ele>
        <time>2019-01-28T13:17:02Z</time>
      </trkpt>
      <trkpt lat="43.7656" lon="3.8236">
        <ele>178</ele>
        <time>2019-01-28T13:17:02Z</time>
      </trkpt>
      <trkpt lat="43.76561" lon="3.82366">
        <ele>178</ele>
        <time>2019-01-28T13:17:02Z</time>
      </trkpt>
      <trkpt lat="43.76561" lon="3.82374">
        <ele>178</ele>
        <time>2019-01-28T13:17:02Z</time>
      </trkpt>
      <trkpt lat="43.76563" lon="3.82378">
        <ele>177</ele>
        <time>2019-01-28T13:17:18Z</time>
      </trkpt>
      <trkpt lat="43.76567" lon="3.82382">
        <ele>177</ele>
        <time>2019-01-28T13:17:18Z</time>
      </trkpt>
      <trkpt lat="43.7657" lon="3.82381">
        <ele>177</ele>
        <time>2019-01-28T13:17:18Z</time>
      </trkpt>
      <trkpt lat="43.76574" lon="3.82379">
        <ele>177</ele>
        <time>2019-01-28T13:17:18Z</time>
      </trkpt>
      <trkpt lat="43.76579" lon="3.8238">
        <ele>177</ele>
        <time>2019-01-28T13:17:34Z</time>
      </trkpt>
      <trkpt lat="43.76585" lon="3.82378">
        <ele>177</ele>
        <time>2019-01-28T13:17:34Z</time>
      </trkpt>
      <trkpt lat="43.76591" lon="3.82374">
        <ele>178</ele>
        <time>2019-01-28T13:17:34Z</time>
      </trkpt>
      <trkpt lat="43.76592" lon="3.82373">
        <ele>178</ele>
        <time>2019-01-28T13:17:34Z</time>
      </trkpt>
      <trkpt lat="43.76594" lon="3.82372">
        <ele>178</ele>
        <time>2019-01-28T13:18:02Z</time>
      </trkpt>
      <trkpt lat="43.76594" lon="3.82372">
        <ele>178</ele>
        <time>2019-01-28T13:18:02Z</time>
      </trkpt>
      <trkpt lat="43.76596" lon="3.82371">
        <ele>178</ele>
        <time>2019-01-28T13:18:02Z</time>
      </trkpt>
      <trkpt lat="43.76601" lon="3.82365">
        <ele>178</ele>
        <time>2019-01-28T13:18:02Z</time>
      </trkpt>
      <trkpt lat="43.76607" lon="3.82357">
        <ele>178</ele>
        <time>2019-01-28T13:18:58Z</time>
      </trkpt>
      <trkpt lat="43.76607" lon="3.82358">
        <ele>178</ele>
        <time>2019-01-28T13:18:58Z</time>
      </trkpt>
      <trkpt lat="43.76611" lon="3.82358">
        <ele>178</ele>
        <time>2019-01-28T13:18:58Z</time>
      </trkpt>
      <trkpt lat="43.76614" lon="3.82358">
        <ele>178</ele>
        <time>2019-01-28T13:18:58Z</time>
      </trkpt>
      <trkpt lat="43.76618" lon="3.82358">
        <ele>178</ele>
        <time>2019-01-28T13:18:58Z</time>
      </trkpt>
      <trkpt lat="43.76623" lon="3.82358">
        <ele>178</ele>
        <time>2019-01-28T13:19:14Z</time>
      </trkpt>
      <trkpt lat="43.76628" lon="3.82358">
        <ele>178</ele>
        <time>2019-01-28T13:19:14Z</time>
      </trkpt>
      <trkpt lat="43.76633" lon="3.82355">
        <ele>178</ele>
        <time>2019-01-28T13:19:14Z</time>
      </trkpt>
      <trkpt lat="43.76637" lon="3.82355">
        <ele>178</ele>
        <time>2019-01-28T13:19:14Z</time>
      </trkpt>
      <trkpt lat="43.76641" lon="3.82355">
        <ele>178</ele>
        <time>2019-01-28T13:19:30Z</time>
      </trkpt>
      <trkpt lat="43.76645" lon="3.82355">
        <ele>178</ele>
        <time>2019-01-28T13:19:30Z</time>
      </trkpt>
      <trkpt lat="43.7665" lon="3.82354">
        <ele>178</ele>
        <time>2019-01-28T13:19:30Z</time>
      </trkpt>
      <trkpt lat="43.76654" lon="3.82353">
        <ele>178</ele>
        <time>2019-01-28T13:19:30Z</time>
      </trkpt>
      <trkpt lat="43.76659" lon="3.82351">
        <ele>178</ele>
        <time>2019-01-28T13:19:46Z</time>
      </trkpt>
      <trkpt lat="43.76665" lon="3.82349">
        <ele>178</ele>
        <time>2019-01-28T13:19:46Z</time>
      </trkpt>
      <trkpt lat="43.76669" lon="3.82348">
        <ele>178</ele>
        <time>2019-01-28T13:19:46Z</time>
      </trkpt>
      <trkpt lat="43.76674" lon="3.82346">
        <ele>178</ele>
        <time>2019-01-28T13:19:46Z</time>
      </trkpt>
      <trkpt lat="43.76678" lon="3.82345">
        <ele>178</ele>
        <time>2019-01-28T13:20:02Z</time>
      </trkpt>
      <trkpt lat="43.76682" lon="3.82345">
        <ele>178</ele>
        <time>2019-01-28T13:20:02Z</time>
      </trkpt>
      <trkpt lat="43.76686" lon="3.82344">
        <ele>178</ele>
        <time>2019-01-28T13:20:02Z</time>
      </trkpt>
      <trkpt lat="43.76691" lon="3.82344">
        <ele>178</ele>
        <time>2019-01-28T13:20:02Z</time>
      </trkpt>
      <trkpt lat="43.76691" lon="3.82344">
        <ele>178</ele>
        <time>2019-01-28T13:20:18Z</time>
      </trkpt>
      <trkpt lat="43.76691" lon="3.82344">
        <ele>178</ele>
        <time>2019-01-28T13:20:18Z</time>
      </trkpt>
      <trkpt lat="43.76694" lon="3.82337">
        <ele>178</ele>
        <time>2019-01-28T13:20:18Z</time>
      </trkpt>
      <trkpt lat="43.76699" lon="3.82328">
        <ele>178</ele>
        <time>2019-01-28T13:20:18Z</time>
      </trkpt>
      <trkpt lat="43.76705" lon="3.82326">
        <ele>178</ele>
        <time>2019-01-28T13:20:34Z</time>
      </trkpt>
      <trkpt lat="43.76708" lon="3.82322">
        <ele>178</ele>
        <time>2019-01-28T13:20:34Z</time>
      </trkpt>
      <trkpt lat="43.76711" lon="3.82321">
        <ele>182</ele>
        <time>2019-01-28T13:20:34Z</time>
      </trkpt>
      <trkpt lat="43.76715" lon="3.8232">
        <ele>182</ele>
        <time>2019-01-28T13:20:34Z</time>
      </trkpt>
      <trkpt lat="43.76719" lon="3.82319">
        <ele>182</ele>
        <time>2019-01-28T13:20:50Z</time>
      </trkpt>
      <trkpt lat="43.76723" lon="3.82319">
        <ele>182</ele>
        <time>2019-01-28T13:20:50Z</time>
      </trkpt>
      <trkpt lat="43.76727" lon="3.82319">
        <ele>182</ele>
        <time>2019-01-28T13:20:50Z</time>
      </trkpt>
      <trkpt lat="43.76731" lon="3.82319">
        <ele>182</ele>
        <time>2019-01-28T13:20:50Z</time>
      </trkpt>
      <trkpt lat="43.76736" lon="3.82319">
        <ele>182</ele>
        <time>2019-01-28T13:21:06Z</time>
      </trkpt>
      <trkpt lat="43.76741" lon="3.82319">
        <ele>182</ele>
        <time>2019-01-28T13:21:06Z</time>
      </trkpt>
      <trkpt lat="43.76746" lon="3.82317">
        <ele>182</ele>
        <time>2019-01-28T13:21:06Z</time>
      </trkpt>
      <trkpt lat="43.76751" lon="3.82318">
        <ele>182</ele>
        <time>2019-01-28T13:21:06Z</time>
      </trkpt>
      <trkpt lat="43.76755" lon="3.82317">
        <ele>182</ele>
        <time>2019-01-28T13:21:22Z</time>
      </trkpt>
      <trkpt lat="43.7676" lon="3.82316">
        <ele>182</ele>
        <time>2019-01-28T13:21:22Z</time>
      </trkpt>
      <trkpt lat="43.76765" lon="3.82315">
        <ele>182</ele>
        <time>2019-01-28T13:21:22Z</time>
      </trkpt>
      <trkpt lat="43.7677" lon="3.82314">
        <ele>182</ele>
        <time>2019-01-28T13:21:22Z</time>
      </trkpt>
      <trkpt lat="43.76774" lon="3.82314">
        <ele>182</ele>
        <time>2019-01-28T13:21:38Z</time>
      </trkpt>
      <trkpt lat="43.76779" lon="3.82314">
        <ele>182</ele>
        <time>2019-01-28T13:21:38Z</time>
      </trkpt>
      <trkpt lat="43.76785" lon="3.82315">
        <ele>182</ele>
        <time>2019-01-28T13:21:38Z</time>
      </trkpt>
      <trkpt lat="43.76789" lon="3.82316">
        <ele>182</ele>
        <time>2019-01-28T13:21:38Z</time>
      </trkpt>
      <trkpt lat="43.76794" lon="3.82316">
        <ele>185</ele>
        <time>2019-01-28T13:21:54Z</time>
      </trkpt>
      <trkpt lat="43.76799" lon="3.82316">
        <ele>185</ele>
        <time>2019-01-28T13:21:54Z</time>
      </trkpt>
      <trkpt lat="43.76804" lon="3.82317">
        <ele>185</ele>
        <time>2019-01-28T13:21:54Z</time>
      </trkpt>
      <trkpt lat="43.76809" lon="3.82316">
        <ele>185</ele>
        <time>2019-01-28T13:21:54Z</time>
      </trkpt>
      <trkpt lat="43.76814" lon="3.82317">
        <ele>185</ele>
        <time>2019-01-28T13:22:10Z</time>
      </trkpt>
      <trkpt lat="43.7682" lon="3.82316">
        <ele>185</ele>
        <time>2019-01-28T13:22:10Z</time>
      </trkpt>
      <trkpt lat="43.76825" lon="3.82318">
        <ele>185</ele>
        <time>2019-01-28T13:22:10Z</time>
      </trkpt>
      <trkpt lat="43.7683" lon="3.82318">
        <ele>185</ele>
        <time>2019-01-28T13:22:10Z</time>
      </trkpt>
      <trkpt lat="43.76836" lon="3.82319">
        <ele>185</ele>
        <time>2019-01-28T13:22:26Z</time>
      </trkpt>
      <trkpt lat="43.76842" lon="3.8232">
        <ele>185</ele>
        <time>2019-01-28T13:22:26Z</time>
      </trkpt>
      <trkpt lat="43.76846" lon="3.82321">
        <ele>185</ele>
        <time>2019-01-28T13:22:26Z</time>
      </trkpt>
      <trkpt lat="43.7685" lon="3.82316">
        <ele>185</ele>
        <time>2019-01-28T13:22:26Z</time>
      </trkpt>
      <trkpt lat="43.76854" lon="3.82308">
        <ele>185</ele>
        <time>2019-01-28T13:22:42Z</time>
      </trkpt>
      <trkpt lat="43.76859" lon="3.82297">
        <ele>185</ele>
        <time>2019-01-28T13:22:42Z</time>
      </trkpt>
      <trkpt lat="43.7686" lon="3.82285">
        <ele>186</ele>
        <time>2019-01-28T13:22:42Z</time>
      </trkpt>
      <trkpt lat="43.76861" lon="3.82276">
        <ele>186</ele>
        <time>2019-01-28T13:22:42Z</time>
      </trkpt>
      <trkpt lat="43.76863" lon="3.82267">
        <ele>186</ele>
        <time>2019-01-28T13:22:58Z</time>
      </trkpt>
      <trkpt lat="43.76863" lon="3.8226">
        <ele>186</ele>
        <time>2019-01-28T13:22:58Z</time>
      </trkpt>
      <trkpt lat="43.76864" lon="3.82253">
        <ele>186</ele>
        <time>2019-01-28T13:22:58Z</time>
      </trkpt>
      <trkpt lat="43.76863" lon="3.82246">
        <ele>186</ele>
        <time>2019-01-28T13:22:58Z</time>
      </trkpt>
      <trkpt lat="43.76862" lon="3.82238">
        <ele>186</ele>
        <time>2019-01-28T13:23:14Z</time>
      </trkpt>
      <trkpt lat="43.76861" lon="3.82231">
        <ele>186</ele>
        <time>2019-01-28T13:23:14Z</time>
      </trkpt>
      <trkpt lat="43.76861" lon="3.82225">
        <ele>186</ele>
        <time>2019-01-28T13:23:14Z</time>
      </trkpt>
      <trkpt lat="43.76861" lon="3.82217">
        <ele>186</ele>
        <time>2019-01-28T13:23:14Z</time>
      </trkpt>
      <trkpt lat="43.76861" lon="3.82211">
        <ele>186</ele>
        <time>2019-01-28T13:23:30Z</time>
      </trkpt>
      <trkpt lat="43.76862" lon="3.82206">
        <ele>186</ele>
        <time>2019-01-28T13:23:30Z</time>
      </trkpt>
      <trkpt lat="43.76862" lon="3.82198">
        <ele>186</ele>
        <time>2019-01-28T13:23:30Z</time>
      </trkpt>
      <trkpt lat="43.76862" lon="3.82191">
        <ele>186</ele>
        <time>2019-01-28T13:23:30Z</time>
      </trkpt>
      <trkpt lat="43.76861" lon="3.82185">
        <ele>186</ele>
        <time>2019-01-28T13:23:46Z</time>
      </trkpt>
      <trkpt lat="43.76861" lon="3.8218">
        <ele>186</ele>
        <time>2019-01-28T13:23:46Z</time>
      </trkpt>
      <trkpt lat="43.7686" lon="3.82174">
        <ele>186</ele>
        <time>2019-01-28T13:23:46Z</time>
      </trkpt>
      <trkpt lat="43.7686" lon="3.82166">
        <ele>186</ele>
        <time>2019-01-28T13:23:46Z</time>
      </trkpt>
      <trkpt lat="43.76859" lon="3.82159">
        <ele>186</ele>
        <time>2019-01-28T13:24:02Z</time>
      </trkpt>
      <trkpt lat="43.76858" lon="3.82153">
        <ele>186</ele>
        <time>2019-01-28T13:24:02Z</time>
      </trkpt>
      <trkpt lat="43.76858" lon="3.82148">
        <ele>186</ele>
        <time>2019-01-28T13:24:02Z</time>
      </trkpt>
      <trkpt lat="43.76858" lon="3.82142">
        <ele>186</ele>
        <time>2019-01-28T13:24:02Z</time>
      </trkpt>
      <trkpt lat="43.76858" lon="3.82135">
        <ele>186</ele>
        <time>2019-01-28T13:24:18Z</time>
      </trkpt>
      <trkpt lat="43.76858" lon="3.82128">
        <ele>186</ele>
        <time>2019-01-28T13:24:18Z</time>
      </trkpt>
      <trkpt lat="43.76858" lon="3.82121">
        <ele>187</ele>
        <time>2019-01-28T13:24:18Z</time>
      </trkpt>
      <trkpt lat="43.76858" lon="3.82114">
        <ele>187</ele>
        <time>2019-01-28T13:24:18Z</time>
      </trkpt>
      <trkpt lat="43.76857" lon="3.82107">
        <ele>187</ele>
        <time>2019-01-28T13:24:34Z</time>
      </trkpt>
      <trkpt lat="43.76857" lon="3.821">
        <ele>187</ele>
        <time>2019-01-28T13:24:34Z</time>
      </trkpt>
      <trkpt lat="43.76857" lon="3.82094">
        <ele>187</ele>
        <time>2019-01-28T13:24:34Z</time>
      </trkpt>
      <trkpt lat="43.76857" lon="3.82087">
        <ele>187</ele>
        <time>2019-01-28T13:24:34Z</time>
      </trkpt>
      <trkpt lat="43.76857" lon="3.8208">
        <ele>187</ele>
        <time>2019-01-28T13:24:50Z</time>
      </trkpt>
      <trkpt lat="43.76857" lon="3.82075">
        <ele>187</ele>
        <time>2019-01-28T13:24:50Z</time>
      </trkpt>
      <trkpt lat="43.76858" lon="3.82069">
        <ele>187</ele>
        <time>2019-01-28T13:24:50Z</time>
      </trkpt>
      <trkpt lat="43.76857" lon="3.82064">
        <ele>187</ele>
        <time>2019-01-28T13:24:50Z</time>
      </trkpt>
      <trkpt lat="43.76857" lon="3.82057">
        <ele>187</ele>
        <time>2019-01-28T13:25:06Z</time>
      </trkpt>
      <trkpt lat="43.76857" lon="3.8205">
        <ele>187</ele>
        <time>2019-01-28T13:25:06Z</time>
      </trkpt>
      <trkpt lat="43.76859" lon="3.82044">
        <ele>187</ele>
        <time>2019-01-28T13:25:06Z</time>
      </trkpt>
      <trkpt lat="43.7686" lon="3.82037">
        <ele>190</ele>
        <time>2019-01-28T13:25:06Z</time>
      </trkpt>
      <trkpt lat="43.76861" lon="3.82029">
        <ele>190</ele>
        <time>2019-01-28T13:26:18Z</time>
      </trkpt>
      <trkpt lat="43.76861" lon="3.82029">
        <ele>190</ele>
        <time>2019-01-28T13:26:18Z</time>
      </trkpt>
      <trkpt lat="43.76864" lon="3.82033">
        <ele>190</ele>
        <time>2019-01-28T13:26:18Z</time>
      </trkpt>
      <trkpt lat="43.76873" lon="3.82036">
        <ele>190</ele>
        <time>2019-01-28T13:26:18Z</time>
      </trkpt>
      <trkpt lat="43.76878" lon="3.82038">
        <ele>202</ele>
        <time>2019-01-28T13:26:18Z</time>
      </trkpt>
      <trkpt lat="43.76881" lon="3.82035">
        <ele>202</ele>
        <time>2019-01-28T13:27:30Z</time>
      </trkpt>
      <trkpt lat="43.76878" lon="3.82035">
        <ele>202</ele>
        <time>2019-01-28T13:27:30Z</time>
      </trkpt>
      <trkpt lat="43.76875" lon="3.82038">
        <ele>190</ele>
        <time>2019-01-28T13:27:30Z</time>
      </trkpt>
      <trkpt lat="43.76873" lon="3.82038">
        <ele>190</ele>
        <time>2019-01-28T13:27:30Z</time>
      </trkpt>
      <trkpt lat="43.7687" lon="3.82036">
        <ele>190</ele>
        <time>2019-01-28T13:27:30Z</time>
      </trkpt>
      <trkpt lat="43.76867" lon="3.82027">
        <ele>190</ele>
        <time>2019-01-28T13:28:54Z</time>
      </trkpt>
      <trkpt lat="43.76863" lon="3.82025">
        <ele>190</ele>
        <time>2019-01-28T13:28:54Z</time>
      </trkpt>
      <trkpt lat="43.76863" lon="3.82022">
        <ele>190</ele>
        <time>2019-01-28T13:28:54Z</time>
      </trkpt>
      <trkpt lat="43.76863" lon="3.82019">
        <ele>190</ele>
        <time>2019-01-28T13:28:54Z</time>
      </trkpt>
      <trkpt lat="43.76864" lon="3.82013">
        <ele>190</ele>
        <time>2019-01-28T13:28:54Z</time>
      </trkpt>
      <trkpt lat="43.76864" lon="3.82007">
        <ele>190</ele>
        <time>2019-01-28T13:29:10Z</time>
      </trkpt>
      <trkpt lat="43.76864" lon="3.82">
        <ele>190</ele>
        <time>2019-01-28T13:29:10Z</time>
      </trkpt>
      <trkpt lat="43.76864" lon="3.81996">
        <ele>190</ele>
        <time>2019-01-28T13:29:10Z</time>
      </trkpt>
      <trkpt lat="43.76865" lon="3.8199">
        <ele>190</ele>
        <time>2019-01-28T13:29:10Z</time>
      </trkpt>
      <trkpt lat="43.76867" lon="3.81984">
        <ele>190</ele>
        <time>2019-01-28T13:29:26Z</time>
      </trkpt>
      <trkpt lat="43.76867" lon="3.81979">
        <ele>190</ele>
        <time>2019-01-28T13:29:26Z</time>
      </trkpt>
      <trkpt lat="43.76868" lon="3.81972">
        <ele>190</ele>
        <time>2019-01-28T13:29:26Z</time>
      </trkpt>
      <trkpt lat="43.7687" lon="3.81967">
        <ele>190</ele>
        <time>2019-01-28T13:29:26Z</time>
      </trkpt>
      <trkpt lat="43.76871" lon="3.81959">
        <ele>190</ele>
        <time>2019-01-28T13:29:42Z</time>
      </trkpt>
      <trkpt lat="43.76873" lon="3.81951">
        <ele>191</ele>
        <time>2019-01-28T13:29:42Z</time>
      </trkpt>
      <trkpt lat="43.76874" lon="3.81944">
        <ele>191</ele>
        <time>2019-01-28T13:29:42Z</time>
      </trkpt>
      <trkpt lat="43.76874" lon="3.81937">
        <ele>191</ele>
        <time>2019-01-28T13:29:42Z</time>
      </trkpt>
      <trkpt lat="43.76873" lon="3.81931">
        <ele>191</ele>
        <time>2019-01-28T13:29:58Z</time>
      </trkpt>
      <trkpt lat="43.76873" lon="3.81925">
        <ele>191</ele>
        <time>2019-01-28T13:29:58Z</time>
      </trkpt>
      <trkpt lat="43.76873" lon="3.81919">
        <ele>191</ele>
        <time>2019-01-28T13:29:58Z</time>
      </trkpt>
      <trkpt lat="43.76872" lon="3.81912">
        <ele>191</ele>
        <time>2019-01-28T13:29:58Z</time>
      </trkpt>
      <trkpt lat="43.76869" lon="3.81905">
        <ele>191</ele>
        <time>2019-01-28T13:30:14Z</time>
      </trkpt>
      <trkpt lat="43.76867" lon="3.81899">
        <ele>191</ele>
        <time>2019-01-28T13:30:14Z</time>
      </trkpt>
      <trkpt lat="43.76863" lon="3.81894">
        <ele>191</ele>
        <time>2019-01-28T13:30:14Z</time>
      </trkpt>
      <trkpt lat="43.76861" lon="3.81888">
        <ele>191</ele>
        <time>2019-01-28T13:30:14Z</time>
      </trkpt>
      <trkpt lat="43.76859" lon="3.81881">
        <ele>191</ele>
        <time>2019-01-28T13:30:30Z</time>
      </trkpt>
      <trkpt lat="43.76857" lon="3.81875">
        <ele>193</ele>
        <time>2019-01-28T13:30:30Z</time>
      </trkpt>
      <trkpt lat="43.76854" lon="3.81869">
        <ele>193</ele>
        <time>2019-01-28T13:30:30Z</time>
      </trkpt>
      <trkpt lat="43.76852" lon="3.81864">
        <ele>193</ele>
        <time>2019-01-28T13:30:30Z</time>
      </trkpt>
      <trkpt lat="43.7685" lon="3.81859">
        <ele>193</ele>
        <time>2019-01-28T13:30:46Z</time>
      </trkpt>
      <trkpt lat="43.76848" lon="3.81854">
        <ele>193</ele>
        <time>2019-01-28T13:30:46Z</time>
      </trkpt>
      <trkpt lat="43.76847" lon="3.81849">
        <ele>193</ele>
        <time>2019-01-28T13:30:46Z</time>
      </trkpt>
      <trkpt lat="43.76846" lon="3.81843">
        <ele>193</ele>
        <time>2019-01-28T13:30:46Z</time>
      </trkpt>
      <trkpt lat="43.76843" lon="3.81838">
        <ele>193</ele>
        <time>2019-01-28T13:31:02Z</time>
      </trkpt>
      <trkpt lat="43.7684" lon="3.81832">
        <ele>193</ele>
        <time>2019-01-28T13:31:02Z</time>
      </trkpt>
      <trkpt lat="43.76838" lon="3.81827">
        <ele>193</ele>
        <time>2019-01-28T13:31:02Z</time>
      </trkpt>
      <trkpt lat="43.76836" lon="3.81821">
        <ele>193</ele>
        <time>2019-01-28T13:31:02Z</time>
      </trkpt>
      <trkpt lat="43.76833" lon="3.81817">
        <ele>193</ele>
        <time>2019-01-28T13:31:18Z</time>
      </trkpt>
      <trkpt lat="43.76828" lon="3.81812">
        <ele>193</ele>
        <time>2019-01-28T13:31:18Z</time>
      </trkpt>
      <trkpt lat="43.76826" lon="3.81804">
        <ele>193</ele>
        <time>2019-01-28T13:31:18Z</time>
      </trkpt>
      <trkpt lat="43.76823" lon="3.81798">
        <ele>193</ele>
        <time>2019-01-28T13:31:18Z</time>
      </trkpt>
      <trkpt lat="43.76821" lon="3.81792">
        <ele>196</ele>
        <time>2019-01-28T13:31:34Z</time>
      </trkpt>
      <trkpt lat="43.76818" lon="3.81786">
        <ele>196</ele>
        <time>2019-01-28T13:31:34Z</time>
      </trkpt>
      <trkpt lat="43.76816" lon="3.81779">
        <ele>196</ele>
        <time>2019-01-28T13:31:34Z</time>
      </trkpt>
      <trkpt lat="43.76813" lon="3.81773">
        <ele>196</ele>
        <time>2019-01-28T13:31:34Z</time>
      </trkpt>
      <trkpt lat="43.76811" lon="3.81767">
        <ele>196</ele>
        <time>2019-01-28T13:31:50Z</time>
      </trkpt>
      <trkpt lat="43.76808" lon="3.8176">
        <ele>196</ele>
        <time>2019-01-28T13:31:50Z</time>
      </trkpt>
      <trkpt lat="43.76806" lon="3.81753">
        <ele>196</ele>
        <time>2019-01-28T13:31:50Z</time>
      </trkpt>
      <trkpt lat="43.76804" lon="3.81747">
        <ele>196</ele>
        <time>2019-01-28T13:31:50Z</time>
      </trkpt>
      <trkpt lat="43.76802" lon="3.81741">
        <ele>196</ele>
        <time>2019-01-28T13:32:06Z</time>
      </trkpt>
      <trkpt lat="43.76801" lon="3.81735">
        <ele>196</ele>
        <time>2019-01-28T13:32:06Z</time>
      </trkpt>
      <trkpt lat="43.76801" lon="3.81729">
        <ele>196</ele>
        <time>2019-01-28T13:32:06Z</time>
      </trkpt>
      <trkpt lat="43.76801" lon="3.81722">
        <ele>196</ele>
        <time>2019-01-28T13:32:06Z</time>
      </trkpt>
      <trkpt lat="43.76801" lon="3.81714">
        <ele>196</ele>
        <time>2019-01-28T13:32:22Z</time>
      </trkpt>
      <trkpt lat="43.76801" lon="3.81707">
        <ele>197</ele>
        <time>2019-01-28T13:32:22Z</time>
      </trkpt>
      <trkpt lat="43.76801" lon="3.81702">
        <ele>197</ele>
        <time>2019-01-28T13:32:22Z</time>
      </trkpt>
      <trkpt lat="43.76801" lon="3.81697">
        <ele>197</ele>
        <time>2019-01-28T13:32:22Z</time>
      </trkpt>
      <trkpt lat="43.76803" lon="3.8169">
        <ele>197</ele>
        <time>2019-01-28T13:32:38Z</time>
      </trkpt>
      <trkpt lat="43.76804" lon="3.81684">
        <ele>197</ele>
        <time>2019-01-28T13:32:38Z</time>
      </trkpt>
      <trkpt lat="43.76804" lon="3.81677">
        <ele>197</ele>
        <time>2019-01-28T13:32:38Z</time>
      </trkpt>
      <trkpt lat="43.76807" lon="3.81671">
        <ele>197</ele>
        <time>2019-01-28T13:32:38Z</time>
      </trkpt>
      <trkpt lat="43.76808" lon="3.81665">
        <ele>197</ele>
        <time>2019-01-28T13:32:54Z</time>
      </trkpt>
      <trkpt lat="43.7681" lon="3.81659">
        <ele>197</ele>
        <time>2019-01-28T13:32:54Z</time>
      </trkpt>
      <trkpt lat="43.76812" lon="3.81653">
        <ele>197</ele>
        <time>2019-01-28T13:32:54Z</time>
      </trkpt>
      <trkpt lat="43.76814" lon="3.81647">
        <ele>197</ele>
        <time>2019-01-28T13:32:54Z</time>
      </trkpt>
      <trkpt lat="43.76816" lon="3.81642">
        <ele>197</ele>
        <time>2019-01-28T13:33:10Z</time>
      </trkpt>
      <trkpt lat="43.76818" lon="3.81636">
        <ele>197</ele>
        <time>2019-01-28T13:33:10Z</time>
      </trkpt>
      <trkpt lat="43.7682" lon="3.8163">
        <ele>197</ele>
        <time>2019-01-28T13:33:10Z</time>
      </trkpt>
      <trkpt lat="43.7682" lon="3.81624">
        <ele>200</ele>
        <time>2019-01-28T13:33:10Z</time>
      </trkpt>
      <trkpt lat="43.76822" lon="3.81618">
        <ele>200</ele>
        <time>2019-01-28T13:33:26Z</time>
      </trkpt>
      <trkpt lat="43.76823" lon="3.81611">
        <ele>200</ele>
        <time>2019-01-28T13:33:26Z</time>
      </trkpt>
      <trkpt lat="43.76824" lon="3.81604">
        <ele>200</ele>
        <time>2019-01-28T13:33:26Z</time>
      </trkpt>
      <trkpt lat="43.76826" lon="3.81597">
        <ele>200</ele>
        <time>2019-01-28T13:33:26Z</time>
      </trkpt>
      <trkpt lat="43.76828" lon="3.81591">
        <ele>200</ele>
        <time>2019-01-28T13:33:42Z</time>
      </trkpt>
      <trkpt lat="43.76829" lon="3.81584">
        <ele>200</ele>
        <time>2019-01-28T13:33:42Z</time>
      </trkpt>
      <trkpt lat="43.76832" lon="3.81577">
        <ele>200</ele>
        <time>2019-01-28T13:33:42Z</time>
      </trkpt>
      <trkpt lat="43.76833" lon="3.8157">
        <ele>200</ele>
        <time>2019-01-28T13:33:42Z</time>
      </trkpt>
      <trkpt lat="43.76835" lon="3.81564">
        <ele>200</ele>
        <time>2019-01-28T13:33:58Z</time>
      </trkpt>
      <trkpt lat="43.76836" lon="3.81558">
        <ele>200</ele>
        <time>2019-01-28T13:33:58Z</time>
      </trkpt>
      <trkpt lat="43.76838" lon="3.81551">
        <ele>200</ele>
        <time>2019-01-28T13:33:58Z</time>
      </trkpt>
      <trkpt lat="43.76839" lon="3.81545">
        <ele>200</ele>
        <time>2019-01-28T13:33:58Z</time>
      </trkpt>
      <trkpt lat="43.7684" lon="3.8154">
        <ele>203</ele>
        <time>2019-01-28T13:34:14Z</time>
      </trkpt>
      <trkpt lat="43.76842" lon="3.81535">
        <ele>203</ele>
        <time>2019-01-28T13:34:14Z</time>
      </trkpt>
      <trkpt lat="43.76843" lon="3.81528">
        <ele>203</ele>
        <time>2019-01-28T13:34:14Z</time>
      </trkpt>
      <trkpt lat="43.76844" lon="3.81522">
        <ele>203</ele>
        <time>2019-01-28T13:34:14Z</time>
      </trkpt>
      <trkpt lat="43.76846" lon="3.81514">
        <ele>203</ele>
        <time>2019-01-28T13:34:30Z</time>
      </trkpt>
      <trkpt lat="43.76848" lon="3.81506">
        <ele>203</ele>
        <time>2019-01-28T13:34:30Z</time>
      </trkpt>
      <trkpt lat="43.7685" lon="3.81499">
        <ele>203</ele>
        <time>2019-01-28T13:34:30Z</time>
      </trkpt>
      <trkpt lat="43.76853" lon="3.81492">
        <ele>203</ele>
        <time>2019-01-28T13:34:30Z</time>
      </trkpt>
      <trkpt lat="43.76854" lon="3.81485">
        <ele>203</ele>
        <time>2019-01-28T13:34:46Z</time>
      </trkpt>
      <trkpt lat="43.76855" lon="3.81478">
        <ele>203</ele>
        <time>2019-01-28T13:34:46Z</time>
      </trkpt>
      <trkpt lat="43.76856" lon="3.81471">
        <ele>203</ele>
        <time>2019-01-28T13:34:46Z</time>
      </trkpt>
      <trkpt lat="43.76858" lon="3.81465">
        <ele>203</ele>
        <time>2019-01-28T13:34:46Z</time>
      </trkpt>
      <trkpt lat="43.7686" lon="3.8146">
        <ele>203</ele>
        <time>2019-01-28T13:35:02Z</time>
      </trkpt>
      <trkpt lat="43.76861" lon="3.81452">
        <ele>206</ele>
        <time>2019-01-28T13:35:02Z</time>
      </trkpt>
      <trkpt lat="43.76862" lon="3.81445">
        <ele>206</ele>
        <time>2019-01-28T13:35:02Z</time>
      </trkpt>
      <trkpt lat="43.76863" lon="3.81439">
        <ele>206</ele>
        <time>2019-01-28T13:35:02Z</time>
      </trkpt>
      <trkpt lat="43.76865" lon="3.81433">
        <ele>206</ele>
        <time>2019-01-28T13:35:18Z</time>
      </trkpt>
      <trkpt lat="43.76866" lon="3.81428">
        <ele>206</ele>
        <time>2019-01-28T13:35:18Z</time>
      </trkpt>
      <trkpt lat="43.76868" lon="3.81423">
        <ele>206</ele>
        <time>2019-01-28T13:35:18Z</time>
      </trkpt>
      <trkpt lat="43.76869" lon="3.81417">
        <ele>206</ele>
        <time>2019-01-28T13:35:18Z</time>
      </trkpt>
      <trkpt lat="43.76869" lon="3.81415">
        <ele>206</ele>
        <time>2019-01-28T13:35:42Z</time>
      </trkpt>
      <trkpt lat="43.76868" lon="3.81413">
        <ele>206</ele>
        <time>2019-01-28T13:35:42Z</time>
      </trkpt>
      <trkpt lat="43.7687" lon="3.81411">
        <ele>206</ele>
        <time>2019-01-28T13:35:42Z</time>
      </trkpt>
      <trkpt lat="43.76873" lon="3.81407">
        <ele>206</ele>
        <time>2019-01-28T13:35:42Z</time>
      </trkpt>
      <trkpt lat="43.76873" lon="3.81401">
        <ele>206</ele>
        <time>2019-01-28T13:35:42Z</time>
      </trkpt>
      <trkpt lat="43.76875" lon="3.81397">
        <ele>211</ele>
        <time>2019-01-28T13:35:58Z</time>
      </trkpt>
      <trkpt lat="43.76875" lon="3.81393">
        <ele>211</ele>
        <time>2019-01-28T13:35:58Z</time>
      </trkpt>
      <trkpt lat="43.76878" lon="3.81389">
        <ele>211</ele>
        <time>2019-01-28T13:35:58Z</time>
      </trkpt>
      <trkpt lat="43.76881" lon="3.81386">
        <ele>211</ele>
        <time>2019-01-28T13:35:58Z</time>
      </trkpt>
      <trkpt lat="43.76884" lon="3.81381">
        <ele>211</ele>
        <time>2019-01-28T13:36:14Z</time>
      </trkpt>
      <trkpt lat="43.76886" lon="3.81377">
        <ele>211</ele>
        <time>2019-01-28T13:36:14Z</time>
      </trkpt>
      <trkpt lat="43.76889" lon="3.81371">
        <ele>214</ele>
        <time>2019-01-28T13:36:14Z</time>
      </trkpt>
      <trkpt lat="43.76891" lon="3.81366">
        <ele>214</ele>
        <time>2019-01-28T13:36:14Z</time>
      </trkpt>
      <trkpt lat="43.76894" lon="3.81361">
        <ele>214</ele>
        <time>2019-01-28T13:36:30Z</time>
      </trkpt>
      <trkpt lat="43.76896" lon="3.81356">
        <ele>214</ele>
        <time>2019-01-28T13:36:30Z</time>
      </trkpt>
      <trkpt lat="43.76899" lon="3.81352">
        <ele>214</ele>
        <time>2019-01-28T13:36:30Z</time>
      </trkpt>
      <trkpt lat="43.76902" lon="3.81348">
        <ele>214</ele>
        <time>2019-01-28T13:36:30Z</time>
      </trkpt>
      <trkpt lat="43.76904" lon="3.81343">
        <ele>214</ele>
        <time>2019-01-28T13:36:46Z</time>
      </trkpt>
      <trkpt lat="43.76907" lon="3.81339">
        <ele>214</ele>
        <time>2019-01-28T13:36:46Z</time>
      </trkpt>
      <trkpt lat="43.76908" lon="3.81338">
        <ele>214</ele>
        <time>2019-01-28T13:36:46Z</time>
      </trkpt>
      <trkpt lat="43.76914" lon="3.81332">
        <ele>214</ele>
        <time>2019-01-28T13:36:46Z</time>
      </trkpt>
      <trkpt lat="43.76919" lon="3.81328">
        <ele>214</ele>
        <time>2019-01-28T13:37:02Z</time>
      </trkpt>
      <trkpt lat="43.76921" lon="3.81323">
        <ele>214</ele>
        <time>2019-01-28T13:37:02Z</time>
      </trkpt>
      <trkpt lat="43.76923" lon="3.81317">
        <ele>214</ele>
        <time>2019-01-28T13:37:02Z</time>
      </trkpt>
      <trkpt lat="43.76926" lon="3.81313">
        <ele>214</ele>
        <time>2019-01-28T13:37:02Z</time>
      </trkpt>
      <trkpt lat="43.76929" lon="3.81308">
        <ele>214</ele>
        <time>2019-01-28T13:37:18Z</time>
      </trkpt>
      <trkpt lat="43.7693" lon="3.81303">
        <ele>214</ele>
        <time>2019-01-28T13:37:18Z</time>
      </trkpt>
      <trkpt lat="43.76932" lon="3.81298">
        <ele>214</ele>
        <time>2019-01-28T13:37:18Z</time>
      </trkpt>
      <trkpt lat="43.76934" lon="3.81292">
        <ele>214</ele>
        <time>2019-01-28T13:37:18Z</time>
      </trkpt>
      <trkpt lat="43.76936" lon="3.81285">
        <ele>218</ele>
        <time>2019-01-28T13:37:34Z</time>
      </trkpt>
      <trkpt lat="43.7694" lon="3.81279">
        <ele>218</ele>
        <time>2019-01-28T13:37:34Z</time>
      </trkpt>
      <trkpt lat="43.76943" lon="3.81275">
        <ele>218</ele>
        <time>2019-01-28T13:37:34Z</time>
      </trkpt>
      <trkpt lat="43.76945" lon="3.8127">
        <ele>218</ele>
        <time>2019-01-28T13:37:34Z</time>
      </trkpt>
      <trkpt lat="43.76947" lon="3.81265">
        <ele>218</ele>
        <time>2019-01-28T13:37:50Z</time>
      </trkpt>
      <trkpt lat="43.76949" lon="3.81259">
        <ele>218</ele>
        <time>2019-01-28T13:37:50Z</time>
      </trkpt>
      <trkpt lat="43.76953" lon="3.81255">
        <ele>218</ele>
        <time>2019-01-28T13:37:50Z</time>
      </trkpt>
      <trkpt lat="43.76957" lon="3.8125">
        <ele>218</ele>
        <time>2019-01-28T13:37:50Z</time>
      </trkpt>
      <trkpt lat="43.7696" lon="3.81246">
        <ele>222</ele>
        <time>2019-01-28T13:38:06Z</time>
      </trkpt>
      <trkpt lat="43.76963" lon="3.8124">
        <ele>222</ele>
        <time>2019-01-28T13:38:06Z</time>
      </trkpt>
      <trkpt lat="43.76965" lon="3.81234">
        <ele>222</ele>
        <time>2019-01-28T13:38:06Z</time>
      </trkpt>
      <trkpt lat="43.76968" lon="3.81228">
        <ele>222</ele>
        <time>2019-01-28T13:38:06Z</time>
      </trkpt>
      <trkpt lat="43.76972" lon="3.81222">
        <ele>222</ele>
        <time>2019-01-28T13:38:22Z</time>
      </trkpt>
      <trkpt lat="43.76975" lon="3.81217">
        <ele>222</ele>
        <time>2019-01-28T13:38:22Z</time>
      </trkpt>
      <trkpt lat="43.76977" lon="3.81212">
        <ele>222</ele>
        <time>2019-01-28T13:38:22Z</time>
      </trkpt>
      <trkpt lat="43.76981" lon="3.81207">
        <ele>229</ele>
        <time>2019-01-28T13:38:22Z</time>
      </trkpt>
      <trkpt lat="43.76983" lon="3.81202">
        <ele>229</ele>
        <time>2019-01-28T13:38:38Z</time>
      </trkpt>
      <trkpt lat="43.76986" lon="3.81197">
        <ele>229</ele>
        <time>2019-01-28T13:38:38Z</time>
      </trkpt>
      <trkpt lat="43.76989" lon="3.81193">
        <ele>229</ele>
        <time>2019-01-28T13:38:38Z</time>
      </trkpt>
      <trkpt lat="43.76991" lon="3.81189">
        <ele>229</ele>
        <time>2019-01-28T13:38:38Z</time>
      </trkpt>
      <trkpt lat="43.76994" lon="3.81185">
        <ele>229</ele>
        <time>2019-01-28T13:38:54Z</time>
      </trkpt>
      <trkpt lat="43.76996" lon="3.8118">
        <ele>229</ele>
        <time>2019-01-28T13:38:54Z</time>
      </trkpt>
      <trkpt lat="43.76998" lon="3.81175">
        <ele>229</ele>
        <time>2019-01-28T13:38:54Z</time>
      </trkpt>
      <trkpt lat="43.77" lon="3.8117">
        <ele>229</ele>
        <time>2019-01-28T13:38:54Z</time>
      </trkpt>
      <trkpt lat="43.77004" lon="3.81166">
        <ele>229</ele>
        <time>2019-01-28T13:39:10Z</time>
      </trkpt>
      <trkpt lat="43.77007" lon="3.8116">
        <ele>229</ele>
        <time>2019-01-28T13:39:10Z</time>
      </trkpt>
      <trkpt lat="43.77008" lon="3.81155">
        <ele>229</ele>
        <time>2019-01-28T13:39:10Z</time>
      </trkpt>
      <trkpt lat="43.7701" lon="3.81151">
        <ele>229</ele>
        <time>2019-01-28T13:39:10Z</time>
      </trkpt>
      <trkpt lat="43.77011" lon="3.81147">
        <ele>229</ele>
        <time>2019-01-28T13:39:26Z</time>
      </trkpt>
      <trkpt lat="43.77011" lon="3.81141">
        <ele>229</ele>
        <time>2019-01-28T13:39:26Z</time>
      </trkpt>
      <trkpt lat="43.77012" lon="3.81132">
        <ele>229</ele>
        <time>2019-01-28T13:39:26Z</time>
      </trkpt>
      <trkpt lat="43.77013" lon="3.81125">
        <ele>229</ele>
        <time>2019-01-28T13:39:26Z</time>
      </trkpt>
      <trkpt lat="43.77014" lon="3.81118">
        <ele>238</ele>
        <time>2019-01-28T13:39:42Z</time>
      </trkpt>
      <trkpt lat="43.77013" lon="3.8111">
        <ele>238</ele>
        <time>2019-01-28T13:39:42Z</time>
      </trkpt>
      <trkpt lat="43.77014" lon="3.81102">
        <ele>238</ele>
        <time>2019-01-28T13:39:42Z</time>
      </trkpt>
      <trkpt lat="43.77012" lon="3.81095">
        <ele>238</ele>
        <time>2019-01-28T13:39:42Z</time>
      </trkpt>
      <trkpt lat="43.77009" lon="3.81091">
        <ele>238</ele>
        <time>2019-01-28T13:39:58Z</time>
      </trkpt>
      <trkpt lat="43.77007" lon="3.81085">
        <ele>238</ele>
        <time>2019-01-28T13:39:58Z</time>
      </trkpt>
      <trkpt lat="43.77005" lon="3.8108">
        <ele>238</ele>
        <time>2019-01-28T13:39:58Z</time>
      </trkpt>
      <trkpt lat="43.77004" lon="3.81075">
        <ele>238</ele>
        <time>2019-01-28T13:39:58Z</time>
      </trkpt>
      <trkpt lat="43.77002" lon="3.81069">
        <ele>238</ele>
        <time>2019-01-28T13:40:14Z</time>
      </trkpt>
      <trkpt lat="43.76999" lon="3.81064">
        <ele>238</ele>
        <time>2019-01-28T13:40:14Z</time>
      </trkpt>
      <trkpt lat="43.76998" lon="3.81058">
        <ele>238</ele>
        <time>2019-01-28T13:40:14Z</time>
      </trkpt>
      <trkpt lat="43.76995" lon="3.81053">
        <ele>238</ele>
        <time>2019-01-28T13:40:14Z</time>
      </trkpt>
      <trkpt lat="43.76992" lon="3.81048">
        <ele>238</ele>
        <time>2019-01-28T13:40:30Z</time>
      </trkpt>
      <trkpt lat="43.76989" lon="3.81044">
        <ele>238</ele>
        <time>2019-01-28T13:40:30Z</time>
      </trkpt>
      <trkpt lat="43.76987" lon="3.81039">
        <ele>259</ele>
        <time>2019-01-28T13:40:30Z</time>
      </trkpt>
      <trkpt lat="43.76984" lon="3.81035">
        <ele>259</ele>
        <time>2019-01-28T13:40:30Z</time>
      </trkpt>
      <trkpt lat="43.76981" lon="3.81031">
        <ele>259</ele>
        <time>2019-01-28T13:40:46Z</time>
      </trkpt>
      <trkpt lat="43.76978" lon="3.81025">
        <ele>259</ele>
        <time>2019-01-28T13:40:46Z</time>
      </trkpt>
      <trkpt lat="43.76975" lon="3.81022">
        <ele>259</ele>
        <time>2019-01-28T13:40:46Z</time>
      </trkpt>
      <trkpt lat="43.7697" lon="3.8102">
        <ele>259</ele>
        <time>2019-01-28T13:40:46Z</time>
      </trkpt>
      <trkpt lat="43.76966" lon="3.81015">
        <ele>259</ele>
        <time>2019-01-28T13:41:02Z</time>
      </trkpt>
      <trkpt lat="43.76964" lon="3.81011">
        <ele>259</ele>
        <time>2019-01-28T13:41:02Z</time>
      </trkpt>
      <trkpt lat="43.76966" lon="3.81008">
        <ele>259</ele>
        <time>2019-01-28T13:41:02Z</time>
      </trkpt>
      <trkpt lat="43.76971" lon="3.81005">
        <ele>259</ele>
        <time>2019-01-28T13:41:02Z</time>
      </trkpt>
      <trkpt lat="43.76976" lon="3.81006">
        <ele>259</ele>
        <time>2019-01-28T13:41:34Z</time>
      </trkpt>
      <trkpt lat="43.76974" lon="3.81011">
        <ele>259</ele>
        <time>2019-01-28T13:41:34Z</time>
      </trkpt>
      <trkpt lat="43.76974" lon="3.81021">
        <ele>259</ele>
        <time>2019-01-28T13:41:34Z</time>
      </trkpt>
      <trkpt lat="43.76975" lon="3.81028">
        <ele>259</ele>
        <time>2019-01-28T13:41:34Z</time>
      </trkpt>
      <trkpt lat="43.76978" lon="3.8103">
        <ele>259</ele>
        <time>2019-01-28T13:41:34Z</time>
      </trkpt>
      <trkpt lat="43.76981" lon="3.81033">
        <ele>259</ele>
        <time>2019-01-28T13:41:50Z</time>
      </trkpt>
      <trkpt lat="43.76984" lon="3.81035">
        <ele>259</ele>
        <time>2019-01-28T13:41:50Z</time>
      </trkpt>
      <trkpt lat="43.76986" lon="3.81038">
        <ele>259</ele>
        <time>2019-01-28T13:41:50Z</time>
      </trkpt>
      <trkpt lat="43.7699" lon="3.81041">
        <ele>259</ele>
        <time>2019-01-28T13:41:50Z</time>
      </trkpt>
      <trkpt lat="43.76992" lon="3.81043">
        <ele>238</ele>
        <time>2019-01-28T13:42:06Z</time>
      </trkpt>
      <trkpt lat="43.76997" lon="3.81046">
        <ele>238</ele>
        <time>2019-01-28T13:42:06Z</time>
      </trkpt>
      <trkpt lat="43.77" lon="3.8105">
        <ele>238</ele>
        <time>2019-01-28T13:42:06Z</time>
      </trkpt>
      <trkpt lat="43.77003" lon="3.81052">
        <ele>238</ele>
        <time>2019-01-28T13:42:06Z</time>
      </trkpt>
      <trkpt lat="43.77007" lon="3.81056">
        <ele>238</ele>
        <time>2019-01-28T13:42:22Z</time>
      </trkpt>
      <trkpt lat="43.77011" lon="3.81057">
        <ele>238</ele>
        <time>2019-01-28T13:42:22Z</time>
      </trkpt>
      <trkpt lat="43.77015" lon="3.81057">
        <ele>238</ele>
        <time>2019-01-28T13:42:22Z</time>
      </trkpt>
      <trkpt lat="43.77019" lon="3.81054">
        <ele>238</ele>
        <time>2019-01-28T13:42:22Z</time>
      </trkpt>
      <trkpt lat="43.77027" lon="3.81042">
        <ele>238</ele>
        <time>2019-01-28T13:42:58Z</time>
      </trkpt>
      <trkpt lat="43.77033" lon="3.81035">
        <ele>259</ele>
        <time>2019-01-28T13:42:58Z</time>
      </trkpt>
      <trkpt lat="43.77038" lon="3.81031">
        <ele>259</ele>
        <time>2019-01-28T13:42:58Z</time>
      </trkpt>
      <trkpt lat="43.77042" lon="3.81028">
        <ele>256</ele>
        <time>2019-01-28T13:42:58Z</time>
      </trkpt>
      <trkpt lat="43.77049" lon="3.81024">
        <ele>256</ele>
        <time>2019-01-28T13:43:14Z</time>
      </trkpt>
      <trkpt lat="43.77053" lon="3.81021">
        <ele>256</ele>
        <time>2019-01-28T13:43:14Z</time>
      </trkpt>
      <trkpt lat="43.77056" lon="3.81016">
        <ele>256</ele>
        <time>2019-01-28T13:43:14Z</time>
      </trkpt>
      <trkpt lat="43.77059" lon="3.81013">
        <ele>256</ele>
        <time>2019-01-28T13:43:14Z</time>
      </trkpt>
      <trkpt lat="43.77062" lon="3.81008">
        <ele>256</ele>
        <time>2019-01-28T13:43:30Z</time>
      </trkpt>
      <trkpt lat="43.77064" lon="3.81004">
        <ele>256</ele>
        <time>2019-01-28T13:43:30Z</time>
      </trkpt>
      <trkpt lat="43.77067" lon="3.81001">
        <ele>256</ele>
        <time>2019-01-28T13:43:30Z</time>
      </trkpt>
      <trkpt lat="43.7707" lon="3.80996">
        <ele>256</ele>
        <time>2019-01-28T13:43:30Z</time>
      </trkpt>
      <trkpt lat="43.77073" lon="3.80991">
        <ele>256</ele>
        <time>2019-01-28T13:43:46Z</time>
      </trkpt>
      <trkpt lat="43.77076" lon="3.80987">
        <ele>256</ele>
        <time>2019-01-28T13:43:46Z</time>
      </trkpt>
      <trkpt lat="43.77078" lon="3.80981">
        <ele>256</ele>
        <time>2019-01-28T13:43:46Z</time>
      </trkpt>
      <trkpt lat="43.7708" lon="3.80977">
        <ele>256</ele>
        <time>2019-01-28T13:43:46Z</time>
      </trkpt>
      <trkpt lat="43.77082" lon="3.80971">
        <ele>256</ele>
        <time>2019-01-28T13:44:02Z</time>
      </trkpt>
      <trkpt lat="43.77085" lon="3.80967">
        <ele>256</ele>
        <time>2019-01-28T13:44:02Z</time>
      </trkpt>
      <trkpt lat="43.77088" lon="3.80962">
        <ele>256</ele>
        <time>2019-01-28T13:44:02Z</time>
      </trkpt>
      <trkpt lat="43.77089" lon="3.80957">
        <ele>276</ele>
        <time>2019-01-28T13:44:02Z</time>
      </trkpt>
      <trkpt lat="43.7709" lon="3.80954">
        <ele>276</ele>
        <time>2019-01-28T13:44:18Z</time>
      </trkpt>
      <trkpt lat="43.77091" lon="3.80948">
        <ele>276</ele>
        <time>2019-01-28T13:44:18Z</time>
      </trkpt>
      <trkpt lat="43.77094" lon="3.80942">
        <ele>276</ele>
        <time>2019-01-28T13:44:18Z</time>
      </trkpt>
      <trkpt lat="43.77096" lon="3.80935">
        <ele>276</ele>
        <time>2019-01-28T13:44:18Z</time>
      </trkpt>
      <trkpt lat="43.771" lon="3.80929">
        <ele>276</ele>
        <time>2019-01-28T13:44:34Z</time>
      </trkpt>
      <trkpt lat="43.77103" lon="3.80922">
        <ele>276</ele>
        <time>2019-01-28T13:44:34Z</time>
      </trkpt>
      <trkpt lat="43.77105" lon="3.80917">
        <ele>276</ele>
        <time>2019-01-28T13:44:34Z</time>
      </trkpt>
      <trkpt lat="43.77105" lon="3.80909">
        <ele>276</ele>
        <time>2019-01-28T13:44:34Z</time>
      </trkpt>
      <trkpt lat="43.771" lon="3.80907">
        <ele>276</ele>
        <time>2019-01-28T13:44:50Z</time>
      </trkpt>
      <trkpt lat="43.77094" lon="3.80905">
        <ele>276</ele>
        <time>2019-01-28T13:44:50Z</time>
      </trkpt>
      <trkpt lat="43.77089" lon="3.80903">
        <ele>276</ele>
        <time>2019-01-28T13:44:50Z</time>
      </trkpt>
      <trkpt lat="43.77083" lon="3.80901">
        <ele>276</ele>
        <time>2019-01-28T13:44:50Z</time>
      </trkpt>
      <trkpt lat="43.77081" lon="3.80901">
        <ele>276</ele>
        <time>2019-01-28T13:45:26Z</time>
      </trkpt>
      <trkpt lat="43.77081" lon="3.80901">
        <ele>276</ele>
        <time>2019-01-28T13:45:26Z</time>
      </trkpt>
      <trkpt lat="43.77078" lon="3.80904">
        <ele>276</ele>
        <time>2019-01-28T13:45:26Z</time>
      </trkpt>
      <trkpt lat="43.77076" lon="3.8091">
        <ele>276</ele>
        <time>2019-01-28T13:45:26Z</time>
      </trkpt>
      <trkpt lat="43.77074" lon="3.80913">
        <ele>276</ele>
        <time>2019-01-28T13:45:26Z</time>
      </trkpt>
      <trkpt lat="43.77071" lon="3.80917">
        <ele>276</ele>
        <time>2019-01-28T13:45:50Z</time>
      </trkpt>
      <trkpt lat="43.77067" lon="3.80921">
        <ele>276</ele>
        <time>2019-01-28T13:45:50Z</time>
      </trkpt>
      <trkpt lat="43.77066" lon="3.80922">
        <ele>276</ele>
        <time>2019-01-28T13:45:50Z</time>
      </trkpt>
      <trkpt lat="43.77065" lon="3.80923">
        <ele>276</ele>
        <time>2019-01-28T13:45:50Z</time>
      </trkpt>
      <trkpt lat="43.77061" lon="3.80926">
        <ele>276</ele>
        <time>2019-01-28T13:45:50Z</time>
      </trkpt>
      <trkpt lat="43.77058" lon="3.80929">
        <ele>276</ele>
        <time>2019-01-28T13:46:06Z</time>
      </trkpt>
      <trkpt lat="43.77053" lon="3.80933">
        <ele>276</ele>
        <time>2019-01-28T13:46:06Z</time>
      </trkpt>
      <trkpt lat="43.77052" lon="3.80933">
        <ele>276</ele>
        <time>2019-01-28T13:46:06Z</time>
      </trkpt>
      <trkpt lat="43.77048" lon="3.80936">
        <ele>276</ele>
        <time>2019-01-28T13:46:06Z</time>
      </trkpt>
      <trkpt lat="43.77044" lon="3.80942">
        <ele>276</ele>
        <time>2019-01-28T13:46:22Z</time>
      </trkpt>
      <trkpt lat="43.77041" lon="3.80946">
        <ele>284</ele>
        <time>2019-01-28T13:46:22Z</time>
      </trkpt>
      <trkpt lat="43.7704" lon="3.80947">
        <ele>284</ele>
        <time>2019-01-28T13:46:22Z</time>
      </trkpt>
      <trkpt lat="43.77037" lon="3.80951">
        <ele>284</ele>
        <time>2019-01-28T13:46:22Z</time>
      </trkpt>
      <trkpt lat="43.77035" lon="3.80953">
        <ele>284</ele>
        <time>2019-01-28T13:46:38Z</time>
      </trkpt>
      <trkpt lat="43.77035" lon="3.80954">
        <ele>284</ele>
        <time>2019-01-28T13:46:38Z</time>
      </trkpt>
      <trkpt lat="43.77029" lon="3.80957">
        <ele>284</ele>
        <time>2019-01-28T13:46:38Z</time>
      </trkpt>
      <trkpt lat="43.77024" lon="3.80961">
        <ele>259</ele>
        <time>2019-01-28T13:46:38Z</time>
      </trkpt>
      <trkpt lat="43.77018" lon="3.80959">
        <ele>259</ele>
        <time>2019-01-28T13:46:54Z</time>
      </trkpt>
      <trkpt lat="43.77014" lon="3.80957">
        <ele>284</ele>
        <time>2019-01-28T13:46:54Z</time>
      </trkpt>
      <trkpt lat="43.77012" lon="3.80955">
        <ele>284</ele>
        <time>2019-01-28T13:46:54Z</time>
      </trkpt>
      <trkpt lat="43.77011" lon="3.80952">
        <ele>284</ele>
        <time>2019-01-28T13:46:54Z</time>
      </trkpt>
      <trkpt lat="43.7701" lon="3.80945">
        <ele>284</ele>
        <time>2019-01-28T13:47:26Z</time>
      </trkpt>
      <trkpt lat="43.7701" lon="3.80943">
        <ele>284</ele>
        <time>2019-01-28T13:47:26Z</time>
      </trkpt>
      <trkpt lat="43.77009" lon="3.80941">
        <ele>284</ele>
        <time>2019-01-28T13:47:26Z</time>
      </trkpt>
      <trkpt lat="43.77007" lon="3.80937">
        <ele>284</ele>
        <time>2019-01-28T13:47:26Z</time>
      </trkpt>
      <trkpt lat="43.77006" lon="3.80934">
        <ele>284</ele>
        <time>2019-01-28T13:47:26Z</time>
      </trkpt>
      <trkpt lat="43.77003" lon="3.80928">
        <ele>284</ele>
        <time>2019-01-28T13:47:42Z</time>
      </trkpt>
      <trkpt lat="43.77" lon="3.80924">
        <ele>284</ele>
        <time>2019-01-28T13:47:42Z</time>
      </trkpt>
      <trkpt lat="43.76997" lon="3.8092">
        <ele>284</ele>
        <time>2019-01-28T13:47:42Z</time>
      </trkpt>
      <trkpt lat="43.76995" lon="3.80916">
        <ele>284</ele>
        <time>2019-01-28T13:47:42Z</time>
      </trkpt>
      <trkpt lat="43.76992" lon="3.80911">
        <ele>284</ele>
        <time>2019-01-28T13:47:58Z</time>
      </trkpt>
      <trkpt lat="43.7699" lon="3.80906">
        <ele>284</ele>
        <time>2019-01-28T13:47:58Z</time>
      </trkpt>
      <trkpt lat="43.76987" lon="3.809">
        <ele>284</ele>
        <time>2019-01-28T13:47:58Z</time>
      </trkpt>
      <trkpt lat="43.76984" lon="3.80896">
        <ele>284</ele>
        <time>2019-01-28T13:47:58Z</time>
      </trkpt>
      <trkpt lat="43.76981" lon="3.8089">
        <ele>284</ele>
        <time>2019-01-28T13:48:14Z</time>
      </trkpt>
      <trkpt lat="43.7698" lon="3.80884">
        <ele>284</ele>
        <time>2019-01-28T13:48:14Z</time>
      </trkpt>
      <trkpt lat="43.76978" lon="3.80879">
        <ele>284</ele>
        <time>2019-01-28T13:48:14Z</time>
      </trkpt>
      <trkpt lat="43.76976" lon="3.80874">
        <ele>306</ele>
        <time>2019-01-28T13:48:14Z</time>
      </trkpt>
      <trkpt lat="43.76974" lon="3.80869">
        <ele>306</ele>
        <time>2019-01-28T13:48:30Z</time>
      </trkpt>
      <trkpt lat="43.76971" lon="3.80864">
        <ele>306</ele>
        <time>2019-01-28T13:48:30Z</time>
      </trkpt>
      <trkpt lat="43.76968" lon="3.80859">
        <ele>306</ele>
        <time>2019-01-28T13:48:30Z</time>
      </trkpt>
      <trkpt lat="43.76965" lon="3.80853">
        <ele>306</ele>
        <time>2019-01-28T13:48:30Z</time>
      </trkpt>
      <trkpt lat="43.76962" lon="3.80849">
        <ele>306</ele>
        <time>2019-01-28T13:48:46Z</time>
      </trkpt>
      <trkpt lat="43.7696" lon="3.80846">
        <ele>306</ele>
        <time>2019-01-28T13:48:46Z</time>
      </trkpt>
      <trkpt lat="43.76958" lon="3.80839">
        <ele>286</ele>
        <time>2019-01-28T13:48:46Z</time>
      </trkpt>
      <trkpt lat="43.76956" lon="3.80837">
        <ele>286</ele>
        <time>2019-01-28T13:48:46Z</time>
      </trkpt>
      <trkpt lat="43.76955" lon="3.80834">
        <ele>286</ele>
        <time>2019-01-28T13:49:02Z</time>
      </trkpt>
      <trkpt lat="43.7695" lon="3.80829">
        <ele>286</ele>
        <time>2019-01-28T13:49:02Z</time>
      </trkpt>
      <trkpt lat="43.76946" lon="3.80825">
        <ele>286</ele>
        <time>2019-01-28T13:49:02Z</time>
      </trkpt>
      <trkpt lat="43.76943" lon="3.80822">
        <ele>286</ele>
        <time>2019-01-28T13:49:02Z</time>
      </trkpt>
      <trkpt lat="43.76939" lon="3.80818">
        <ele>286</ele>
        <time>2019-01-28T13:49:18Z</time>
      </trkpt>
      <trkpt lat="43.76935" lon="3.80816">
        <ele>286</ele>
        <time>2019-01-28T13:49:18Z</time>
      </trkpt>
      <trkpt lat="43.76932" lon="3.80813">
        <ele>286</ele>
        <time>2019-01-28T13:49:18Z</time>
      </trkpt>
      <trkpt lat="43.76929" lon="3.80808">
        <ele>286</ele>
        <time>2019-01-28T13:49:18Z</time>
      </trkpt>
      <trkpt lat="43.76925" lon="3.80803">
        <ele>286</ele>
        <time>2019-01-28T13:49:34Z</time>
      </trkpt>
      <trkpt lat="43.76923" lon="3.80798">
        <ele>286</ele>
        <time>2019-01-28T13:49:34Z</time>
      </trkpt>
      <trkpt lat="43.76918" lon="3.80792">
        <ele>286</ele>
        <time>2019-01-28T13:49:34Z</time>
      </trkpt>
      <trkpt lat="43.76914" lon="3.80787">
        <ele>310</ele>
        <time>2019-01-28T13:49:34Z</time>
      </trkpt>
      <trkpt lat="43.7691" lon="3.80782">
        <ele>310</ele>
        <time>2019-01-28T13:49:50Z</time>
      </trkpt>
      <trkpt lat="43.76906" lon="3.80778">
        <ele>310</ele>
        <time>2019-01-28T13:49:50Z</time>
      </trkpt>
      <trkpt lat="43.76903" lon="3.80774">
        <ele>310</ele>
        <time>2019-01-28T13:49:50Z</time>
      </trkpt>
      <trkpt lat="43.76899" lon="3.80771">
        <ele>310</ele>
        <time>2019-01-28T13:49:50Z</time>
      </trkpt>
      <trkpt lat="43.76897" lon="3.80766">
        <ele>310</ele>
        <time>2019-01-28T13:50:06Z</time>
      </trkpt>
      <trkpt lat="43.76895" lon="3.80761">
        <ele>310</ele>
        <time>2019-01-28T13:50:06Z</time>
      </trkpt>
      <trkpt lat="43.76891" lon="3.80757">
        <ele>310</ele>
        <time>2019-01-28T13:50:06Z</time>
      </trkpt>
      <trkpt lat="43.76887" lon="3.80754">
        <ele>310</ele>
        <time>2019-01-28T13:50:06Z</time>
      </trkpt>
      <trkpt lat="43.76884" lon="3.80748">
        <ele>310</ele>
        <time>2019-01-28T13:50:22Z</time>
      </trkpt>
      <trkpt lat="43.76878" lon="3.80745">
        <ele>310</ele>
        <time>2019-01-28T13:50:22Z</time>
      </trkpt>
      <trkpt lat="43.76873" lon="3.80742">
        <ele>304</ele>
        <time>2019-01-28T13:50:22Z</time>
      </trkpt>
      <trkpt lat="43.76867" lon="3.80741">
        <ele>304</ele>
        <time>2019-01-28T13:50:22Z</time>
      </trkpt>
      <trkpt lat="43.76861" lon="3.80742">
        <ele>304</ele>
        <time>2019-01-28T13:50:38Z</time>
      </trkpt>
      <trkpt lat="43.76859" lon="3.80744">
        <ele>304</ele>
        <time>2019-01-28T13:50:38Z</time>
      </trkpt>
      <trkpt lat="43.76854" lon="3.80747">
        <ele>304</ele>
        <time>2019-01-28T13:50:38Z</time>
      </trkpt>
      <trkpt lat="43.76849" lon="3.80749">
        <ele>304</ele>
        <time>2019-01-28T13:50:38Z</time>
      </trkpt>
      <trkpt lat="43.76842" lon="3.8075">
        <ele>304</ele>
        <time>2019-01-28T13:50:54Z</time>
      </trkpt>
      <trkpt lat="43.76836" lon="3.80748">
        <ele>304</ele>
        <time>2019-01-28T13:50:54Z</time>
      </trkpt>
      <trkpt lat="43.7683" lon="3.80746">
        <ele>304</ele>
        <time>2019-01-28T13:50:54Z</time>
      </trkpt>
      <trkpt lat="43.76825" lon="3.80746">
        <ele>304</ele>
        <time>2019-01-28T13:50:54Z</time>
      </trkpt>
      <trkpt lat="43.76819" lon="3.80748">
        <ele>304</ele>
        <time>2019-01-28T13:51:10Z</time>
      </trkpt>
      <trkpt lat="43.76814" lon="3.80749">
        <ele>304</ele>
        <time>2019-01-28T13:51:10Z</time>
      </trkpt>
      <trkpt lat="43.76809" lon="3.80748">
        <ele>304</ele>
        <time>2019-01-28T13:51:10Z</time>
      </trkpt>
      <trkpt lat="43.76805" lon="3.80748">
        <ele>304</ele>
        <time>2019-01-28T13:51:10Z</time>
      </trkpt>
      <trkpt lat="43.76801" lon="3.80747">
        <ele>304</ele>
        <time>2019-01-28T13:51:26Z</time>
      </trkpt>
      <trkpt lat="43.76796" lon="3.80748">
        <ele>304</ele>
        <time>2019-01-28T13:51:26Z</time>
      </trkpt>
      <trkpt lat="43.76792" lon="3.8075">
        <ele>304</ele>
        <time>2019-01-28T13:51:26Z</time>
      </trkpt>
      <trkpt lat="43.76787" lon="3.80752">
        <ele>312</ele>
        <time>2019-01-28T13:51:26Z</time>
      </trkpt>
      <trkpt lat="43.76781" lon="3.80755">
        <ele>312</ele>
        <time>2019-01-28T13:51:42Z</time>
      </trkpt>
      <trkpt lat="43.76776" lon="3.80756">
        <ele>312</ele>
        <time>2019-01-28T13:51:42Z</time>
      </trkpt>
      <trkpt lat="43.76771" lon="3.80757">
        <ele>312</ele>
        <time>2019-01-28T13:51:42Z</time>
      </trkpt>
      <trkpt lat="43.76768" lon="3.80757">
        <ele>312</ele>
        <time>2019-01-28T13:51:42Z</time>
      </trkpt>
      <trkpt lat="43.76762" lon="3.80758">
        <ele>312</ele>
        <time>2019-01-28T13:51:58Z</time>
      </trkpt>
      <trkpt lat="43.76757" lon="3.8076">
        <ele>312</ele>
        <time>2019-01-28T13:51:58Z</time>
      </trkpt>
      <trkpt lat="43.76751" lon="3.8076">
        <ele>312</ele>
        <time>2019-01-28T13:51:58Z</time>
      </trkpt>
      <trkpt lat="43.76746" lon="3.80762">
        <ele>312</ele>
        <time>2019-01-28T13:51:58Z</time>
      </trkpt>
      <trkpt lat="43.76742" lon="3.80759">
        <ele>312</ele>
        <time>2019-01-28T13:52:14Z</time>
      </trkpt>
      <trkpt lat="43.76737" lon="3.80762">
        <ele>312</ele>
        <time>2019-01-28T13:52:14Z</time>
      </trkpt>
      <trkpt lat="43.76733" lon="3.80764">
        <ele>312</ele>
        <time>2019-01-28T13:52:14Z</time>
      </trkpt>
      <trkpt lat="43.7673" lon="3.80765">
        <ele>312</ele>
        <time>2019-01-28T13:52:14Z</time>
      </trkpt>
      <trkpt lat="43.76725" lon="3.80764">
        <ele>312</ele>
        <time>2019-01-28T13:52:30Z</time>
      </trkpt>
      <trkpt lat="43.7672" lon="3.80764">
        <ele>312</ele>
        <time>2019-01-28T13:52:30Z</time>
      </trkpt>
      <trkpt lat="43.76715" lon="3.80766">
        <ele>312</ele>
        <time>2019-01-28T13:52:30Z</time>
      </trkpt>
      <trkpt lat="43.76712" lon="3.80769">
        <ele>312</ele>
        <time>2019-01-28T13:52:30Z</time>
      </trkpt>
      <trkpt lat="43.76709" lon="3.80769">
        <ele>312</ele>
        <time>2019-01-28T13:52:46Z</time>
      </trkpt>
      <trkpt lat="43.76706" lon="3.80768">
        <ele>309</ele>
        <time>2019-01-28T13:52:46Z</time>
      </trkpt>
      <trkpt lat="43.76701" lon="3.80767">
        <ele>309</ele>
        <time>2019-01-28T13:52:46Z</time>
      </trkpt>
      <trkpt lat="43.76697" lon="3.80765">
        <ele>309</ele>
        <time>2019-01-28T13:52:46Z</time>
      </trkpt>
      <trkpt lat="43.76693" lon="3.80762">
        <ele>309</ele>
        <time>2019-01-28T13:53:02Z</time>
      </trkpt>
      <trkpt lat="43.76689" lon="3.8076">
        <ele>309</ele>
        <time>2019-01-28T13:53:02Z</time>
      </trkpt>
      <trkpt lat="43.76685" lon="3.80757">
        <ele>309</ele>
        <time>2019-01-28T13:53:02Z</time>
      </trkpt>
      <trkpt lat="43.76681" lon="3.80755">
        <ele>309</ele>
        <time>2019-01-28T13:53:02Z</time>
      </trkpt>
      <trkpt lat="43.76675" lon="3.80753">
        <ele>309</ele>
        <time>2019-01-28T13:53:18Z</time>
      </trkpt>
      <trkpt lat="43.7667" lon="3.80751">
        <ele>309</ele>
        <time>2019-01-28T13:53:18Z</time>
      </trkpt>
      <trkpt lat="43.76665" lon="3.8075">
        <ele>309</ele>
        <time>2019-01-28T13:53:18Z</time>
      </trkpt>
      <trkpt lat="43.76661" lon="3.80749">
        <ele>309</ele>
        <time>2019-01-28T13:53:18Z</time>
      </trkpt>
      <trkpt lat="43.76657" lon="3.80747">
        <ele>309</ele>
        <time>2019-01-28T13:53:34Z</time>
      </trkpt>
      <trkpt lat="43.76651" lon="3.80747">
        <ele>309</ele>
        <time>2019-01-28T13:53:34Z</time>
      </trkpt>
      <trkpt lat="43.76646" lon="3.80747">
        <ele>309</ele>
        <time>2019-01-28T13:53:34Z</time>
      </trkpt>
      <trkpt lat="43.76641" lon="3.80747">
        <ele>309</ele>
        <time>2019-01-28T13:53:34Z</time>
      </trkpt>
      <trkpt lat="43.76636" lon="3.80748">
        <ele>309</ele>
        <time>2019-01-28T13:53:50Z</time>
      </trkpt>
      <trkpt lat="43.76631" lon="3.80746">
        <ele>309</ele>
        <time>2019-01-28T13:53:50Z</time>
      </trkpt>
      <trkpt lat="43.76626" lon="3.80746">
        <ele>309</ele>
        <time>2019-01-28T13:53:50Z</time>
      </trkpt>
      <trkpt lat="43.76622" lon="3.80745">
        <ele>298</ele>
        <time>2019-01-28T13:53:50Z</time>
      </trkpt>
      <trkpt lat="43.76617" lon="3.80745">
        <ele>298</ele>
        <time>2019-01-28T13:54:06Z</time>
      </trkpt>
      <trkpt lat="43.76612" lon="3.80745">
        <ele>298</ele>
        <time>2019-01-28T13:54:06Z</time>
      </trkpt>
      <trkpt lat="43.76608" lon="3.80745">
        <ele>298</ele>
        <time>2019-01-28T13:54:06Z</time>
      </trkpt>
      <trkpt lat="43.76604" lon="3.80744">
        <ele>298</ele>
        <time>2019-01-28T13:54:06Z</time>
      </trkpt>
      <trkpt lat="43.766" lon="3.80745">
        <ele>298</ele>
        <time>2019-01-28T13:54:22Z</time>
      </trkpt>
      <trkpt lat="43.76595" lon="3.80743">
        <ele>298</ele>
        <time>2019-01-28T13:54:22Z</time>
      </trkpt>
      <trkpt lat="43.76591" lon="3.80741">
        <ele>298</ele>
        <time>2019-01-28T13:54:22Z</time>
      </trkpt>
      <trkpt lat="43.76586" lon="3.8074">
        <ele>298</ele>
        <time>2019-01-28T13:54:22Z</time>
      </trkpt>
      <trkpt lat="43.76582" lon="3.80739">
        <ele>298</ele>
        <time>2019-01-28T13:54:38Z</time>
      </trkpt>
      <trkpt lat="43.76577" lon="3.80739">
        <ele>298</ele>
        <time>2019-01-28T13:54:38Z</time>
      </trkpt>
      <trkpt lat="43.76572" lon="3.80739">
        <ele>298</ele>
        <time>2019-01-28T13:54:38Z</time>
      </trkpt>
      <trkpt lat="43.76566" lon="3.80739">
        <ele>298</ele>
        <time>2019-01-28T13:54:38Z</time>
      </trkpt>
      <trkpt lat="43.76562" lon="3.80737">
        <ele>298</ele>
        <time>2019-01-28T13:54:54Z</time>
      </trkpt>
      <trkpt lat="43.76558" lon="3.80734">
        <ele>298</ele>
        <time>2019-01-28T13:54:54Z</time>
      </trkpt>
      <trkpt lat="43.76554" lon="3.80731">
        <ele>298</ele>
        <time>2019-01-28T13:54:54Z</time>
      </trkpt>
      <trkpt lat="43.76549" lon="3.80728">
        <ele>298</ele>
        <time>2019-01-28T13:54:54Z</time>
      </trkpt>
      <trkpt lat="43.76544" lon="3.80725">
        <ele>298</ele>
        <time>2019-01-28T13:55:10Z</time>
      </trkpt>
      <trkpt lat="43.76539" lon="3.80722">
        <ele>294</ele>
        <time>2019-01-28T13:55:10Z</time>
      </trkpt>
      <trkpt lat="43.76537" lon="3.80721">
        <ele>294</ele>
        <time>2019-01-28T13:55:10Z</time>
      </trkpt>
      <trkpt lat="43.76534" lon="3.80719">
        <ele>294</ele>
        <time>2019-01-28T13:55:10Z</time>
      </trkpt>
      <trkpt lat="43.76529" lon="3.80721">
        <ele>294</ele>
        <time>2019-01-28T13:55:34Z</time>
      </trkpt>
      <trkpt lat="43.76526" lon="3.80725">
        <ele>294</ele>
        <time>2019-01-28T13:55:34Z</time>
      </trkpt>
      <trkpt lat="43.76528" lon="3.80734">
        <ele>294</ele>
        <time>2019-01-28T13:55:34Z</time>
      </trkpt>
      <trkpt lat="43.76529" lon="3.80739">
        <ele>294</ele>
        <time>2019-01-28T13:55:34Z</time>
      </trkpt>
    </trkseg>
  </trk>
</gpx>